<?xml version="1.0" encoding="UTF-8" standalone="no" ?>
<gpx xmlns="http://www.topografix.com/GPX/1/1" xmlns:xsi="http://www.w3.org/2001/XMLSchema-instance" xsi:schemaLocation="http://www.topografix.com/GPX/1/1 http://www.topografix.com/GPX/1/1/gpx.xsd" version="1.1" creator="VisuGPX - https://www.visugpx.com">
  <metadata>
    <name>Launaguet-Mezens-Launaguet</name>
  </metadata>
  <trk>
    <name><![CDATA[Launaguet-Mezens-Launaguet]]></name>
    <extensions>
      <line xmlns="http://www.topografix.com/GPX/gpx_style/0/2">
        <color>0000FF</color>
        <width>4</width>
          <extensions>
            <sens>1</sens>
          </extensions>
      </line>
    </extensions>
    <trkseg>
      <trkpt lat="43.65569" lon="1.4459">
        <ele>191.07297</ele>
        <time>2022-05-13T12:49:29.911Z</time>
      </trkpt>
      <trkpt lat="43.65565" lon="1.44601">
        <ele>191.07297</ele>
        <time>2022-05-13T12:50:02.121Z</time>
      </trkpt>
      <trkpt lat="43.65561" lon="1.44621">
        <ele>191.07297</ele>
        <time>2022-05-13T12:50:40.134Z</time>
      </trkpt>
      <trkpt lat="43.65569" lon="1.44625">
        <ele>191.07297</ele>
        <time>2022-05-13T12:50:43.109Z</time>
      </trkpt>
      <trkpt lat="43.65578" lon="1.4463">
        <ele>191.07297</ele>
        <time>2022-05-13T12:50:46.144Z</time>
      </trkpt>
      <trkpt lat="43.65586" lon="1.44635">
        <ele>191.07297</ele>
        <time>2022-05-13T12:50:49.142Z</time>
      </trkpt>
      <trkpt lat="43.65595" lon="1.44639">
        <ele>191.07297</ele>
        <time>2022-05-13T12:50:52.149Z</time>
      </trkpt>
      <trkpt lat="43.65606" lon="1.44646">
        <ele>191.07297</ele>
        <time>2022-05-13T12:50:56.141Z</time>
      </trkpt>
      <trkpt lat="43.65608" lon="1.44659">
        <ele>191.07297</ele>
        <time>2022-05-13T12:51:00.137Z</time>
      </trkpt>
      <trkpt lat="43.65607" lon="1.44672">
        <ele>191.061152</ele>
        <time>2022-05-13T12:51:05.135Z</time>
      </trkpt>
      <trkpt lat="43.65616" lon="1.44664">
        <ele>190.942299</ele>
        <time>2022-05-13T12:51:10.142Z</time>
      </trkpt>
      <trkpt lat="43.65625" lon="1.44659">
        <ele>190.841521</ele>
        <time>2022-05-13T12:51:13.129Z</time>
      </trkpt>
      <trkpt lat="43.65491" lon="1.44923">
        <ele>134</ele>
      </trkpt>
      <trkpt lat="43.65621" lon="1.45155">
        <ele>133.3</ele>
      </trkpt>
      <trkpt lat="43.6546" lon="1.45354">
        <ele>134</ele>
      </trkpt>
      <trkpt lat="43.65791" lon="1.45489">
        <ele>135.8</ele>
      </trkpt>
      <trkpt lat="43.65947" lon="1.4544">
        <ele>135.1</ele>
      </trkpt>
      <trkpt lat="43.66199" lon="1.4562">
        <ele>131.7</ele>
      </trkpt>
      <trkpt lat="43.66409" lon="1.44897">
        <ele>187.667928</ele>
        <time>2022-05-13T12:54:50.128Z</time>
      </trkpt>
      <trkpt lat="43.66422" lon="1.449">
        <ele>187.667161</ele>
        <time>2022-05-13T12:54:53.122Z</time>
      </trkpt>
      <trkpt lat="43.66434" lon="1.44903">
        <ele>187.666388</ele>
        <time>2022-05-13T12:54:56.135Z</time>
      </trkpt>
      <trkpt lat="43.66447" lon="1.44903">
        <ele>187.665631</ele>
        <time>2022-05-13T12:54:59.110Z</time>
      </trkpt>
      <trkpt lat="43.6645" lon="1.44891">
        <ele>187.665082</ele>
        <time>2022-05-13T12:55:01.129Z</time>
      </trkpt>
      <trkpt lat="43.66454" lon="1.44879">
        <ele>187.664505</ele>
        <time>2022-05-13T12:55:03.119Z</time>
      </trkpt>
      <trkpt lat="43.66456" lon="1.44866">
        <ele>187.663941</ele>
        <time>2022-05-13T12:55:05.131Z</time>
      </trkpt>
      <trkpt lat="43.66458" lon="1.44853">
        <ele>187.663352</ele>
        <time>2022-05-13T12:55:07.115Z</time>
      </trkpt>
      <trkpt lat="43.66463" lon="1.44841">
        <ele>187.662742</ele>
        <time>2022-05-13T12:55:09.111Z</time>
      </trkpt>
      <trkpt lat="43.66467" lon="1.44827">
        <ele>187.662114</ele>
        <time>2022-05-13T12:55:11.125Z</time>
      </trkpt>
      <trkpt lat="43.66472" lon="1.44815">
        <ele>187.661487</ele>
        <time>2022-05-13T12:55:13.121Z</time>
      </trkpt>
      <trkpt lat="43.66477" lon="1.44803">
        <ele>187.660862</ele>
        <time>2022-05-13T12:55:15.129Z</time>
      </trkpt>
      <trkpt lat="43.66483" lon="1.44791">
        <ele>187.596937</ele>
        <time>2022-05-13T12:55:17.124Z</time>
      </trkpt>
      <trkpt lat="43.66488" lon="1.44778">
        <ele>187.526164</ele>
        <time>2022-05-13T12:55:19.156Z</time>
      </trkpt>
      <trkpt lat="43.66494" lon="1.44765">
        <ele>187.454486</ele>
        <time>2022-05-13T12:55:21.124Z</time>
      </trkpt>
      <trkpt lat="43.66499" lon="1.44752">
        <ele>187.382838</ele>
        <time>2022-05-13T12:55:23.133Z</time>
      </trkpt>
      <trkpt lat="43.66504" lon="1.44739">
        <ele>187.309903</ele>
        <time>2022-05-13T12:55:25.118Z</time>
      </trkpt>
      <trkpt lat="43.66508" lon="1.44726">
        <ele>187.238004</ele>
        <time>2022-05-13T12:55:27.124Z</time>
      </trkpt>
      <trkpt lat="43.66512" lon="1.44714">
        <ele>187.175904</ele>
        <time>2022-05-13T12:55:29.127Z</time>
      </trkpt>
      <trkpt lat="43.66521" lon="1.44712">
        <ele>187.109795</ele>
        <time>2022-05-13T12:55:32.115Z</time>
      </trkpt>
      <trkpt lat="43.66533" lon="1.44719">
        <ele>187.02554</ele>
        <time>2022-05-13T12:55:35.106Z</time>
      </trkpt>
      <trkpt lat="43.66545" lon="1.44727">
        <ele>186.938255</ele>
        <time>2022-05-13T12:55:38.129Z</time>
      </trkpt>
      <trkpt lat="43.66553" lon="1.44733">
        <ele>186.873988</ele>
        <time>2022-05-13T12:55:40.132Z</time>
      </trkpt>
      <trkpt lat="43.66561" lon="1.44742">
        <ele>186.80471</ele>
        <time>2022-05-13T12:55:42.127Z</time>
      </trkpt>
      <trkpt lat="43.66569" lon="1.44753">
        <ele>186.728442</ele>
        <time>2022-05-13T12:55:44.114Z</time>
      </trkpt>
      <trkpt lat="43.66578" lon="1.44765">
        <ele>186.6466</ele>
        <time>2022-05-13T12:55:46.136Z</time>
      </trkpt>
      <trkpt lat="43.66587" lon="1.44778">
        <ele>186.561992</ele>
        <time>2022-05-13T12:55:48.135Z</time>
      </trkpt>
      <trkpt lat="43.66595" lon="1.44791">
        <ele>186.475612</ele>
        <time>2022-05-13T12:55:50.128Z</time>
      </trkpt>
      <trkpt lat="43.66603" lon="1.44805">
        <ele>186.413867</ele>
        <time>2022-05-13T12:55:52.126Z</time>
      </trkpt>
      <trkpt lat="43.66612" lon="1.44818">
        <ele>186.358799</ele>
        <time>2022-05-13T12:55:54.125Z</time>
      </trkpt>
      <trkpt lat="43.6662" lon="1.44832">
        <ele>186.304321</ele>
        <time>2022-05-13T12:55:56.133Z</time>
      </trkpt>
      <trkpt lat="43.66628" lon="1.44845">
        <ele>186.252243</ele>
        <time>2022-05-13T12:55:58.158Z</time>
      </trkpt>
      <trkpt lat="43.66638" lon="1.44854">
        <ele>186.200368</ele>
        <time>2022-05-13T12:56:00.125Z</time>
      </trkpt>
      <trkpt lat="43.66648" lon="1.4486">
        <ele>186.152073</ele>
        <time>2022-05-13T12:56:02.123Z</time>
      </trkpt>
      <trkpt lat="43.6666" lon="1.44862">
        <ele>186.103795</ele>
        <time>2022-05-13T12:56:04.127Z</time>
      </trkpt>
      <trkpt lat="43.66671" lon="1.44861">
        <ele>186.05672</ele>
        <time>2022-05-13T12:56:06.140Z</time>
      </trkpt>
      <trkpt lat="43.66682" lon="1.44859">
        <ele>186.009367</ele>
        <time>2022-05-13T12:56:08.135Z</time>
      </trkpt>
      <trkpt lat="43.66692" lon="1.44855">
        <ele>185.96296</ele>
        <time>2022-05-13T12:56:10.124Z</time>
      </trkpt>
      <trkpt lat="43.66702" lon="1.44849">
        <ele>185.915965</ele>
        <time>2022-05-13T12:56:12.118Z</time>
      </trkpt>
      <trkpt lat="43.66712" lon="1.44842">
        <ele>185.869349</ele>
        <time>2022-05-13T12:56:14.136Z</time>
      </trkpt>
      <trkpt lat="43.66721" lon="1.44834">
        <ele>185.822358</ele>
        <time>2022-05-13T12:56:16.123Z</time>
      </trkpt>
      <trkpt lat="43.6673" lon="1.44825">
        <ele>185.775368</ele>
        <time>2022-05-13T12:56:18.134Z</time>
      </trkpt>
      <trkpt lat="43.6674" lon="1.4482">
        <ele>185.729639</ele>
        <time>2022-05-13T12:56:20.116Z</time>
      </trkpt>
      <trkpt lat="43.66749" lon="1.44822">
        <ele>185.690035</ele>
        <time>2022-05-13T12:56:22.111Z</time>
      </trkpt>
      <trkpt lat="43.66756" lon="1.44831">
        <ele>185.678023</ele>
        <time>2022-05-13T12:56:24.106Z</time>
      </trkpt>
      <trkpt lat="43.66758" lon="1.44844">
        <ele>185.666253</ele>
        <time>2022-05-13T12:56:26.129Z</time>
      </trkpt>
      <trkpt lat="43.66759" lon="1.44858">
        <ele>185.653736</ele>
        <time>2022-05-13T12:56:28.124Z</time>
      </trkpt>
      <trkpt lat="43.66763" lon="1.44871">
        <ele>185.640472</ele>
        <time>2022-05-13T12:56:30.134Z</time>
      </trkpt>
      <trkpt lat="43.6677" lon="1.44882">
        <ele>185.627056</ele>
        <time>2022-05-13T12:56:32.123Z</time>
      </trkpt>
      <trkpt lat="43.66778" lon="1.44891">
        <ele>185.613917</ele>
        <time>2022-05-13T12:56:34.125Z</time>
      </trkpt>
      <trkpt lat="43.66787" lon="1.44899">
        <ele>185.600461</ele>
        <time>2022-05-13T12:56:36.131Z</time>
      </trkpt>
      <trkpt lat="43.66797" lon="1.44906">
        <ele>185.587181</ele>
        <time>2022-05-13T12:56:38.133Z</time>
      </trkpt>
      <trkpt lat="43.66807" lon="1.44911">
        <ele>185.574167</ele>
        <time>2022-05-13T12:56:40.132Z</time>
      </trkpt>
      <trkpt lat="43.66816" lon="1.44915">
        <ele>185.561722</ele>
        <time>2022-05-13T12:56:42.124Z</time>
      </trkpt>
      <trkpt lat="43.66826" lon="1.44919">
        <ele>185.548661</ele>
        <time>2022-05-13T12:56:44.126Z</time>
      </trkpt>
      <trkpt lat="43.66836" lon="1.44923">
        <ele>185.536009</ele>
        <time>2022-05-13T12:56:46.143Z</time>
      </trkpt>
      <trkpt lat="43.66846" lon="1.44925">
        <ele>185.523278</ele>
        <time>2022-05-13T12:56:48.111Z</time>
      </trkpt>
      <trkpt lat="43.66856" lon="1.44929">
        <ele>185.510856</ele>
        <time>2022-05-13T12:56:50.149Z</time>
      </trkpt>
      <trkpt lat="43.66865" lon="1.44931">
        <ele>185.498591</ele>
        <time>2022-05-13T12:56:52.136Z</time>
      </trkpt>
      <trkpt lat="43.66875" lon="1.44933">
        <ele>185.486079</ele>
        <time>2022-05-13T12:56:54.128Z</time>
      </trkpt>
      <trkpt lat="43.66885" lon="1.44935">
        <ele>185.474152</ele>
        <time>2022-05-13T12:56:56.145Z</time>
      </trkpt>
      <trkpt lat="43.66894" lon="1.44938">
        <ele>185.472188</ele>
        <time>2022-05-13T12:56:58.135Z</time>
      </trkpt>
      <trkpt lat="43.66903" lon="1.4494">
        <ele>185.508508</ele>
        <time>2022-05-13T12:57:00.124Z</time>
      </trkpt>
      <trkpt lat="43.66913" lon="1.44943">
        <ele>185.543941</ele>
        <time>2022-05-13T12:57:02.129Z</time>
      </trkpt>
      <trkpt lat="43.66921" lon="1.44948">
        <ele>185.57969</ele>
        <time>2022-05-13T12:57:04.112Z</time>
      </trkpt>
      <trkpt lat="43.66929" lon="1.44956">
        <ele>185.616486</ele>
        <time>2022-05-13T12:57:06.130Z</time>
      </trkpt>
      <trkpt lat="43.66934" lon="1.44966">
        <ele>185.651429</ele>
        <time>2022-05-13T12:57:08.126Z</time>
      </trkpt>
      <trkpt lat="43.66939" lon="1.44979">
        <ele>185.688429</ele>
        <time>2022-05-13T12:57:10.126Z</time>
      </trkpt>
      <trkpt lat="43.66943" lon="1.44991">
        <ele>185.726995</ele>
        <time>2022-05-13T12:57:12.125Z</time>
      </trkpt>
      <trkpt lat="43.66947" lon="1.45004">
        <ele>185.765071</ele>
        <time>2022-05-13T12:57:14.133Z</time>
      </trkpt>
      <trkpt lat="43.66952" lon="1.45016">
        <ele>185.804154</ele>
        <time>2022-05-13T12:57:16.128Z</time>
      </trkpt>
      <trkpt lat="43.66957" lon="1.45029">
        <ele>185.8439</ele>
        <time>2022-05-13T12:57:18.136Z</time>
      </trkpt>
      <trkpt lat="43.66962" lon="1.45042">
        <ele>185.882921</ele>
        <time>2022-05-13T12:57:20.153Z</time>
      </trkpt>
      <trkpt lat="43.66968" lon="1.45053">
        <ele>185.921408</ele>
        <time>2022-05-13T12:57:22.135Z</time>
      </trkpt>
      <trkpt lat="43.66973" lon="1.45064">
        <ele>185.956988</ele>
        <time>2022-05-13T12:57:24.145Z</time>
      </trkpt>
      <trkpt lat="43.66979" lon="1.45074">
        <ele>185.993465</ele>
        <time>2022-05-13T12:57:26.145Z</time>
      </trkpt>
      <trkpt lat="43.66985" lon="1.45085">
        <ele>186.029739</ele>
        <time>2022-05-13T12:57:28.160Z</time>
      </trkpt>
      <trkpt lat="43.6699" lon="1.45095">
        <ele>186.064879</ele>
        <time>2022-05-13T12:57:30.153Z</time>
      </trkpt>
      <trkpt lat="43.66995" lon="1.45106">
        <ele>186.099136</ele>
        <time>2022-05-13T12:57:32.140Z</time>
      </trkpt>
      <trkpt lat="43.67001" lon="1.45117">
        <ele>186.137024</ele>
        <time>2022-05-13T12:57:34.146Z</time>
      </trkpt>
      <trkpt lat="43.67006" lon="1.45128">
        <ele>186.245016</ele>
        <time>2022-05-13T12:57:36.127Z</time>
      </trkpt>
      <trkpt lat="43.67011" lon="1.45141">
        <ele>186.383316</ele>
        <time>2022-05-13T12:57:38.136Z</time>
      </trkpt>
      <trkpt lat="43.67016" lon="1.45155">
        <ele>186.534238</ele>
        <time>2022-05-13T12:57:40.130Z</time>
      </trkpt>
      <trkpt lat="43.67022" lon="1.45165">
        <ele>186.673822</ele>
        <time>2022-05-13T12:57:42.121Z</time>
      </trkpt>
      <trkpt lat="43.67032" lon="1.45162">
        <ele>186.812876</ele>
        <time>2022-05-13T12:57:44.125Z</time>
      </trkpt>
      <trkpt lat="43.67042" lon="1.45156">
        <ele>186.959993</ele>
        <time>2022-05-13T12:57:46.130Z</time>
      </trkpt>
      <trkpt lat="43.67051" lon="1.45149">
        <ele>187.105126</ele>
        <time>2022-05-13T12:57:48.123Z</time>
      </trkpt>
      <trkpt lat="43.67061" lon="1.45142">
        <ele>187.247953</ele>
        <time>2022-05-13T12:57:50.133Z</time>
      </trkpt>
      <trkpt lat="43.67071" lon="1.45143">
        <ele>187.392705</ele>
        <time>2022-05-13T12:57:52.131Z</time>
      </trkpt>
      <trkpt lat="43.67078" lon="1.45156">
        <ele>187.546141</ele>
        <time>2022-05-13T12:57:54.126Z</time>
      </trkpt>
      <trkpt lat="43.67087" lon="1.45161">
        <ele>187.676584</ele>
        <time>2022-05-13T12:57:56.127Z</time>
      </trkpt>
      <trkpt lat="43.67099" lon="1.45157">
        <ele>187.853314</ele>
        <time>2022-05-13T12:57:59.126Z</time>
      </trkpt>
      <trkpt lat="43.67112" lon="1.45152">
        <ele>188.028897</ele>
        <time>2022-05-13T12:58:02.128Z</time>
      </trkpt>
      <trkpt lat="43.67123" lon="1.45146">
        <ele>188.192509</ele>
        <time>2022-05-13T12:58:05.130Z</time>
      </trkpt>
      <trkpt lat="43.67134" lon="1.4514">
        <ele>188.353392</ele>
        <time>2022-05-13T12:58:08.131Z</time>
      </trkpt>
      <trkpt lat="43.67145" lon="1.45136">
        <ele>188.51088</ele>
        <time>2022-05-13T12:58:11.133Z</time>
      </trkpt>
      <trkpt lat="43.67152" lon="1.45148">
        <ele>188.606711</ele>
        <time>2022-05-13T12:58:14.127Z</time>
      </trkpt>
      <trkpt lat="43.67163" lon="1.4515">
        <ele>188.622225</ele>
        <time>2022-05-13T12:58:17.126Z</time>
      </trkpt>
      <trkpt lat="43.67175" lon="1.45143">
        <ele>188.641794</ele>
        <time>2022-05-13T12:58:20.131Z</time>
      </trkpt>
      <trkpt lat="43.67184" lon="1.45138">
        <ele>188.655692</ele>
        <time>2022-05-13T12:58:22.128Z</time>
      </trkpt>
      <trkpt lat="43.67193" lon="1.45132">
        <ele>188.669889</ele>
        <time>2022-05-13T12:58:24.140Z</time>
      </trkpt>
      <trkpt lat="43.67201" lon="1.45124">
        <ele>188.683989</ele>
        <time>2022-05-13T12:58:26.130Z</time>
      </trkpt>
      <trkpt lat="43.67213" lon="1.45124">
        <ele>188.70261</ele>
        <time>2022-05-13T12:58:29.117Z</time>
      </trkpt>
      <trkpt lat="43.67219" lon="1.4514">
        <ele>188.721478</ele>
        <time>2022-05-13T12:58:32.126Z</time>
      </trkpt>
      <trkpt lat="43.67222" lon="1.45152">
        <ele>188.735446</ele>
        <time>2022-05-13T12:58:34.119Z</time>
      </trkpt>
      <trkpt lat="43.67225" lon="1.45166">
        <ele>188.750455</ele>
        <time>2022-05-13T12:58:36.111Z</time>
      </trkpt>
      <trkpt lat="43.67228" lon="1.45179">
        <ele>188.76542</ele>
        <time>2022-05-13T12:58:38.129Z</time>
      </trkpt>
      <trkpt lat="43.67231" lon="1.45193">
        <ele>188.780173</ele>
        <time>2022-05-13T12:58:40.153Z</time>
      </trkpt>
      <trkpt lat="43.67234" lon="1.45206">
        <ele>188.794921</ele>
        <time>2022-05-13T12:58:42.140Z</time>
      </trkpt>
      <trkpt lat="43.67238" lon="1.45218">
        <ele>188.809121</ele>
        <time>2022-05-13T12:58:44.121Z</time>
      </trkpt>
      <trkpt lat="43.67241" lon="1.45231">
        <ele>188.823272</ele>
        <time>2022-05-13T12:58:46.125Z</time>
      </trkpt>
      <trkpt lat="43.67244" lon="1.45243">
        <ele>188.837373</ele>
        <time>2022-05-13T12:58:48.132Z</time>
      </trkpt>
      <trkpt lat="43.67247" lon="1.45256">
        <ele>188.851623</ele>
        <time>2022-05-13T12:58:51.123Z</time>
      </trkpt>
      <trkpt lat="43.67357" lon="1.45483">
        <ele>135</ele>
      </trkpt>
      <trkpt lat="43.67596" lon="1.45294">
        <ele>133.4</ele>
      </trkpt>
      <trkpt lat="43.67847" lon="1.45468">
        <ele>134</ele>
      </trkpt>
      <trkpt lat="43.67941" lon="1.45359">
        <ele>191.034562</ele>
        <time>2022-05-13T13:03:21.124Z</time>
      </trkpt>
      <trkpt lat="43.67947" lon="1.45369">
        <ele>191.049724</ele>
        <time>2022-05-13T13:03:26.134Z</time>
      </trkpt>
      <trkpt lat="43.67954" lon="1.45379">
        <ele>191.067038</ele>
        <time>2022-05-13T13:03:33.124Z</time>
      </trkpt>
      <trkpt lat="43.67965" lon="1.45372">
        <ele>191.086542</ele>
        <time>2022-05-13T13:03:36.127Z</time>
      </trkpt>
      <trkpt lat="43.67974" lon="1.45367">
        <ele>191.101909</ele>
        <time>2022-05-13T13:03:38.109Z</time>
      </trkpt>
      <trkpt lat="43.67982" lon="1.45359">
        <ele>191.118169</ele>
        <time>2022-05-13T13:03:40.147Z</time>
      </trkpt>
      <trkpt lat="43.6799" lon="1.45351">
        <ele>191.134698</ele>
        <time>2022-05-13T13:03:42.123Z</time>
      </trkpt>
      <trkpt lat="43.67999" lon="1.45344">
        <ele>191.151328</ele>
        <time>2022-05-13T13:03:44.138Z</time>
      </trkpt>
      <trkpt lat="43.68008" lon="1.45338">
        <ele>191.16773</ele>
        <time>2022-05-13T13:03:46.125Z</time>
      </trkpt>
      <trkpt lat="43.68017" lon="1.45331">
        <ele>191.184672</ele>
        <time>2022-05-13T13:03:48.129Z</time>
      </trkpt>
      <trkpt lat="43.68026" lon="1.45324">
        <ele>191.201415</ele>
        <time>2022-05-13T13:03:50.128Z</time>
      </trkpt>
      <trkpt lat="43.68035" lon="1.45316">
        <ele>191.218897</ele>
        <time>2022-05-13T13:03:52.140Z</time>
      </trkpt>
      <trkpt lat="43.68045" lon="1.45309">
        <ele>191.236193</ele>
        <time>2022-05-13T13:03:54.136Z</time>
      </trkpt>
      <trkpt lat="43.68054" lon="1.45301">
        <ele>191.253509</ele>
        <time>2022-05-13T13:03:56.134Z</time>
      </trkpt>
      <trkpt lat="43.68063" lon="1.45294">
        <ele>191.270791</ele>
        <time>2022-05-13T13:03:58.123Z</time>
      </trkpt>
      <trkpt lat="43.68072" lon="1.45286">
        <ele>191.287753</ele>
        <time>2022-05-13T13:04:00.129Z</time>
      </trkpt>
      <trkpt lat="43.6808" lon="1.45278">
        <ele>191.303373</ele>
        <time>2022-05-13T13:04:02.116Z</time>
      </trkpt>
      <trkpt lat="43.68089" lon="1.4527">
        <ele>191.319125</ele>
        <time>2022-05-13T13:04:04.142Z</time>
      </trkpt>
      <trkpt lat="43.68098" lon="1.45263">
        <ele>191.335017</ele>
        <time>2022-05-13T13:04:06.129Z</time>
      </trkpt>
      <trkpt lat="43.68107" lon="1.45255">
        <ele>191.351023</ele>
        <time>2022-05-13T13:04:08.131Z</time>
      </trkpt>
      <trkpt lat="43.68116" lon="1.45247">
        <ele>191.366829</ele>
        <time>2022-05-13T13:04:10.151Z</time>
      </trkpt>
      <trkpt lat="43.68125" lon="1.45239">
        <ele>191.382759</ele>
        <time>2022-05-13T13:04:12.127Z</time>
      </trkpt>
      <trkpt lat="43.68134" lon="1.45231">
        <ele>191.398824</ele>
        <time>2022-05-13T13:04:14.144Z</time>
      </trkpt>
      <trkpt lat="43.68143" lon="1.45223">
        <ele>191.415007</ele>
        <time>2022-05-13T13:04:16.134Z</time>
      </trkpt>
      <trkpt lat="43.68151" lon="1.45214">
        <ele>191.43126</ele>
        <time>2022-05-13T13:04:18.138Z</time>
      </trkpt>
      <trkpt lat="43.6816" lon="1.45205">
        <ele>191.44719</ele>
        <time>2022-05-13T13:04:20.131Z</time>
      </trkpt>
      <trkpt lat="43.68169" lon="1.45218">
        <ele>191.466811</ele>
        <time>2022-05-13T13:04:23.124Z</time>
      </trkpt>
      <trkpt lat="43.68172" lon="1.45233">
        <ele>191.483333</ele>
        <time>2022-05-13T13:04:25.137Z</time>
      </trkpt>
      <trkpt lat="43.68176" lon="1.45247">
        <ele>191.500041</ele>
        <time>2022-05-13T13:04:27.121Z</time>
      </trkpt>
      <trkpt lat="43.6818" lon="1.45262">
        <ele>191.516798</ele>
        <time>2022-05-13T13:04:29.136Z</time>
      </trkpt>
      <trkpt lat="43.68183" lon="1.45276">
        <ele>191.533712</ele>
        <time>2022-05-13T13:04:31.135Z</time>
      </trkpt>
      <trkpt lat="43.68187" lon="1.45291">
        <ele>191.551135</ele>
        <time>2022-05-13T13:04:33.120Z</time>
      </trkpt>
      <trkpt lat="43.68191" lon="1.45306">
        <ele>191.626298</ele>
        <time>2022-05-13T13:04:35.116Z</time>
      </trkpt>
      <trkpt lat="43.68195" lon="1.45321">
        <ele>191.729518</ele>
        <time>2022-05-13T13:04:37.124Z</time>
      </trkpt>
      <trkpt lat="43.68199" lon="1.45336">
        <ele>191.838016</ele>
        <time>2022-05-13T13:04:39.113Z</time>
      </trkpt>
      <trkpt lat="43.68202" lon="1.45351">
        <ele>191.941235</ele>
        <time>2022-05-13T13:04:41.133Z</time>
      </trkpt>
      <trkpt lat="43.68206" lon="1.45365">
        <ele>192.044701</ele>
        <time>2022-05-13T13:04:43.129Z</time>
      </trkpt>
      <trkpt lat="43.6821" lon="1.45379">
        <ele>192.143604</ele>
        <time>2022-05-13T13:04:45.129Z</time>
      </trkpt>
      <trkpt lat="43.68214" lon="1.45392">
        <ele>192.24049</ele>
        <time>2022-05-13T13:04:47.124Z</time>
      </trkpt>
      <trkpt lat="43.68217" lon="1.45406">
        <ele>192.33643</ele>
        <time>2022-05-13T13:04:49.125Z</time>
      </trkpt>
      <trkpt lat="43.6822" lon="1.4542">
        <ele>192.436401</ele>
        <time>2022-05-13T13:04:51.118Z</time>
      </trkpt>
      <trkpt lat="43.68224" lon="1.45435">
        <ele>192.538944</ele>
        <time>2022-05-13T13:04:53.131Z</time>
      </trkpt>
      <trkpt lat="43.68229" lon="1.45449">
        <ele>192.640961</ele>
        <time>2022-05-13T13:04:55.125Z</time>
      </trkpt>
      <trkpt lat="43.68234" lon="1.45463">
        <ele>192.747396</ele>
        <time>2022-05-13T13:04:57.125Z</time>
      </trkpt>
      <trkpt lat="43.68238" lon="1.45477">
        <ele>192.846556</ele>
        <time>2022-05-13T13:04:59.124Z</time>
      </trkpt>
      <trkpt lat="43.68243" lon="1.45492">
        <ele>192.954547</ele>
        <time>2022-05-13T13:05:01.149Z</time>
      </trkpt>
      <trkpt lat="43.68247" lon="1.45506">
        <ele>193.058049</ele>
        <time>2022-05-13T13:05:03.126Z</time>
      </trkpt>
      <trkpt lat="43.68251" lon="1.4552">
        <ele>193.160929</ele>
        <time>2022-05-13T13:05:05.127Z</time>
      </trkpt>
      <trkpt lat="43.68254" lon="1.45534">
        <ele>193.27321</ele>
        <time>2022-05-13T13:05:07.135Z</time>
      </trkpt>
      <trkpt lat="43.68258" lon="1.45549">
        <ele>193.402115</ele>
        <time>2022-05-13T13:05:09.125Z</time>
      </trkpt>
      <trkpt lat="43.68261" lon="1.45563">
        <ele>193.533113</ele>
        <time>2022-05-13T13:05:11.129Z</time>
      </trkpt>
      <trkpt lat="43.68265" lon="1.45577">
        <ele>193.662577</ele>
        <time>2022-05-13T13:05:13.125Z</time>
      </trkpt>
      <trkpt lat="43.68268" lon="1.45592">
        <ele>193.794854</ele>
        <time>2022-05-13T13:05:15.130Z</time>
      </trkpt>
      <trkpt lat="43.68271" lon="1.45607">
        <ele>193.926311</ele>
        <time>2022-05-13T13:05:17.129Z</time>
      </trkpt>
      <trkpt lat="43.68274" lon="1.45622">
        <ele>194.058086</ele>
        <time>2022-05-13T13:05:19.118Z</time>
      </trkpt>
      <trkpt lat="43.68277" lon="1.45636">
        <ele>194.189273</ele>
        <time>2022-05-13T13:05:21.127Z</time>
      </trkpt>
      <trkpt lat="43.68278" lon="1.45651">
        <ele>194.318906</ele>
        <time>2022-05-13T13:05:23.121Z</time>
      </trkpt>
      <trkpt lat="43.6828" lon="1.45666">
        <ele>194.448884</ele>
        <time>2022-05-13T13:05:25.134Z</time>
      </trkpt>
      <trkpt lat="43.68281" lon="1.45681">
        <ele>194.579194</ele>
        <time>2022-05-13T13:05:27.147Z</time>
      </trkpt>
      <trkpt lat="43.6828" lon="1.45697">
        <ele>194.709843</ele>
        <time>2022-05-13T13:05:29.125Z</time>
      </trkpt>
      <trkpt lat="43.6828" lon="1.45712">
        <ele>194.83902</ele>
        <time>2022-05-13T13:05:31.141Z</time>
      </trkpt>
      <trkpt lat="43.68279" lon="1.45726">
        <ele>194.965551</ele>
        <time>2022-05-13T13:05:33.106Z</time>
      </trkpt>
      <trkpt lat="43.68278" lon="1.45741">
        <ele>195.090976</ele>
        <time>2022-05-13T13:05:35.111Z</time>
      </trkpt>
      <trkpt lat="43.68277" lon="1.45755">
        <ele>195.214333</ele>
        <time>2022-05-13T13:05:37.119Z</time>
      </trkpt>
      <trkpt lat="43.68276" lon="1.45769">
        <ele>195.329987</ele>
        <time>2022-05-13T13:05:39.127Z</time>
      </trkpt>
      <trkpt lat="43.68276" lon="1.45782">
        <ele>195.658146</ele>
        <time>2022-05-13T13:05:41.144Z</time>
      </trkpt>
      <trkpt lat="43.68275" lon="1.45796">
        <ele>196.06841</ele>
        <time>2022-05-13T13:05:43.139Z</time>
      </trkpt>
      <trkpt lat="43.68274" lon="1.4581">
        <ele>196.492991</ele>
        <time>2022-05-13T13:05:45.147Z</time>
      </trkpt>
      <trkpt lat="43.68273" lon="1.45823">
        <ele>196.900279</ele>
        <time>2022-05-13T13:05:47.143Z</time>
      </trkpt>
      <trkpt lat="43.68272" lon="1.45837">
        <ele>197.30832</ele>
        <time>2022-05-13T13:05:49.155Z</time>
      </trkpt>
      <trkpt lat="43.68272" lon="1.4585">
        <ele>197.709659</ele>
        <time>2022-05-13T13:05:51.128Z</time>
      </trkpt>
      <trkpt lat="43.68271" lon="1.45863">
        <ele>198.09353</ele>
        <time>2022-05-13T13:05:53.123Z</time>
      </trkpt>
      <trkpt lat="43.68269" lon="1.45881">
        <ele>198.624176</ele>
        <time>2022-05-13T13:05:56.127Z</time>
      </trkpt>
      <trkpt lat="43.68269" lon="1.45893">
        <ele>199.000479</ele>
        <time>2022-05-13T13:05:59.135Z</time>
      </trkpt>
      <trkpt lat="43.68269" lon="1.45907">
        <ele>199.409933</ele>
        <time>2022-05-13T13:06:03.130Z</time>
      </trkpt>
      <trkpt lat="43.68268" lon="1.45921">
        <ele>199.830887</ele>
        <time>2022-05-13T13:06:06.130Z</time>
      </trkpt>
      <trkpt lat="43.68266" lon="1.45938">
        <ele>200.354559</ele>
        <time>2022-05-13T13:06:09.129Z</time>
      </trkpt>
      <trkpt lat="43.68265" lon="1.45952">
        <ele>200.746975</ele>
        <time>2022-05-13T13:06:11.128Z</time>
      </trkpt>
      <trkpt lat="43.68264" lon="1.45965">
        <ele>201.155016</ele>
        <time>2022-05-13T13:06:13.134Z</time>
      </trkpt>
      <trkpt lat="43.68264" lon="1.45979">
        <ele>201.56994</ele>
        <time>2022-05-13T13:06:15.135Z</time>
      </trkpt>
      <trkpt lat="43.68265" lon="1.45993">
        <ele>201.982871</ele>
        <time>2022-05-13T13:06:17.139Z</time>
      </trkpt>
      <trkpt lat="43.68267" lon="1.46006">
        <ele>202.38089</ele>
        <time>2022-05-13T13:06:19.129Z</time>
      </trkpt>
      <trkpt lat="43.6827" lon="1.46018">
        <ele>202.761585</ele>
        <time>2022-05-13T13:06:21.115Z</time>
      </trkpt>
      <trkpt lat="43.68275" lon="1.46034">
        <ele>203.198717</ele>
        <time>2022-05-13T13:06:24.113Z</time>
      </trkpt>
      <trkpt lat="43.68278" lon="1.4605">
        <ele>203.625551</ele>
        <time>2022-05-13T13:06:27.120Z</time>
      </trkpt>
      <trkpt lat="43.6828" lon="1.46066">
        <ele>204.045601</ele>
        <time>2022-05-13T13:06:30.130Z</time>
      </trkpt>
      <trkpt lat="43.68281" lon="1.46083">
        <ele>204.467933</ele>
        <time>2022-05-13T13:06:33.136Z</time>
      </trkpt>
      <trkpt lat="43.68282" lon="1.461">
        <ele>204.89913</ele>
        <time>2022-05-13T13:06:36.119Z</time>
      </trkpt>
      <trkpt lat="43.68282" lon="1.46117">
        <ele>205.321189</ele>
        <time>2022-05-13T13:06:39.124Z</time>
      </trkpt>
      <trkpt lat="43.68284" lon="1.46134">
        <ele>205.763706</ele>
        <time>2022-05-13T13:06:42.122Z</time>
      </trkpt>
      <trkpt lat="43.68283" lon="1.46152">
        <ele>206.220363</ele>
        <time>2022-05-13T13:06:45.112Z</time>
      </trkpt>
      <trkpt lat="43.68281" lon="1.4617">
        <ele>206.681832</ele>
        <time>2022-05-13T13:06:48.129Z</time>
      </trkpt>
      <trkpt lat="43.68277" lon="1.46183">
        <ele>207.02797</ele>
        <time>2022-05-13T13:06:50.125Z</time>
      </trkpt>
      <trkpt lat="43.68273" lon="1.46196">
        <ele>207.376694</ele>
        <time>2022-05-13T13:06:52.120Z</time>
      </trkpt>
      <trkpt lat="43.68269" lon="1.46209">
        <ele>207.742209</ele>
        <time>2022-05-13T13:06:54.118Z</time>
      </trkpt>
      <trkpt lat="43.68264" lon="1.46222">
        <ele>208.109384</ele>
        <time>2022-05-13T13:06:56.111Z</time>
      </trkpt>
      <trkpt lat="43.6826" lon="1.46236">
        <ele>208.485785</ele>
        <time>2022-05-13T13:06:58.125Z</time>
      </trkpt>
      <trkpt lat="43.68256" lon="1.4625">
        <ele>208.87114</ele>
        <time>2022-05-13T13:07:00.120Z</time>
      </trkpt>
      <trkpt lat="43.68252" lon="1.46265">
        <ele>209.08342</ele>
        <time>2022-05-13T13:07:02.140Z</time>
      </trkpt>
      <trkpt lat="43.68246" lon="1.46278">
        <ele>209.142195</ele>
        <time>2022-05-13T13:07:04.143Z</time>
      </trkpt>
      <trkpt lat="43.68241" lon="1.4629">
        <ele>209.198658</ele>
        <time>2022-05-13T13:07:06.122Z</time>
      </trkpt>
      <trkpt lat="43.68235" lon="1.46301">
        <ele>209.254243</ele>
        <time>2022-05-13T13:07:08.122Z</time>
      </trkpt>
      <trkpt lat="43.68229" lon="1.46313">
        <ele>209.308228</ele>
        <time>2022-05-13T13:07:10.127Z</time>
      </trkpt>
      <trkpt lat="43.68223" lon="1.46323">
        <ele>209.361604</ele>
        <time>2022-05-13T13:07:12.143Z</time>
      </trkpt>
      <trkpt lat="43.68216" lon="1.46332">
        <ele>209.413097</ele>
        <time>2022-05-13T13:07:14.131Z</time>
      </trkpt>
      <trkpt lat="43.6821" lon="1.46341">
        <ele>209.46224</ele>
        <time>2022-05-13T13:07:16.125Z</time>
      </trkpt>
      <trkpt lat="43.68203" lon="1.4635">
        <ele>209.511663</ele>
        <time>2022-05-13T13:07:18.118Z</time>
      </trkpt>
      <trkpt lat="43.68194" lon="1.46364">
        <ele>209.584885</ele>
        <time>2022-05-13T13:07:21.121Z</time>
      </trkpt>
      <trkpt lat="43.68188" lon="1.4638">
        <ele>209.653691</ele>
        <time>2022-05-13T13:07:24.133Z</time>
      </trkpt>
      <trkpt lat="43.68194" lon="1.46388">
        <ele>209.702078</ele>
        <time>2022-05-13T13:07:26.115Z</time>
      </trkpt>
      <trkpt lat="43.68204" lon="1.46395">
        <ele>209.763216</ele>
        <time>2022-05-13T13:07:28.127Z</time>
      </trkpt>
      <trkpt lat="43.68216" lon="1.46402">
        <ele>209.832059</ele>
        <time>2022-05-13T13:07:30.125Z</time>
      </trkpt>
      <trkpt lat="43.68229" lon="1.4641">
        <ele>209.906804</ele>
        <time>2022-05-13T13:07:32.119Z</time>
      </trkpt>
      <trkpt lat="43.68241" lon="1.46417">
        <ele>209.980324</ele>
        <time>2022-05-13T13:07:34.132Z</time>
      </trkpt>
      <trkpt lat="43.68253" lon="1.46423">
        <ele>210.47291</ele>
        <time>2022-05-13T13:07:36.112Z</time>
      </trkpt>
      <trkpt lat="43.68264" lon="1.46427">
        <ele>211.622847</ele>
        <time>2022-05-13T13:07:38.147Z</time>
      </trkpt>
      <trkpt lat="43.68273" lon="1.46431">
        <ele>212.675596</ele>
        <time>2022-05-13T13:07:40.117Z</time>
      </trkpt>
      <trkpt lat="43.68285" lon="1.46437">
        <ele>213.975452</ele>
        <time>2022-05-13T13:07:43.165Z</time>
      </trkpt>
      <trkpt lat="43.68295" lon="1.46443">
        <ele>215.021402</ele>
        <time>2022-05-13T13:07:46.154Z</time>
      </trkpt>
      <trkpt lat="43.68304" lon="1.46448">
        <ele>216.062386</ele>
        <time>2022-05-13T13:07:49.162Z</time>
      </trkpt>
      <trkpt lat="43.68312" lon="1.46453">
        <ele>216.990317</ele>
        <time>2022-05-13T13:07:52.132Z</time>
      </trkpt>
      <trkpt lat="43.68323" lon="1.4646">
        <ele>218.164467</ele>
        <time>2022-05-13T13:07:56.142Z</time>
      </trkpt>
      <trkpt lat="43.68333" lon="1.46467">
        <ele>219.35702</ele>
        <time>2022-05-13T13:08:00.158Z</time>
      </trkpt>
      <trkpt lat="43.68343" lon="1.46474">
        <ele>220.493602</ele>
        <time>2022-05-13T13:08:04.138Z</time>
      </trkpt>
      <trkpt lat="43.68351" lon="1.4648">
        <ele>221.443903</ele>
        <time>2022-05-13T13:08:07.138Z</time>
      </trkpt>
      <trkpt lat="43.68355" lon="1.46495">
        <ele>222.633188</ele>
        <time>2022-05-13T13:08:11.131Z</time>
      </trkpt>
      <trkpt lat="43.68349" lon="1.46508">
        <ele>223.725708</ele>
        <time>2022-05-13T13:08:14.135Z</time>
      </trkpt>
      <trkpt lat="43.68343" lon="1.46519">
        <ele>224.792174</ele>
        <time>2022-05-13T13:08:17.138Z</time>
      </trkpt>
      <trkpt lat="43.68336" lon="1.46531">
        <ele>225.945862</ele>
        <time>2022-05-13T13:08:20.163Z</time>
      </trkpt>
      <trkpt lat="43.68329" lon="1.46543">
        <ele>227.079027</ele>
        <time>2022-05-13T13:08:23.143Z</time>
      </trkpt>
      <trkpt lat="43.68323" lon="1.46556">
        <ele>228.193713</ele>
        <time>2022-05-13T13:08:26.145Z</time>
      </trkpt>
      <trkpt lat="43.68317" lon="1.46569">
        <ele>229.027112</ele>
        <time>2022-05-13T13:08:29.129Z</time>
      </trkpt>
      <trkpt lat="43.68312" lon="1.46582">
        <ele>229.733181</ele>
        <time>2022-05-13T13:08:32.148Z</time>
      </trkpt>
      <trkpt lat="43.68306" lon="1.46596">
        <ele>230.447376</ele>
        <time>2022-05-13T13:08:35.145Z</time>
      </trkpt>
      <trkpt lat="43.68302" lon="1.4661">
        <ele>231.181068</ele>
        <time>2022-05-13T13:08:38.156Z</time>
      </trkpt>
      <trkpt lat="43.68299" lon="1.46625">
        <ele>231.867327</ele>
        <time>2022-05-13T13:08:41.134Z</time>
      </trkpt>
      <trkpt lat="43.68296" lon="1.46639">
        <ele>232.573798</ele>
        <time>2022-05-13T13:08:44.138Z</time>
      </trkpt>
      <trkpt lat="43.68292" lon="1.46654">
        <ele>233.280477</ele>
        <time>2022-05-13T13:08:47.142Z</time>
      </trkpt>
      <trkpt lat="43.68289" lon="1.46669">
        <ele>234.002337</ele>
        <time>2022-05-13T13:08:50.153Z</time>
      </trkpt>
      <trkpt lat="43.68289" lon="1.46683">
        <ele>234.659571</ele>
        <time>2022-05-13T13:08:53.131Z</time>
      </trkpt>
      <trkpt lat="43.68295" lon="1.46693">
        <ele>235.263392</ele>
        <time>2022-05-13T13:08:56.148Z</time>
      </trkpt>
      <trkpt lat="43.68303" lon="1.46702">
        <ele>235.919994</ele>
        <time>2022-05-13T13:08:59.152Z</time>
      </trkpt>
      <trkpt lat="43.68311" lon="1.46712">
        <ele>236.63732</ele>
        <time>2022-05-13T13:09:02.163Z</time>
      </trkpt>
      <trkpt lat="43.6832" lon="1.46724">
        <ele>237.398883</ele>
        <time>2022-05-13T13:09:05.152Z</time>
      </trkpt>
      <trkpt lat="43.68329" lon="1.46737">
        <ele>238.244231</ele>
        <time>2022-05-13T13:09:08.166Z</time>
      </trkpt>
      <trkpt lat="43.68336" lon="1.46745">
        <ele>238.819969</ele>
        <time>2022-05-13T13:09:10.137Z</time>
      </trkpt>
      <trkpt lat="43.68345" lon="1.46759">
        <ele>239.663043</ele>
        <time>2022-05-13T13:09:13.164Z</time>
      </trkpt>
      <trkpt lat="43.68354" lon="1.46771">
        <ele>240.239944</ele>
        <time>2022-05-13T13:09:16.147Z</time>
      </trkpt>
      <trkpt lat="43.68363" lon="1.46784">
        <ele>240.620509</ele>
        <time>2022-05-13T13:09:19.144Z</time>
      </trkpt>
      <trkpt lat="43.68372" lon="1.46796">
        <ele>240.995946</ele>
        <time>2022-05-13T13:09:22.158Z</time>
      </trkpt>
      <trkpt lat="43.68382" lon="1.46809">
        <ele>241.387991</ele>
        <time>2022-05-13T13:09:25.137Z</time>
      </trkpt>
      <trkpt lat="43.68391" lon="1.46821">
        <ele>241.759595</ele>
        <time>2022-05-13T13:09:28.162Z</time>
      </trkpt>
      <trkpt lat="43.684" lon="1.46832">
        <ele>242.12463</ele>
        <time>2022-05-13T13:09:31.134Z</time>
      </trkpt>
      <trkpt lat="43.68409" lon="1.46844">
        <ele>242.494179</ele>
        <time>2022-05-13T13:09:34.147Z</time>
      </trkpt>
      <trkpt lat="43.68418" lon="1.46856">
        <ele>242.864874</ele>
        <time>2022-05-13T13:09:37.175Z</time>
      </trkpt>
      <trkpt lat="43.68426" lon="1.46866">
        <ele>243.175497</ele>
        <time>2022-05-13T13:09:40.154Z</time>
      </trkpt>
      <trkpt lat="43.68437" lon="1.46859">
        <ele>243.52163</ele>
        <time>2022-05-13T13:09:44.144Z</time>
      </trkpt>
      <trkpt lat="43.68443" lon="1.46849">
        <ele>243.817285</ele>
        <time>2022-05-13T13:09:46.131Z</time>
      </trkpt>
      <trkpt lat="43.6845" lon="1.46837">
        <ele>244.156637</ele>
        <time>2022-05-13T13:09:48.143Z</time>
      </trkpt>
      <trkpt lat="43.68458" lon="1.46825">
        <ele>244.505249</ele>
        <time>2022-05-13T13:09:50.145Z</time>
      </trkpt>
      <trkpt lat="43.68467" lon="1.46813">
        <ele>244.871748</ele>
        <time>2022-05-13T13:09:52.155Z</time>
      </trkpt>
      <trkpt lat="43.68478" lon="1.46806">
        <ele>245.234904</ele>
        <time>2022-05-13T13:09:54.144Z</time>
      </trkpt>
      <trkpt lat="43.6849" lon="1.46802">
        <ele>245.405667</ele>
        <time>2022-05-13T13:09:56.145Z</time>
      </trkpt>
      <trkpt lat="43.685" lon="1.46801">
        <ele>245.480183</ele>
        <time>2022-05-13T13:09:58.132Z</time>
      </trkpt>
      <trkpt lat="43.68511" lon="1.46803">
        <ele>245.550617</ele>
        <time>2022-05-13T13:10:00.150Z</time>
      </trkpt>
      <trkpt lat="43.68519" lon="1.46809">
        <ele>245.617274</ele>
        <time>2022-05-13T13:10:02.141Z</time>
      </trkpt>
      <trkpt lat="43.68527" lon="1.46817">
        <ele>245.681456</ele>
        <time>2022-05-13T13:10:04.141Z</time>
      </trkpt>
      <trkpt lat="43.68533" lon="1.46826">
        <ele>245.746062</ele>
        <time>2022-05-13T13:10:06.151Z</time>
      </trkpt>
      <trkpt lat="43.68539" lon="1.46837">
        <ele>245.812622</ele>
        <time>2022-05-13T13:10:08.148Z</time>
      </trkpt>
      <trkpt lat="43.68544" lon="1.46848">
        <ele>245.880377</ele>
        <time>2022-05-13T13:10:10.151Z</time>
      </trkpt>
      <trkpt lat="43.6855" lon="1.4686">
        <ele>245.947815</ele>
        <time>2022-05-13T13:10:12.170Z</time>
      </trkpt>
      <trkpt lat="43.68555" lon="1.46871">
        <ele>246.013026</ele>
        <time>2022-05-13T13:10:14.183Z</time>
      </trkpt>
      <trkpt lat="43.68555" lon="1.46887">
        <ele>246.095233</ele>
        <time>2022-05-13T13:10:17.166Z</time>
      </trkpt>
      <trkpt lat="43.68553" lon="1.46903">
        <ele>246.175713</ele>
        <time>2022-05-13T13:10:20.163Z</time>
      </trkpt>
      <trkpt lat="43.68555" lon="1.4692">
        <ele>246.260548</ele>
        <time>2022-05-13T13:10:23.145Z</time>
      </trkpt>
      <trkpt lat="43.68564" lon="1.46934">
        <ele>246.353677</ele>
        <time>2022-05-13T13:10:26.153Z</time>
      </trkpt>
      <trkpt lat="43.68571" lon="1.46943">
        <ele>246.422993</ele>
        <time>2022-05-13T13:10:28.155Z</time>
      </trkpt>
      <trkpt lat="43.6858" lon="1.46953">
        <ele>246.499752</ele>
        <time>2022-05-13T13:10:30.172Z</time>
      </trkpt>
      <trkpt lat="43.68589" lon="1.46963">
        <ele>246.580576</ele>
        <time>2022-05-13T13:10:32.133Z</time>
      </trkpt>
      <trkpt lat="43.68598" lon="1.46975">
        <ele>246.166696</ele>
        <time>2022-05-13T13:10:34.160Z</time>
      </trkpt>
      <trkpt lat="43.68606" lon="1.46987">
        <ele>245.673741</ele>
        <time>2022-05-13T13:10:36.151Z</time>
      </trkpt>
      <trkpt lat="43.68615" lon="1.47">
        <ele>245.163425</ele>
        <time>2022-05-13T13:10:38.152Z</time>
      </trkpt>
      <trkpt lat="43.68625" lon="1.47014">
        <ele>244.616081</ele>
        <time>2022-05-13T13:10:40.155Z</time>
      </trkpt>
      <trkpt lat="43.68635" lon="1.47028">
        <ele>244.026524</ele>
        <time>2022-05-13T13:10:42.153Z</time>
      </trkpt>
      <trkpt lat="43.68646" lon="1.47043">
        <ele>243.415592</ele>
        <time>2022-05-13T13:10:44.167Z</time>
      </trkpt>
      <trkpt lat="43.68657" lon="1.47058">
        <ele>242.804903</ele>
        <time>2022-05-13T13:10:46.153Z</time>
      </trkpt>
      <trkpt lat="43.68669" lon="1.47072">
        <ele>242.200086</ele>
        <time>2022-05-13T13:10:48.155Z</time>
      </trkpt>
      <trkpt lat="43.6868" lon="1.47087">
        <ele>241.586315</ele>
        <time>2022-05-13T13:10:50.172Z</time>
      </trkpt>
      <trkpt lat="43.68692" lon="1.47101">
        <ele>240.964022</ele>
        <time>2022-05-13T13:10:52.167Z</time>
      </trkpt>
      <trkpt lat="43.68707" lon="1.47105">
        <ele>240.350647</ele>
        <time>2022-05-13T13:10:54.149Z</time>
      </trkpt>
      <trkpt lat="43.6872" lon="1.47092">
        <ele>239.722424</ele>
        <time>2022-05-13T13:10:56.150Z</time>
      </trkpt>
      <trkpt lat="43.6873" lon="1.47074">
        <ele>238.953002</ele>
        <time>2022-05-13T13:10:58.161Z</time>
      </trkpt>
      <trkpt lat="43.68741" lon="1.47056">
        <ele>238.07736</ele>
        <time>2022-05-13T13:11:00.144Z</time>
      </trkpt>
      <trkpt lat="43.68752" lon="1.4704">
        <ele>237.266623</ele>
        <time>2022-05-13T13:11:02.170Z</time>
      </trkpt>
      <trkpt lat="43.68768" lon="1.4704">
        <ele>236.434782</ele>
        <time>2022-05-13T13:11:04.140Z</time>
      </trkpt>
      <trkpt lat="43.68783" lon="1.47052">
        <ele>235.537026</ele>
        <time>2022-05-13T13:11:06.149Z</time>
      </trkpt>
      <trkpt lat="43.68797" lon="1.47066">
        <ele>234.638176</ele>
        <time>2022-05-13T13:11:08.151Z</time>
      </trkpt>
      <trkpt lat="43.68809" lon="1.47083">
        <ele>233.739771</ele>
        <time>2022-05-13T13:11:10.152Z</time>
      </trkpt>
      <trkpt lat="43.68815" lon="1.47093">
        <ele>233.270753</ele>
        <time>2022-05-13T13:11:11.134Z</time>
      </trkpt>
      <trkpt lat="43.6882" lon="1.47104">
        <ele>232.787943</ele>
        <time>2022-05-13T13:11:12.162Z</time>
      </trkpt>
      <trkpt lat="43.68826" lon="1.47115">
        <ele>232.282224</ele>
        <time>2022-05-13T13:11:13.142Z</time>
      </trkpt>
      <trkpt lat="43.68834" lon="1.47124">
        <ele>231.741778</ele>
        <time>2022-05-13T13:11:14.167Z</time>
      </trkpt>
      <trkpt lat="43.68842" lon="1.47133">
        <ele>231.189482</ele>
        <time>2022-05-13T13:11:15.150Z</time>
      </trkpt>
      <trkpt lat="43.68851" lon="1.47141">
        <ele>230.633028</ele>
        <time>2022-05-13T13:11:16.135Z</time>
      </trkpt>
      <trkpt lat="43.6886" lon="1.47151">
        <ele>230.21156</ele>
        <time>2022-05-13T13:11:17.132Z</time>
      </trkpt>
      <trkpt lat="43.68868" lon="1.4716">
        <ele>230.459853</ele>
        <time>2022-05-13T13:11:18.159Z</time>
      </trkpt>
      <trkpt lat="43.68875" lon="1.47169">
        <ele>230.689943</ele>
        <time>2022-05-13T13:11:19.156Z</time>
      </trkpt>
      <trkpt lat="43.68888" lon="1.47185">
        <ele>231.090354</ele>
        <time>2022-05-13T13:11:21.153Z</time>
      </trkpt>
      <trkpt lat="43.68899" lon="1.47198">
        <ele>231.416002</ele>
        <time>2022-05-13T13:11:23.153Z</time>
      </trkpt>
      <trkpt lat="43.68908" lon="1.47208">
        <ele>231.686118</ele>
        <time>2022-05-13T13:11:25.170Z</time>
      </trkpt>
      <trkpt lat="43.68916" lon="1.47217">
        <ele>231.929807</ele>
        <time>2022-05-13T13:11:27.159Z</time>
      </trkpt>
      <trkpt lat="43.68924" lon="1.47227">
        <ele>232.181251</ele>
        <time>2022-05-13T13:11:29.154Z</time>
      </trkpt>
      <trkpt lat="43.68932" lon="1.47238">
        <ele>232.430942</ele>
        <time>2022-05-13T13:11:31.145Z</time>
      </trkpt>
      <trkpt lat="43.68937" lon="1.47251">
        <ele>232.687371</ele>
        <time>2022-05-13T13:11:33.153Z</time>
      </trkpt>
      <trkpt lat="43.68939" lon="1.47266">
        <ele>232.942941</ele>
        <time>2022-05-13T13:11:35.141Z</time>
      </trkpt>
      <trkpt lat="43.68938" lon="1.47281">
        <ele>233.193346</ele>
        <time>2022-05-13T13:11:37.157Z</time>
      </trkpt>
      <trkpt lat="43.68934" lon="1.47295">
        <ele>233.444675</ele>
        <time>2022-05-13T13:11:39.157Z</time>
      </trkpt>
      <trkpt lat="43.68928" lon="1.47307">
        <ele>233.701535</ele>
        <time>2022-05-13T13:11:41.147Z</time>
      </trkpt>
      <trkpt lat="43.68922" lon="1.4732">
        <ele>233.958212</ele>
        <time>2022-05-13T13:11:43.152Z</time>
      </trkpt>
      <trkpt lat="43.68916" lon="1.47333">
        <ele>234.212327</ele>
        <time>2022-05-13T13:11:45.172Z</time>
      </trkpt>
      <trkpt lat="43.68911" lon="1.47346">
        <ele>234.110946</ele>
        <time>2022-05-13T13:11:47.159Z</time>
      </trkpt>
      <trkpt lat="43.68906" lon="1.47358">
        <ele>233.661927</ele>
        <time>2022-05-13T13:11:49.160Z</time>
      </trkpt>
      <trkpt lat="43.68902" lon="1.47371">
        <ele>233.231228</ele>
        <time>2022-05-13T13:11:51.155Z</time>
      </trkpt>
      <trkpt lat="43.68904" lon="1.47384">
        <ele>232.797527</ele>
        <time>2022-05-13T13:11:53.153Z</time>
      </trkpt>
      <trkpt lat="43.6891" lon="1.47397">
        <ele>232.338168</ele>
        <time>2022-05-13T13:11:55.148Z</time>
      </trkpt>
      <trkpt lat="43.68919" lon="1.47406">
        <ele>231.836115</ele>
        <time>2022-05-13T13:11:57.147Z</time>
      </trkpt>
      <trkpt lat="43.68929" lon="1.47417">
        <ele>231.287987</ele>
        <time>2022-05-13T13:11:59.149Z</time>
      </trkpt>
      <trkpt lat="43.68937" lon="1.47428">
        <ele>230.797614</ele>
        <time>2022-05-13T13:12:01.149Z</time>
      </trkpt>
      <trkpt lat="43.68946" lon="1.47432">
        <ele>230.37589</ele>
        <time>2022-05-13T13:12:06.148Z</time>
      </trkpt>
      <trkpt lat="43.68951" lon="1.47419">
        <ele>229.908861</ele>
        <time>2022-05-13T13:12:15.163Z</time>
      </trkpt>
      <trkpt lat="43.68957" lon="1.47408">
        <ele>229.477776</ele>
        <time>2022-05-13T13:12:18.167Z</time>
      </trkpt>
      <trkpt lat="43.68964" lon="1.47392">
        <ele>228.881522</ele>
        <time>2022-05-13T13:12:21.163Z</time>
      </trkpt>
      <trkpt lat="43.6897" lon="1.4738">
        <ele>228.429819</ele>
        <time>2022-05-13T13:12:23.169Z</time>
      </trkpt>
      <trkpt lat="43.68977" lon="1.47368">
        <ele>227.931976</ele>
        <time>2022-05-13T13:12:25.141Z</time>
      </trkpt>
      <trkpt lat="43.68985" lon="1.47353">
        <ele>227.357901</ele>
        <time>2022-05-13T13:12:27.154Z</time>
      </trkpt>
      <trkpt lat="43.68993" lon="1.47336">
        <ele>226.712265</ele>
        <time>2022-05-13T13:12:29.147Z</time>
      </trkpt>
      <trkpt lat="43.69001" lon="1.47317">
        <ele>226.630419</ele>
        <time>2022-05-13T13:12:31.145Z</time>
      </trkpt>
      <trkpt lat="43.69009" lon="1.47303">
        <ele>226.776718</ele>
        <time>2022-05-13T13:12:33.135Z</time>
      </trkpt>
      <trkpt lat="43.69021" lon="1.473">
        <ele>226.918154</ele>
        <time>2022-05-13T13:12:35.149Z</time>
      </trkpt>
      <trkpt lat="43.69029" lon="1.4731">
        <ele>227.036127</ele>
        <time>2022-05-13T13:12:37.140Z</time>
      </trkpt>
      <trkpt lat="43.69035" lon="1.47323">
        <ele>227.164663</ele>
        <time>2022-05-13T13:12:39.142Z</time>
      </trkpt>
      <trkpt lat="43.69039" lon="1.47336">
        <ele>227.283162</ele>
        <time>2022-05-13T13:12:41.140Z</time>
      </trkpt>
      <trkpt lat="43.69044" lon="1.4735">
        <ele>227.404049</ele>
        <time>2022-05-13T13:12:43.131Z</time>
      </trkpt>
      <trkpt lat="43.6905" lon="1.47363">
        <ele>227.526201</ele>
        <time>2022-05-13T13:12:45.143Z</time>
      </trkpt>
      <trkpt lat="43.69057" lon="1.47373">
        <ele>227.644278</ele>
        <time>2022-05-13T13:12:47.133Z</time>
      </trkpt>
      <trkpt lat="43.69064" lon="1.47384">
        <ele>227.76314</ele>
        <time>2022-05-13T13:12:49.131Z</time>
      </trkpt>
      <trkpt lat="43.69071" lon="1.47394">
        <ele>227.875351</ele>
        <time>2022-05-13T13:12:51.162Z</time>
      </trkpt>
      <trkpt lat="43.69078" lon="1.47405">
        <ele>227.994388</ele>
        <time>2022-05-13T13:12:53.157Z</time>
      </trkpt>
      <trkpt lat="43.69084" lon="1.47417">
        <ele>228.111756</ele>
        <time>2022-05-13T13:12:55.148Z</time>
      </trkpt>
      <trkpt lat="43.6909" lon="1.47428">
        <ele>228.223805</ele>
        <time>2022-05-13T13:12:57.138Z</time>
      </trkpt>
      <trkpt lat="43.69096" lon="1.4744">
        <ele>228.341184</ele>
        <time>2022-05-13T13:12:59.150Z</time>
      </trkpt>
      <trkpt lat="43.69101" lon="1.47451">
        <ele>228.451398</ele>
        <time>2022-05-13T13:13:01.135Z</time>
      </trkpt>
      <trkpt lat="43.69107" lon="1.47465">
        <ele>228.968424</ele>
        <time>2022-05-13T13:13:04.143Z</time>
      </trkpt>
      <trkpt lat="43.6911" lon="1.47477">
        <ele>229.828324</ele>
        <time>2022-05-13T13:13:06.138Z</time>
      </trkpt>
      <trkpt lat="43.69113" lon="1.4749">
        <ele>230.763669</ele>
        <time>2022-05-13T13:13:09.137Z</time>
      </trkpt>
      <trkpt lat="43.69116" lon="1.47507">
        <ele>231.92558</ele>
        <time>2022-05-13T13:13:12.133Z</time>
      </trkpt>
      <trkpt lat="43.6912" lon="1.47519">
        <ele>232.815315</ele>
        <time>2022-05-13T13:13:14.141Z</time>
      </trkpt>
      <trkpt lat="43.69124" lon="1.47536">
        <ele>234.038189</ele>
        <time>2022-05-13T13:13:17.156Z</time>
      </trkpt>
      <trkpt lat="43.69127" lon="1.47553">
        <ele>235.181137</ele>
        <time>2022-05-13T13:13:20.149Z</time>
      </trkpt>
      <trkpt lat="43.69132" lon="1.47569">
        <ele>236.379323</ele>
        <time>2022-05-13T13:13:23.151Z</time>
      </trkpt>
      <trkpt lat="43.69136" lon="1.47584">
        <ele>237.462113</ele>
        <time>2022-05-13T13:13:26.156Z</time>
      </trkpt>
      <trkpt lat="43.69142" lon="1.47599">
        <ele>238.585706</ele>
        <time>2022-05-13T13:13:29.140Z</time>
      </trkpt>
      <trkpt lat="43.69148" lon="1.47613">
        <ele>239.702905</ele>
        <time>2022-05-13T13:13:32.159Z</time>
      </trkpt>
      <trkpt lat="43.69156" lon="1.47625">
        <ele>240.80422</ele>
        <time>2022-05-13T13:13:35.138Z</time>
      </trkpt>
      <trkpt lat="43.69164" lon="1.47637">
        <ele>241.924116</ele>
        <time>2022-05-13T13:13:38.171Z</time>
      </trkpt>
      <trkpt lat="43.69174" lon="1.47647">
        <ele>243.077648</ele>
        <time>2022-05-13T13:13:41.155Z</time>
      </trkpt>
      <trkpt lat="43.69184" lon="1.47656">
        <ele>244.212675</ele>
        <time>2022-05-13T13:13:44.138Z</time>
      </trkpt>
      <trkpt lat="43.69195" lon="1.47665">
        <ele>245.333756</ele>
        <time>2022-05-13T13:13:47.152Z</time>
      </trkpt>
      <trkpt lat="43.69205" lon="1.47674">
        <ele>245.597618</ele>
        <time>2022-05-13T13:13:50.169Z</time>
      </trkpt>
      <trkpt lat="43.69215" lon="1.47682">
        <ele>245.849068</ele>
        <time>2022-05-13T13:13:53.153Z</time>
      </trkpt>
      <trkpt lat="43.69225" lon="1.47691">
        <ele>246.100078</ele>
        <time>2022-05-13T13:13:56.144Z</time>
      </trkpt>
      <trkpt lat="43.69236" lon="1.47698">
        <ele>246.366174</ele>
        <time>2022-05-13T13:13:59.155Z</time>
      </trkpt>
      <trkpt lat="43.69243" lon="1.47706">
        <ele>246.559893</ele>
        <time>2022-05-13T13:14:01.147Z</time>
      </trkpt>
      <trkpt lat="43.69252" lon="1.47713">
        <ele>246.764346</ele>
        <time>2022-05-13T13:14:03.157Z</time>
      </trkpt>
      <trkpt lat="43.6926" lon="1.47721">
        <ele>246.984423</ele>
        <time>2022-05-13T13:14:05.151Z</time>
      </trkpt>
      <trkpt lat="43.69269" lon="1.4773">
        <ele>247.226677</ele>
        <time>2022-05-13T13:14:07.179Z</time>
      </trkpt>
      <trkpt lat="43.69279" lon="1.4774">
        <ele>247.488558</ele>
        <time>2022-05-13T13:14:09.164Z</time>
      </trkpt>
      <trkpt lat="43.69287" lon="1.47751">
        <ele>247.738737</ele>
        <time>2022-05-13T13:14:11.155Z</time>
      </trkpt>
      <trkpt lat="43.69295" lon="1.47761">
        <ele>247.964684</ele>
        <time>2022-05-13T13:14:13.154Z</time>
      </trkpt>
      <trkpt lat="43.69302" lon="1.4777">
        <ele>248.170774</ele>
        <time>2022-05-13T13:14:15.146Z</time>
      </trkpt>
      <trkpt lat="43.69313" lon="1.47779">
        <ele>248.442565</ele>
        <time>2022-05-13T13:14:18.149Z</time>
      </trkpt>
      <trkpt lat="43.69324" lon="1.47782">
        <ele>248.690774</ele>
        <time>2022-05-13T13:14:21.133Z</time>
      </trkpt>
      <trkpt lat="43.69336" lon="1.47782">
        <ele>248.950839</ele>
        <time>2022-05-13T13:14:24.156Z</time>
      </trkpt>
      <trkpt lat="43.69349" lon="1.47781">
        <ele>249.231535</ele>
        <time>2022-05-13T13:14:27.155Z</time>
      </trkpt>
      <trkpt lat="43.69361" lon="1.47781">
        <ele>249.639598</ele>
        <time>2022-05-13T13:14:30.178Z</time>
      </trkpt>
      <trkpt lat="43.69373" lon="1.4778">
        <ele>250.031343</ele>
        <time>2022-05-13T13:14:33.162Z</time>
      </trkpt>
      <trkpt lat="43.69386" lon="1.47779">
        <ele>250.439315</ele>
        <time>2022-05-13T13:14:36.148Z</time>
      </trkpt>
      <trkpt lat="43.69398" lon="1.47779">
        <ele>250.840715</ele>
        <time>2022-05-13T13:14:39.168Z</time>
      </trkpt>
      <trkpt lat="43.6941" lon="1.47779">
        <ele>251.245157</ele>
        <time>2022-05-13T13:14:42.139Z</time>
      </trkpt>
      <trkpt lat="43.69422" lon="1.47779">
        <ele>251.643023</ele>
        <time>2022-05-13T13:14:45.150Z</time>
      </trkpt>
      <trkpt lat="43.69433" lon="1.4778">
        <ele>252.015064</ele>
        <time>2022-05-13T13:14:48.154Z</time>
      </trkpt>
      <trkpt lat="43.69443" lon="1.47772">
        <ele>252.393732</ele>
        <time>2022-05-13T13:14:51.132Z</time>
      </trkpt>
      <trkpt lat="43.69451" lon="1.47757">
        <ele>252.827305</ele>
        <time>2022-05-13T13:14:54.118Z</time>
      </trkpt>
      <trkpt lat="43.69458" lon="1.47741">
        <ele>253.277364</ele>
        <time>2022-05-13T13:14:57.134Z</time>
      </trkpt>
      <trkpt lat="43.69462" lon="1.47728">
        <ele>253.605853</ele>
        <time>2022-05-13T13:14:59.125Z</time>
      </trkpt>
      <trkpt lat="43.69468" lon="1.47716">
        <ele>253.949992</ele>
        <time>2022-05-13T13:15:01.161Z</time>
      </trkpt>
      <trkpt lat="43.69473" lon="1.47704">
        <ele>254.277554</ele>
        <time>2022-05-13T13:15:03.142Z</time>
      </trkpt>
      <trkpt lat="43.69478" lon="1.47693">
        <ele>254.600314</ele>
        <time>2022-05-13T13:15:05.160Z</time>
      </trkpt>
      <trkpt lat="43.69483" lon="1.47681">
        <ele>254.920126</ele>
        <time>2022-05-13T13:15:07.143Z</time>
      </trkpt>
      <trkpt lat="43.69486" lon="1.47668">
        <ele>255.259064</ele>
        <time>2022-05-13T13:15:09.132Z</time>
      </trkpt>
      <trkpt lat="43.69487" lon="1.47655">
        <ele>255.647216</ele>
        <time>2022-05-13T13:15:11.132Z</time>
      </trkpt>
      <trkpt lat="43.69488" lon="1.47641">
        <ele>256.058501</ele>
        <time>2022-05-13T13:15:13.141Z</time>
      </trkpt>
      <trkpt lat="43.6949" lon="1.47627">
        <ele>256.477554</ele>
        <time>2022-05-13T13:15:15.151Z</time>
      </trkpt>
      <trkpt lat="43.69491" lon="1.47613">
        <ele>256.869133</ele>
        <time>2022-05-13T13:15:17.156Z</time>
      </trkpt>
      <trkpt lat="43.69494" lon="1.47599">
        <ele>257.295984</ele>
        <time>2022-05-13T13:15:19.149Z</time>
      </trkpt>
      <trkpt lat="43.69497" lon="1.47587">
        <ele>257.673938</ele>
        <time>2022-05-13T13:15:21.149Z</time>
      </trkpt>
      <trkpt lat="43.69501" lon="1.47575">
        <ele>258.054565</ele>
        <time>2022-05-13T13:15:23.160Z</time>
      </trkpt>
      <trkpt lat="43.69506" lon="1.47565">
        <ele>258.428242</ele>
        <time>2022-05-13T13:15:25.142Z</time>
      </trkpt>
      <trkpt lat="43.69513" lon="1.47555">
        <ele>258.82362</ele>
        <time>2022-05-13T13:15:27.156Z</time>
      </trkpt>
      <trkpt lat="43.6952" lon="1.47545">
        <ele>259.214146</ele>
        <time>2022-05-13T13:15:29.145Z</time>
      </trkpt>
      <trkpt lat="43.69528" lon="1.47531">
        <ele>259.751712</ele>
        <time>2022-05-13T13:15:32.139Z</time>
      </trkpt>
      <trkpt lat="43.69535" lon="1.4752">
        <ele>260.147772</ele>
        <time>2022-05-13T13:15:34.147Z</time>
      </trkpt>
      <trkpt lat="43.69545" lon="1.47515">
        <ele>260.576286</ele>
        <time>2022-05-13T13:15:38.158Z</time>
      </trkpt>
      <trkpt lat="43.69556" lon="1.47525">
        <ele>261.092642</ele>
        <time>2022-05-13T13:15:41.153Z</time>
      </trkpt>
      <trkpt lat="43.69563" lon="1.47532">
        <ele>261.45722</ele>
        <time>2022-05-13T13:15:43.169Z</time>
      </trkpt>
      <trkpt lat="43.69573" lon="1.47544">
        <ele>261.998108</ele>
        <time>2022-05-13T13:15:46.172Z</time>
      </trkpt>
      <trkpt lat="43.69579" lon="1.47555">
        <ele>262.349595</ele>
        <time>2022-05-13T13:15:48.142Z</time>
      </trkpt>
      <trkpt lat="43.69582" lon="1.47568">
        <ele>262.512201</ele>
        <time>2022-05-13T13:15:50.142Z</time>
      </trkpt>
      <trkpt lat="43.69583" lon="1.4758">
        <ele>262.674467</ele>
        <time>2022-05-13T13:15:52.143Z</time>
      </trkpt>
      <trkpt lat="43.69585" lon="1.47593">
        <ele>262.838572</ele>
        <time>2022-05-13T13:15:54.146Z</time>
      </trkpt>
      <trkpt lat="43.69587" lon="1.47605">
        <ele>263.000662</ele>
        <time>2022-05-13T13:15:56.147Z</time>
      </trkpt>
      <trkpt lat="43.69591" lon="1.47618">
        <ele>263.169157</ele>
        <time>2022-05-13T13:15:58.163Z</time>
      </trkpt>
      <trkpt lat="43.69596" lon="1.4763">
        <ele>263.349292</ele>
        <time>2022-05-13T13:16:00.153Z</time>
      </trkpt>
      <trkpt lat="43.69601" lon="1.47643">
        <ele>263.528959</ele>
        <time>2022-05-13T13:16:02.169Z</time>
      </trkpt>
      <trkpt lat="43.69606" lon="1.47655">
        <ele>263.70246</ele>
        <time>2022-05-13T13:16:04.151Z</time>
      </trkpt>
      <trkpt lat="43.69611" lon="1.47667">
        <ele>263.882836</ele>
        <time>2022-05-13T13:16:06.137Z</time>
      </trkpt>
      <trkpt lat="43.69617" lon="1.4768">
        <ele>264.068619</ele>
        <time>2022-05-13T13:16:08.171Z</time>
      </trkpt>
      <trkpt lat="43.69622" lon="1.47692">
        <ele>264.250467</ele>
        <time>2022-05-13T13:16:10.143Z</time>
      </trkpt>
      <trkpt lat="43.69627" lon="1.47704">
        <ele>264.426707</ele>
        <time>2022-05-13T13:16:12.134Z</time>
      </trkpt>
      <trkpt lat="43.69632" lon="1.47716">
        <ele>264.601143</ele>
        <time>2022-05-13T13:16:14.159Z</time>
      </trkpt>
      <trkpt lat="43.69637" lon="1.47728">
        <ele>264.772335</ele>
        <time>2022-05-13T13:16:16.140Z</time>
      </trkpt>
      <trkpt lat="43.69643" lon="1.47743">
        <ele>264.990172</ele>
        <time>2022-05-13T13:16:19.121Z</time>
      </trkpt>
      <trkpt lat="43.69643" lon="1.47758">
        <ele>265.17428</ele>
        <time>2022-05-13T13:16:23.155Z</time>
      </trkpt>
      <trkpt lat="43.69652" lon="1.47766">
        <ele>265.365162</ele>
        <time>2022-05-13T13:16:32.155Z</time>
      </trkpt>
      <trkpt lat="43.69663" lon="1.47777">
        <ele>265.351937</ele>
        <time>2022-05-13T13:16:35.156Z</time>
      </trkpt>
      <trkpt lat="43.69672" lon="1.47789">
        <ele>265.181438</ele>
        <time>2022-05-13T13:16:38.144Z</time>
      </trkpt>
      <trkpt lat="43.6968" lon="1.47797">
        <ele>265.048841</ele>
        <time>2022-05-13T13:16:40.184Z</time>
      </trkpt>
      <trkpt lat="43.69688" lon="1.47807">
        <ele>264.909057</ele>
        <time>2022-05-13T13:16:42.132Z</time>
      </trkpt>
      <trkpt lat="43.69696" lon="1.47816">
        <ele>264.766998</ele>
        <time>2022-05-13T13:16:44.137Z</time>
      </trkpt>
      <trkpt lat="43.69705" lon="1.47826">
        <ele>264.618633</ele>
        <time>2022-05-13T13:16:46.146Z</time>
      </trkpt>
      <trkpt lat="43.69714" lon="1.47833">
        <ele>264.474445</ele>
        <time>2022-05-13T13:16:48.160Z</time>
      </trkpt>
      <trkpt lat="43.69724" lon="1.47838">
        <ele>264.329855</ele>
        <time>2022-05-13T13:16:50.156Z</time>
      </trkpt>
      <trkpt lat="43.69735" lon="1.47841">
        <ele>264.188902</ele>
        <time>2022-05-13T13:16:52.152Z</time>
      </trkpt>
      <trkpt lat="43.69745" lon="1.47841">
        <ele>264.048666</ele>
        <time>2022-05-13T13:16:54.152Z</time>
      </trkpt>
      <trkpt lat="43.69756" lon="1.4784">
        <ele>263.904247</ele>
        <time>2022-05-13T13:16:56.161Z</time>
      </trkpt>
      <trkpt lat="43.69767" lon="1.47838">
        <ele>263.753055</ele>
        <time>2022-05-13T13:16:58.151Z</time>
      </trkpt>
      <trkpt lat="43.69779" lon="1.47834">
        <ele>263.596696</ele>
        <time>2022-05-13T13:17:00.160Z</time>
      </trkpt>
      <trkpt lat="43.6979" lon="1.4783">
        <ele>263.438656</ele>
        <time>2022-05-13T13:17:02.162Z</time>
      </trkpt>
      <trkpt lat="43.69802" lon="1.47825">
        <ele>263.276699</ele>
        <time>2022-05-13T13:17:04.155Z</time>
      </trkpt>
      <trkpt lat="43.69814" lon="1.4782">
        <ele>263.108346</ele>
        <time>2022-05-13T13:17:06.162Z</time>
      </trkpt>
      <trkpt lat="43.69826" lon="1.47815">
        <ele>262.584496</ele>
        <time>2022-05-13T13:17:08.145Z</time>
      </trkpt>
      <trkpt lat="43.69839" lon="1.4781">
        <ele>261.874201</ele>
        <time>2022-05-13T13:17:10.136Z</time>
      </trkpt>
      <trkpt lat="43.69852" lon="1.47805">
        <ele>261.153647</ele>
        <time>2022-05-13T13:17:12.139Z</time>
      </trkpt>
      <trkpt lat="43.69866" lon="1.47802">
        <ele>260.379772</ele>
        <time>2022-05-13T13:17:14.151Z</time>
      </trkpt>
      <trkpt lat="43.6988" lon="1.47793">
        <ele>259.545942</ele>
        <time>2022-05-13T13:17:16.173Z</time>
      </trkpt>
      <trkpt lat="43.69891" lon="1.47778">
        <ele>258.71231</ele>
        <time>2022-05-13T13:17:18.146Z</time>
      </trkpt>
      <trkpt lat="43.69903" lon="1.47763">
        <ele>257.847513</ele>
        <time>2022-05-13T13:17:20.158Z</time>
      </trkpt>
      <trkpt lat="43.69915" lon="1.47746">
        <ele>256.957504</ele>
        <time>2022-05-13T13:17:22.147Z</time>
      </trkpt>
      <trkpt lat="43.69926" lon="1.47729">
        <ele>256.035556</ele>
        <time>2022-05-13T13:17:24.147Z</time>
      </trkpt>
      <trkpt lat="43.69939" lon="1.47712">
        <ele>255.08766</ele>
        <time>2022-05-13T13:17:26.151Z</time>
      </trkpt>
      <trkpt lat="43.69945" lon="1.47703">
        <ele>254.595595</ele>
        <time>2022-05-13T13:17:27.143Z</time>
      </trkpt>
      <trkpt lat="43.69952" lon="1.47694">
        <ele>254.093871</ele>
        <time>2022-05-13T13:17:28.139Z</time>
      </trkpt>
      <trkpt lat="43.69959" lon="1.47684">
        <ele>253.576361</ele>
        <time>2022-05-13T13:17:29.151Z</time>
      </trkpt>
      <trkpt lat="43.69966" lon="1.47675">
        <ele>253.176931</ele>
        <time>2022-05-13T13:17:30.142Z</time>
      </trkpt>
      <trkpt lat="43.69973" lon="1.47665">
        <ele>252.828913</ele>
        <time>2022-05-13T13:17:31.145Z</time>
      </trkpt>
      <trkpt lat="43.69981" lon="1.47656">
        <ele>252.477445</ele>
        <time>2022-05-13T13:17:32.150Z</time>
      </trkpt>
      <trkpt lat="43.69988" lon="1.47647">
        <ele>252.131599</ele>
        <time>2022-05-13T13:17:33.161Z</time>
      </trkpt>
      <trkpt lat="43.69996" lon="1.47639">
        <ele>251.794265</ele>
        <time>2022-05-13T13:17:34.139Z</time>
      </trkpt>
      <trkpt lat="43.70004" lon="1.47633">
        <ele>251.46573</ele>
        <time>2022-05-13T13:17:35.144Z</time>
      </trkpt>
      <trkpt lat="43.70013" lon="1.47628">
        <ele>251.142135</ele>
        <time>2022-05-13T13:17:36.136Z</time>
      </trkpt>
      <trkpt lat="43.70022" lon="1.47624">
        <ele>250.825982</ele>
        <time>2022-05-13T13:17:37.118Z</time>
      </trkpt>
      <trkpt lat="43.70031" lon="1.47622">
        <ele>250.50909</ele>
        <time>2022-05-13T13:17:38.146Z</time>
      </trkpt>
      <trkpt lat="43.70048" lon="1.4762">
        <ele>249.893468</ele>
        <time>2022-05-13T13:17:40.143Z</time>
      </trkpt>
      <trkpt lat="43.70065" lon="1.47622">
        <ele>249.298729</ele>
        <time>2022-05-13T13:17:42.146Z</time>
      </trkpt>
      <trkpt lat="43.70082" lon="1.47625">
        <ele>248.716631</ele>
        <time>2022-05-13T13:17:44.139Z</time>
      </trkpt>
      <trkpt lat="43.70098" lon="1.47628">
        <ele>248.146641</ele>
        <time>2022-05-13T13:17:46.168Z</time>
      </trkpt>
      <trkpt lat="43.70114" lon="1.47631">
        <ele>247.586695</ele>
        <time>2022-05-13T13:17:48.140Z</time>
      </trkpt>
      <trkpt lat="43.7013" lon="1.47632">
        <ele>247.153414</ele>
        <time>2022-05-13T13:17:50.152Z</time>
      </trkpt>
      <trkpt lat="43.70146" lon="1.47626">
        <ele>247.178697</ele>
        <time>2022-05-13T13:17:52.158Z</time>
      </trkpt>
      <trkpt lat="43.70161" lon="1.47618">
        <ele>247.203449</ele>
        <time>2022-05-13T13:17:54.158Z</time>
      </trkpt>
      <trkpt lat="43.70175" lon="1.47611">
        <ele>247.226716</ele>
        <time>2022-05-13T13:17:56.142Z</time>
      </trkpt>
      <trkpt lat="43.7019" lon="1.47608">
        <ele>247.248946</ele>
        <time>2022-05-13T13:17:58.156Z</time>
      </trkpt>
      <trkpt lat="43.70203" lon="1.4761">
        <ele>247.26912</ele>
        <time>2022-05-13T13:18:00.140Z</time>
      </trkpt>
      <trkpt lat="43.70214" lon="1.47617">
        <ele>247.287486</ele>
        <time>2022-05-13T13:18:02.166Z</time>
      </trkpt>
      <trkpt lat="43.70224" lon="1.47624">
        <ele>247.304685</ele>
        <time>2022-05-13T13:18:04.148Z</time>
      </trkpt>
      <trkpt lat="43.70233" lon="1.47631">
        <ele>247.321568</ele>
        <time>2022-05-13T13:18:06.158Z</time>
      </trkpt>
      <trkpt lat="43.70243" lon="1.47639">
        <ele>247.338712</ele>
        <time>2022-05-13T13:18:08.163Z</time>
      </trkpt>
      <trkpt lat="43.70253" lon="1.47646">
        <ele>247.356105</ele>
        <time>2022-05-13T13:18:10.159Z</time>
      </trkpt>
      <trkpt lat="43.70263" lon="1.47654">
        <ele>247.373769</ele>
        <time>2022-05-13T13:18:12.164Z</time>
      </trkpt>
      <trkpt lat="43.70274" lon="1.47662">
        <ele>247.392045</ele>
        <time>2022-05-13T13:18:14.161Z</time>
      </trkpt>
      <trkpt lat="43.70285" lon="1.47669">
        <ele>247.410534</ele>
        <time>2022-05-13T13:18:16.149Z</time>
      </trkpt>
      <trkpt lat="43.70296" lon="1.47675">
        <ele>247.314837</ele>
        <time>2022-05-13T13:18:18.155Z</time>
      </trkpt>
      <trkpt lat="43.70308" lon="1.47682">
        <ele>246.958562</ele>
        <time>2022-05-13T13:18:20.158Z</time>
      </trkpt>
      <trkpt lat="43.70321" lon="1.47688">
        <ele>246.56746</ele>
        <time>2022-05-13T13:18:22.134Z</time>
      </trkpt>
      <trkpt lat="43.70335" lon="1.47696">
        <ele>246.139697</ele>
        <time>2022-05-13T13:18:24.165Z</time>
      </trkpt>
      <trkpt lat="43.7035" lon="1.47703">
        <ele>245.680271</ele>
        <time>2022-05-13T13:18:26.143Z</time>
      </trkpt>
      <trkpt lat="43.70366" lon="1.47712">
        <ele>245.199388</ele>
        <time>2022-05-13T13:18:28.156Z</time>
      </trkpt>
      <trkpt lat="43.70382" lon="1.47721">
        <ele>244.708301</ele>
        <time>2022-05-13T13:18:30.146Z</time>
      </trkpt>
      <trkpt lat="43.70398" lon="1.47729">
        <ele>244.222813</ele>
        <time>2022-05-13T13:18:32.154Z</time>
      </trkpt>
      <trkpt lat="43.70414" lon="1.47736">
        <ele>243.737231</ele>
        <time>2022-05-13T13:18:34.146Z</time>
      </trkpt>
      <trkpt lat="43.7043" lon="1.47743">
        <ele>243.263797</ele>
        <time>2022-05-13T13:18:36.165Z</time>
      </trkpt>
      <trkpt lat="43.70446" lon="1.47751">
        <ele>242.797703</ele>
        <time>2022-05-13T13:18:38.156Z</time>
      </trkpt>
      <trkpt lat="43.70461" lon="1.47758">
        <ele>242.33833</ele>
        <time>2022-05-13T13:18:40.159Z</time>
      </trkpt>
      <trkpt lat="43.70475" lon="1.47767">
        <ele>242.229524</ele>
        <time>2022-05-13T13:18:42.151Z</time>
      </trkpt>
      <trkpt lat="43.70487" lon="1.47782">
        <ele>242.131602</ele>
        <time>2022-05-13T13:18:44.149Z</time>
      </trkpt>
      <trkpt lat="43.70496" lon="1.47799">
        <ele>242.033539</ele>
        <time>2022-05-13T13:18:46.165Z</time>
      </trkpt>
      <trkpt lat="43.70503" lon="1.47819">
        <ele>241.93456</ele>
        <time>2022-05-13T13:18:48.156Z</time>
      </trkpt>
      <trkpt lat="43.7051" lon="1.47838">
        <ele>241.836456</ele>
        <time>2022-05-13T13:18:50.159Z</time>
      </trkpt>
      <trkpt lat="43.70518" lon="1.47856">
        <ele>241.741071</ele>
        <time>2022-05-13T13:18:52.165Z</time>
      </trkpt>
      <trkpt lat="43.70525" lon="1.47873">
        <ele>241.648654</ele>
        <time>2022-05-13T13:18:54.168Z</time>
      </trkpt>
      <trkpt lat="43.70533" lon="1.47891">
        <ele>241.555233</ele>
        <time>2022-05-13T13:18:56.170Z</time>
      </trkpt>
      <trkpt lat="43.70541" lon="1.47908">
        <ele>241.463203</ele>
        <time>2022-05-13T13:18:58.147Z</time>
      </trkpt>
      <trkpt lat="43.70549" lon="1.47925">
        <ele>241.370726</ele>
        <time>2022-05-13T13:19:00.158Z</time>
      </trkpt>
      <trkpt lat="43.70557" lon="1.47943">
        <ele>241.277258</ele>
        <time>2022-05-13T13:19:02.176Z</time>
      </trkpt>
      <trkpt lat="43.70564" lon="1.4796">
        <ele>241.198085</ele>
        <time>2022-05-13T13:19:04.176Z</time>
      </trkpt>
      <trkpt lat="43.70572" lon="1.47977">
        <ele>241.243155</ele>
        <time>2022-05-13T13:19:06.174Z</time>
      </trkpt>
      <trkpt lat="43.7058" lon="1.47993">
        <ele>241.287849</ele>
        <time>2022-05-13T13:19:08.167Z</time>
      </trkpt>
      <trkpt lat="43.70588" lon="1.48009">
        <ele>241.331226</ele>
        <time>2022-05-13T13:19:10.159Z</time>
      </trkpt>
      <trkpt lat="43.70596" lon="1.48024">
        <ele>241.373707</ele>
        <time>2022-05-13T13:19:12.160Z</time>
      </trkpt>
      <trkpt lat="43.70604" lon="1.48039">
        <ele>241.415631</ele>
        <time>2022-05-13T13:19:14.158Z</time>
      </trkpt>
      <trkpt lat="43.70613" lon="1.48053">
        <ele>241.456774</ele>
        <time>2022-05-13T13:19:16.140Z</time>
      </trkpt>
      <trkpt lat="43.70621" lon="1.48068">
        <ele>241.497299</ele>
        <time>2022-05-13T13:19:18.144Z</time>
      </trkpt>
      <trkpt lat="43.70629" lon="1.48082">
        <ele>241.537238</ele>
        <time>2022-05-13T13:19:20.182Z</time>
      </trkpt>
      <trkpt lat="43.70636" lon="1.48095">
        <ele>241.574992</ele>
        <time>2022-05-13T13:19:22.156Z</time>
      </trkpt>
      <trkpt lat="43.70643" lon="1.48108">
        <ele>241.611473</ele>
        <time>2022-05-13T13:19:24.176Z</time>
      </trkpt>
      <trkpt lat="43.7065" lon="1.48121">
        <ele>241.645777</ele>
        <time>2022-05-13T13:19:26.152Z</time>
      </trkpt>
      <trkpt lat="43.70657" lon="1.48132">
        <ele>241.679027</ele>
        <time>2022-05-13T13:19:28.166Z</time>
      </trkpt>
      <trkpt lat="43.70664" lon="1.48144">
        <ele>241.71401</ele>
        <time>2022-05-13T13:19:30.151Z</time>
      </trkpt>
      <trkpt lat="43.70672" lon="1.48155">
        <ele>241.74933</ele>
        <time>2022-05-13T13:19:32.162Z</time>
      </trkpt>
      <trkpt lat="43.70681" lon="1.48166">
        <ele>241.711901</ele>
        <time>2022-05-13T13:19:34.165Z</time>
      </trkpt>
      <trkpt lat="43.70691" lon="1.48175">
        <ele>241.669585</ele>
        <time>2022-05-13T13:19:36.152Z</time>
      </trkpt>
      <trkpt lat="43.70702" lon="1.48184">
        <ele>241.626727</ele>
        <time>2022-05-13T13:19:38.139Z</time>
      </trkpt>
      <trkpt lat="43.70713" lon="1.48191">
        <ele>241.583861</ele>
        <time>2022-05-13T13:19:40.154Z</time>
      </trkpt>
      <trkpt lat="43.70724" lon="1.48198">
        <ele>241.540679</ele>
        <time>2022-05-13T13:19:42.155Z</time>
      </trkpt>
      <trkpt lat="43.70736" lon="1.48204">
        <ele>241.497578</ele>
        <time>2022-05-13T13:19:44.177Z</time>
      </trkpt>
      <trkpt lat="43.70747" lon="1.48211">
        <ele>241.454058</ele>
        <time>2022-05-13T13:19:46.163Z</time>
      </trkpt>
      <trkpt lat="43.70759" lon="1.48218">
        <ele>241.410557</ele>
        <time>2022-05-13T13:19:48.159Z</time>
      </trkpt>
      <trkpt lat="43.70771" lon="1.48225">
        <ele>241.365156</ele>
        <time>2022-05-13T13:19:50.157Z</time>
      </trkpt>
      <trkpt lat="43.70783" lon="1.48234">
        <ele>241.31796</ele>
        <time>2022-05-13T13:19:52.164Z</time>
      </trkpt>
      <trkpt lat="43.70795" lon="1.48242">
        <ele>241.270431</ele>
        <time>2022-05-13T13:19:54.159Z</time>
      </trkpt>
      <trkpt lat="43.70807" lon="1.4825">
        <ele>241.223751</ele>
        <time>2022-05-13T13:19:56.160Z</time>
      </trkpt>
      <trkpt lat="43.70819" lon="1.48259">
        <ele>241.177777</ele>
        <time>2022-05-13T13:19:58.176Z</time>
      </trkpt>
      <trkpt lat="43.7083" lon="1.48267">
        <ele>241.132259</ele>
        <time>2022-05-13T13:20:00.164Z</time>
      </trkpt>
      <trkpt lat="43.70842" lon="1.48275">
        <ele>241.115955</ele>
        <time>2022-05-13T13:20:02.160Z</time>
      </trkpt>
      <trkpt lat="43.70854" lon="1.48283">
        <ele>241.10629</ele>
        <time>2022-05-13T13:20:04.175Z</time>
      </trkpt>
      <trkpt lat="43.70865" lon="1.48291">
        <ele>241.097028</ele>
        <time>2022-05-13T13:20:06.166Z</time>
      </trkpt>
      <trkpt lat="43.70876" lon="1.48299">
        <ele>241.08797</ele>
        <time>2022-05-13T13:20:08.172Z</time>
      </trkpt>
      <trkpt lat="43.70886" lon="1.48306">
        <ele>241.078953</ele>
        <time>2022-05-13T13:20:10.164Z</time>
      </trkpt>
      <trkpt lat="43.70897" lon="1.48313">
        <ele>241.070261</ele>
        <time>2022-05-13T13:20:12.171Z</time>
      </trkpt>
      <trkpt lat="43.70907" lon="1.4832">
        <ele>241.061701</ele>
        <time>2022-05-13T13:20:14.136Z</time>
      </trkpt>
      <trkpt lat="43.70918" lon="1.48327">
        <ele>241.053389</ele>
        <time>2022-05-13T13:20:16.161Z</time>
      </trkpt>
      <trkpt lat="43.70927" lon="1.48334">
        <ele>241.04516</ele>
        <time>2022-05-13T13:20:18.163Z</time>
      </trkpt>
      <trkpt lat="43.70937" lon="1.48342">
        <ele>241.03722</ele>
        <time>2022-05-13T13:20:20.176Z</time>
      </trkpt>
      <trkpt lat="43.70946" lon="1.4835">
        <ele>241.028912</ele>
        <time>2022-05-13T13:20:22.147Z</time>
      </trkpt>
      <trkpt lat="43.70956" lon="1.4836">
        <ele>241.020238</ele>
        <time>2022-05-13T13:20:24.163Z</time>
      </trkpt>
      <trkpt lat="43.70965" lon="1.48369">
        <ele>241.011441</ele>
        <time>2022-05-13T13:20:26.165Z</time>
      </trkpt>
      <trkpt lat="43.70975" lon="1.48379">
        <ele>241.002789</ele>
        <time>2022-05-13T13:20:28.147Z</time>
      </trkpt>
      <trkpt lat="43.70984" lon="1.48389">
        <ele>240.994053</ele>
        <time>2022-05-13T13:20:30.163Z</time>
      </trkpt>
      <trkpt lat="43.70993" lon="1.48399">
        <ele>241.067828</ele>
        <time>2022-05-13T13:20:32.163Z</time>
      </trkpt>
      <trkpt lat="43.71002" lon="1.48408">
        <ele>241.188483</ele>
        <time>2022-05-13T13:20:34.148Z</time>
      </trkpt>
      <trkpt lat="43.71012" lon="1.48417">
        <ele>241.316571</ele>
        <time>2022-05-13T13:20:37.162Z</time>
      </trkpt>
      <trkpt lat="43.71021" lon="1.48423">
        <ele>241.427603</ele>
        <time>2022-05-13T13:20:45.139Z</time>
      </trkpt>
      <trkpt lat="43.71027" lon="1.48434">
        <ele>241.532517</ele>
        <time>2022-05-13T13:20:50.150Z</time>
      </trkpt>
      <trkpt lat="43.71035" lon="1.48441">
        <ele>241.63248</ele>
        <time>2022-05-13T13:20:53.144Z</time>
      </trkpt>
      <trkpt lat="43.71044" lon="1.48453">
        <ele>241.776088</ele>
        <time>2022-05-13T13:20:56.150Z</time>
      </trkpt>
      <trkpt lat="43.71051" lon="1.48462">
        <ele>241.877795</ele>
        <time>2022-05-13T13:20:58.146Z</time>
      </trkpt>
      <trkpt lat="43.71059" lon="1.48471">
        <ele>241.984434</ele>
        <time>2022-05-13T13:21:00.162Z</time>
      </trkpt>
      <trkpt lat="43.71066" lon="1.4848">
        <ele>242.093213</ele>
        <time>2022-05-13T13:21:02.176Z</time>
      </trkpt>
      <trkpt lat="43.71074" lon="1.48489">
        <ele>242.204274</ele>
        <time>2022-05-13T13:21:04.164Z</time>
      </trkpt>
      <trkpt lat="43.71082" lon="1.48498">
        <ele>242.314687</ele>
        <time>2022-05-13T13:21:06.169Z</time>
      </trkpt>
      <trkpt lat="43.7109" lon="1.48508">
        <ele>242.427258</ele>
        <time>2022-05-13T13:21:08.161Z</time>
      </trkpt>
      <trkpt lat="43.71098" lon="1.48517">
        <ele>242.538318</ele>
        <time>2022-05-13T13:21:10.151Z</time>
      </trkpt>
      <trkpt lat="43.71105" lon="1.48526">
        <ele>242.649204</ele>
        <time>2022-05-13T13:21:12.156Z</time>
      </trkpt>
      <trkpt lat="43.71113" lon="1.48536">
        <ele>242.760361</ele>
        <time>2022-05-13T13:21:14.159Z</time>
      </trkpt>
      <trkpt lat="43.7112" lon="1.48545">
        <ele>242.870085</ele>
        <time>2022-05-13T13:21:16.146Z</time>
      </trkpt>
      <trkpt lat="43.71128" lon="1.48553">
        <ele>242.95178</ele>
        <time>2022-05-13T13:21:18.147Z</time>
      </trkpt>
      <trkpt lat="43.71136" lon="1.48561">
        <ele>242.978931</ele>
        <time>2022-05-13T13:21:20.166Z</time>
      </trkpt>
      <trkpt lat="43.71144" lon="1.48571">
        <ele>243.00755</ele>
        <time>2022-05-13T13:21:22.177Z</time>
      </trkpt>
      <trkpt lat="43.71153" lon="1.4858">
        <ele>243.037999</ele>
        <time>2022-05-13T13:21:24.162Z</time>
      </trkpt>
      <trkpt lat="43.71161" lon="1.48589">
        <ele>243.068878</ele>
        <time>2022-05-13T13:21:26.164Z</time>
      </trkpt>
      <trkpt lat="43.71169" lon="1.48601">
        <ele>243.100281</ele>
        <time>2022-05-13T13:21:28.170Z</time>
      </trkpt>
      <trkpt lat="43.71177" lon="1.48614">
        <ele>243.133998</ele>
        <time>2022-05-13T13:21:30.158Z</time>
      </trkpt>
      <trkpt lat="43.71184" lon="1.48627">
        <ele>243.167147</ele>
        <time>2022-05-13T13:21:32.168Z</time>
      </trkpt>
      <trkpt lat="43.71192" lon="1.4864">
        <ele>243.200125</ele>
        <time>2022-05-13T13:21:34.167Z</time>
      </trkpt>
      <trkpt lat="43.71199" lon="1.48653">
        <ele>243.233602</ele>
        <time>2022-05-13T13:21:36.162Z</time>
      </trkpt>
      <trkpt lat="43.71207" lon="1.48665">
        <ele>243.266532</ele>
        <time>2022-05-13T13:21:38.159Z</time>
      </trkpt>
      <trkpt lat="43.71215" lon="1.48678">
        <ele>243.29928</ele>
        <time>2022-05-13T13:21:40.155Z</time>
      </trkpt>
      <trkpt lat="43.71222" lon="1.4869">
        <ele>243.331143</ele>
        <time>2022-05-13T13:21:42.144Z</time>
      </trkpt>
      <trkpt lat="43.71229" lon="1.48702">
        <ele>243.36259</ele>
        <time>2022-05-13T13:21:44.155Z</time>
      </trkpt>
      <trkpt lat="43.71236" lon="1.48714">
        <ele>243.394609</ele>
        <time>2022-05-13T13:21:46.144Z</time>
      </trkpt>
      <trkpt lat="43.71244" lon="1.48727">
        <ele>243.426976</ele>
        <time>2022-05-13T13:21:48.159Z</time>
      </trkpt>
      <trkpt lat="43.71251" lon="1.4874">
        <ele>243.49388</ele>
        <time>2022-05-13T13:21:50.158Z</time>
      </trkpt>
      <trkpt lat="43.71259" lon="1.48753">
        <ele>243.589498</ele>
        <time>2022-05-13T13:21:52.160Z</time>
      </trkpt>
      <trkpt lat="43.71267" lon="1.48767">
        <ele>243.687478</ele>
        <time>2022-05-13T13:21:54.141Z</time>
      </trkpt>
      <trkpt lat="43.71274" lon="1.4878">
        <ele>243.784051</ele>
        <time>2022-05-13T13:21:56.157Z</time>
      </trkpt>
      <trkpt lat="43.71282" lon="1.48794">
        <ele>243.880624</ele>
        <time>2022-05-13T13:21:58.180Z</time>
      </trkpt>
      <trkpt lat="43.71289" lon="1.48808">
        <ele>243.977571</ele>
        <time>2022-05-13T13:22:00.148Z</time>
      </trkpt>
      <trkpt lat="43.71296" lon="1.48822">
        <ele>244.074094</ele>
        <time>2022-05-13T13:22:02.148Z</time>
      </trkpt>
      <trkpt lat="43.71303" lon="1.48836">
        <ele>244.170583</ele>
        <time>2022-05-13T13:22:04.160Z</time>
      </trkpt>
      <trkpt lat="43.71311" lon="1.4885">
        <ele>244.266165</ele>
        <time>2022-05-13T13:22:06.134Z</time>
      </trkpt>
      <trkpt lat="43.71318" lon="1.48864">
        <ele>244.361311</ele>
        <time>2022-05-13T13:22:08.159Z</time>
      </trkpt>
      <trkpt lat="43.71325" lon="1.48876">
        <ele>244.452046</ele>
        <time>2022-05-13T13:22:10.157Z</time>
      </trkpt>
      <trkpt lat="43.71332" lon="1.48889">
        <ele>244.542166</ele>
        <time>2022-05-13T13:22:12.154Z</time>
      </trkpt>
      <trkpt lat="43.71338" lon="1.48902">
        <ele>244.630148</ele>
        <time>2022-05-13T13:22:14.135Z</time>
      </trkpt>
      <trkpt lat="43.71345" lon="1.48915">
        <ele>244.715256</ele>
        <time>2022-05-13T13:22:16.167Z</time>
      </trkpt>
      <trkpt lat="43.7135" lon="1.48927">
        <ele>244.797779</ele>
        <time>2022-05-13T13:22:18.168Z</time>
      </trkpt>
      <trkpt lat="43.71355" lon="1.48939">
        <ele>244.700482</ele>
        <time>2022-05-13T13:22:20.139Z</time>
      </trkpt>
      <trkpt lat="43.71359" lon="1.48951">
        <ele>244.420441</ele>
        <time>2022-05-13T13:22:22.170Z</time>
      </trkpt>
      <trkpt lat="43.71363" lon="1.48964">
        <ele>244.148874</ele>
        <time>2022-05-13T13:22:24.160Z</time>
      </trkpt>
      <trkpt lat="43.71367" lon="1.48976">
        <ele>243.862556</ele>
        <time>2022-05-13T13:22:26.161Z</time>
      </trkpt>
      <trkpt lat="43.71371" lon="1.4899">
        <ele>243.554592</ele>
        <time>2022-05-13T13:22:28.163Z</time>
      </trkpt>
      <trkpt lat="43.71375" lon="1.49005">
        <ele>243.223805</ele>
        <time>2022-05-13T13:22:30.134Z</time>
      </trkpt>
      <trkpt lat="43.71381" lon="1.49019">
        <ele>242.874586</ele>
        <time>2022-05-13T13:22:32.161Z</time>
      </trkpt>
      <trkpt lat="43.7139" lon="1.49033">
        <ele>242.493255</ele>
        <time>2022-05-13T13:22:34.160Z</time>
      </trkpt>
      <trkpt lat="43.71399" lon="1.49048">
        <ele>242.089077</ele>
        <time>2022-05-13T13:22:36.141Z</time>
      </trkpt>
      <trkpt lat="43.71409" lon="1.49062">
        <ele>241.676223</ele>
        <time>2022-05-13T13:22:38.136Z</time>
      </trkpt>
      <trkpt lat="43.7142" lon="1.49076">
        <ele>241.248744</ele>
        <time>2022-05-13T13:22:40.142Z</time>
      </trkpt>
      <trkpt lat="43.71431" lon="1.49092">
        <ele>240.808074</ele>
        <time>2022-05-13T13:22:42.179Z</time>
      </trkpt>
      <trkpt lat="43.71442" lon="1.49107">
        <ele>240.351944</ele>
        <time>2022-05-13T13:22:44.153Z</time>
      </trkpt>
      <trkpt lat="43.71453" lon="1.49124">
        <ele>239.880744</ele>
        <time>2022-05-13T13:22:46.148Z</time>
      </trkpt>
      <trkpt lat="43.71464" lon="1.49141">
        <ele>239.385071</ele>
        <time>2022-05-13T13:22:48.151Z</time>
      </trkpt>
      <trkpt lat="43.71476" lon="1.49158">
        <ele>238.886589</ele>
        <time>2022-05-13T13:22:50.174Z</time>
      </trkpt>
      <trkpt lat="43.71486" lon="1.49176">
        <ele>238.394375</ele>
        <time>2022-05-13T13:22:52.150Z</time>
      </trkpt>
      <trkpt lat="43.71497" lon="1.49193">
        <ele>237.913698</ele>
        <time>2022-05-13T13:22:54.150Z</time>
      </trkpt>
      <trkpt lat="43.71507" lon="1.49211">
        <ele>237.418926</ele>
        <time>2022-05-13T13:22:56.152Z</time>
      </trkpt>
      <trkpt lat="43.71515" lon="1.49229">
        <ele>236.967006</ele>
        <time>2022-05-13T13:22:58.163Z</time>
      </trkpt>
      <trkpt lat="43.71524" lon="1.49248">
        <ele>236.474895</ele>
        <time>2022-05-13T13:23:00.141Z</time>
      </trkpt>
      <trkpt lat="43.71532" lon="1.49268">
        <ele>235.985838</ele>
        <time>2022-05-13T13:23:02.162Z</time>
      </trkpt>
      <trkpt lat="43.71539" lon="1.49287">
        <ele>235.514314</ele>
        <time>2022-05-13T13:23:04.133Z</time>
      </trkpt>
      <trkpt lat="43.71546" lon="1.49305">
        <ele>235.084804</ele>
        <time>2022-05-13T13:23:06.144Z</time>
      </trkpt>
      <trkpt lat="43.71554" lon="1.49321">
        <ele>234.666041</ele>
        <time>2022-05-13T13:23:08.150Z</time>
      </trkpt>
      <trkpt lat="43.7156" lon="1.49337">
        <ele>234.23941</ele>
        <time>2022-05-13T13:23:10.163Z</time>
      </trkpt>
      <trkpt lat="43.71568" lon="1.49352">
        <ele>233.471298</ele>
        <time>2022-05-13T13:23:12.155Z</time>
      </trkpt>
      <trkpt lat="43.71575" lon="1.49367">
        <ele>232.7513</ele>
        <time>2022-05-13T13:23:14.143Z</time>
      </trkpt>
      <trkpt lat="43.71581" lon="1.49382">
        <ele>232.018621</ele>
        <time>2022-05-13T13:23:16.162Z</time>
      </trkpt>
      <trkpt lat="43.71587" lon="1.49395">
        <ele>231.360944</ele>
        <time>2022-05-13T13:23:18.162Z</time>
      </trkpt>
      <trkpt lat="43.71592" lon="1.49408">
        <ele>230.772468</ele>
        <time>2022-05-13T13:23:20.158Z</time>
      </trkpt>
      <trkpt lat="43.71595" lon="1.49422">
        <ele>230.14702</ele>
        <time>2022-05-13T13:23:22.139Z</time>
      </trkpt>
      <trkpt lat="43.71597" lon="1.49437">
        <ele>229.509025</ele>
        <time>2022-05-13T13:23:24.147Z</time>
      </trkpt>
      <trkpt lat="43.71598" lon="1.49455">
        <ele>228.753389</ele>
        <time>2022-05-13T13:23:26.150Z</time>
      </trkpt>
      <trkpt lat="43.71598" lon="1.49478">
        <ele>227.811077</ele>
        <time>2022-05-13T13:23:28.137Z</time>
      </trkpt>
      <trkpt lat="43.71598" lon="1.49503">
        <ele>226.781233</ele>
        <time>2022-05-13T13:23:30.141Z</time>
      </trkpt>
      <trkpt lat="43.71598" lon="1.49516">
        <ele>226.210076</ele>
        <time>2022-05-13T13:23:31.149Z</time>
      </trkpt>
      <trkpt lat="43.71597" lon="1.49531">
        <ele>225.609655</ele>
        <time>2022-05-13T13:23:32.155Z</time>
      </trkpt>
      <trkpt lat="43.71597" lon="1.49544">
        <ele>225.054453</ele>
        <time>2022-05-13T13:23:33.160Z</time>
      </trkpt>
      <trkpt lat="43.71597" lon="1.4956">
        <ele>224.399542</ele>
        <time>2022-05-13T13:23:34.149Z</time>
      </trkpt>
      <trkpt lat="43.71596" lon="1.49575">
        <ele>223.719857</ele>
        <time>2022-05-13T13:23:35.149Z</time>
      </trkpt>
      <trkpt lat="43.71596" lon="1.49591">
        <ele>222.777466</ele>
        <time>2022-05-13T13:23:36.153Z</time>
      </trkpt>
      <trkpt lat="43.71594" lon="1.49608">
        <ele>221.843527</ele>
        <time>2022-05-13T13:23:37.135Z</time>
      </trkpt>
      <trkpt lat="43.71594" lon="1.49624">
        <ele>220.917501</ele>
        <time>2022-05-13T13:23:38.146Z</time>
      </trkpt>
      <trkpt lat="43.71593" lon="1.49642">
        <ele>219.947129</ele>
        <time>2022-05-13T13:23:39.139Z</time>
      </trkpt>
      <trkpt lat="43.71593" lon="1.49659">
        <ele>218.971777</ele>
        <time>2022-05-13T13:23:40.145Z</time>
      </trkpt>
      <trkpt lat="43.71593" lon="1.49676">
        <ele>218.0136</ele>
        <time>2022-05-13T13:23:41.150Z</time>
      </trkpt>
      <trkpt lat="43.71594" lon="1.49693">
        <ele>217.060016</ele>
        <time>2022-05-13T13:23:42.141Z</time>
      </trkpt>
      <trkpt lat="43.71596" lon="1.49707">
        <ele>216.240771</ele>
        <time>2022-05-13T13:23:43.141Z</time>
      </trkpt>
      <trkpt lat="43.716" lon="1.49722">
        <ele>215.35819</ele>
        <time>2022-05-13T13:23:44.145Z</time>
      </trkpt>
      <trkpt lat="43.71606" lon="1.49744">
        <ele>214.059354</ele>
        <time>2022-05-13T13:23:46.150Z</time>
      </trkpt>
      <trkpt lat="43.7161" lon="1.4976">
        <ele>213.110825</ele>
        <time>2022-05-13T13:23:48.141Z</time>
      </trkpt>
      <trkpt lat="43.71615" lon="1.49774">
        <ele>212.229233</ele>
        <time>2022-05-13T13:23:51.148Z</time>
      </trkpt>
      <trkpt lat="43.71613" lon="1.49789">
        <ele>211.384106</ele>
        <time>2022-05-13T13:23:54.163Z</time>
      </trkpt>
      <trkpt lat="43.71615" lon="1.49803">
        <ele>210.608765</ele>
        <time>2022-05-13T13:23:56.159Z</time>
      </trkpt>
      <trkpt lat="43.71618" lon="1.49818">
        <ele>209.891719</ele>
        <time>2022-05-13T13:23:58.153Z</time>
      </trkpt>
      <trkpt lat="43.7162" lon="1.49835">
        <ele>209.519712</ele>
        <time>2022-05-13T13:24:00.166Z</time>
      </trkpt>
      <trkpt lat="43.71623" lon="1.49855">
        <ele>209.094901</ele>
        <time>2022-05-13T13:24:02.155Z</time>
      </trkpt>
      <trkpt lat="43.71626" lon="1.49875">
        <ele>208.665941</ele>
        <time>2022-05-13T13:24:04.161Z</time>
      </trkpt>
      <trkpt lat="43.7163" lon="1.49895">
        <ele>208.219776</ele>
        <time>2022-05-13T13:24:06.166Z</time>
      </trkpt>
      <trkpt lat="43.71632" lon="1.49915">
        <ele>207.788367</ele>
        <time>2022-05-13T13:24:08.157Z</time>
      </trkpt>
      <trkpt lat="43.71635" lon="1.49935">
        <ele>207.373122</ele>
        <time>2022-05-13T13:24:10.163Z</time>
      </trkpt>
      <trkpt lat="43.71637" lon="1.49953">
        <ele>206.970409</ele>
        <time>2022-05-13T13:24:12.157Z</time>
      </trkpt>
      <trkpt lat="43.71639" lon="1.49972">
        <ele>206.564495</ele>
        <time>2022-05-13T13:24:14.159Z</time>
      </trkpt>
      <trkpt lat="43.71643" lon="1.49992">
        <ele>206.139801</ele>
        <time>2022-05-13T13:24:16.146Z</time>
      </trkpt>
      <trkpt lat="43.71651" lon="1.50008">
        <ele>205.716871</ele>
        <time>2022-05-13T13:24:18.150Z</time>
      </trkpt>
      <trkpt lat="43.71662" lon="1.50021">
        <ele>205.294723</ele>
        <time>2022-05-13T13:24:20.157Z</time>
      </trkpt>
      <trkpt lat="43.71674" lon="1.5003">
        <ele>204.880426</ele>
        <time>2022-05-13T13:24:22.166Z</time>
      </trkpt>
      <trkpt lat="43.71688" lon="1.50036">
        <ele>204.581064</ele>
        <time>2022-05-13T13:24:24.159Z</time>
      </trkpt>
      <trkpt lat="43.71701" lon="1.50041">
        <ele>204.347066</ele>
        <time>2022-05-13T13:24:26.157Z</time>
      </trkpt>
      <trkpt lat="43.71714" lon="1.50047">
        <ele>204.112065</ele>
        <time>2022-05-13T13:24:28.131Z</time>
      </trkpt>
      <trkpt lat="43.71727" lon="1.50052">
        <ele>203.8809</ele>
        <time>2022-05-13T13:24:30.162Z</time>
      </trkpt>
      <trkpt lat="43.71739" lon="1.50059">
        <ele>203.652597</ele>
        <time>2022-05-13T13:24:32.165Z</time>
      </trkpt>
      <trkpt lat="43.71752" lon="1.50068">
        <ele>203.422037</ele>
        <time>2022-05-13T13:24:34.163Z</time>
      </trkpt>
      <trkpt lat="43.71763" lon="1.50078">
        <ele>203.191606</ele>
        <time>2022-05-13T13:24:36.146Z</time>
      </trkpt>
      <trkpt lat="43.71772" lon="1.50091">
        <ele>202.966263</ele>
        <time>2022-05-13T13:24:38.140Z</time>
      </trkpt>
      <trkpt lat="43.71782" lon="1.50104">
        <ele>202.744059</ele>
        <time>2022-05-13T13:24:40.139Z</time>
      </trkpt>
      <trkpt lat="43.7179" lon="1.50117">
        <ele>202.521196</ele>
        <time>2022-05-13T13:24:42.157Z</time>
      </trkpt>
      <trkpt lat="43.71799" lon="1.5013">
        <ele>202.299688</ele>
        <time>2022-05-13T13:24:44.150Z</time>
      </trkpt>
      <trkpt lat="43.71808" lon="1.50144">
        <ele>202.077735</ele>
        <time>2022-05-13T13:24:46.146Z</time>
      </trkpt>
      <trkpt lat="43.71817" lon="1.50157">
        <ele>201.855782</ele>
        <time>2022-05-13T13:24:48.159Z</time>
      </trkpt>
      <trkpt lat="43.71825" lon="1.5017">
        <ele>201.625966</ele>
        <time>2022-05-13T13:24:50.169Z</time>
      </trkpt>
      <trkpt lat="43.71834" lon="1.50184">
        <ele>201.342283</ele>
        <time>2022-05-13T13:24:52.148Z</time>
      </trkpt>
      <trkpt lat="43.71843" lon="1.50197">
        <ele>201.065702</ele>
        <time>2022-05-13T13:24:54.161Z</time>
      </trkpt>
      <trkpt lat="43.71852" lon="1.5021">
        <ele>200.794929</ele>
        <time>2022-05-13T13:24:56.140Z</time>
      </trkpt>
      <trkpt lat="43.71861" lon="1.50223">
        <ele>200.520938</ele>
        <time>2022-05-13T13:24:58.157Z</time>
      </trkpt>
      <trkpt lat="43.71869" lon="1.50236">
        <ele>200.23984</ele>
        <time>2022-05-13T13:25:00.152Z</time>
      </trkpt>
      <trkpt lat="43.71879" lon="1.5025">
        <ele>199.949912</ele>
        <time>2022-05-13T13:25:02.158Z</time>
      </trkpt>
      <trkpt lat="43.7189" lon="1.50261">
        <ele>199.652887</ele>
        <time>2022-05-13T13:25:04.174Z</time>
      </trkpt>
      <trkpt lat="43.71904" lon="1.50267">
        <ele>199.348897</ele>
        <time>2022-05-13T13:25:06.137Z</time>
      </trkpt>
      <trkpt lat="43.71918" lon="1.5027">
        <ele>199.042752</ele>
        <time>2022-05-13T13:25:08.143Z</time>
      </trkpt>
      <trkpt lat="43.71932" lon="1.5027">
        <ele>198.732865</ele>
        <time>2022-05-13T13:25:10.128Z</time>
      </trkpt>
      <trkpt lat="43.71945" lon="1.50267">
        <ele>198.456706</ele>
        <time>2022-05-13T13:25:12.142Z</time>
      </trkpt>
      <trkpt lat="43.71956" lon="1.50265">
        <ele>198.233395</ele>
        <time>2022-05-13T13:25:15.163Z</time>
      </trkpt>
      <trkpt lat="43.71957" lon="1.50281">
        <ele>197.994913</ele>
        <time>2022-05-13T13:25:19.156Z</time>
      </trkpt>
      <trkpt lat="43.71954" lon="1.50293">
        <ele>197.804311</ele>
        <time>2022-05-13T13:25:21.152Z</time>
      </trkpt>
      <trkpt lat="43.71952" lon="1.50307">
        <ele>197.622415</ele>
        <time>2022-05-13T13:25:23.157Z</time>
      </trkpt>
      <trkpt lat="43.71949" lon="1.50321">
        <ele>197.427397</ele>
        <time>2022-05-13T13:25:25.154Z</time>
      </trkpt>
      <trkpt lat="43.71946" lon="1.50337">
        <ele>197.219184</ele>
        <time>2022-05-13T13:25:27.158Z</time>
      </trkpt>
      <trkpt lat="43.71943" lon="1.50354">
        <ele>197.002279</ele>
        <time>2022-05-13T13:25:29.163Z</time>
      </trkpt>
      <trkpt lat="43.7194" lon="1.50371">
        <ele>196.782071</ele>
        <time>2022-05-13T13:25:31.147Z</time>
      </trkpt>
      <trkpt lat="43.71937" lon="1.50388">
        <ele>196.555658</ele>
        <time>2022-05-13T13:25:33.154Z</time>
      </trkpt>
      <trkpt lat="43.71934" lon="1.50406">
        <ele>196.320625</ele>
        <time>2022-05-13T13:25:35.161Z</time>
      </trkpt>
      <trkpt lat="43.71931" lon="1.50424">
        <ele>196.081892</ele>
        <time>2022-05-13T13:25:37.170Z</time>
      </trkpt>
      <trkpt lat="43.71927" lon="1.50443">
        <ele>195.837793</ele>
        <time>2022-05-13T13:25:39.163Z</time>
      </trkpt>
      <trkpt lat="43.71924" lon="1.50461">
        <ele>195.592456</ele>
        <time>2022-05-13T13:25:41.155Z</time>
      </trkpt>
      <trkpt lat="43.71921" lon="1.5048">
        <ele>195.354952</ele>
        <time>2022-05-13T13:25:43.155Z</time>
      </trkpt>
      <trkpt lat="43.71922" lon="1.50497">
        <ele>195.137262</ele>
        <time>2022-05-13T13:25:45.152Z</time>
      </trkpt>
      <trkpt lat="43.71926" lon="1.50513">
        <ele>194.913425</ele>
        <time>2022-05-13T13:25:47.169Z</time>
      </trkpt>
      <trkpt lat="43.71933" lon="1.5053">
        <ele>194.669786</ele>
        <time>2022-05-13T13:25:49.136Z</time>
      </trkpt>
      <trkpt lat="43.71942" lon="1.50547">
        <ele>194.367629</ele>
        <time>2022-05-13T13:25:51.127Z</time>
      </trkpt>
      <trkpt lat="43.71951" lon="1.50563">
        <ele>194.060245</ele>
        <time>2022-05-13T13:25:53.139Z</time>
      </trkpt>
      <trkpt lat="43.71961" lon="1.50579">
        <ele>193.752193</ele>
        <time>2022-05-13T13:25:55.143Z</time>
      </trkpt>
      <trkpt lat="43.71971" lon="1.50593">
        <ele>193.442686</ele>
        <time>2022-05-13T13:25:57.140Z</time>
      </trkpt>
      <trkpt lat="43.71982" lon="1.50608">
        <ele>193.132038</ele>
        <time>2022-05-13T13:25:59.158Z</time>
      </trkpt>
      <trkpt lat="43.71994" lon="1.50621">
        <ele>192.820621</ele>
        <time>2022-05-13T13:26:01.153Z</time>
      </trkpt>
      <trkpt lat="43.72006" lon="1.50634">
        <ele>192.511202</ele>
        <time>2022-05-13T13:26:03.155Z</time>
      </trkpt>
      <trkpt lat="43.72018" lon="1.50645">
        <ele>192.209781</ele>
        <time>2022-05-13T13:26:05.158Z</time>
      </trkpt>
      <trkpt lat="43.7203" lon="1.50655">
        <ele>191.917208</ele>
        <time>2022-05-13T13:26:07.144Z</time>
      </trkpt>
      <trkpt lat="43.72042" lon="1.50665">
        <ele>191.624527</ele>
        <time>2022-05-13T13:26:09.155Z</time>
      </trkpt>
      <trkpt lat="43.72054" lon="1.50674">
        <ele>191.349909</ele>
        <time>2022-05-13T13:26:11.159Z</time>
      </trkpt>
      <trkpt lat="43.72065" lon="1.50683">
        <ele>191.080954</ele>
        <time>2022-05-13T13:26:13.136Z</time>
      </trkpt>
      <trkpt lat="43.72076" lon="1.50692">
        <ele>190.892653</ele>
        <time>2022-05-13T13:26:15.162Z</time>
      </trkpt>
      <trkpt lat="43.72087" lon="1.50701">
        <ele>190.791405</ele>
        <time>2022-05-13T13:26:17.155Z</time>
      </trkpt>
      <trkpt lat="43.72098" lon="1.5071">
        <ele>190.694096</ele>
        <time>2022-05-13T13:26:19.168Z</time>
      </trkpt>
      <trkpt lat="43.72108" lon="1.5072">
        <ele>190.596435</ele>
        <time>2022-05-13T13:26:21.138Z</time>
      </trkpt>
      <trkpt lat="43.72117" lon="1.50731">
        <ele>190.498204</ele>
        <time>2022-05-13T13:26:23.148Z</time>
      </trkpt>
      <trkpt lat="43.72127" lon="1.50743">
        <ele>190.400534</ele>
        <time>2022-05-13T13:26:25.148Z</time>
      </trkpt>
      <trkpt lat="43.72135" lon="1.50755">
        <ele>190.30205</ele>
        <time>2022-05-13T13:26:27.172Z</time>
      </trkpt>
      <trkpt lat="43.72145" lon="1.50768">
        <ele>190.20085</ele>
        <time>2022-05-13T13:26:29.145Z</time>
      </trkpt>
      <trkpt lat="43.72153" lon="1.5078">
        <ele>190.102923</ele>
        <time>2022-05-13T13:26:31.169Z</time>
      </trkpt>
      <trkpt lat="43.72162" lon="1.50792">
        <ele>190.003482</ele>
        <time>2022-05-13T13:26:33.165Z</time>
      </trkpt>
      <trkpt lat="43.72172" lon="1.50805">
        <ele>189.901164</ele>
        <time>2022-05-13T13:26:35.160Z</time>
      </trkpt>
      <trkpt lat="43.72181" lon="1.50817">
        <ele>189.800031</ele>
        <time>2022-05-13T13:26:37.180Z</time>
      </trkpt>
      <trkpt lat="43.72191" lon="1.50828">
        <ele>189.69899</ele>
        <time>2022-05-13T13:26:39.169Z</time>
      </trkpt>
      <trkpt lat="43.72201" lon="1.50839">
        <ele>189.597949</ele>
        <time>2022-05-13T13:26:41.140Z</time>
      </trkpt>
      <trkpt lat="43.72212" lon="1.50849">
        <ele>189.53737</ele>
        <time>2022-05-13T13:26:43.161Z</time>
      </trkpt>
      <trkpt lat="43.72222" lon="1.50859">
        <ele>189.573271</ele>
        <time>2022-05-13T13:26:45.170Z</time>
      </trkpt>
      <trkpt lat="43.72232" lon="1.50869">
        <ele>189.608363</ele>
        <time>2022-05-13T13:26:47.161Z</time>
      </trkpt>
      <trkpt lat="43.72243" lon="1.50878">
        <ele>189.643263</ele>
        <time>2022-05-13T13:26:49.166Z</time>
      </trkpt>
      <trkpt lat="43.72253" lon="1.50888">
        <ele>189.678234</ele>
        <time>2022-05-13T13:26:51.160Z</time>
      </trkpt>
      <trkpt lat="43.72263" lon="1.50898">
        <ele>189.713356</ele>
        <time>2022-05-13T13:26:53.173Z</time>
      </trkpt>
      <trkpt lat="43.72273" lon="1.50909">
        <ele>189.748129</ele>
        <time>2022-05-13T13:26:55.155Z</time>
      </trkpt>
      <trkpt lat="43.72282" lon="1.50919">
        <ele>189.782802</ele>
        <time>2022-05-13T13:26:57.168Z</time>
      </trkpt>
      <trkpt lat="43.72291" lon="1.50931">
        <ele>189.81694</ele>
        <time>2022-05-13T13:26:59.151Z</time>
      </trkpt>
      <trkpt lat="43.72299" lon="1.50943">
        <ele>189.850926</ele>
        <time>2022-05-13T13:27:01.142Z</time>
      </trkpt>
      <trkpt lat="43.72306" lon="1.50957">
        <ele>189.884525</ele>
        <time>2022-05-13T13:27:03.147Z</time>
      </trkpt>
      <trkpt lat="43.72312" lon="1.5097">
        <ele>189.91748</ele>
        <time>2022-05-13T13:27:05.187Z</time>
      </trkpt>
      <trkpt lat="43.72319" lon="1.50984">
        <ele>189.950449</ele>
        <time>2022-05-13T13:27:07.118Z</time>
      </trkpt>
      <trkpt lat="43.72325" lon="1.50997">
        <ele>189.983575</ele>
        <time>2022-05-13T13:27:09.154Z</time>
      </trkpt>
      <trkpt lat="43.72331" lon="1.51011">
        <ele>190.016544</ele>
        <time>2022-05-13T13:27:11.138Z</time>
      </trkpt>
      <trkpt lat="43.72338" lon="1.51024">
        <ele>190.081727</ele>
        <time>2022-05-13T13:27:13.170Z</time>
      </trkpt>
      <trkpt lat="43.72344" lon="1.51037">
        <ele>190.190461</ele>
        <time>2022-05-13T13:27:15.152Z</time>
      </trkpt>
      <trkpt lat="43.72351" lon="1.5105">
        <ele>190.296992</ele>
        <time>2022-05-13T13:27:17.168Z</time>
      </trkpt>
      <trkpt lat="43.72357" lon="1.51063">
        <ele>190.40854</ele>
        <time>2022-05-13T13:27:19.157Z</time>
      </trkpt>
      <trkpt lat="43.72364" lon="1.51076">
        <ele>190.516678</ele>
        <time>2022-05-13T13:27:21.151Z</time>
      </trkpt>
      <trkpt lat="43.7237" lon="1.51089">
        <ele>190.626473</ele>
        <time>2022-05-13T13:27:23.155Z</time>
      </trkpt>
      <trkpt lat="43.72377" lon="1.51102">
        <ele>190.738021</ele>
        <time>2022-05-13T13:27:25.149Z</time>
      </trkpt>
      <trkpt lat="43.72383" lon="1.51116">
        <ele>190.849043</ele>
        <time>2022-05-13T13:27:27.161Z</time>
      </trkpt>
      <trkpt lat="43.7239" lon="1.51129">
        <ele>190.958853</ele>
        <time>2022-05-13T13:27:29.174Z</time>
      </trkpt>
      <trkpt lat="43.72396" lon="1.51142">
        <ele>191.064812</ele>
        <time>2022-05-13T13:27:31.148Z</time>
      </trkpt>
      <trkpt lat="43.72402" lon="1.51155">
        <ele>191.167114</ele>
        <time>2022-05-13T13:27:33.165Z</time>
      </trkpt>
      <trkpt lat="43.72407" lon="1.51168">
        <ele>191.27488</ele>
        <time>2022-05-13T13:27:35.160Z</time>
      </trkpt>
      <trkpt lat="43.72413" lon="1.51182">
        <ele>191.389457</ele>
        <time>2022-05-13T13:27:37.165Z</time>
      </trkpt>
      <trkpt lat="43.72421" lon="1.51197">
        <ele>191.509847</ele>
        <time>2022-05-13T13:27:39.149Z</time>
      </trkpt>
      <trkpt lat="43.72428" lon="1.51211">
        <ele>191.629673</ele>
        <time>2022-05-13T13:27:41.162Z</time>
      </trkpt>
      <trkpt lat="43.72435" lon="1.51225">
        <ele>191.745707</ele>
        <time>2022-05-13T13:27:43.166Z</time>
      </trkpt>
      <trkpt lat="43.7244" lon="1.51241">
        <ele>191.669878</ele>
        <time>2022-05-13T13:27:45.144Z</time>
      </trkpt>
      <trkpt lat="43.72445" lon="1.51255">
        <ele>191.596925</ele>
        <time>2022-05-13T13:27:47.145Z</time>
      </trkpt>
      <trkpt lat="43.72454" lon="1.51265">
        <ele>191.526182</ele>
        <time>2022-05-13T13:27:49.134Z</time>
      </trkpt>
      <trkpt lat="43.72463" lon="1.51275">
        <ele>191.455585</ele>
        <time>2022-05-13T13:27:51.154Z</time>
      </trkpt>
      <trkpt lat="43.7247" lon="1.51287">
        <ele>191.384868</ele>
        <time>2022-05-13T13:27:53.181Z</time>
      </trkpt>
      <trkpt lat="43.72478" lon="1.51299">
        <ele>191.311184</ele>
        <time>2022-05-13T13:27:55.153Z</time>
      </trkpt>
      <trkpt lat="43.72485" lon="1.51312">
        <ele>191.236013</ele>
        <time>2022-05-13T13:27:57.149Z</time>
      </trkpt>
      <trkpt lat="43.72493" lon="1.51326">
        <ele>191.157674</ele>
        <time>2022-05-13T13:27:59.180Z</time>
      </trkpt>
      <trkpt lat="43.72501" lon="1.5134">
        <ele>191.078282</ele>
        <time>2022-05-13T13:28:01.152Z</time>
      </trkpt>
      <trkpt lat="43.72509" lon="1.51354">
        <ele>190.99491</ele>
        <time>2022-05-13T13:28:03.165Z</time>
      </trkpt>
      <trkpt lat="43.72517" lon="1.5137">
        <ele>190.910488</ele>
        <time>2022-05-13T13:28:05.175Z</time>
      </trkpt>
      <trkpt lat="43.72523" lon="1.51386">
        <ele>190.828476</ele>
        <time>2022-05-13T13:28:07.160Z</time>
      </trkpt>
      <trkpt lat="43.72519" lon="1.51402">
        <ele>190.751389</ele>
        <time>2022-05-13T13:28:09.152Z</time>
      </trkpt>
      <trkpt lat="43.7251" lon="1.51415">
        <ele>190.668878</ele>
        <time>2022-05-13T13:28:11.161Z</time>
      </trkpt>
      <trkpt lat="43.72502" lon="1.5143">
        <ele>190.656349</ele>
        <time>2022-05-13T13:28:13.156Z</time>
      </trkpt>
      <trkpt lat="43.72496" lon="1.51446">
        <ele>190.709164</ele>
        <time>2022-05-13T13:28:15.143Z</time>
      </trkpt>
      <trkpt lat="43.72491" lon="1.51463">
        <ele>190.761287</ele>
        <time>2022-05-13T13:28:17.148Z</time>
      </trkpt>
      <trkpt lat="43.72487" lon="1.51479">
        <ele>190.811909</ele>
        <time>2022-05-13T13:28:19.160Z</time>
      </trkpt>
      <trkpt lat="43.72483" lon="1.51495">
        <ele>190.860625</ele>
        <time>2022-05-13T13:28:21.157Z</time>
      </trkpt>
      <trkpt lat="43.72479" lon="1.51511">
        <ele>190.90865</ele>
        <time>2022-05-13T13:28:23.183Z</time>
      </trkpt>
      <trkpt lat="43.72475" lon="1.51527">
        <ele>190.957366</ele>
        <time>2022-05-13T13:28:25.159Z</time>
      </trkpt>
      <trkpt lat="43.7247" lon="1.51542">
        <ele>191.005227</ele>
        <time>2022-05-13T13:28:27.169Z</time>
      </trkpt>
      <trkpt lat="43.72464" lon="1.51556">
        <ele>191.052299</ele>
        <time>2022-05-13T13:28:29.155Z</time>
      </trkpt>
      <trkpt lat="43.72458" lon="1.51569">
        <ele>191.098463</ele>
        <time>2022-05-13T13:28:31.157Z</time>
      </trkpt>
      <trkpt lat="43.72452" lon="1.51582">
        <ele>191.143155</ele>
        <time>2022-05-13T13:28:33.151Z</time>
      </trkpt>
      <trkpt lat="43.72446" lon="1.51595">
        <ele>191.188018</ele>
        <time>2022-05-13T13:28:35.153Z</time>
      </trkpt>
      <trkpt lat="43.72442" lon="1.51609">
        <ele>191.232578</ele>
        <time>2022-05-13T13:28:37.149Z</time>
      </trkpt>
      <trkpt lat="43.7244" lon="1.51624">
        <ele>191.276417</ele>
        <time>2022-05-13T13:28:39.147Z</time>
      </trkpt>
      <trkpt lat="43.72438" lon="1.51639">
        <ele>191.320203</ele>
        <time>2022-05-13T13:28:41.129Z</time>
      </trkpt>
      <trkpt lat="43.72438" lon="1.51654">
        <ele>191.3875</ele>
        <time>2022-05-13T13:28:43.147Z</time>
      </trkpt>
      <trkpt lat="43.72438" lon="1.5167">
        <ele>191.508705</ele>
        <time>2022-05-13T13:28:45.140Z</time>
      </trkpt>
      <trkpt lat="43.72438" lon="1.51685">
        <ele>191.628356</ele>
        <time>2022-05-13T13:28:47.169Z</time>
      </trkpt>
      <trkpt lat="43.72438" lon="1.517">
        <ele>191.748031</ele>
        <time>2022-05-13T13:28:49.166Z</time>
      </trkpt>
      <trkpt lat="43.72439" lon="1.51715">
        <ele>191.866895</ele>
        <time>2022-05-13T13:28:51.148Z</time>
      </trkpt>
      <trkpt lat="43.72439" lon="1.5173">
        <ele>191.985078</ele>
        <time>2022-05-13T13:28:53.159Z</time>
      </trkpt>
      <trkpt lat="43.7244" lon="1.51745">
        <ele>192.101886</ele>
        <time>2022-05-13T13:28:55.156Z</time>
      </trkpt>
      <trkpt lat="43.7244" lon="1.51759">
        <ele>192.216007</ele>
        <time>2022-05-13T13:28:57.159Z</time>
      </trkpt>
      <trkpt lat="43.72439" lon="1.51774">
        <ele>192.331887</ele>
        <time>2022-05-13T13:28:59.149Z</time>
      </trkpt>
      <trkpt lat="43.72442" lon="1.51788">
        <ele>192.448025</ele>
        <time>2022-05-13T13:29:01.155Z</time>
      </trkpt>
      <trkpt lat="43.72449" lon="1.518">
        <ele>192.565059</ele>
        <time>2022-05-13T13:29:03.143Z</time>
      </trkpt>
      <trkpt lat="43.72458" lon="1.51807">
        <ele>192.68309</ele>
        <time>2022-05-13T13:29:05.157Z</time>
      </trkpt>
      <trkpt lat="43.72468" lon="1.51815">
        <ele>192.802055</ele>
        <time>2022-05-13T13:29:07.155Z</time>
      </trkpt>
      <trkpt lat="43.72477" lon="1.51823">
        <ele>192.914203</ele>
        <time>2022-05-13T13:29:09.168Z</time>
      </trkpt>
      <trkpt lat="43.72485" lon="1.5183">
        <ele>193.023672</ele>
        <time>2022-05-13T13:29:11.171Z</time>
      </trkpt>
      <trkpt lat="43.72494" lon="1.51837">
        <ele>193.131801</ele>
        <time>2022-05-13T13:29:13.160Z</time>
      </trkpt>
      <trkpt lat="43.72502" lon="1.51844">
        <ele>193.236451</ele>
        <time>2022-05-13T13:29:15.163Z</time>
      </trkpt>
      <trkpt lat="43.7251" lon="1.5185">
        <ele>193.401424</ele>
        <time>2022-05-13T13:29:17.142Z</time>
      </trkpt>
      <trkpt lat="43.72518" lon="1.51857">
        <ele>193.706582</ele>
        <time>2022-05-13T13:29:19.157Z</time>
      </trkpt>
      <trkpt lat="43.72526" lon="1.51864">
        <ele>194.008722</ele>
        <time>2022-05-13T13:29:21.149Z</time>
      </trkpt>
      <trkpt lat="43.72534" lon="1.51871">
        <ele>194.308168</ele>
        <time>2022-05-13T13:29:23.133Z</time>
      </trkpt>
      <trkpt lat="43.72542" lon="1.51878">
        <ele>194.599596</ele>
        <time>2022-05-13T13:29:25.164Z</time>
      </trkpt>
      <trkpt lat="43.72552" lon="1.51889">
        <ele>195.013281</ele>
        <time>2022-05-13T13:29:28.160Z</time>
      </trkpt>
      <trkpt lat="43.72562" lon="1.51901">
        <ele>195.429815</ele>
        <time>2022-05-13T13:29:31.140Z</time>
      </trkpt>
      <trkpt lat="43.72572" lon="1.51913">
        <ele>195.833389</ele>
        <time>2022-05-13T13:29:34.159Z</time>
      </trkpt>
      <trkpt lat="43.7258" lon="1.51925">
        <ele>196.236543</ele>
        <time>2022-05-13T13:29:37.134Z</time>
      </trkpt>
      <trkpt lat="43.72589" lon="1.51938">
        <ele>196.64242</ele>
        <time>2022-05-13T13:29:40.183Z</time>
      </trkpt>
      <trkpt lat="43.72597" lon="1.5195">
        <ele>197.027593</ele>
        <time>2022-05-13T13:29:43.154Z</time>
      </trkpt>
      <trkpt lat="43.72604" lon="1.51962">
        <ele>197.378588</ele>
        <time>2022-05-13T13:29:46.156Z</time>
      </trkpt>
      <trkpt lat="43.72612" lon="1.51973">
        <ele>197.733417</ele>
        <time>2022-05-13T13:29:49.160Z</time>
      </trkpt>
      <trkpt lat="43.72619" lon="1.51985">
        <ele>198.092901</ele>
        <time>2022-05-13T13:29:52.164Z</time>
      </trkpt>
      <trkpt lat="43.72627" lon="1.51996">
        <ele>198.457945</ele>
        <time>2022-05-13T13:29:55.154Z</time>
      </trkpt>
      <trkpt lat="43.72636" lon="1.52009">
        <ele>198.860502</ele>
        <time>2022-05-13T13:29:58.155Z</time>
      </trkpt>
      <trkpt lat="43.72645" lon="1.52022">
        <ele>199.102822</ele>
        <time>2022-05-13T13:30:01.164Z</time>
      </trkpt>
      <trkpt lat="43.72655" lon="1.52034">
        <ele>199.196718</ele>
        <time>2022-05-13T13:30:04.152Z</time>
      </trkpt>
      <trkpt lat="43.72662" lon="1.52042">
        <ele>199.260496</ele>
        <time>2022-05-13T13:30:06.163Z</time>
      </trkpt>
      <trkpt lat="43.72669" lon="1.5205">
        <ele>199.324476</ele>
        <time>2022-05-13T13:30:08.155Z</time>
      </trkpt>
      <trkpt lat="43.72676" lon="1.52058">
        <ele>199.389767</ele>
        <time>2022-05-13T13:30:10.150Z</time>
      </trkpt>
      <trkpt lat="43.72683" lon="1.52066">
        <ele>199.453868</ele>
        <time>2022-05-13T13:30:12.174Z</time>
      </trkpt>
      <trkpt lat="43.7269" lon="1.52074">
        <ele>199.51821</ele>
        <time>2022-05-13T13:30:14.162Z</time>
      </trkpt>
      <trkpt lat="43.72698" lon="1.52081">
        <ele>199.582805</ele>
        <time>2022-05-13T13:30:16.154Z</time>
      </trkpt>
      <trkpt lat="43.72705" lon="1.52089">
        <ele>199.647708</ele>
        <time>2022-05-13T13:30:18.157Z</time>
      </trkpt>
      <trkpt lat="43.72712" lon="1.52097">
        <ele>199.711693</ele>
        <time>2022-05-13T13:30:20.166Z</time>
      </trkpt>
      <trkpt lat="43.72723" lon="1.52107">
        <ele>199.804507</ele>
        <time>2022-05-13T13:30:23.165Z</time>
      </trkpt>
      <trkpt lat="43.72733" lon="1.52118">
        <ele>199.896981</ele>
        <time>2022-05-13T13:30:26.167Z</time>
      </trkpt>
      <trkpt lat="43.72741" lon="1.52125">
        <ele>199.963563</ele>
        <time>2022-05-13T13:30:28.178Z</time>
      </trkpt>
      <trkpt lat="43.72749" lon="1.52135">
        <ele>200.038312</ele>
        <time>2022-05-13T13:30:30.165Z</time>
      </trkpt>
      <trkpt lat="43.72759" lon="1.52145">
        <ele>200.123182</ele>
        <time>2022-05-13T13:30:32.167Z</time>
      </trkpt>
      <trkpt lat="43.72768" lon="1.52156">
        <ele>200.212183</ele>
        <time>2022-05-13T13:30:34.159Z</time>
      </trkpt>
      <trkpt lat="43.72777" lon="1.5217">
        <ele>200.306515</ele>
        <time>2022-05-13T13:30:36.161Z</time>
      </trkpt>
      <trkpt lat="43.72785" lon="1.52186">
        <ele>200.059347</ele>
        <time>2022-05-13T13:30:38.145Z</time>
      </trkpt>
      <trkpt lat="43.72793" lon="1.52204">
        <ele>199.720967</ele>
        <time>2022-05-13T13:30:40.152Z</time>
      </trkpt>
      <trkpt lat="43.72804" lon="1.52218">
        <ele>199.396099</ele>
        <time>2022-05-13T13:30:42.160Z</time>
      </trkpt>
      <trkpt lat="43.72815" lon="1.52229">
        <ele>199.081566</ele>
        <time>2022-05-13T13:30:44.153Z</time>
      </trkpt>
      <trkpt lat="43.72828" lon="1.52238">
        <ele>198.766336</ele>
        <time>2022-05-13T13:30:46.152Z</time>
      </trkpt>
      <trkpt lat="43.7284" lon="1.52245">
        <ele>198.476791</ele>
        <time>2022-05-13T13:30:48.154Z</time>
      </trkpt>
      <trkpt lat="43.72851" lon="1.52252">
        <ele>198.197334</ele>
        <time>2022-05-13T13:30:50.158Z</time>
      </trkpt>
      <trkpt lat="43.72863" lon="1.52258">
        <ele>197.92024</ele>
        <time>2022-05-13T13:30:52.177Z</time>
      </trkpt>
      <trkpt lat="43.72875" lon="1.5226">
        <ele>197.649918</ele>
        <time>2022-05-13T13:30:54.152Z</time>
      </trkpt>
      <trkpt lat="43.72886" lon="1.52261">
        <ele>197.399465</ele>
        <time>2022-05-13T13:30:56.145Z</time>
      </trkpt>
      <trkpt lat="43.72897" lon="1.52261">
        <ele>197.169735</ele>
        <time>2022-05-13T13:30:58.153Z</time>
      </trkpt>
      <trkpt lat="43.72906" lon="1.52258">
        <ele>196.951641</ele>
        <time>2022-05-13T13:31:00.136Z</time>
      </trkpt>
      <trkpt lat="43.72916" lon="1.52256">
        <ele>196.737152</ele>
        <time>2022-05-13T13:31:02.158Z</time>
      </trkpt>
      <trkpt lat="43.72925" lon="1.52254">
        <ele>196.52812</ele>
        <time>2022-05-13T13:31:04.168Z</time>
      </trkpt>
      <trkpt lat="43.72934" lon="1.52252">
        <ele>196.320733</ele>
        <time>2022-05-13T13:31:06.162Z</time>
      </trkpt>
      <trkpt lat="43.72947" lon="1.52249">
        <ele>196.378749</ele>
        <time>2022-05-13T13:31:09.157Z</time>
      </trkpt>
      <trkpt lat="43.7296" lon="1.52246">
        <ele>196.446497</ele>
        <time>2022-05-13T13:31:12.163Z</time>
      </trkpt>
      <trkpt lat="43.72972" lon="1.52241">
        <ele>196.511076</ele>
        <time>2022-05-13T13:31:15.155Z</time>
      </trkpt>
      <trkpt lat="43.72982" lon="1.52236">
        <ele>196.569531</ele>
        <time>2022-05-13T13:31:18.167Z</time>
      </trkpt>
      <trkpt lat="43.72993" lon="1.5223">
        <ele>196.628838</ele>
        <time>2022-05-13T13:31:21.153Z</time>
      </trkpt>
      <trkpt lat="43.73004" lon="1.52228">
        <ele>196.686217</ele>
        <time>2022-05-13T13:31:24.153Z</time>
      </trkpt>
      <trkpt lat="43.73014" lon="1.52232">
        <ele>196.743552</ele>
        <time>2022-05-13T13:31:27.159Z</time>
      </trkpt>
      <trkpt lat="43.73025" lon="1.5224">
        <ele>196.804185</ele>
        <time>2022-05-13T13:31:30.145Z</time>
      </trkpt>
      <trkpt lat="43.73034" lon="1.52251">
        <ele>196.868747</ele>
        <time>2022-05-13T13:31:33.153Z</time>
      </trkpt>
      <trkpt lat="43.73043" lon="1.52263">
        <ele>196.932292</ele>
        <time>2022-05-13T13:31:36.140Z</time>
      </trkpt>
      <trkpt lat="43.73051" lon="1.52275">
        <ele>196.997561</ele>
        <time>2022-05-13T13:31:39.161Z</time>
      </trkpt>
      <trkpt lat="43.73061" lon="1.52287">
        <ele>197.065991</ele>
        <time>2022-05-13T13:31:42.156Z</time>
      </trkpt>
      <trkpt lat="43.7307" lon="1.523">
        <ele>197.134876</ele>
        <time>2022-05-13T13:31:45.146Z</time>
      </trkpt>
      <trkpt lat="43.7308" lon="1.52314">
        <ele>197.20603</ele>
        <time>2022-05-13T13:31:48.165Z</time>
      </trkpt>
      <trkpt lat="43.73087" lon="1.52322">
        <ele>197.253102</ele>
        <time>2022-05-13T13:31:50.143Z</time>
      </trkpt>
      <trkpt lat="43.73096" lon="1.52335">
        <ele>197.315509</ele>
        <time>2022-05-13T13:31:53.165Z</time>
      </trkpt>
      <trkpt lat="43.73105" lon="1.52347">
        <ele>197.377675</ele>
        <time>2022-05-13T13:31:56.153Z</time>
      </trkpt>
      <trkpt lat="43.73112" lon="1.52355">
        <ele>197.422179</ele>
        <time>2022-05-13T13:31:58.167Z</time>
      </trkpt>
      <trkpt lat="43.73119" lon="1.52364">
        <ele>197.468</ele>
        <time>2022-05-13T13:32:00.140Z</time>
      </trkpt>
      <trkpt lat="43.73126" lon="1.52373">
        <ele>197.515288</ele>
        <time>2022-05-13T13:32:02.139Z</time>
      </trkpt>
      <trkpt lat="43.73134" lon="1.52382">
        <ele>197.564522</ele>
        <time>2022-05-13T13:32:04.146Z</time>
      </trkpt>
      <trkpt lat="43.73142" lon="1.52391">
        <ele>197.615658</ele>
        <time>2022-05-13T13:32:06.156Z</time>
      </trkpt>
      <trkpt lat="43.73151" lon="1.524">
        <ele>197.668428</ele>
        <time>2022-05-13T13:32:08.140Z</time>
      </trkpt>
      <trkpt lat="43.73159" lon="1.52409">
        <ele>197.72126</ele>
        <time>2022-05-13T13:32:10.174Z</time>
      </trkpt>
      <trkpt lat="43.73168" lon="1.52418">
        <ele>197.773524</ele>
        <time>2022-05-13T13:32:12.150Z</time>
      </trkpt>
      <trkpt lat="43.73176" lon="1.52427">
        <ele>197.825092</ele>
        <time>2022-05-13T13:32:14.156Z</time>
      </trkpt>
      <trkpt lat="43.73184" lon="1.52438">
        <ele>197.877551</ele>
        <time>2022-05-13T13:32:16.153Z</time>
      </trkpt>
      <trkpt lat="43.7319" lon="1.5245">
        <ele>197.929263</ele>
        <time>2022-05-13T13:32:18.149Z</time>
      </trkpt>
      <trkpt lat="43.73197" lon="1.52461">
        <ele>197.980394</ele>
        <time>2022-05-13T13:32:20.172Z</time>
      </trkpt>
      <trkpt lat="43.73203" lon="1.52473">
        <ele>198.032026</ele>
        <time>2022-05-13T13:32:22.169Z</time>
      </trkpt>
      <trkpt lat="43.73209" lon="1.52485">
        <ele>198.083103</ele>
        <time>2022-05-13T13:32:24.161Z</time>
      </trkpt>
      <trkpt lat="43.73216" lon="1.52495">
        <ele>198.133983</ele>
        <time>2022-05-13T13:32:26.172Z</time>
      </trkpt>
      <trkpt lat="43.73223" lon="1.52504">
        <ele>198.194122</ele>
        <time>2022-05-13T13:32:28.146Z</time>
      </trkpt>
      <trkpt lat="43.73227" lon="1.52516">
        <ele>198.252486</ele>
        <time>2022-05-13T13:32:30.168Z</time>
      </trkpt>
      <trkpt lat="43.73231" lon="1.52528">
        <ele>198.316614</ele>
        <time>2022-05-13T13:32:32.142Z</time>
      </trkpt>
      <trkpt lat="43.73237" lon="1.52541">
        <ele>198.387687</ele>
        <time>2022-05-13T13:32:34.170Z</time>
      </trkpt>
      <trkpt lat="43.73243" lon="1.52555">
        <ele>198.462541</ele>
        <time>2022-05-13T13:32:36.163Z</time>
      </trkpt>
      <trkpt lat="43.73249" lon="1.52569">
        <ele>198.537205</ele>
        <time>2022-05-13T13:32:38.152Z</time>
      </trkpt>
      <trkpt lat="43.73255" lon="1.52583">
        <ele>198.611336</ele>
        <time>2022-05-13T13:32:40.160Z</time>
      </trkpt>
      <trkpt lat="43.73261" lon="1.52597">
        <ele>198.683308</ele>
        <time>2022-05-13T13:32:42.144Z</time>
      </trkpt>
      <trkpt lat="43.73266" lon="1.5261">
        <ele>198.753927</ele>
        <time>2022-05-13T13:32:44.163Z</time>
      </trkpt>
      <trkpt lat="43.73272" lon="1.52623">
        <ele>198.82282</ele>
        <time>2022-05-13T13:32:46.152Z</time>
      </trkpt>
      <trkpt lat="43.73276" lon="1.52636">
        <ele>198.890253</ele>
        <time>2022-05-13T13:32:48.157Z</time>
      </trkpt>
      <trkpt lat="43.73281" lon="1.52649">
        <ele>198.956743</ele>
        <time>2022-05-13T13:32:50.168Z</time>
      </trkpt>
      <trkpt lat="43.73286" lon="1.52663">
        <ele>199.02419</ele>
        <time>2022-05-13T13:32:52.136Z</time>
      </trkpt>
      <trkpt lat="43.73291" lon="1.52676">
        <ele>199.091674</ele>
        <time>2022-05-13T13:32:54.152Z</time>
      </trkpt>
      <trkpt lat="43.73296" lon="1.52688">
        <ele>199.159594</ele>
        <time>2022-05-13T13:32:56.164Z</time>
      </trkpt>
      <trkpt lat="43.73302" lon="1.52701">
        <ele>199.228052</ele>
        <time>2022-05-13T13:32:58.158Z</time>
      </trkpt>
      <trkpt lat="43.73307" lon="1.52714">
        <ele>199.327481</ele>
        <time>2022-05-13T13:33:00.158Z</time>
      </trkpt>
      <trkpt lat="43.73313" lon="1.52727">
        <ele>199.468236</ele>
        <time>2022-05-13T13:33:02.169Z</time>
      </trkpt>
      <trkpt lat="43.73319" lon="1.52739">
        <ele>199.608076</ele>
        <time>2022-05-13T13:33:04.168Z</time>
      </trkpt>
      <trkpt lat="43.73324" lon="1.52751">
        <ele>199.746315</ele>
        <time>2022-05-13T13:33:06.169Z</time>
      </trkpt>
      <trkpt lat="43.7333" lon="1.52763">
        <ele>199.883842</ele>
        <time>2022-05-13T13:33:08.162Z</time>
      </trkpt>
      <trkpt lat="43.73335" lon="1.52776">
        <ele>200.022417</ele>
        <time>2022-05-13T13:33:10.155Z</time>
      </trkpt>
      <trkpt lat="43.7334" lon="1.52789">
        <ele>200.158793</ele>
        <time>2022-05-13T13:33:12.160Z</time>
      </trkpt>
      <trkpt lat="43.73344" lon="1.52801">
        <ele>200.290465</ele>
        <time>2022-05-13T13:33:14.139Z</time>
      </trkpt>
      <trkpt lat="43.73346" lon="1.52814">
        <ele>200.417599</ele>
        <time>2022-05-13T13:33:16.136Z</time>
      </trkpt>
      <trkpt lat="43.73349" lon="1.52827">
        <ele>200.541615</ele>
        <time>2022-05-13T13:33:18.148Z</time>
      </trkpt>
      <trkpt lat="43.73357" lon="1.52841">
        <ele>200.712867</ele>
        <time>2022-05-13T13:33:21.142Z</time>
      </trkpt>
      <trkpt lat="43.73364" lon="1.52849">
        <ele>200.837398</ele>
        <time>2022-05-13T13:33:23.140Z</time>
      </trkpt>
      <trkpt lat="43.73373" lon="1.52856">
        <ele>200.967012</ele>
        <time>2022-05-13T13:33:25.165Z</time>
      </trkpt>
      <trkpt lat="43.73381" lon="1.52863">
        <ele>201.100272</ele>
        <time>2022-05-13T13:33:27.152Z</time>
      </trkpt>
      <trkpt lat="43.7339" lon="1.52872">
        <ele>201.239421</ele>
        <time>2022-05-13T13:33:29.166Z</time>
      </trkpt>
      <trkpt lat="43.73397" lon="1.52882">
        <ele>201.375783</ele>
        <time>2022-05-13T13:33:31.143Z</time>
      </trkpt>
      <trkpt lat="43.73403" lon="1.52894">
        <ele>201.512867</ele>
        <time>2022-05-13T13:33:33.143Z</time>
      </trkpt>
      <trkpt lat="43.73408" lon="1.52907">
        <ele>201.647656</ele>
        <time>2022-05-13T13:33:35.157Z</time>
      </trkpt>
      <trkpt lat="43.73414" lon="1.5292">
        <ele>201.751824</ele>
        <time>2022-05-13T13:33:37.154Z</time>
      </trkpt>
      <trkpt lat="43.7342" lon="1.52932">
        <ele>201.855876</ele>
        <time>2022-05-13T13:33:39.137Z</time>
      </trkpt>
      <trkpt lat="43.73428" lon="1.52942">
        <ele>201.958738</ele>
        <time>2022-05-13T13:33:41.138Z</time>
      </trkpt>
      <trkpt lat="43.73437" lon="1.5295">
        <ele>202.06095</ele>
        <time>2022-05-13T13:33:43.171Z</time>
      </trkpt>
      <trkpt lat="43.73447" lon="1.52956">
        <ele>202.166764</ele>
        <time>2022-05-13T13:33:45.142Z</time>
      </trkpt>
      <trkpt lat="43.73458" lon="1.5296">
        <ele>202.275227</ele>
        <time>2022-05-13T13:33:47.151Z</time>
      </trkpt>
      <trkpt lat="43.73469" lon="1.52961">
        <ele>202.378575</ele>
        <time>2022-05-13T13:33:49.148Z</time>
      </trkpt>
      <trkpt lat="43.73479" lon="1.52962">
        <ele>202.477497</ele>
        <time>2022-05-13T13:33:51.137Z</time>
      </trkpt>
      <trkpt lat="43.7349" lon="1.52965">
        <ele>202.582686</ele>
        <time>2022-05-13T13:33:53.171Z</time>
      </trkpt>
      <trkpt lat="43.735" lon="1.52968">
        <ele>202.6859</ele>
        <time>2022-05-13T13:33:55.144Z</time>
      </trkpt>
      <trkpt lat="43.73511" lon="1.52971">
        <ele>202.793703</ele>
        <time>2022-05-13T13:33:57.159Z</time>
      </trkpt>
      <trkpt lat="43.73522" lon="1.52973">
        <ele>202.901113</ele>
        <time>2022-05-13T13:33:59.189Z</time>
      </trkpt>
      <trkpt lat="43.73533" lon="1.52974">
        <ele>203.00785</ele>
        <time>2022-05-13T13:34:01.166Z</time>
      </trkpt>
      <trkpt lat="43.73544" lon="1.52975">
        <ele>203.110713</ele>
        <time>2022-05-13T13:34:03.161Z</time>
      </trkpt>
      <trkpt lat="43.73554" lon="1.52975">
        <ele>203.210625</ele>
        <time>2022-05-13T13:34:05.160Z</time>
      </trkpt>
      <trkpt lat="43.73565" lon="1.52976">
        <ele>203.315254</ele>
        <time>2022-05-13T13:34:07.162Z</time>
      </trkpt>
      <trkpt lat="43.73577" lon="1.52977">
        <ele>203.408155</ele>
        <time>2022-05-13T13:34:09.147Z</time>
      </trkpt>
      <trkpt lat="43.73587" lon="1.52979">
        <ele>203.478361</ele>
        <time>2022-05-13T13:34:11.154Z</time>
      </trkpt>
      <trkpt lat="43.73597" lon="1.5298">
        <ele>203.550462</ele>
        <time>2022-05-13T13:34:13.159Z</time>
      </trkpt>
      <trkpt lat="43.73608" lon="1.52981">
        <ele>203.623162</ele>
        <time>2022-05-13T13:34:15.150Z</time>
      </trkpt>
      <trkpt lat="43.73618" lon="1.52983">
        <ele>203.69595</ele>
        <time>2022-05-13T13:34:17.129Z</time>
      </trkpt>
      <trkpt lat="43.73628" lon="1.52984">
        <ele>203.762973</ele>
        <time>2022-05-13T13:34:19.155Z</time>
      </trkpt>
      <trkpt lat="43.73638" lon="1.52986">
        <ele>203.835501</ele>
        <time>2022-05-13T13:34:21.144Z</time>
      </trkpt>
      <trkpt lat="43.73649" lon="1.52991">
        <ele>203.911649</ele>
        <time>2022-05-13T13:34:23.134Z</time>
      </trkpt>
      <trkpt lat="43.73658" lon="1.52995">
        <ele>203.978284</ele>
        <time>2022-05-13T13:34:25.153Z</time>
      </trkpt>
      <trkpt lat="43.73669" lon="1.52999">
        <ele>204.053472</ele>
        <time>2022-05-13T13:34:27.147Z</time>
      </trkpt>
      <trkpt lat="43.73678" lon="1.53004">
        <ele>204.125039</ele>
        <time>2022-05-13T13:34:29.149Z</time>
      </trkpt>
      <trkpt lat="43.7369" lon="1.53007">
        <ele>204.208108</ele>
        <time>2022-05-13T13:34:32.167Z</time>
      </trkpt>
      <trkpt lat="43.73703" lon="1.53009">
        <ele>204.294994</ele>
        <time>2022-05-13T13:34:35.142Z</time>
      </trkpt>
      <trkpt lat="43.73714" lon="1.53013">
        <ele>204.372205</ele>
        <time>2022-05-13T13:34:38.126Z</time>
      </trkpt>
      <trkpt lat="43.73725" lon="1.53019">
        <ele>204.458129</ele>
        <time>2022-05-13T13:34:41.143Z</time>
      </trkpt>
      <trkpt lat="43.73738" lon="1.53024">
        <ele>204.547534</ele>
        <time>2022-05-13T13:34:44.164Z</time>
      </trkpt>
      <trkpt lat="43.73747" lon="1.5303">
        <ele>204.695163</ele>
        <time>2022-05-13T13:34:46.152Z</time>
      </trkpt>
      <trkpt lat="43.73756" lon="1.53037">
        <ele>205.134739</ele>
        <time>2022-05-13T13:34:48.153Z</time>
      </trkpt>
      <trkpt lat="43.73764" lon="1.53043">
        <ele>205.529666</ele>
        <time>2022-05-13T13:34:50.146Z</time>
      </trkpt>
      <trkpt lat="43.73776" lon="1.53053">
        <ele>206.08669</ele>
        <time>2022-05-13T13:34:53.146Z</time>
      </trkpt>
      <trkpt lat="43.73783" lon="1.53061">
        <ele>206.465121</ele>
        <time>2022-05-13T13:34:55.139Z</time>
      </trkpt>
      <trkpt lat="43.73793" lon="1.53072">
        <ele>206.995698</ele>
        <time>2022-05-13T13:34:58.152Z</time>
      </trkpt>
      <trkpt lat="43.738" lon="1.5308">
        <ele>207.385382</ele>
        <time>2022-05-13T13:35:00.133Z</time>
      </trkpt>
      <trkpt lat="43.7381" lon="1.53091">
        <ele>207.934249</ele>
        <time>2022-05-13T13:35:03.152Z</time>
      </trkpt>
      <trkpt lat="43.73822" lon="1.531">
        <ele>208.482743</ele>
        <time>2022-05-13T13:35:06.143Z</time>
      </trkpt>
      <trkpt lat="43.73833" lon="1.53108">
        <ele>208.99389</ele>
        <time>2022-05-13T13:35:09.157Z</time>
      </trkpt>
      <trkpt lat="43.73843" lon="1.53112">
        <ele>209.428921</ele>
        <time>2022-05-13T13:35:12.128Z</time>
      </trkpt>
      <trkpt lat="43.73852" lon="1.53115">
        <ele>209.809178</ele>
        <time>2022-05-13T13:35:14.159Z</time>
      </trkpt>
      <trkpt lat="43.73864" lon="1.53118">
        <ele>210.329887</ele>
        <time>2022-05-13T13:35:17.150Z</time>
      </trkpt>
      <trkpt lat="43.73876" lon="1.53122">
        <ele>210.864749</ele>
        <time>2022-05-13T13:35:20.147Z</time>
      </trkpt>
      <trkpt lat="43.73887" lon="1.53125">
        <ele>211.309034</ele>
        <time>2022-05-13T13:35:23.170Z</time>
      </trkpt>
      <trkpt lat="43.73896" lon="1.53127">
        <ele>211.692669</ele>
        <time>2022-05-13T13:35:26.163Z</time>
      </trkpt>
      <trkpt lat="43.73907" lon="1.53131">
        <ele>212.294165</ele>
        <time>2022-05-13T13:35:30.161Z</time>
      </trkpt>
      <trkpt lat="43.73916" lon="1.53136">
        <ele>213.773946</ele>
        <time>2022-05-13T13:35:34.143Z</time>
      </trkpt>
      <trkpt lat="43.73926" lon="1.53141">
        <ele>215.270517</ele>
        <time>2022-05-13T13:35:38.164Z</time>
      </trkpt>
      <trkpt lat="43.73935" lon="1.53144">
        <ele>216.731409</ele>
        <time>2022-05-13T13:35:42.168Z</time>
      </trkpt>
      <trkpt lat="43.73945" lon="1.53148">
        <ele>218.273107</ele>
        <time>2022-05-13T13:35:46.154Z</time>
      </trkpt>
      <trkpt lat="43.73955" lon="1.53151">
        <ele>219.732815</ele>
        <time>2022-05-13T13:35:50.159Z</time>
      </trkpt>
      <trkpt lat="43.73964" lon="1.53154">
        <ele>221.185548</ele>
        <time>2022-05-13T13:35:54.163Z</time>
      </trkpt>
      <trkpt lat="43.73973" lon="1.53157">
        <ele>222.537816</ele>
        <time>2022-05-13T13:35:58.169Z</time>
      </trkpt>
      <trkpt lat="43.73984" lon="1.5316">
        <ele>224.184096</ele>
        <time>2022-05-13T13:36:03.152Z</time>
      </trkpt>
      <trkpt lat="43.73995" lon="1.53163">
        <ele>225.778945</ele>
        <time>2022-05-13T13:36:08.157Z</time>
      </trkpt>
      <trkpt lat="43.74005" lon="1.53164">
        <ele>227.330967</ele>
        <time>2022-05-13T13:36:13.155Z</time>
      </trkpt>
      <trkpt lat="43.74016" lon="1.53166">
        <ele>228.896596</ele>
        <time>2022-05-13T13:36:18.159Z</time>
      </trkpt>
      <trkpt lat="43.74027" lon="1.53168">
        <ele>230.559736</ele>
        <time>2022-05-13T13:36:23.141Z</time>
      </trkpt>
      <trkpt lat="43.74037" lon="1.53171">
        <ele>232.108637</ele>
        <time>2022-05-13T13:36:27.201Z</time>
      </trkpt>
      <trkpt lat="43.74047" lon="1.53173">
        <ele>233.610452</ele>
        <time>2022-05-13T13:36:31.140Z</time>
      </trkpt>
      <trkpt lat="43.74057" lon="1.53176">
        <ele>235.181885</ele>
        <time>2022-05-13T13:36:35.145Z</time>
      </trkpt>
      <trkpt lat="43.74067" lon="1.53179">
        <ele>236.704203</ele>
        <time>2022-05-13T13:36:39.144Z</time>
      </trkpt>
      <trkpt lat="43.74076" lon="1.53184">
        <ele>238.182215</ele>
        <time>2022-05-13T13:36:43.146Z</time>
      </trkpt>
      <trkpt lat="43.74086" lon="1.53191">
        <ele>239.379728</ele>
        <time>2022-05-13T13:36:47.154Z</time>
      </trkpt>
      <trkpt lat="43.74094" lon="1.53199">
        <ele>240.347767</ele>
        <time>2022-05-13T13:36:51.156Z</time>
      </trkpt>
      <trkpt lat="43.74103" lon="1.53207">
        <ele>241.346514</ele>
        <time>2022-05-13T13:36:55.147Z</time>
      </trkpt>
      <trkpt lat="43.74112" lon="1.53215">
        <ele>242.341792</ele>
        <time>2022-05-13T13:36:59.160Z</time>
      </trkpt>
      <trkpt lat="43.74121" lon="1.53222">
        <ele>243.329691</ele>
        <time>2022-05-13T13:37:03.159Z</time>
      </trkpt>
      <trkpt lat="43.74131" lon="1.53227">
        <ele>244.309106</ele>
        <time>2022-05-13T13:37:07.161Z</time>
      </trkpt>
      <trkpt lat="43.74141" lon="1.53229">
        <ele>245.272603</ele>
        <time>2022-05-13T13:37:11.155Z</time>
      </trkpt>
      <trkpt lat="43.74151" lon="1.53231">
        <ele>246.177946</ele>
        <time>2022-05-13T13:37:15.153Z</time>
      </trkpt>
      <trkpt lat="43.74162" lon="1.53232">
        <ele>247.212296</ele>
        <time>2022-05-13T13:37:20.146Z</time>
      </trkpt>
      <trkpt lat="43.74173" lon="1.53233">
        <ele>248.229024</ele>
        <time>2022-05-13T13:37:25.151Z</time>
      </trkpt>
      <trkpt lat="43.74184" lon="1.53235">
        <ele>249.283718</ele>
        <time>2022-05-13T13:37:30.155Z</time>
      </trkpt>
      <trkpt lat="43.74194" lon="1.53238">
        <ele>250.313347</ele>
        <time>2022-05-13T13:37:35.160Z</time>
      </trkpt>
      <trkpt lat="43.74204" lon="1.53244">
        <ele>251.270664</ele>
        <time>2022-05-13T13:37:39.156Z</time>
      </trkpt>
      <trkpt lat="43.74212" lon="1.53252">
        <ele>252.213299</ele>
        <time>2022-05-13T13:37:42.162Z</time>
      </trkpt>
      <trkpt lat="43.74223" lon="1.53261">
        <ele>253.393975</ele>
        <time>2022-05-13T13:37:45.154Z</time>
      </trkpt>
      <trkpt lat="43.74231" lon="1.53268">
        <ele>254.296811</ele>
        <time>2022-05-13T13:37:47.160Z</time>
      </trkpt>
      <trkpt lat="43.74239" lon="1.53276">
        <ele>255.250124</ele>
        <time>2022-05-13T13:37:49.164Z</time>
      </trkpt>
      <trkpt lat="43.74248" lon="1.53283">
        <ele>255.740576</ele>
        <time>2022-05-13T13:37:51.161Z</time>
      </trkpt>
      <trkpt lat="43.74257" lon="1.5329">
        <ele>255.863961</ele>
        <time>2022-05-13T13:37:53.156Z</time>
      </trkpt>
      <trkpt lat="43.74266" lon="1.53296">
        <ele>255.982164</ele>
        <time>2022-05-13T13:37:55.157Z</time>
      </trkpt>
      <trkpt lat="43.74279" lon="1.53301">
        <ele>256.139919</ele>
        <time>2022-05-13T13:37:58.138Z</time>
      </trkpt>
      <trkpt lat="43.74291" lon="1.53306">
        <ele>256.292378</ele>
        <time>2022-05-13T13:38:01.133Z</time>
      </trkpt>
      <trkpt lat="43.74303" lon="1.53312">
        <ele>256.451287</ele>
        <time>2022-05-13T13:38:04.151Z</time>
      </trkpt>
      <trkpt lat="43.74316" lon="1.53318">
        <ele>256.607733</ele>
        <time>2022-05-13T13:38:07.141Z</time>
      </trkpt>
      <trkpt lat="43.74327" lon="1.53325">
        <ele>256.756345</ele>
        <time>2022-05-13T13:38:10.164Z</time>
      </trkpt>
      <trkpt lat="43.74339" lon="1.53332">
        <ele>256.918091</ele>
        <time>2022-05-13T13:38:13.161Z</time>
      </trkpt>
      <trkpt lat="43.74348" lon="1.53337">
        <ele>257.034533</ele>
        <time>2022-05-13T13:38:15.150Z</time>
      </trkpt>
      <trkpt lat="43.74357" lon="1.53343">
        <ele>257.154566</ele>
        <time>2022-05-13T13:38:17.162Z</time>
      </trkpt>
      <trkpt lat="43.74367" lon="1.5335">
        <ele>257.284465</ele>
        <time>2022-05-13T13:38:19.165Z</time>
      </trkpt>
      <trkpt lat="43.74377" lon="1.53356">
        <ele>257.422392</ele>
        <time>2022-05-13T13:38:21.161Z</time>
      </trkpt>
      <trkpt lat="43.74388" lon="1.53364">
        <ele>257.565796</ele>
        <time>2022-05-13T13:38:23.172Z</time>
      </trkpt>
      <trkpt lat="43.74398" lon="1.53372">
        <ele>257.712413</ele>
        <time>2022-05-13T13:38:25.161Z</time>
      </trkpt>
      <trkpt lat="43.74409" lon="1.5338">
        <ele>257.855367</ele>
        <time>2022-05-13T13:38:27.166Z</time>
      </trkpt>
      <trkpt lat="43.74419" lon="1.53387">
        <ele>258.003054</ele>
        <time>2022-05-13T13:38:29.161Z</time>
      </trkpt>
      <trkpt lat="43.74427" lon="1.53394">
        <ele>258.13979</ele>
        <time>2022-05-13T13:38:31.149Z</time>
      </trkpt>
      <trkpt lat="43.74435" lon="1.53401">
        <ele>258.267384</ele>
        <time>2022-05-13T13:38:33.146Z</time>
      </trkpt>
      <trkpt lat="43.74443" lon="1.53409">
        <ele>258.397202</ele>
        <time>2022-05-13T13:38:35.161Z</time>
      </trkpt>
      <trkpt lat="43.74455" lon="1.53418">
        <ele>258.579054</ele>
        <time>2022-05-13T13:38:38.153Z</time>
      </trkpt>
      <trkpt lat="43.74463" lon="1.53426">
        <ele>258.702408</ele>
        <time>2022-05-13T13:38:40.148Z</time>
      </trkpt>
      <trkpt lat="43.7447" lon="1.53434">
        <ele>258.82816</ele>
        <time>2022-05-13T13:38:42.160Z</time>
      </trkpt>
      <trkpt lat="43.74477" lon="1.53442">
        <ele>258.955292</ele>
        <time>2022-05-13T13:38:44.169Z</time>
      </trkpt>
      <trkpt lat="43.74485" lon="1.5345">
        <ele>259.080295</ele>
        <time>2022-05-13T13:38:46.166Z</time>
      </trkpt>
      <trkpt lat="43.74492" lon="1.53457">
        <ele>259.205144</ele>
        <time>2022-05-13T13:38:48.156Z</time>
      </trkpt>
      <trkpt lat="43.74503" lon="1.53467">
        <ele>259.377955</ele>
        <time>2022-05-13T13:38:51.144Z</time>
      </trkpt>
      <trkpt lat="43.74514" lon="1.53477">
        <ele>259.549008</ele>
        <time>2022-05-13T13:38:54.157Z</time>
      </trkpt>
      <trkpt lat="43.74524" lon="1.53488">
        <ele>259.717018</ele>
        <time>2022-05-13T13:38:57.152Z</time>
      </trkpt>
      <trkpt lat="43.74534" lon="1.53499">
        <ele>259.885624</ele>
        <time>2022-05-13T13:39:00.151Z</time>
      </trkpt>
      <trkpt lat="43.74544" lon="1.53509">
        <ele>260.052354</ele>
        <time>2022-05-13T13:39:03.161Z</time>
      </trkpt>
      <trkpt lat="43.74554" lon="1.53518">
        <ele>260.21408</ele>
        <time>2022-05-13T13:39:06.152Z</time>
      </trkpt>
      <trkpt lat="43.74564" lon="1.53525">
        <ele>260.443651</ele>
        <time>2022-05-13T13:39:09.155Z</time>
      </trkpt>
      <trkpt lat="43.74575" lon="1.53531">
        <ele>260.682345</ele>
        <time>2022-05-13T13:39:12.155Z</time>
      </trkpt>
      <trkpt lat="43.74587" lon="1.53537">
        <ele>260.947941</ele>
        <time>2022-05-13T13:39:15.152Z</time>
      </trkpt>
      <trkpt lat="43.74595" lon="1.53541">
        <ele>261.140233</ele>
        <time>2022-05-13T13:39:17.154Z</time>
      </trkpt>
      <trkpt lat="43.74604" lon="1.53546">
        <ele>261.33633</ele>
        <time>2022-05-13T13:39:19.157Z</time>
      </trkpt>
      <trkpt lat="43.74612" lon="1.5355">
        <ele>261.527681</ele>
        <time>2022-05-13T13:39:21.155Z</time>
      </trkpt>
      <trkpt lat="43.74624" lon="1.53557">
        <ele>261.804203</ele>
        <time>2022-05-13T13:39:24.143Z</time>
      </trkpt>
      <trkpt lat="43.74636" lon="1.53564">
        <ele>262.078658</ele>
        <time>2022-05-13T13:39:27.157Z</time>
      </trkpt>
      <trkpt lat="43.74648" lon="1.53573">
        <ele>262.362006</ele>
        <time>2022-05-13T13:39:30.153Z</time>
      </trkpt>
      <trkpt lat="43.74656" lon="1.5358">
        <ele>262.554592</ele>
        <time>2022-05-13T13:39:32.162Z</time>
      </trkpt>
      <trkpt lat="43.74665" lon="1.53588">
        <ele>262.779481</ele>
        <time>2022-05-13T13:39:34.163Z</time>
      </trkpt>
      <trkpt lat="43.74677" lon="1.53593">
        <ele>263.046018</ele>
        <time>2022-05-13T13:39:36.154Z</time>
      </trkpt>
      <trkpt lat="43.74692" lon="1.53595">
        <ele>263.365464</ele>
        <time>2022-05-13T13:39:38.150Z</time>
      </trkpt>
      <trkpt lat="43.74708" lon="1.53595">
        <ele>263.698649</ele>
        <time>2022-05-13T13:39:40.152Z</time>
      </trkpt>
      <trkpt lat="43.74723" lon="1.53598">
        <ele>264.031544</ele>
        <time>2022-05-13T13:39:42.151Z</time>
      </trkpt>
      <trkpt lat="43.74738" lon="1.53604">
        <ele>264.855315</ele>
        <time>2022-05-13T13:39:44.146Z</time>
      </trkpt>
      <trkpt lat="43.74749" lon="1.53616">
        <ele>265.634887</ele>
        <time>2022-05-13T13:39:46.148Z</time>
      </trkpt>
      <trkpt lat="43.74757" lon="1.53629">
        <ele>266.330174</ele>
        <time>2022-05-13T13:39:48.150Z</time>
      </trkpt>
      <trkpt lat="43.74765" lon="1.53642">
        <ele>266.950817</ele>
        <time>2022-05-13T13:39:50.151Z</time>
      </trkpt>
      <trkpt lat="43.74771" lon="1.53653">
        <ele>267.494159</ele>
        <time>2022-05-13T13:39:52.167Z</time>
      </trkpt>
      <trkpt lat="43.74777" lon="1.53662">
        <ele>267.993867</ele>
        <time>2022-05-13T13:39:54.149Z</time>
      </trkpt>
      <trkpt lat="43.74786" lon="1.53673">
        <ele>268.662222</ele>
        <time>2022-05-13T13:39:57.153Z</time>
      </trkpt>
      <trkpt lat="43.74795" lon="1.53683">
        <ele>269.275076</ele>
        <time>2022-05-13T13:40:00.153Z</time>
      </trkpt>
      <trkpt lat="43.74804" lon="1.53691">
        <ele>269.894305</ele>
        <time>2022-05-13T13:40:03.142Z</time>
      </trkpt>
      <trkpt lat="43.74813" lon="1.53701">
        <ele>270.49474</ele>
        <time>2022-05-13T13:40:06.167Z</time>
      </trkpt>
      <trkpt lat="43.74822" lon="1.53711">
        <ele>271.11474</ele>
        <time>2022-05-13T13:40:09.157Z</time>
      </trkpt>
      <trkpt lat="43.7483" lon="1.5372">
        <ele>271.694371</ele>
        <time>2022-05-13T13:40:12.153Z</time>
      </trkpt>
      <trkpt lat="43.74838" lon="1.53729">
        <ele>272.283149</ele>
        <time>2022-05-13T13:40:15.163Z</time>
      </trkpt>
      <trkpt lat="43.74847" lon="1.53737">
        <ele>272.823837</ele>
        <time>2022-05-13T13:40:18.156Z</time>
      </trkpt>
      <trkpt lat="43.74855" lon="1.53744">
        <ele>273.383658</ele>
        <time>2022-05-13T13:40:23.159Z</time>
      </trkpt>
      <trkpt lat="43.74862" lon="1.53731">
        <ele>273.852502</ele>
        <time>2022-05-13T13:40:27.159Z</time>
      </trkpt>
      <trkpt lat="43.74864" lon="1.53718">
        <ele>273.86383</ele>
        <time>2022-05-13T13:40:29.133Z</time>
      </trkpt>
      <trkpt lat="43.74867" lon="1.53705">
        <ele>273.875758</ele>
        <time>2022-05-13T13:40:31.155Z</time>
      </trkpt>
      <trkpt lat="43.7487" lon="1.53691">
        <ele>273.888118</ele>
        <time>2022-05-13T13:40:33.178Z</time>
      </trkpt>
      <trkpt lat="43.74873" lon="1.53677">
        <ele>273.90051</ele>
        <time>2022-05-13T13:40:35.169Z</time>
      </trkpt>
      <trkpt lat="43.74876" lon="1.53663">
        <ele>273.913003</ele>
        <time>2022-05-13T13:40:37.155Z</time>
      </trkpt>
      <trkpt lat="43.74879" lon="1.5365">
        <ele>273.925545</ele>
        <time>2022-05-13T13:40:39.165Z</time>
      </trkpt>
      <trkpt lat="43.74882" lon="1.53636">
        <ele>273.93802</ele>
        <time>2022-05-13T13:40:41.163Z</time>
      </trkpt>
      <trkpt lat="43.74884" lon="1.53622">
        <ele>273.950631</ele>
        <time>2022-05-13T13:40:43.155Z</time>
      </trkpt>
      <trkpt lat="43.74887" lon="1.53607">
        <ele>273.963504</ele>
        <time>2022-05-13T13:40:45.146Z</time>
      </trkpt>
      <trkpt lat="43.7489" lon="1.53593">
        <ele>273.976377</ele>
        <time>2022-05-13T13:40:47.163Z</time>
      </trkpt>
      <trkpt lat="43.74893" lon="1.53579">
        <ele>273.989333</ele>
        <time>2022-05-13T13:40:49.162Z</time>
      </trkpt>
      <trkpt lat="43.74897" lon="1.53564">
        <ele>274.002559</ele>
        <time>2022-05-13T13:40:51.152Z</time>
      </trkpt>
      <trkpt lat="43.749" lon="1.53549">
        <ele>274.016186</ele>
        <time>2022-05-13T13:40:53.163Z</time>
      </trkpt>
      <trkpt lat="43.74904" lon="1.53534">
        <ele>274.029851</ele>
        <time>2022-05-13T13:40:55.158Z</time>
      </trkpt>
      <trkpt lat="43.74909" lon="1.5352">
        <ele>274.043611</ele>
        <time>2022-05-13T13:40:57.154Z</time>
      </trkpt>
      <trkpt lat="43.74914" lon="1.53506">
        <ele>274.057446</ele>
        <time>2022-05-13T13:40:59.154Z</time>
      </trkpt>
      <trkpt lat="43.7492" lon="1.53492">
        <ele>273.884288</ele>
        <time>2022-05-13T13:41:01.155Z</time>
      </trkpt>
      <trkpt lat="43.74927" lon="1.53479">
        <ele>273.551338</ele>
        <time>2022-05-13T13:41:03.167Z</time>
      </trkpt>
      <trkpt lat="43.74932" lon="1.53466">
        <ele>273.228539</ele>
        <time>2022-05-13T13:41:05.156Z</time>
      </trkpt>
      <trkpt lat="43.74942" lon="1.53463">
        <ele>272.95222</ele>
        <time>2022-05-13T13:41:08.142Z</time>
      </trkpt>
      <trkpt lat="43.74947" lon="1.53476">
        <ele>272.638926</ele>
        <time>2022-05-13T13:41:11.148Z</time>
      </trkpt>
      <trkpt lat="43.74952" lon="1.53491">
        <ele>272.281307</ele>
        <time>2022-05-13T13:41:14.155Z</time>
      </trkpt>
      <trkpt lat="43.74957" lon="1.53502">
        <ele>272.010574</ele>
        <time>2022-05-13T13:41:16.158Z</time>
      </trkpt>
      <trkpt lat="43.74961" lon="1.53515">
        <ele>271.70411</ele>
        <time>2022-05-13T13:41:18.150Z</time>
      </trkpt>
      <trkpt lat="43.74966" lon="1.5353">
        <ele>271.363162</ele>
        <time>2022-05-13T13:41:20.155Z</time>
      </trkpt>
      <trkpt lat="43.74972" lon="1.53545">
        <ele>270.9934</ele>
        <time>2022-05-13T13:41:22.154Z</time>
      </trkpt>
      <trkpt lat="43.74978" lon="1.53562">
        <ele>270.600734</ele>
        <time>2022-05-13T13:41:24.165Z</time>
      </trkpt>
      <trkpt lat="43.74983" lon="1.53579">
        <ele>270.202033</ele>
        <time>2022-05-13T13:41:26.144Z</time>
      </trkpt>
      <trkpt lat="43.74988" lon="1.53595">
        <ele>269.836783</ele>
        <time>2022-05-13T13:41:28.146Z</time>
      </trkpt>
      <trkpt lat="43.74993" lon="1.53609">
        <ele>269.495203</ele>
        <time>2022-05-13T13:41:30.171Z</time>
      </trkpt>
      <trkpt lat="43.74999" lon="1.53623">
        <ele>269.161279</ele>
        <time>2022-05-13T13:41:32.137Z</time>
      </trkpt>
      <trkpt lat="43.75005" lon="1.53634">
        <ele>268.854528</ele>
        <time>2022-05-13T13:41:34.148Z</time>
      </trkpt>
      <trkpt lat="43.75012" lon="1.53645">
        <ele>267.987384</ele>
        <time>2022-05-13T13:41:36.150Z</time>
      </trkpt>
      <trkpt lat="43.75019" lon="1.53655">
        <ele>266.902683</ele>
        <time>2022-05-13T13:41:38.147Z</time>
      </trkpt>
      <trkpt lat="43.75027" lon="1.53664">
        <ele>265.810858</ele>
        <time>2022-05-13T13:41:40.168Z</time>
      </trkpt>
      <trkpt lat="43.75035" lon="1.53675">
        <ele>264.580227</ele>
        <time>2022-05-13T13:41:42.164Z</time>
      </trkpt>
      <trkpt lat="43.75044" lon="1.53687">
        <ele>263.22908</ele>
        <time>2022-05-13T13:41:44.163Z</time>
      </trkpt>
      <trkpt lat="43.75056" lon="1.53701">
        <ele>261.610401</ele>
        <time>2022-05-13T13:41:46.161Z</time>
      </trkpt>
      <trkpt lat="43.7507" lon="1.53717">
        <ele>259.68139</ele>
        <time>2022-05-13T13:41:48.171Z</time>
      </trkpt>
      <trkpt lat="43.75077" lon="1.53726">
        <ele>258.64367</ele>
        <time>2022-05-13T13:41:49.159Z</time>
      </trkpt>
      <trkpt lat="43.75084" lon="1.53734">
        <ele>257.600935</ele>
        <time>2022-05-13T13:41:50.153Z</time>
      </trkpt>
      <trkpt lat="43.75092" lon="1.53743">
        <ele>256.589504</ele>
        <time>2022-05-13T13:41:51.159Z</time>
      </trkpt>
      <trkpt lat="43.75099" lon="1.53752">
        <ele>255.53864</ele>
        <time>2022-05-13T13:41:52.153Z</time>
      </trkpt>
      <trkpt lat="43.75107" lon="1.53761">
        <ele>254.408882</ele>
        <time>2022-05-13T13:41:53.149Z</time>
      </trkpt>
      <trkpt lat="43.75115" lon="1.53771">
        <ele>253.241126</ele>
        <time>2022-05-13T13:41:54.163Z</time>
      </trkpt>
      <trkpt lat="43.75123" lon="1.53781">
        <ele>252.114528</ele>
        <time>2022-05-13T13:41:55.163Z</time>
      </trkpt>
      <trkpt lat="43.75131" lon="1.5379">
        <ele>251.041035</ele>
        <time>2022-05-13T13:41:56.158Z</time>
      </trkpt>
      <trkpt lat="43.75138" lon="1.53799">
        <ele>249.963879</ele>
        <time>2022-05-13T13:41:57.153Z</time>
      </trkpt>
      <trkpt lat="43.75146" lon="1.53808">
        <ele>248.867808</ele>
        <time>2022-05-13T13:41:58.171Z</time>
      </trkpt>
      <trkpt lat="43.75154" lon="1.53816">
        <ele>247.812021</ele>
        <time>2022-05-13T13:41:59.165Z</time>
      </trkpt>
      <trkpt lat="43.75168" lon="1.53829">
        <ele>246.083997</ele>
        <time>2022-05-13T13:42:01.146Z</time>
      </trkpt>
      <trkpt lat="43.7518" lon="1.53839">
        <ele>244.656744</ele>
        <time>2022-05-13T13:42:03.151Z</time>
      </trkpt>
      <trkpt lat="43.75192" lon="1.53849">
        <ele>243.133486</ele>
        <time>2022-05-13T13:42:05.156Z</time>
      </trkpt>
      <trkpt lat="43.75206" lon="1.53859">
        <ele>241.44839</ele>
        <time>2022-05-13T13:42:07.170Z</time>
      </trkpt>
      <trkpt lat="43.75221" lon="1.5387">
        <ele>239.672693</ele>
        <time>2022-05-13T13:42:09.171Z</time>
      </trkpt>
      <trkpt lat="43.75235" lon="1.53886">
        <ele>237.771722</ele>
        <time>2022-05-13T13:42:11.160Z</time>
      </trkpt>
      <trkpt lat="43.7524" lon="1.53896">
        <ele>236.812504</ele>
        <time>2022-05-13T13:42:12.151Z</time>
      </trkpt>
      <trkpt lat="43.75245" lon="1.53906">
        <ele>235.852488</ele>
        <time>2022-05-13T13:42:13.154Z</time>
      </trkpt>
      <trkpt lat="43.7525" lon="1.53917">
        <ele>234.874567</ele>
        <time>2022-05-13T13:42:14.144Z</time>
      </trkpt>
      <trkpt lat="43.75259" lon="1.53935">
        <ele>233.21487</ele>
        <time>2022-05-13T13:42:16.143Z</time>
      </trkpt>
      <trkpt lat="43.75268" lon="1.53953">
        <ele>231.557421</ele>
        <time>2022-05-13T13:42:18.155Z</time>
      </trkpt>
      <trkpt lat="43.75276" lon="1.53972">
        <ele>230.338721</ele>
        <time>2022-05-13T13:42:20.154Z</time>
      </trkpt>
      <trkpt lat="43.75283" lon="1.5399">
        <ele>229.817709</ele>
        <time>2022-05-13T13:42:22.165Z</time>
      </trkpt>
      <trkpt lat="43.75287" lon="1.54011">
        <ele>229.28978</ele>
        <time>2022-05-13T13:42:24.156Z</time>
      </trkpt>
      <trkpt lat="43.7529" lon="1.54033">
        <ele>228.731684</ele>
        <time>2022-05-13T13:42:26.144Z</time>
      </trkpt>
      <trkpt lat="43.7529" lon="1.54046">
        <ele>228.422375</ele>
        <time>2022-05-13T13:42:27.154Z</time>
      </trkpt>
      <trkpt lat="43.75289" lon="1.5407">
        <ele>227.825526</ele>
        <time>2022-05-13T13:42:29.154Z</time>
      </trkpt>
      <trkpt lat="43.75285" lon="1.54091">
        <ele>227.293044</ele>
        <time>2022-05-13T13:42:31.154Z</time>
      </trkpt>
      <trkpt lat="43.75283" lon="1.54109">
        <ele>226.847972</ele>
        <time>2022-05-13T13:42:33.147Z</time>
      </trkpt>
      <trkpt lat="43.75286" lon="1.54124">
        <ele>226.444341</ele>
        <time>2022-05-13T13:42:35.145Z</time>
      </trkpt>
      <trkpt lat="43.75291" lon="1.54139">
        <ele>226.055762</ele>
        <time>2022-05-13T13:42:37.158Z</time>
      </trkpt>
      <trkpt lat="43.75295" lon="1.54151">
        <ele>225.726568</ele>
        <time>2022-05-13T13:42:39.139Z</time>
      </trkpt>
      <trkpt lat="43.753" lon="1.54167">
        <ele>225.292474</ele>
        <time>2022-05-13T13:42:42.162Z</time>
      </trkpt>
      <trkpt lat="43.75306" lon="1.54183">
        <ele>224.853027</ele>
        <time>2022-05-13T13:42:45.164Z</time>
      </trkpt>
      <trkpt lat="43.7531" lon="1.54194">
        <ele>224.538992</ele>
        <time>2022-05-13T13:42:47.161Z</time>
      </trkpt>
      <trkpt lat="43.75318" lon="1.54209">
        <ele>224.846946</ele>
        <time>2022-05-13T13:42:50.159Z</time>
      </trkpt>
      <trkpt lat="43.75323" lon="1.54219">
        <ele>225.293929</ele>
        <time>2022-05-13T13:42:52.152Z</time>
      </trkpt>
      <trkpt lat="43.7533" lon="1.54228">
        <ele>225.771212</ele>
        <time>2022-05-13T13:42:54.144Z</time>
      </trkpt>
      <trkpt lat="43.75337" lon="1.54238">
        <ele>226.246004</ele>
        <time>2022-05-13T13:42:56.152Z</time>
      </trkpt>
      <trkpt lat="43.75347" lon="1.5425">
        <ele>226.892074</ele>
        <time>2022-05-13T13:42:59.142Z</time>
      </trkpt>
      <trkpt lat="43.75355" lon="1.54259">
        <ele>227.422879</ele>
        <time>2022-05-13T13:43:02.158Z</time>
      </trkpt>
      <trkpt lat="43.75357" lon="1.54272">
        <ele>227.875673</ele>
        <time>2022-05-13T13:43:05.151Z</time>
      </trkpt>
      <trkpt lat="43.75354" lon="1.54285">
        <ele>228.362972</ele>
        <time>2022-05-13T13:43:08.146Z</time>
      </trkpt>
      <trkpt lat="43.75351" lon="1.54297">
        <ele>228.831494</ele>
        <time>2022-05-13T13:43:11.154Z</time>
      </trkpt>
      <trkpt lat="43.75348" lon="1.54313">
        <ele>229.417781</ele>
        <time>2022-05-13T13:43:15.165Z</time>
      </trkpt>
      <trkpt lat="43.75344" lon="1.54325">
        <ele>229.88333</ele>
        <time>2022-05-13T13:43:18.146Z</time>
      </trkpt>
      <trkpt lat="43.75339" lon="1.54336">
        <ele>230.344574</ele>
        <time>2022-05-13T13:43:21.171Z</time>
      </trkpt>
      <trkpt lat="43.75334" lon="1.54348">
        <ele>230.836371</ele>
        <time>2022-05-13T13:43:24.163Z</time>
      </trkpt>
      <trkpt lat="43.75328" lon="1.54359">
        <ele>231.342137</ele>
        <time>2022-05-13T13:43:27.161Z</time>
      </trkpt>
      <trkpt lat="43.75324" lon="1.54372">
        <ele>231.861631</ele>
        <time>2022-05-13T13:43:30.148Z</time>
      </trkpt>
      <trkpt lat="43.75318" lon="1.54384">
        <ele>232.370417</ele>
        <time>2022-05-13T13:43:33.147Z</time>
      </trkpt>
      <trkpt lat="43.75313" lon="1.54396">
        <ele>232.855766</ele>
        <time>2022-05-13T13:43:36.160Z</time>
      </trkpt>
      <trkpt lat="43.75307" lon="1.54408">
        <ele>233.332068</ele>
        <time>2022-05-13T13:43:39.131Z</time>
      </trkpt>
      <trkpt lat="43.75302" lon="1.54421">
        <ele>233.553261</ele>
        <time>2022-05-13T13:43:42.144Z</time>
      </trkpt>
      <trkpt lat="43.75298" lon="1.54433">
        <ele>233.768192</ele>
        <time>2022-05-13T13:43:45.163Z</time>
      </trkpt>
      <trkpt lat="43.75293" lon="1.54446">
        <ele>233.988939</ele>
        <time>2022-05-13T13:43:48.164Z</time>
      </trkpt>
      <trkpt lat="43.7529" lon="1.54461">
        <ele>234.20865</ele>
        <time>2022-05-13T13:43:51.138Z</time>
      </trkpt>
      <trkpt lat="43.7529" lon="1.54477">
        <ele>234.449651</ele>
        <time>2022-05-13T13:43:54.144Z</time>
      </trkpt>
      <trkpt lat="43.75292" lon="1.54493">
        <ele>234.703672</ele>
        <time>2022-05-13T13:43:57.149Z</time>
      </trkpt>
      <trkpt lat="43.75294" lon="1.54509">
        <ele>234.938644</ele>
        <time>2022-05-13T13:44:00.176Z</time>
      </trkpt>
      <trkpt lat="43.75296" lon="1.54523">
        <ele>235.164344</ele>
        <time>2022-05-13T13:44:03.160Z</time>
      </trkpt>
      <trkpt lat="43.75297" lon="1.54538">
        <ele>235.382299</ele>
        <time>2022-05-13T13:44:06.158Z</time>
      </trkpt>
      <trkpt lat="43.75299" lon="1.54551">
        <ele>235.591328</ele>
        <time>2022-05-13T13:44:09.153Z</time>
      </trkpt>
      <trkpt lat="43.75301" lon="1.54566">
        <ele>235.813291</ele>
        <time>2022-05-13T13:44:12.153Z</time>
      </trkpt>
      <trkpt lat="43.75303" lon="1.54581">
        <ele>236.047203</ele>
        <time>2022-05-13T13:44:15.155Z</time>
      </trkpt>
      <trkpt lat="43.75306" lon="1.54597">
        <ele>236.298168</ele>
        <time>2022-05-13T13:44:18.167Z</time>
      </trkpt>
      <trkpt lat="43.7531" lon="1.54613">
        <ele>236.549621</ele>
        <time>2022-05-13T13:44:21.153Z</time>
      </trkpt>
      <trkpt lat="43.75316" lon="1.5463">
        <ele>236.827961</ele>
        <time>2022-05-13T13:44:24.139Z</time>
      </trkpt>
      <trkpt lat="43.75321" lon="1.54641">
        <ele>237.026709</ele>
        <time>2022-05-13T13:44:26.160Z</time>
      </trkpt>
      <trkpt lat="43.75328" lon="1.54656">
        <ele>236.076076</ele>
        <time>2022-05-13T13:44:29.149Z</time>
      </trkpt>
      <trkpt lat="43.75335" lon="1.54671">
        <ele>234.9045</ele>
        <time>2022-05-13T13:44:32.153Z</time>
      </trkpt>
      <trkpt lat="43.75341" lon="1.54683">
        <ele>233.97292</ele>
        <time>2022-05-13T13:44:34.179Z</time>
      </trkpt>
      <trkpt lat="43.75347" lon="1.54696">
        <ele>232.925661</ele>
        <time>2022-05-13T13:44:36.147Z</time>
      </trkpt>
      <trkpt lat="43.75354" lon="1.5471">
        <ele>231.872367</ele>
        <time>2022-05-13T13:44:38.171Z</time>
      </trkpt>
      <trkpt lat="43.7536" lon="1.54723">
        <ele>230.830944</ele>
        <time>2022-05-13T13:44:40.156Z</time>
      </trkpt>
      <trkpt lat="43.75367" lon="1.54735">
        <ele>229.846389</ele>
        <time>2022-05-13T13:44:42.163Z</time>
      </trkpt>
      <trkpt lat="43.75377" lon="1.54746">
        <ele>228.73554</ele>
        <time>2022-05-13T13:44:44.139Z</time>
      </trkpt>
      <trkpt lat="43.75388" lon="1.54754">
        <ele>227.597758</ele>
        <time>2022-05-13T13:44:46.137Z</time>
      </trkpt>
      <trkpt lat="43.75399" lon="1.54761">
        <ele>226.524321</ele>
        <time>2022-05-13T13:44:48.137Z</time>
      </trkpt>
      <trkpt lat="43.75411" lon="1.54769">
        <ele>225.350717</ele>
        <time>2022-05-13T13:44:50.149Z</time>
      </trkpt>
      <trkpt lat="43.75421" lon="1.54779">
        <ele>224.269797</ele>
        <time>2022-05-13T13:44:52.148Z</time>
      </trkpt>
      <trkpt lat="43.75428" lon="1.54792">
        <ele>223.20986</ele>
        <time>2022-05-13T13:44:54.154Z</time>
      </trkpt>
      <trkpt lat="43.75436" lon="1.54806">
        <ele>222.038225</ele>
        <time>2022-05-13T13:44:56.162Z</time>
      </trkpt>
      <trkpt lat="43.75444" lon="1.54823">
        <ele>220.862275</ele>
        <time>2022-05-13T13:44:58.174Z</time>
      </trkpt>
      <trkpt lat="43.75453" lon="1.54839">
        <ele>220.099451</ele>
        <time>2022-05-13T13:45:00.162Z</time>
      </trkpt>
      <trkpt lat="43.75462" lon="1.54855">
        <ele>219.342795</ele>
        <time>2022-05-13T13:45:02.161Z</time>
      </trkpt>
      <trkpt lat="43.7547" lon="1.54872">
        <ele>218.579054</ele>
        <time>2022-05-13T13:45:04.158Z</time>
      </trkpt>
      <trkpt lat="43.75476" lon="1.54889">
        <ele>217.833528</ele>
        <time>2022-05-13T13:45:06.149Z</time>
      </trkpt>
      <trkpt lat="43.75479" lon="1.54908">
        <ele>217.097636</ele>
        <time>2022-05-13T13:45:08.157Z</time>
      </trkpt>
      <trkpt lat="43.75483" lon="1.54925">
        <ele>216.444282</ele>
        <time>2022-05-13T13:45:10.148Z</time>
      </trkpt>
      <trkpt lat="43.75487" lon="1.5494">
        <ele>215.834797</ele>
        <time>2022-05-13T13:45:12.149Z</time>
      </trkpt>
      <trkpt lat="43.75492" lon="1.54955">
        <ele>215.202768</ele>
        <time>2022-05-13T13:45:14.142Z</time>
      </trkpt>
      <trkpt lat="43.75498" lon="1.5497">
        <ele>214.551635</ele>
        <time>2022-05-13T13:45:16.149Z</time>
      </trkpt>
      <trkpt lat="43.75505" lon="1.54984">
        <ele>213.901892</ele>
        <time>2022-05-13T13:45:18.148Z</time>
      </trkpt>
      <trkpt lat="43.75511" lon="1.54996">
        <ele>213.368965</ele>
        <time>2022-05-13T13:45:20.159Z</time>
      </trkpt>
      <trkpt lat="43.75513" lon="1.55008">
        <ele>212.891444</ele>
        <time>2022-05-13T13:45:23.156Z</time>
      </trkpt>
      <trkpt lat="43.75507" lon="1.55018">
        <ele>212.394298</ele>
        <time>2022-05-13T13:45:26.147Z</time>
      </trkpt>
      <trkpt lat="43.75499" lon="1.55027">
        <ele>211.867644</ele>
        <time>2022-05-13T13:45:29.161Z</time>
      </trkpt>
      <trkpt lat="43.75496" lon="1.55043">
        <ele>212.05947</ele>
        <time>2022-05-13T13:45:32.141Z</time>
      </trkpt>
      <trkpt lat="43.75501" lon="1.55054">
        <ele>212.728207</ele>
        <time>2022-05-13T13:45:34.159Z</time>
      </trkpt>
      <trkpt lat="43.75507" lon="1.55065">
        <ele>213.450902</ele>
        <time>2022-05-13T13:45:36.145Z</time>
      </trkpt>
      <trkpt lat="43.75514" lon="1.55076">
        <ele>214.22615</ele>
        <time>2022-05-13T13:45:38.158Z</time>
      </trkpt>
      <trkpt lat="43.75522" lon="1.55088">
        <ele>215.02615</ele>
        <time>2022-05-13T13:45:40.170Z</time>
      </trkpt>
      <trkpt lat="43.75529" lon="1.551">
        <ele>215.790959</ele>
        <time>2022-05-13T13:45:42.160Z</time>
      </trkpt>
      <trkpt lat="43.75535" lon="1.55112">
        <ele>216.563106</ele>
        <time>2022-05-13T13:45:44.167Z</time>
      </trkpt>
      <trkpt lat="43.75541" lon="1.55122">
        <ele>217.239626</ele>
        <time>2022-05-13T13:45:46.161Z</time>
      </trkpt>
      <trkpt lat="43.75546" lon="1.55133">
        <ele>217.900189</ele>
        <time>2022-05-13T13:45:48.164Z</time>
      </trkpt>
      <trkpt lat="43.75553" lon="1.55148">
        <ele>218.811782</ele>
        <time>2022-05-13T13:45:51.149Z</time>
      </trkpt>
      <trkpt lat="43.75557" lon="1.55166">
        <ele>219.741264</ele>
        <time>2022-05-13T13:45:54.147Z</time>
      </trkpt>
      <trkpt lat="43.75557" lon="1.55184">
        <ele>220.678102</ele>
        <time>2022-05-13T13:45:57.120Z</time>
      </trkpt>
      <trkpt lat="43.75558" lon="1.55201">
        <ele>221.548162</ele>
        <time>2022-05-13T13:46:00.153Z</time>
      </trkpt>
      <trkpt lat="43.75561" lon="1.55216">
        <ele>222.361652</ele>
        <time>2022-05-13T13:46:03.148Z</time>
      </trkpt>
      <trkpt lat="43.75567" lon="1.5523">
        <ele>223.200289</ele>
        <time>2022-05-13T13:46:06.150Z</time>
      </trkpt>
      <trkpt lat="43.75573" lon="1.55243">
        <ele>223.998713</ele>
        <time>2022-05-13T13:46:09.160Z</time>
      </trkpt>
      <trkpt lat="43.75579" lon="1.55255">
        <ele>224.882144</ele>
        <time>2022-05-13T13:46:12.152Z</time>
      </trkpt>
      <trkpt lat="43.75584" lon="1.55267">
        <ele>225.840935</ele>
        <time>2022-05-13T13:46:15.163Z</time>
      </trkpt>
      <trkpt lat="43.75589" lon="1.55278">
        <ele>226.790318</ele>
        <time>2022-05-13T13:46:18.148Z</time>
      </trkpt>
      <trkpt lat="43.75595" lon="1.55288">
        <ele>227.722593</ele>
        <time>2022-05-13T13:46:21.166Z</time>
      </trkpt>
      <trkpt lat="43.75601" lon="1.55298">
        <ele>228.620696</ele>
        <time>2022-05-13T13:46:24.157Z</time>
      </trkpt>
      <trkpt lat="43.75606" lon="1.55309">
        <ele>229.524089</ele>
        <time>2022-05-13T13:46:28.168Z</time>
      </trkpt>
      <trkpt lat="43.75613" lon="1.55319">
        <ele>230.543254</ele>
        <time>2022-05-13T13:46:31.139Z</time>
      </trkpt>
      <trkpt lat="43.75619" lon="1.55329">
        <ele>231.494139</ele>
        <time>2022-05-13T13:46:34.164Z</time>
      </trkpt>
      <trkpt lat="43.75626" lon="1.55339">
        <ele>232.434923</ele>
        <time>2022-05-13T13:46:37.150Z</time>
      </trkpt>
      <trkpt lat="43.75632" lon="1.55349">
        <ele>233.375611</ele>
        <time>2022-05-13T13:46:40.157Z</time>
      </trkpt>
      <trkpt lat="43.75639" lon="1.55359">
        <ele>234.30955</ele>
        <time>2022-05-13T13:46:43.157Z</time>
      </trkpt>
      <trkpt lat="43.75645" lon="1.55369">
        <ele>235.273894</ele>
        <time>2022-05-13T13:46:46.154Z</time>
      </trkpt>
      <trkpt lat="43.75652" lon="1.5538">
        <ele>236.271672</ele>
        <time>2022-05-13T13:46:49.159Z</time>
      </trkpt>
      <trkpt lat="43.7566" lon="1.55391">
        <ele>237.400727</ele>
        <time>2022-05-13T13:46:52.165Z</time>
      </trkpt>
      <trkpt lat="43.75668" lon="1.55401">
        <ele>238.515163</ele>
        <time>2022-05-13T13:46:55.185Z</time>
      </trkpt>
      <trkpt lat="43.75676" lon="1.55412">
        <ele>239.557468</ele>
        <time>2022-05-13T13:46:58.159Z</time>
      </trkpt>
      <trkpt lat="43.75683" lon="1.55424">
        <ele>240.681909</ele>
        <time>2022-05-13T13:47:01.157Z</time>
      </trkpt>
      <trkpt lat="43.75687" lon="1.55436">
        <ele>241.637947</ele>
        <time>2022-05-13T13:47:04.148Z</time>
      </trkpt>
      <trkpt lat="43.75689" lon="1.5545">
        <ele>242.214481</ele>
        <time>2022-05-13T13:47:07.145Z</time>
      </trkpt>
      <trkpt lat="43.75681" lon="1.55459">
        <ele>242.560018</ele>
        <time>2022-05-13T13:47:10.158Z</time>
      </trkpt>
      <trkpt lat="43.75671" lon="1.55466">
        <ele>242.951061</ele>
        <time>2022-05-13T13:47:13.157Z</time>
      </trkpt>
      <trkpt lat="43.7566" lon="1.55473">
        <ele>243.336033</ele>
        <time>2022-05-13T13:47:16.157Z</time>
      </trkpt>
      <trkpt lat="43.75651" lon="1.55481">
        <ele>243.719092</ele>
        <time>2022-05-13T13:47:19.145Z</time>
      </trkpt>
      <trkpt lat="43.75643" lon="1.55493">
        <ele>244.108504</ele>
        <time>2022-05-13T13:47:22.164Z</time>
      </trkpt>
      <trkpt lat="43.75635" lon="1.55504">
        <ele>244.501468</ele>
        <time>2022-05-13T13:47:25.171Z</time>
      </trkpt>
      <trkpt lat="43.75626" lon="1.55517">
        <ele>244.917535</ele>
        <time>2022-05-13T13:47:28.156Z</time>
      </trkpt>
      <trkpt lat="43.75618" lon="1.55531">
        <ele>245.363499</ele>
        <time>2022-05-13T13:47:31.157Z</time>
      </trkpt>
      <trkpt lat="43.75611" lon="1.55546">
        <ele>245.796056</ele>
        <time>2022-05-13T13:47:34.147Z</time>
      </trkpt>
      <trkpt lat="43.75978" lon="1.55802">
        <ele>171.1</ele>
      </trkpt>
      <trkpt lat="43.76093" lon="1.56004">
        <ele>168</ele>
      </trkpt>
      <trkpt lat="43.76218" lon="1.5615">
        <ele>165.4</ele>
      </trkpt>
      <trkpt lat="43.76215" lon="1.5632">
        <ele>222.832905</ele>
        <time>2022-05-13T13:50:55.194Z</time>
      </trkpt>
      <trkpt lat="43.76222" lon="1.56331">
        <ele>222.780633</ele>
        <time>2022-05-13T13:50:58.157Z</time>
      </trkpt>
      <trkpt lat="43.76221" lon="1.56348">
        <ele>222.716256</ele>
        <time>2022-05-13T13:51:01.149Z</time>
      </trkpt>
      <trkpt lat="43.76221" lon="1.56366">
        <ele>222.650646</ele>
        <time>2022-05-13T13:51:04.160Z</time>
      </trkpt>
      <trkpt lat="43.7622" lon="1.56384">
        <ele>222.585362</ele>
        <time>2022-05-13T13:51:07.173Z</time>
      </trkpt>
      <trkpt lat="43.76221" lon="1.56402">
        <ele>222.597177</ele>
        <time>2022-05-13T13:51:10.164Z</time>
      </trkpt>
      <trkpt lat="43.76221" lon="1.56415">
        <ele>222.62391</ele>
        <time>2022-05-13T13:51:12.168Z</time>
      </trkpt>
      <trkpt lat="43.76221" lon="1.56429">
        <ele>222.651251</ele>
        <time>2022-05-13T13:51:14.166Z</time>
      </trkpt>
      <trkpt lat="43.76222" lon="1.56443">
        <ele>222.680061</ele>
        <time>2022-05-13T13:51:16.163Z</time>
      </trkpt>
      <trkpt lat="43.76222" lon="1.56457">
        <ele>222.709259</ele>
        <time>2022-05-13T13:51:18.170Z</time>
      </trkpt>
      <trkpt lat="43.76222" lon="1.56471">
        <ele>222.737833</ele>
        <time>2022-05-13T13:51:20.160Z</time>
      </trkpt>
      <trkpt lat="43.76223" lon="1.56485">
        <ele>222.767853</ele>
        <time>2022-05-13T13:51:22.154Z</time>
      </trkpt>
      <trkpt lat="43.76223" lon="1.565">
        <ele>222.79766</ele>
        <time>2022-05-13T13:51:24.157Z</time>
      </trkpt>
      <trkpt lat="43.76224" lon="1.56515">
        <ele>222.828391</ele>
        <time>2022-05-13T13:51:26.153Z</time>
      </trkpt>
      <trkpt lat="43.76224" lon="1.5653">
        <ele>222.859048</ele>
        <time>2022-05-13T13:51:28.159Z</time>
      </trkpt>
      <trkpt lat="43.76224" lon="1.56545">
        <ele>222.89029</ele>
        <time>2022-05-13T13:51:30.158Z</time>
      </trkpt>
      <trkpt lat="43.76224" lon="1.56559">
        <ele>222.919715</ele>
        <time>2022-05-13T13:51:32.152Z</time>
      </trkpt>
      <trkpt lat="43.76222" lon="1.56573">
        <ele>222.948083</ele>
        <time>2022-05-13T13:51:34.147Z</time>
      </trkpt>
      <trkpt lat="43.7622" lon="1.56585">
        <ele>222.974819</ele>
        <time>2022-05-13T13:51:36.143Z</time>
      </trkpt>
      <trkpt lat="43.76211" lon="1.56638">
        <ele>223.03121</ele>
        <time>2022-05-13T13:51:59.139Z</time>
      </trkpt>
      <trkpt lat="43.76206" lon="1.56666">
        <ele>222.599881</ele>
        <time>2022-05-13T13:52:07.150Z</time>
      </trkpt>
      <trkpt lat="43.76205" lon="1.56682">
        <ele>222.373197</ele>
        <time>2022-05-13T13:52:10.157Z</time>
      </trkpt>
      <trkpt lat="43.76204" lon="1.56696">
        <ele>222.170041</ele>
        <time>2022-05-13T13:52:13.155Z</time>
      </trkpt>
      <trkpt lat="43.76201" lon="1.56708">
        <ele>221.985252</ele>
        <time>2022-05-13T13:52:16.149Z</time>
      </trkpt>
      <trkpt lat="43.76199" lon="1.56723">
        <ele>221.767294</ele>
        <time>2022-05-13T13:52:19.164Z</time>
      </trkpt>
      <trkpt lat="43.76198" lon="1.56738">
        <ele>221.545491</ele>
        <time>2022-05-13T13:52:22.143Z</time>
      </trkpt>
      <trkpt lat="43.76194" lon="1.56756">
        <ele>221.270736</ele>
        <time>2022-05-13T13:52:25.185Z</time>
      </trkpt>
      <trkpt lat="43.76189" lon="1.56773">
        <ele>220.998683</ele>
        <time>2022-05-13T13:52:28.162Z</time>
      </trkpt>
      <trkpt lat="43.76186" lon="1.56785">
        <ele>220.816623</ele>
        <time>2022-05-13T13:52:30.153Z</time>
      </trkpt>
      <trkpt lat="43.76188" lon="1.56801">
        <ele>220.589381</ele>
        <time>2022-05-13T13:52:33.152Z</time>
      </trkpt>
      <trkpt lat="43.76192" lon="1.56814">
        <ele>220.371233</ele>
        <time>2022-05-13T13:52:35.138Z</time>
      </trkpt>
      <trkpt lat="43.76204" lon="1.56843">
        <ele>219.894155</ele>
        <time>2022-05-13T13:52:39.163Z</time>
      </trkpt>
      <trkpt lat="43.7621" lon="1.5686">
        <ele>219.618225</ele>
        <time>2022-05-13T13:52:41.143Z</time>
      </trkpt>
      <trkpt lat="43.76218" lon="1.56877">
        <ele>219.50528</ele>
        <time>2022-05-13T13:52:43.138Z</time>
      </trkpt>
      <trkpt lat="43.76228" lon="1.56895">
        <ele>219.583279</ele>
        <time>2022-05-13T13:52:45.156Z</time>
      </trkpt>
      <trkpt lat="43.76242" lon="1.56919">
        <ele>219.690107</ele>
        <time>2022-05-13T13:52:49.138Z</time>
      </trkpt>
      <trkpt lat="43.7625" lon="1.5693">
        <ele>219.744747</ele>
        <time>2022-05-13T13:52:52.138Z</time>
      </trkpt>
      <trkpt lat="43.76258" lon="1.56945">
        <ele>219.808292</ele>
        <time>2022-05-13T13:52:55.154Z</time>
      </trkpt>
      <trkpt lat="43.76263" lon="1.56956">
        <ele>219.853175</ele>
        <time>2022-05-13T13:52:57.161Z</time>
      </trkpt>
      <trkpt lat="43.76269" lon="1.56969">
        <ele>219.906903</ele>
        <time>2022-05-13T13:52:59.152Z</time>
      </trkpt>
      <trkpt lat="43.76275" lon="1.56981">
        <ele>219.954609</ele>
        <time>2022-05-13T13:53:01.136Z</time>
      </trkpt>
      <trkpt lat="43.76281" lon="1.56997">
        <ele>220.017681</ele>
        <time>2022-05-13T13:53:03.154Z</time>
      </trkpt>
      <trkpt lat="43.76289" lon="1.57013">
        <ele>220.08319</ele>
        <time>2022-05-13T13:53:05.149Z</time>
      </trkpt>
      <trkpt lat="43.76296" lon="1.57026">
        <ele>220.141488</ele>
        <time>2022-05-13T13:53:07.144Z</time>
      </trkpt>
      <trkpt lat="43.76302" lon="1.5704">
        <ele>220.196849</ele>
        <time>2022-05-13T13:53:09.145Z</time>
      </trkpt>
      <trkpt lat="43.76307" lon="1.57052">
        <ele>220.245937</ele>
        <time>2022-05-13T13:53:11.143Z</time>
      </trkpt>
      <trkpt lat="43.76311" lon="1.57064">
        <ele>220.289276</ele>
        <time>2022-05-13T13:53:13.145Z</time>
      </trkpt>
      <trkpt lat="43.7632" lon="1.5708">
        <ele>220.346384</ele>
        <time>2022-05-13T13:53:16.135Z</time>
      </trkpt>
      <trkpt lat="43.76326" lon="1.5709">
        <ele>220.373289</ele>
        <time>2022-05-13T13:53:18.138Z</time>
      </trkpt>
      <trkpt lat="43.76332" lon="1.57101">
        <ele>220.402216</ele>
        <time>2022-05-13T13:53:21.129Z</time>
      </trkpt>
      <trkpt lat="43.76338" lon="1.57114">
        <ele>220.435395</ele>
        <time>2022-05-13T13:53:24.154Z</time>
      </trkpt>
      <trkpt lat="43.76343" lon="1.57126">
        <ele>220.463348</ele>
        <time>2022-05-13T13:53:26.133Z</time>
      </trkpt>
      <trkpt lat="43.76349" lon="1.57137">
        <ele>220.492939</ele>
        <time>2022-05-13T13:53:29.170Z</time>
      </trkpt>
      <trkpt lat="43.76355" lon="1.57149">
        <ele>220.523754</ele>
        <time>2022-05-13T13:53:32.153Z</time>
      </trkpt>
      <trkpt lat="43.7636" lon="1.57163">
        <ele>220.557153</ele>
        <time>2022-05-13T13:53:35.153Z</time>
      </trkpt>
      <trkpt lat="43.76366" lon="1.57175">
        <ele>220.585261</ele>
        <time>2022-05-13T13:53:38.144Z</time>
      </trkpt>
      <trkpt lat="43.76374" lon="1.57181">
        <ele>220.61314</ele>
        <time>2022-05-13T13:53:41.135Z</time>
      </trkpt>
      <trkpt lat="43.76385" lon="1.5718">
        <ele>220.645675</ele>
        <time>2022-05-13T13:53:44.152Z</time>
      </trkpt>
      <trkpt lat="43.76395" lon="1.57178">
        <ele>220.673116</ele>
        <time>2022-05-13T13:53:46.143Z</time>
      </trkpt>
      <trkpt lat="43.76406" lon="1.5718">
        <ele>220.70563</ele>
        <time>2022-05-13T13:53:48.138Z</time>
      </trkpt>
      <trkpt lat="43.76415" lon="1.57186">
        <ele>220.73431</ele>
        <time>2022-05-13T13:53:50.144Z</time>
      </trkpt>
      <trkpt lat="43.76423" lon="1.57196">
        <ele>220.766188</ele>
        <time>2022-05-13T13:53:52.158Z</time>
      </trkpt>
      <trkpt lat="43.76431" lon="1.57208">
        <ele>220.79929</ele>
        <time>2022-05-13T13:53:54.143Z</time>
      </trkpt>
      <trkpt lat="43.76437" lon="1.57222">
        <ele>220.834798</ele>
        <time>2022-05-13T13:53:56.142Z</time>
      </trkpt>
      <trkpt lat="43.76443" lon="1.57236">
        <ele>220.81392</ele>
        <time>2022-05-13T13:53:58.143Z</time>
      </trkpt>
      <trkpt lat="43.76449" lon="1.57247">
        <ele>220.759659</ele>
        <time>2022-05-13T13:54:00.151Z</time>
      </trkpt>
      <trkpt lat="43.76455" lon="1.5726">
        <ele>220.70266</ele>
        <time>2022-05-13T13:54:02.141Z</time>
      </trkpt>
      <trkpt lat="43.7647" lon="1.57306">
        <ele>220.510081</ele>
        <time>2022-05-13T13:54:08.143Z</time>
      </trkpt>
      <trkpt lat="43.76472" lon="1.57319">
        <ele>220.462146</ele>
        <time>2022-05-13T13:54:10.140Z</time>
      </trkpt>
      <trkpt lat="43.76468" lon="1.57332">
        <ele>220.408997</ele>
        <time>2022-05-13T13:54:12.146Z</time>
      </trkpt>
      <trkpt lat="43.76459" lon="1.5734">
        <ele>220.353611</ele>
        <time>2022-05-13T13:54:14.155Z</time>
      </trkpt>
      <trkpt lat="43.76452" lon="1.5735">
        <ele>220.299172</ele>
        <time>2022-05-13T13:54:16.149Z</time>
      </trkpt>
      <trkpt lat="43.76451" lon="1.57366">
        <ele>220.239827</ele>
        <time>2022-05-13T13:54:18.143Z</time>
      </trkpt>
      <trkpt lat="43.76448" lon="1.57383">
        <ele>220.176205</ele>
        <time>2022-05-13T13:54:20.155Z</time>
      </trkpt>
      <trkpt lat="43.76445" lon="1.57399">
        <ele>220.111367</ele>
        <time>2022-05-13T13:54:22.146Z</time>
      </trkpt>
      <trkpt lat="43.76443" lon="1.57414">
        <ele>220.053806</ele>
        <time>2022-05-13T13:54:24.142Z</time>
      </trkpt>
      <trkpt lat="43.7644" lon="1.57429">
        <ele>219.996023</ele>
        <time>2022-05-13T13:54:26.125Z</time>
      </trkpt>
      <trkpt lat="43.76436" lon="1.57441">
        <ele>219.945942</ele>
        <time>2022-05-13T13:54:28.147Z</time>
      </trkpt>
      <trkpt lat="43.76434" lon="1.57456">
        <ele>219.953686</ele>
        <time>2022-05-13T13:54:30.132Z</time>
      </trkpt>
      <trkpt lat="43.76433" lon="1.5747">
        <ele>220.047279</ele>
        <time>2022-05-13T13:54:32.138Z</time>
      </trkpt>
      <trkpt lat="43.76433" lon="1.57484">
        <ele>220.134914</ele>
        <time>2022-05-13T13:54:34.149Z</time>
      </trkpt>
      <trkpt lat="43.76433" lon="1.57498">
        <ele>220.219335</ele>
        <time>2022-05-13T13:54:36.140Z</time>
      </trkpt>
      <trkpt lat="43.76427" lon="1.5751">
        <ele>220.312982</ele>
        <time>2022-05-13T13:54:38.129Z</time>
      </trkpt>
      <trkpt lat="43.7642" lon="1.57521">
        <ele>220.407196</ele>
        <time>2022-05-13T13:54:40.157Z</time>
      </trkpt>
      <trkpt lat="43.76416" lon="1.57536">
        <ele>220.503222</ele>
        <time>2022-05-13T13:54:42.143Z</time>
      </trkpt>
      <trkpt lat="43.76414" lon="1.5755">
        <ele>220.594766</ele>
        <time>2022-05-13T13:54:44.171Z</time>
      </trkpt>
      <trkpt lat="43.76412" lon="1.57562">
        <ele>220.67365</ele>
        <time>2022-05-13T13:54:46.171Z</time>
      </trkpt>
      <trkpt lat="43.76408" lon="1.57575">
        <ele>220.763137</ele>
        <time>2022-05-13T13:54:48.148Z</time>
      </trkpt>
      <trkpt lat="43.7641" lon="1.57588">
        <ele>220.847213</ele>
        <time>2022-05-13T13:54:50.137Z</time>
      </trkpt>
      <trkpt lat="43.7641" lon="1.57602">
        <ele>220.934971</ele>
        <time>2022-05-13T13:54:52.153Z</time>
      </trkpt>
      <trkpt lat="43.76405" lon="1.57615">
        <ele>221.027305</ele>
        <time>2022-05-13T13:54:54.145Z</time>
      </trkpt>
      <trkpt lat="43.76402" lon="1.57629">
        <ele>221.120385</ele>
        <time>2022-05-13T13:54:56.171Z</time>
      </trkpt>
      <trkpt lat="43.764" lon="1.57643">
        <ele>221.212633</ele>
        <time>2022-05-13T13:54:58.147Z</time>
      </trkpt>
      <trkpt lat="43.76397" lon="1.57657">
        <ele>221.301562</ele>
        <time>2022-05-13T13:55:00.145Z</time>
      </trkpt>
      <trkpt lat="43.76395" lon="1.57674">
        <ele>221.413247</ele>
        <time>2022-05-13T13:55:03.132Z</time>
      </trkpt>
      <trkpt lat="43.76391" lon="1.57734">
        <ele>221.776329</ele>
        <time>2022-05-13T13:55:11.161Z</time>
      </trkpt>
      <trkpt lat="43.76387" lon="1.57759">
        <ele>221.935582</ele>
        <time>2022-05-13T13:55:15.144Z</time>
      </trkpt>
      <trkpt lat="43.76383" lon="1.57775">
        <ele>222.032185</ele>
        <time>2022-05-13T13:55:17.176Z</time>
      </trkpt>
      <trkpt lat="43.76379" lon="1.57793">
        <ele>222.146056</ele>
        <time>2022-05-13T13:55:20.156Z</time>
      </trkpt>
      <trkpt lat="43.76384" lon="1.57804">
        <ele>222.225017</ele>
        <time>2022-05-13T13:55:22.143Z</time>
      </trkpt>
      <trkpt lat="43.7639" lon="1.57814">
        <ele>222.300336</ele>
        <time>2022-05-13T13:55:24.153Z</time>
      </trkpt>
      <trkpt lat="43.76454" lon="1.57955">
        <ele>162</ele>
      </trkpt>
      <trkpt lat="43.76464" lon="1.57945">
        <ele>162</ele>
      </trkpt>
      <trkpt lat="43.76476" lon="1.58012">
        <ele>162</ele>
      </trkpt>
      <trkpt lat="43.76495" lon="1.58033">
        <ele>162</ele>
      </trkpt>
      <trkpt lat="43.7651" lon="1.58029">
        <ele>162</ele>
      </trkpt>
      <trkpt lat="43.76541" lon="1.58081">
        <ele>161</ele>
      </trkpt>
      <trkpt lat="43.76621" lon="1.58276">
        <ele>217.994577</ele>
        <time>2022-05-13T13:56:45.140Z</time>
      </trkpt>
      <trkpt lat="43.76654" lon="1.58327">
        <ele>154.2</ele>
      </trkpt>
      <trkpt lat="43.76676" lon="1.58386">
        <ele>153.4</ele>
        <time>2022-05-13T13:57:09.170Z</time>
      </trkpt>
      <trkpt lat="43.76706" lon="1.58426">
        <ele>154.4</ele>
      </trkpt>
      <trkpt lat="43.76765" lon="1.58539">
        <ele>213.847462</ele>
        <time>2022-05-13T13:57:38.151Z</time>
      </trkpt>
      <trkpt lat="43.76779" lon="1.586">
        <ele>150.5</ele>
        <time>2022-05-13T13:57:40.144Z</time>
      </trkpt>
      <trkpt lat="43.76771" lon="1.58724">
        <ele>148.1</ele>
      </trkpt>
      <trkpt lat="43.76749" lon="1.5885">
        <ele>198.754637</ele>
        <time>2022-05-13T13:58:12.148Z</time>
      </trkpt>
      <trkpt lat="43.76743" lon="1.58879">
        <ele>135.2</ele>
        <time>2022-05-13T13:58:15.166Z</time>
      </trkpt>
      <trkpt lat="43.76776" lon="1.59048">
        <ele>190.859208</ele>
        <time>2022-05-13T13:58:48.165Z</time>
      </trkpt>
      <trkpt lat="43.76777" lon="1.59061">
        <ele>190.537544</ele>
        <time>2022-05-13T13:58:50.163Z</time>
      </trkpt>
      <trkpt lat="43.7678" lon="1.59078">
        <ele>190.128395</ele>
        <time>2022-05-13T13:58:53.153Z</time>
      </trkpt>
      <trkpt lat="43.76778" lon="1.59091">
        <ele>189.790186</ele>
        <time>2022-05-13T13:58:57.151Z</time>
      </trkpt>
      <trkpt lat="43.76774" lon="1.59105">
        <ele>189.434021</ele>
        <time>2022-05-13T13:59:05.154Z</time>
      </trkpt>
      <trkpt lat="43.7678" lon="1.59116">
        <ele>189.109224</ele>
        <time>2022-05-13T13:59:08.144Z</time>
      </trkpt>
      <trkpt lat="43.76788" lon="1.5913">
        <ele>188.658814</ele>
        <time>2022-05-13T13:59:11.158Z</time>
      </trkpt>
      <trkpt lat="43.76796" lon="1.59143">
        <ele>188.274101</ele>
        <time>2022-05-13T13:59:13.163Z</time>
      </trkpt>
      <trkpt lat="43.76804" lon="1.59155">
        <ele>187.877785</ele>
        <time>2022-05-13T13:59:15.160Z</time>
      </trkpt>
      <trkpt lat="43.76812" lon="1.59169">
        <ele>187.459264</ele>
        <time>2022-05-13T13:59:17.158Z</time>
      </trkpt>
      <trkpt lat="43.76819" lon="1.59184">
        <ele>187.033011</ele>
        <time>2022-05-13T13:59:19.156Z</time>
      </trkpt>
      <trkpt lat="43.76825" lon="1.59199">
        <ele>186.739922</ele>
        <time>2022-05-13T13:59:21.135Z</time>
      </trkpt>
      <trkpt lat="43.76831" lon="1.59215">
        <ele>186.462174</ele>
        <time>2022-05-13T13:59:23.151Z</time>
      </trkpt>
      <trkpt lat="43.76837" lon="1.59232">
        <ele>186.183484</ele>
        <time>2022-05-13T13:59:25.165Z</time>
      </trkpt>
      <trkpt lat="43.76843" lon="1.59248">
        <ele>185.907533</ele>
        <time>2022-05-13T13:59:27.164Z</time>
      </trkpt>
      <trkpt lat="43.76849" lon="1.59263">
        <ele>185.631326</ele>
        <time>2022-05-13T13:59:29.165Z</time>
      </trkpt>
      <trkpt lat="43.76855" lon="1.5928">
        <ele>185.354007</ele>
        <time>2022-05-13T13:59:31.148Z</time>
      </trkpt>
      <trkpt lat="43.76861" lon="1.59296">
        <ele>185.076097</ele>
        <time>2022-05-13T13:59:33.170Z</time>
      </trkpt>
      <trkpt lat="43.76867" lon="1.59312">
        <ele>184.795603</ele>
        <time>2022-05-13T13:59:35.153Z</time>
      </trkpt>
      <trkpt lat="43.76873" lon="1.59328">
        <ele>184.509903</ele>
        <time>2022-05-13T13:59:37.152Z</time>
      </trkpt>
      <trkpt lat="43.76879" lon="1.59345">
        <ele>184.22284</ele>
        <time>2022-05-13T13:59:39.169Z</time>
      </trkpt>
      <trkpt lat="43.76885" lon="1.59362">
        <ele>183.928364</ele>
        <time>2022-05-13T13:59:41.165Z</time>
      </trkpt>
      <trkpt lat="43.76892" lon="1.59379">
        <ele>183.634865</ele>
        <time>2022-05-13T13:59:43.164Z</time>
      </trkpt>
      <trkpt lat="43.76898" lon="1.59396">
        <ele>183.34</ele>
        <time>2022-05-13T13:59:45.161Z</time>
      </trkpt>
      <trkpt lat="43.76904" lon="1.59413">
        <ele>183.10649</ele>
        <time>2022-05-13T13:59:47.153Z</time>
      </trkpt>
      <trkpt lat="43.7691" lon="1.5943">
        <ele>182.965783</ele>
        <time>2022-05-13T13:59:49.165Z</time>
      </trkpt>
      <trkpt lat="43.76917" lon="1.59447">
        <ele>182.825076</ele>
        <time>2022-05-13T13:59:51.158Z</time>
      </trkpt>
      <trkpt lat="43.76923" lon="1.59464">
        <ele>182.684761</ele>
        <time>2022-05-13T13:59:53.156Z</time>
      </trkpt>
      <trkpt lat="43.76929" lon="1.59481">
        <ele>182.544718</ele>
        <time>2022-05-13T13:59:55.172Z</time>
      </trkpt>
      <trkpt lat="43.76935" lon="1.59497">
        <ele>182.405534</ele>
        <time>2022-05-13T13:59:57.153Z</time>
      </trkpt>
      <trkpt lat="43.76941" lon="1.59514">
        <ele>182.268601</ele>
        <time>2022-05-13T13:59:59.161Z</time>
      </trkpt>
      <trkpt lat="43.76947" lon="1.5953">
        <ele>182.132991</ele>
        <time>2022-05-13T14:00:01.171Z</time>
      </trkpt>
      <trkpt lat="43.76953" lon="1.59546">
        <ele>181.998882</ele>
        <time>2022-05-13T14:00:03.155Z</time>
      </trkpt>
      <trkpt lat="43.76959" lon="1.59562">
        <ele>181.866083</ele>
        <time>2022-05-13T14:00:05.161Z</time>
      </trkpt>
      <trkpt lat="43.76965" lon="1.59577">
        <ele>181.737033</ele>
        <time>2022-05-13T14:00:07.150Z</time>
      </trkpt>
      <trkpt lat="43.76972" lon="1.59592">
        <ele>181.609988</ele>
        <time>2022-05-13T14:00:09.164Z</time>
      </trkpt>
      <trkpt lat="43.76979" lon="1.59605">
        <ele>181.486182</ele>
        <time>2022-05-13T14:00:11.168Z</time>
      </trkpt>
      <trkpt lat="43.76986" lon="1.59618">
        <ele>181.365867</ele>
        <time>2022-05-13T14:00:13.161Z</time>
      </trkpt>
      <trkpt lat="43.76994" lon="1.5963">
        <ele>181.286668</ele>
        <time>2022-05-13T14:00:15.179Z</time>
      </trkpt>
      <trkpt lat="43.77002" lon="1.59642">
        <ele>181.237864</ele>
        <time>2022-05-13T14:00:17.162Z</time>
      </trkpt>
      <trkpt lat="43.7701" lon="1.59655">
        <ele>181.188559</ele>
        <time>2022-05-13T14:00:19.175Z</time>
      </trkpt>
      <trkpt lat="43.77018" lon="1.59667">
        <ele>181.138693</ele>
        <time>2022-05-13T14:00:21.151Z</time>
      </trkpt>
      <trkpt lat="43.77026" lon="1.59679">
        <ele>181.088437</ele>
        <time>2022-05-13T14:00:23.167Z</time>
      </trkpt>
      <trkpt lat="43.77034" lon="1.59692">
        <ele>181.037624</ele>
        <time>2022-05-13T14:00:25.165Z</time>
      </trkpt>
      <trkpt lat="43.77042" lon="1.59704">
        <ele>180.987368</ele>
        <time>2022-05-13T14:00:27.131Z</time>
      </trkpt>
      <trkpt lat="43.7705" lon="1.59717">
        <ele>180.93756</ele>
        <time>2022-05-13T14:00:29.131Z</time>
      </trkpt>
      <trkpt lat="43.77058" lon="1.59729">
        <ele>180.887976</ele>
        <time>2022-05-13T14:00:31.141Z</time>
      </trkpt>
      <trkpt lat="43.77066" lon="1.59741">
        <ele>180.839117</ele>
        <time>2022-05-13T14:00:33.160Z</time>
      </trkpt>
      <trkpt lat="43.77074" lon="1.59753">
        <ele>180.790089</ele>
        <time>2022-05-13T14:00:35.163Z</time>
      </trkpt>
      <trkpt lat="43.77081" lon="1.59765">
        <ele>180.74123</ele>
        <time>2022-05-13T14:00:37.161Z</time>
      </trkpt>
      <trkpt lat="43.7709" lon="1.59777">
        <ele>180.692026</ele>
        <time>2022-05-13T14:00:39.153Z</time>
      </trkpt>
      <trkpt lat="43.77098" lon="1.59789">
        <ele>180.64304</ele>
        <time>2022-05-13T14:00:41.147Z</time>
      </trkpt>
      <trkpt lat="43.77106" lon="1.598">
        <ele>180.593982</ele>
        <time>2022-05-13T14:00:43.165Z</time>
      </trkpt>
      <trkpt lat="43.77114" lon="1.59812">
        <ele>180.573182</ele>
        <time>2022-05-13T14:00:45.161Z</time>
      </trkpt>
      <trkpt lat="43.77122" lon="1.59824">
        <ele>180.592811</ele>
        <time>2022-05-13T14:00:47.161Z</time>
      </trkpt>
      <trkpt lat="43.77131" lon="1.59835">
        <ele>180.612439</ele>
        <time>2022-05-13T14:00:49.138Z</time>
      </trkpt>
      <trkpt lat="43.77139" lon="1.59846">
        <ele>180.631971</ele>
        <time>2022-05-13T14:00:51.145Z</time>
      </trkpt>
      <trkpt lat="43.77147" lon="1.59858">
        <ele>180.651685</ele>
        <time>2022-05-13T14:00:53.161Z</time>
      </trkpt>
      <trkpt lat="43.77156" lon="1.59869">
        <ele>180.671432</ele>
        <time>2022-05-13T14:00:55.155Z</time>
      </trkpt>
      <trkpt lat="43.77164" lon="1.59881">
        <ele>180.690975</ele>
        <time>2022-05-13T14:00:57.158Z</time>
      </trkpt>
      <trkpt lat="43.77172" lon="1.59892">
        <ele>180.709962</ele>
        <time>2022-05-13T14:00:59.154Z</time>
      </trkpt>
      <trkpt lat="43.77179" lon="1.59904">
        <ele>180.728282</ele>
        <time>2022-05-13T14:01:01.165Z</time>
      </trkpt>
      <trkpt lat="43.77185" lon="1.59917">
        <ele>180.746982</ele>
        <time>2022-05-13T14:01:03.157Z</time>
      </trkpt>
      <trkpt lat="43.77191" lon="1.5993">
        <ele>180.765549</ele>
        <time>2022-05-13T14:01:05.165Z</time>
      </trkpt>
      <trkpt lat="43.77196" lon="1.59943">
        <ele>180.78355</ele>
        <time>2022-05-13T14:01:07.162Z</time>
      </trkpt>
      <trkpt lat="43.77201" lon="1.59956">
        <ele>180.801702</ele>
        <time>2022-05-13T14:01:09.173Z</time>
      </trkpt>
      <trkpt lat="43.77206" lon="1.5997">
        <ele>180.820629</ele>
        <time>2022-05-13T14:01:11.151Z</time>
      </trkpt>
      <trkpt lat="43.77211" lon="1.59986">
        <ele>180.840685</ele>
        <time>2022-05-13T14:01:13.164Z</time>
      </trkpt>
      <trkpt lat="43.77214" lon="1.60001">
        <ele>180.860788</ele>
        <time>2022-05-13T14:01:15.154Z</time>
      </trkpt>
      <trkpt lat="43.77217" lon="1.60018">
        <ele>180.804304</ele>
        <time>2022-05-13T14:01:17.143Z</time>
      </trkpt>
      <trkpt lat="43.77219" lon="1.60034">
        <ele>180.721034</ele>
        <time>2022-05-13T14:01:19.141Z</time>
      </trkpt>
      <trkpt lat="43.77221" lon="1.60051">
        <ele>180.637064</ele>
        <time>2022-05-13T14:01:21.145Z</time>
      </trkpt>
      <trkpt lat="43.77222" lon="1.60068">
        <ele>180.552029</ele>
        <time>2022-05-13T14:01:23.159Z</time>
      </trkpt>
      <trkpt lat="43.77224" lon="1.60086">
        <ele>180.466113</ele>
        <time>2022-05-13T14:01:25.162Z</time>
      </trkpt>
      <trkpt lat="43.77227" lon="1.60103">
        <ele>180.379483</ele>
        <time>2022-05-13T14:01:27.157Z</time>
      </trkpt>
      <trkpt lat="43.77229" lon="1.6012">
        <ele>180.291232</ele>
        <time>2022-05-13T14:01:29.142Z</time>
      </trkpt>
      <trkpt lat="43.77233" lon="1.60138">
        <ele>180.200603</ele>
        <time>2022-05-13T14:01:31.155Z</time>
      </trkpt>
      <trkpt lat="43.77237" lon="1.60156">
        <ele>180.108668</ele>
        <time>2022-05-13T14:01:33.155Z</time>
      </trkpt>
      <trkpt lat="43.77241" lon="1.60174">
        <ele>180.016351</ele>
        <time>2022-05-13T14:01:35.156Z</time>
      </trkpt>
      <trkpt lat="43.77245" lon="1.60192">
        <ele>179.923319</ele>
        <time>2022-05-13T14:01:37.147Z</time>
      </trkpt>
      <trkpt lat="43.7725" lon="1.60209">
        <ele>179.831468</ele>
        <time>2022-05-13T14:01:39.163Z</time>
      </trkpt>
      <trkpt lat="43.77254" lon="1.60227">
        <ele>179.740523</ele>
        <time>2022-05-13T14:01:41.169Z</time>
      </trkpt>
      <trkpt lat="43.77258" lon="1.60244">
        <ele>179.650514</ele>
        <time>2022-05-13T14:01:43.160Z</time>
      </trkpt>
      <trkpt lat="43.77262" lon="1.60261">
        <ele>179.694259</ele>
        <time>2022-05-13T14:01:45.145Z</time>
      </trkpt>
      <trkpt lat="43.77267" lon="1.60277">
        <ele>179.759435</ele>
        <time>2022-05-13T14:01:47.181Z</time>
      </trkpt>
      <trkpt lat="43.77272" lon="1.60293">
        <ele>179.824069</ele>
        <time>2022-05-13T14:01:49.173Z</time>
      </trkpt>
      <trkpt lat="43.77276" lon="1.60308">
        <ele>179.887554</ele>
        <time>2022-05-13T14:01:51.155Z</time>
      </trkpt>
      <trkpt lat="43.77282" lon="1.60324">
        <ele>179.951548</ele>
        <time>2022-05-13T14:01:53.142Z</time>
      </trkpt>
      <trkpt lat="43.77286" lon="1.60339">
        <ele>180.014038</ele>
        <time>2022-05-13T14:01:55.153Z</time>
      </trkpt>
      <trkpt lat="43.77289" lon="1.60355">
        <ele>180.076368</ele>
        <time>2022-05-13T14:01:57.154Z</time>
      </trkpt>
      <trkpt lat="43.77292" lon="1.60371">
        <ele>180.1375</ele>
        <time>2022-05-13T14:01:59.152Z</time>
      </trkpt>
      <trkpt lat="43.77295" lon="1.60386">
        <ele>180.195222</ele>
        <time>2022-05-13T14:02:01.145Z</time>
      </trkpt>
      <trkpt lat="43.77297" lon="1.604">
        <ele>180.250521</ele>
        <time>2022-05-13T14:02:03.158Z</time>
      </trkpt>
      <trkpt lat="43.77299" lon="1.60415">
        <ele>180.307938</ele>
        <time>2022-05-13T14:02:05.158Z</time>
      </trkpt>
      <trkpt lat="43.773" lon="1.60431">
        <ele>180.367995</ele>
        <time>2022-05-13T14:02:07.152Z</time>
      </trkpt>
      <trkpt lat="43.77302" lon="1.60446">
        <ele>180.427381</ele>
        <time>2022-05-13T14:02:09.153Z</time>
      </trkpt>
      <trkpt lat="43.77304" lon="1.60462">
        <ele>180.487065</ele>
        <time>2022-05-13T14:02:11.153Z</time>
      </trkpt>
      <trkpt lat="43.77305" lon="1.60478">
        <ele>180.546376</ele>
        <time>2022-05-13T14:02:13.145Z</time>
      </trkpt>
      <trkpt lat="43.77307" lon="1.60494">
        <ele>180.515546</ele>
        <time>2022-05-13T14:02:15.159Z</time>
      </trkpt>
      <trkpt lat="43.77309" lon="1.6051">
        <ele>180.400113</ele>
        <time>2022-05-13T14:02:17.154Z</time>
      </trkpt>
      <trkpt lat="43.7731" lon="1.60526">
        <ele>180.282283</ele>
        <time>2022-05-13T14:02:19.160Z</time>
      </trkpt>
      <trkpt lat="43.77312" lon="1.60543">
        <ele>180.159982</ele>
        <time>2022-05-13T14:02:21.139Z</time>
      </trkpt>
      <trkpt lat="43.77313" lon="1.6056">
        <ele>180.038636</ele>
        <time>2022-05-13T14:02:23.148Z</time>
      </trkpt>
      <trkpt lat="43.77315" lon="1.60577">
        <ele>179.917738</ele>
        <time>2022-05-13T14:02:25.145Z</time>
      </trkpt>
      <trkpt lat="43.77317" lon="1.60594">
        <ele>179.794985</ele>
        <time>2022-05-13T14:02:27.140Z</time>
      </trkpt>
      <trkpt lat="43.77318" lon="1.60612">
        <ele>179.672684</ele>
        <time>2022-05-13T14:02:29.154Z</time>
      </trkpt>
      <trkpt lat="43.7732" lon="1.60628">
        <ele>179.553323</ele>
        <time>2022-05-13T14:02:31.154Z</time>
      </trkpt>
      <trkpt lat="43.77321" lon="1.60645">
        <ele>179.436771</ele>
        <time>2022-05-13T14:02:33.157Z</time>
      </trkpt>
      <trkpt lat="43.77324" lon="1.6066">
        <ele>179.321262</ele>
        <time>2022-05-13T14:02:35.148Z</time>
      </trkpt>
      <trkpt lat="43.77328" lon="1.60675">
        <ele>179.207623</ele>
        <time>2022-05-13T14:02:37.154Z</time>
      </trkpt>
      <trkpt lat="43.77334" lon="1.60689">
        <ele>179.092274</ele>
        <time>2022-05-13T14:02:39.151Z</time>
      </trkpt>
      <trkpt lat="43.77341" lon="1.60702">
        <ele>178.977375</ele>
        <time>2022-05-13T14:02:41.154Z</time>
      </trkpt>
      <trkpt lat="43.77349" lon="1.60715">
        <ele>178.861052</ele>
        <time>2022-05-13T14:02:43.150Z</time>
      </trkpt>
      <trkpt lat="43.77357" lon="1.60729">
        <ele>178.566488</ele>
        <time>2022-05-13T14:02:45.169Z</time>
      </trkpt>
      <trkpt lat="43.77367" lon="1.60743">
        <ele>178.123719</ele>
        <time>2022-05-13T14:02:47.162Z</time>
      </trkpt>
      <trkpt lat="43.77378" lon="1.60757">
        <ele>177.654822</ele>
        <time>2022-05-13T14:02:49.161Z</time>
      </trkpt>
      <trkpt lat="43.77391" lon="1.60771">
        <ele>177.133891</ele>
        <time>2022-05-13T14:02:51.158Z</time>
      </trkpt>
      <trkpt lat="43.77398" lon="1.60778">
        <ele>176.850881</ele>
        <time>2022-05-13T14:02:52.140Z</time>
      </trkpt>
      <trkpt lat="43.77413" lon="1.60791">
        <ele>176.292178</ele>
        <time>2022-05-13T14:02:54.151Z</time>
      </trkpt>
      <trkpt lat="43.77429" lon="1.60803">
        <ele>175.739137</ele>
        <time>2022-05-13T14:02:56.160Z</time>
      </trkpt>
      <trkpt lat="43.77443" lon="1.60815">
        <ele>175.219699</ele>
        <time>2022-05-13T14:02:58.145Z</time>
      </trkpt>
      <trkpt lat="43.77456" lon="1.60827">
        <ele>174.71876</ele>
        <time>2022-05-13T14:03:00.153Z</time>
      </trkpt>
      <trkpt lat="43.77469" lon="1.60838">
        <ele>174.237148</ele>
        <time>2022-05-13T14:03:02.161Z</time>
      </trkpt>
      <trkpt lat="43.77482" lon="1.60848">
        <ele>173.777878</ele>
        <time>2022-05-13T14:03:04.156Z</time>
      </trkpt>
      <trkpt lat="43.77494" lon="1.60858">
        <ele>173.335516</ele>
        <time>2022-05-13T14:03:06.159Z</time>
      </trkpt>
      <trkpt lat="43.77506" lon="1.60868">
        <ele>173.145111</ele>
        <time>2022-05-13T14:03:08.159Z</time>
      </trkpt>
      <trkpt lat="43.77517" lon="1.60879">
        <ele>173.127054</ele>
        <time>2022-05-13T14:03:10.158Z</time>
      </trkpt>
      <trkpt lat="43.77527" lon="1.6089">
        <ele>173.10925</ele>
        <time>2022-05-13T14:03:12.151Z</time>
      </trkpt>
      <trkpt lat="43.77537" lon="1.60902">
        <ele>173.091826</ele>
        <time>2022-05-13T14:03:14.167Z</time>
      </trkpt>
      <trkpt lat="43.77546" lon="1.60914">
        <ele>173.074709</ele>
        <time>2022-05-13T14:03:16.156Z</time>
      </trkpt>
      <trkpt lat="43.77556" lon="1.60926">
        <ele>173.057921</ele>
        <time>2022-05-13T14:03:18.158Z</time>
      </trkpt>
      <trkpt lat="43.77565" lon="1.60938">
        <ele>173.041034</ele>
        <time>2022-05-13T14:03:20.154Z</time>
      </trkpt>
      <trkpt lat="43.77574" lon="1.6095">
        <ele>173.024113</ele>
        <time>2022-05-13T14:03:22.158Z</time>
      </trkpt>
      <trkpt lat="43.77584" lon="1.60961">
        <ele>173.006827</ele>
        <time>2022-05-13T14:03:24.155Z</time>
      </trkpt>
      <trkpt lat="43.77593" lon="1.60973">
        <ele>172.989706</ele>
        <time>2022-05-13T14:03:26.142Z</time>
      </trkpt>
      <trkpt lat="43.77603" lon="1.60985">
        <ele>172.972685</ele>
        <time>2022-05-13T14:03:28.137Z</time>
      </trkpt>
      <trkpt lat="43.77613" lon="1.60996">
        <ele>172.955796</ele>
        <time>2022-05-13T14:03:30.134Z</time>
      </trkpt>
      <trkpt lat="43.77623" lon="1.61006">
        <ele>172.938838</ele>
        <time>2022-05-13T14:03:32.159Z</time>
      </trkpt>
      <trkpt lat="43.77633" lon="1.61017">
        <ele>172.922045</ele>
        <time>2022-05-13T14:03:34.163Z</time>
      </trkpt>
      <trkpt lat="43.77643" lon="1.61026">
        <ele>172.914346</ele>
        <time>2022-05-13T14:03:36.163Z</time>
      </trkpt>
      <trkpt lat="43.77653" lon="1.61036">
        <ele>172.91324</ele>
        <time>2022-05-13T14:03:38.157Z</time>
      </trkpt>
      <trkpt lat="43.77663" lon="1.61046">
        <ele>172.912144</ele>
        <time>2022-05-13T14:03:40.163Z</time>
      </trkpt>
      <trkpt lat="43.77673" lon="1.61055">
        <ele>172.91106</ele>
        <time>2022-05-13T14:03:42.161Z</time>
      </trkpt>
      <trkpt lat="43.77683" lon="1.61064">
        <ele>172.909979</ele>
        <time>2022-05-13T14:03:44.169Z</time>
      </trkpt>
      <trkpt lat="43.77693" lon="1.61073">
        <ele>172.908899</ele>
        <time>2022-05-13T14:03:46.179Z</time>
      </trkpt>
      <trkpt lat="43.77703" lon="1.61082">
        <ele>172.907825</ele>
        <time>2022-05-13T14:03:48.153Z</time>
      </trkpt>
      <trkpt lat="43.77713" lon="1.61092">
        <ele>172.906714</ele>
        <time>2022-05-13T14:03:50.162Z</time>
      </trkpt>
      <trkpt lat="43.77724" lon="1.61101">
        <ele>172.905573</ele>
        <time>2022-05-13T14:03:52.154Z</time>
      </trkpt>
      <trkpt lat="43.77734" lon="1.6111">
        <ele>172.904458</ele>
        <time>2022-05-13T14:03:54.149Z</time>
      </trkpt>
      <trkpt lat="43.77745" lon="1.61119">
        <ele>172.903336</ele>
        <time>2022-05-13T14:03:56.154Z</time>
      </trkpt>
      <trkpt lat="43.77755" lon="1.61128">
        <ele>172.902253</ele>
        <time>2022-05-13T14:03:58.148Z</time>
      </trkpt>
      <trkpt lat="43.77766" lon="1.61136">
        <ele>172.901155</ele>
        <time>2022-05-13T14:04:00.156Z</time>
      </trkpt>
      <trkpt lat="43.77776" lon="1.61145">
        <ele>172.90007</ele>
        <time>2022-05-13T14:04:02.153Z</time>
      </trkpt>
      <trkpt lat="43.77784" lon="1.61157">
        <ele>172.89898</ele>
        <time>2022-05-13T14:04:04.152Z</time>
      </trkpt>
      <trkpt lat="43.77791" lon="1.61171">
        <ele>172.904962</ele>
        <time>2022-05-13T14:04:06.159Z</time>
      </trkpt>
      <trkpt lat="43.77796" lon="1.61187">
        <ele>172.913051</ele>
        <time>2022-05-13T14:04:08.149Z</time>
      </trkpt>
      <trkpt lat="43.77799" lon="1.61204">
        <ele>172.9211</ele>
        <time>2022-05-13T14:04:10.140Z</time>
      </trkpt>
      <trkpt lat="43.77803" lon="1.61221">
        <ele>172.92923</ele>
        <time>2022-05-13T14:04:12.165Z</time>
      </trkpt>
      <trkpt lat="43.77807" lon="1.61237">
        <ele>172.937333</ele>
        <time>2022-05-13T14:04:14.148Z</time>
      </trkpt>
      <trkpt lat="43.77811" lon="1.61254">
        <ele>172.945484</ele>
        <time>2022-05-13T14:04:16.157Z</time>
      </trkpt>
      <trkpt lat="43.77815" lon="1.6127">
        <ele>172.953488</ele>
        <time>2022-05-13T14:04:18.157Z</time>
      </trkpt>
      <trkpt lat="43.77818" lon="1.61287">
        <ele>172.961429</ele>
        <time>2022-05-13T14:04:20.158Z</time>
      </trkpt>
      <trkpt lat="43.77822" lon="1.61303">
        <ele>172.969255</ele>
        <time>2022-05-13T14:04:22.167Z</time>
      </trkpt>
      <trkpt lat="43.77825" lon="1.61319">
        <ele>172.976965</ele>
        <time>2022-05-13T14:04:24.169Z</time>
      </trkpt>
      <trkpt lat="43.77828" lon="1.61335">
        <ele>172.984686</ele>
        <time>2022-05-13T14:04:26.152Z</time>
      </trkpt>
      <trkpt lat="43.7783" lon="1.61351">
        <ele>172.992288</ele>
        <time>2022-05-13T14:04:28.167Z</time>
      </trkpt>
      <trkpt lat="43.77831" lon="1.61367">
        <ele>172.999828</ele>
        <time>2022-05-13T14:04:30.151Z</time>
      </trkpt>
      <trkpt lat="43.77831" lon="1.61384">
        <ele>173.007318</ele>
        <time>2022-05-13T14:04:32.165Z</time>
      </trkpt>
      <trkpt lat="43.77832" lon="1.614">
        <ele>173.012755</ele>
        <time>2022-05-13T14:04:34.146Z</time>
      </trkpt>
      <trkpt lat="43.77832" lon="1.61416">
        <ele>172.979984</ele>
        <time>2022-05-13T14:04:36.177Z</time>
      </trkpt>
      <trkpt lat="43.77832" lon="1.61432">
        <ele>172.947182</ele>
        <time>2022-05-13T14:04:38.166Z</time>
      </trkpt>
      <trkpt lat="43.77833" lon="1.61448">
        <ele>172.914188</ele>
        <time>2022-05-13T14:04:40.155Z</time>
      </trkpt>
      <trkpt lat="43.77833" lon="1.61464">
        <ele>172.881615</ele>
        <time>2022-05-13T14:04:42.154Z</time>
      </trkpt>
      <trkpt lat="43.77833" lon="1.6148">
        <ele>172.848825</ele>
        <time>2022-05-13T14:04:44.149Z</time>
      </trkpt>
      <trkpt lat="43.77834" lon="1.61496">
        <ele>172.816023</ele>
        <time>2022-05-13T14:04:46.160Z</time>
      </trkpt>
      <trkpt lat="43.77834" lon="1.61512">
        <ele>172.783628</ele>
        <time>2022-05-13T14:04:48.174Z</time>
      </trkpt>
      <trkpt lat="43.77835" lon="1.61528">
        <ele>172.751041</ele>
        <time>2022-05-13T14:04:50.150Z</time>
      </trkpt>
      <trkpt lat="43.77835" lon="1.61544">
        <ele>172.718469</ele>
        <time>2022-05-13T14:04:52.145Z</time>
      </trkpt>
      <trkpt lat="43.77835" lon="1.6156">
        <ele>172.685696</ele>
        <time>2022-05-13T14:04:54.164Z</time>
      </trkpt>
      <trkpt lat="43.77835" lon="1.61577">
        <ele>172.652499</ele>
        <time>2022-05-13T14:04:56.181Z</time>
      </trkpt>
      <trkpt lat="43.77836" lon="1.61593">
        <ele>172.619697</ele>
        <time>2022-05-13T14:04:58.171Z</time>
      </trkpt>
      <trkpt lat="43.77836" lon="1.61609">
        <ele>172.586907</ele>
        <time>2022-05-13T14:05:00.134Z</time>
      </trkpt>
      <trkpt lat="43.77837" lon="1.61625">
        <ele>172.554498</ele>
        <time>2022-05-13T14:05:02.169Z</time>
      </trkpt>
      <trkpt lat="43.77837" lon="1.61641">
        <ele>172.521871</ele>
        <time>2022-05-13T14:05:04.165Z</time>
      </trkpt>
      <trkpt lat="43.77837" lon="1.61657">
        <ele>172.384358</ele>
        <time>2022-05-13T14:05:06.146Z</time>
      </trkpt>
      <trkpt lat="43.77837" lon="1.61674">
        <ele>172.156205</ele>
        <time>2022-05-13T14:05:08.160Z</time>
      </trkpt>
      <trkpt lat="43.77835" lon="1.61692">
        <ele>171.916441</ele>
        <time>2022-05-13T14:05:10.148Z</time>
      </trkpt>
      <trkpt lat="43.77832" lon="1.6171">
        <ele>171.666033</ele>
        <time>2022-05-13T14:05:12.162Z</time>
      </trkpt>
      <trkpt lat="43.77827" lon="1.61728">
        <ele>171.410505</ele>
        <time>2022-05-13T14:05:14.145Z</time>
      </trkpt>
      <trkpt lat="43.7782" lon="1.61745">
        <ele>171.145112</ele>
        <time>2022-05-13T14:05:16.141Z</time>
      </trkpt>
      <trkpt lat="43.77813" lon="1.61763">
        <ele>170.877356</ele>
        <time>2022-05-13T14:05:18.154Z</time>
      </trkpt>
      <trkpt lat="43.77808" lon="1.61781">
        <ele>170.611984</ele>
        <time>2022-05-13T14:05:20.157Z</time>
      </trkpt>
      <trkpt lat="43.77808" lon="1.61801">
        <ele>170.346289</ele>
        <time>2022-05-13T14:05:22.152Z</time>
      </trkpt>
      <trkpt lat="43.77813" lon="1.61821">
        <ele>170.064554</ele>
        <time>2022-05-13T14:05:24.151Z</time>
      </trkpt>
      <trkpt lat="43.77818" lon="1.61841">
        <ele>169.777481</ele>
        <time>2022-05-13T14:05:26.153Z</time>
      </trkpt>
      <trkpt lat="43.77824" lon="1.6186">
        <ele>169.492241</ele>
        <time>2022-05-13T14:05:28.148Z</time>
      </trkpt>
      <trkpt lat="43.77829" lon="1.6188">
        <ele>169.210176</ele>
        <time>2022-05-13T14:05:30.155Z</time>
      </trkpt>
      <trkpt lat="43.77835" lon="1.61899">
        <ele>169.12872</ele>
        <time>2022-05-13T14:05:32.143Z</time>
      </trkpt>
      <trkpt lat="43.7784" lon="1.61918">
        <ele>169.085872</ele>
        <time>2022-05-13T14:05:34.126Z</time>
      </trkpt>
      <trkpt lat="43.77845" lon="1.61936">
        <ele>169.044334</ele>
        <time>2022-05-13T14:05:36.172Z</time>
      </trkpt>
      <trkpt lat="43.77849" lon="1.61953">
        <ele>169.004538</ele>
        <time>2022-05-13T14:05:38.167Z</time>
      </trkpt>
      <trkpt lat="43.77854" lon="1.6197">
        <ele>168.965149</ele>
        <time>2022-05-13T14:05:40.166Z</time>
      </trkpt>
      <trkpt lat="43.77857" lon="1.61988">
        <ele>168.92622</ele>
        <time>2022-05-13T14:05:42.146Z</time>
      </trkpt>
      <trkpt lat="43.77861" lon="1.62005">
        <ele>168.887413</ele>
        <time>2022-05-13T14:05:44.163Z</time>
      </trkpt>
      <trkpt lat="43.77864" lon="1.62022">
        <ele>168.848892</ele>
        <time>2022-05-13T14:05:46.151Z</time>
      </trkpt>
      <trkpt lat="43.77867" lon="1.6204">
        <ele>168.810589</ele>
        <time>2022-05-13T14:05:48.140Z</time>
      </trkpt>
      <trkpt lat="43.7787" lon="1.62057">
        <ele>168.772564</ele>
        <time>2022-05-13T14:05:50.127Z</time>
      </trkpt>
      <trkpt lat="43.77873" lon="1.62074">
        <ele>168.735235</ele>
        <time>2022-05-13T14:05:52.132Z</time>
      </trkpt>
      <trkpt lat="43.77876" lon="1.6209">
        <ele>168.698396</ele>
        <time>2022-05-13T14:05:54.133Z</time>
      </trkpt>
      <trkpt lat="43.77879" lon="1.62107">
        <ele>168.661697</ele>
        <time>2022-05-13T14:05:56.116Z</time>
      </trkpt>
      <trkpt lat="43.77882" lon="1.62124">
        <ele>168.629269</ele>
        <time>2022-05-13T14:05:58.129Z</time>
      </trkpt>
      <trkpt lat="43.77885" lon="1.6214">
        <ele>168.627098</ele>
        <time>2022-05-13T14:06:00.142Z</time>
      </trkpt>
      <trkpt lat="43.77888" lon="1.62156">
        <ele>168.624967</ele>
        <time>2022-05-13T14:06:02.145Z</time>
      </trkpt>
      <trkpt lat="43.77891" lon="1.62173">
        <ele>168.622833</ele>
        <time>2022-05-13T14:06:04.144Z</time>
      </trkpt>
      <trkpt lat="43.77894" lon="1.62189">
        <ele>168.620691</ele>
        <time>2022-05-13T14:06:06.133Z</time>
      </trkpt>
      <trkpt lat="43.77897" lon="1.62205">
        <ele>168.618523</ele>
        <time>2022-05-13T14:06:08.144Z</time>
      </trkpt>
      <trkpt lat="43.779" lon="1.62222">
        <ele>168.616361</ele>
        <time>2022-05-13T14:06:10.145Z</time>
      </trkpt>
      <trkpt lat="43.77905" lon="1.62238">
        <ele>168.614152</ele>
        <time>2022-05-13T14:06:12.149Z</time>
      </trkpt>
      <trkpt lat="43.77909" lon="1.62254">
        <ele>168.611962</ele>
        <time>2022-05-13T14:06:14.134Z</time>
      </trkpt>
      <trkpt lat="43.7791" lon="1.62271">
        <ele>168.609786</ele>
        <time>2022-05-13T14:06:16.143Z</time>
      </trkpt>
      <trkpt lat="43.77909" lon="1.62288">
        <ele>168.607636</ele>
        <time>2022-05-13T14:06:18.143Z</time>
      </trkpt>
      <trkpt lat="43.77908" lon="1.62304">
        <ele>168.605533</ele>
        <time>2022-05-13T14:06:20.144Z</time>
      </trkpt>
      <trkpt lat="43.77906" lon="1.6232">
        <ele>168.603436</ele>
        <time>2022-05-13T14:06:22.127Z</time>
      </trkpt>
      <trkpt lat="43.77905" lon="1.62337">
        <ele>168.601356</ele>
        <time>2022-05-13T14:06:24.129Z</time>
      </trkpt>
      <trkpt lat="43.77903" lon="1.62353">
        <ele>168.599298</ele>
        <time>2022-05-13T14:06:26.137Z</time>
      </trkpt>
      <trkpt lat="43.77902" lon="1.62368">
        <ele>168.601661</ele>
        <time>2022-05-13T14:06:28.139Z</time>
      </trkpt>
      <trkpt lat="43.779" lon="1.62384">
        <ele>168.617338</ele>
        <time>2022-05-13T14:06:30.146Z</time>
      </trkpt>
      <trkpt lat="43.77899" lon="1.624">
        <ele>168.632935</ele>
        <time>2022-05-13T14:06:32.132Z</time>
      </trkpt>
      <trkpt lat="43.77897" lon="1.62416">
        <ele>168.6485</ele>
        <time>2022-05-13T14:06:34.117Z</time>
      </trkpt>
      <trkpt lat="43.77896" lon="1.62432">
        <ele>168.664405</ele>
        <time>2022-05-13T14:06:36.147Z</time>
      </trkpt>
      <trkpt lat="43.77894" lon="1.62449">
        <ele>168.680444</ele>
        <time>2022-05-13T14:06:38.157Z</time>
      </trkpt>
      <trkpt lat="43.77893" lon="1.62465">
        <ele>168.696604</ele>
        <time>2022-05-13T14:06:40.142Z</time>
      </trkpt>
      <trkpt lat="43.77891" lon="1.62482">
        <ele>168.712684</ele>
        <time>2022-05-13T14:06:42.139Z</time>
      </trkpt>
      <trkpt lat="43.7789" lon="1.62497">
        <ele>168.727914</ele>
        <time>2022-05-13T14:06:44.148Z</time>
      </trkpt>
      <trkpt lat="43.77888" lon="1.62512">
        <ele>168.742096</ele>
        <time>2022-05-13T14:06:46.136Z</time>
      </trkpt>
      <trkpt lat="43.77891" lon="1.62525">
        <ele>168.755244</ele>
        <time>2022-05-13T14:06:48.116Z</time>
      </trkpt>
      <trkpt lat="43.77777" lon="1.62962">
        <ele>107.6</ele>
      </trkpt>
      <trkpt lat="43.77893" lon="1.63008">
        <ele>103.5</ele>
      </trkpt>
      <trkpt lat="43.77945" lon="1.6293">
        <ele>108</ele>
      </trkpt>
      <trkpt lat="43.78091" lon="1.63058">
        <ele>168.743989</ele>
        <time>2022-05-13T14:08:40.126Z</time>
      </trkpt>
      <trkpt lat="43.78083" lon="1.63068">
        <ele>168.804088</ele>
        <time>2022-05-13T14:08:42.124Z</time>
      </trkpt>
      <trkpt lat="43.78075" lon="1.63078">
        <ele>168.957311</ele>
        <time>2022-05-13T14:08:44.124Z</time>
      </trkpt>
      <trkpt lat="43.78066" lon="1.63089">
        <ele>169.115235</ele>
        <time>2022-05-13T14:08:46.112Z</time>
      </trkpt>
      <trkpt lat="43.78058" lon="1.631">
        <ele>169.271631</ele>
        <time>2022-05-13T14:08:48.121Z</time>
      </trkpt>
      <trkpt lat="43.7805" lon="1.6311">
        <ele>169.419133</ele>
        <time>2022-05-13T14:08:50.114Z</time>
      </trkpt>
      <trkpt lat="43.78041" lon="1.6312">
        <ele>169.579022</ele>
        <time>2022-05-13T14:08:52.114Z</time>
      </trkpt>
      <trkpt lat="43.78033" lon="1.6313">
        <ele>169.727552</ele>
        <time>2022-05-13T14:08:54.128Z</time>
      </trkpt>
      <trkpt lat="43.78032" lon="1.63146">
        <ele>169.887965</ele>
        <time>2022-05-13T14:08:57.120Z</time>
      </trkpt>
      <trkpt lat="43.78039" lon="1.63156">
        <ele>170.027247</ele>
        <time>2022-05-13T14:09:00.127Z</time>
      </trkpt>
      <trkpt lat="43.78046" lon="1.63167">
        <ele>170.177438</ele>
        <time>2022-05-13T14:09:03.128Z</time>
      </trkpt>
      <trkpt lat="43.78057" lon="1.63177">
        <ele>170.357749</ele>
        <time>2022-05-13T14:09:06.120Z</time>
      </trkpt>
      <trkpt lat="43.78063" lon="1.63189">
        <ele>170.502647</ele>
        <time>2022-05-13T14:09:09.126Z</time>
      </trkpt>
      <trkpt lat="43.78066" lon="1.63203">
        <ele>170.645073</ele>
        <time>2022-05-13T14:09:14.115Z</time>
      </trkpt>
      <trkpt lat="43.78069" lon="1.63216">
        <ele>170.778621</ele>
        <time>2022-05-13T14:09:22.145Z</time>
      </trkpt>
      <trkpt lat="43.78066" lon="1.63229">
        <ele>170.917099</ele>
        <time>2022-05-13T14:09:31.114Z</time>
      </trkpt>
      <trkpt lat="43.78063" lon="1.63243">
        <ele>171.061407</ele>
        <time>2022-05-13T14:09:37.111Z</time>
      </trkpt>
      <trkpt lat="43.78058" lon="1.63257">
        <ele>171.213811</ele>
        <time>2022-05-13T14:09:40.124Z</time>
      </trkpt>
      <trkpt lat="43.78053" lon="1.63269">
        <ele>171.193015</ele>
        <time>2022-05-13T14:09:43.129Z</time>
      </trkpt>
      <trkpt lat="43.78047" lon="1.63283">
        <ele>171.16976</ele>
        <time>2022-05-13T14:09:47.114Z</time>
      </trkpt>
      <trkpt lat="43.7804" lon="1.63298">
        <ele>171.143316</ele>
        <time>2022-05-13T14:09:50.122Z</time>
      </trkpt>
      <trkpt lat="43.78036" lon="1.63311">
        <ele>171.123392</ele>
        <time>2022-05-13T14:09:53.120Z</time>
      </trkpt>
      <trkpt lat="43.7803" lon="1.63321">
        <ele>171.102843</ele>
        <time>2022-05-13T14:09:57.109Z</time>
      </trkpt>
      <trkpt lat="43.78024" lon="1.63334">
        <ele>171.081564</ele>
        <time>2022-05-13T14:10:02.162Z</time>
      </trkpt>
      <trkpt lat="43.78022" lon="1.63348">
        <ele>171.060431</ele>
        <time>2022-05-13T14:10:05.115Z</time>
      </trkpt>
      <trkpt lat="43.78017" lon="1.63365">
        <ele>171.03287</ele>
        <time>2022-05-13T14:10:08.133Z</time>
      </trkpt>
      <trkpt lat="43.78013" lon="1.63377">
        <ele>171.013535</ele>
        <time>2022-05-13T14:10:10.110Z</time>
      </trkpt>
      <trkpt lat="43.78003" lon="1.63386">
        <ele>170.989412</ele>
        <time>2022-05-13T14:10:13.121Z</time>
      </trkpt>
      <trkpt lat="43.77996" lon="1.63398">
        <ele>170.966757</ele>
        <time>2022-05-13T14:10:16.140Z</time>
      </trkpt>
      <trkpt lat="43.78003" lon="1.63411">
        <ele>170.943142</ele>
        <time>2022-05-13T14:10:20.134Z</time>
      </trkpt>
      <trkpt lat="43.78013" lon="1.63421">
        <ele>170.917754</ele>
        <time>2022-05-13T14:10:23.136Z</time>
      </trkpt>
      <trkpt lat="43.78024" lon="1.63428">
        <ele>170.893574</ele>
        <time>2022-05-13T14:10:26.160Z</time>
      </trkpt>
      <trkpt lat="43.78033" lon="1.63435">
        <ele>170.872298</ele>
        <time>2022-05-13T14:10:30.149Z</time>
      </trkpt>
      <trkpt lat="43.78042" lon="1.63442">
        <ele>170.85095</ele>
        <time>2022-05-13T14:10:33.134Z</time>
      </trkpt>
      <trkpt lat="43.78052" lon="1.63451">
        <ele>170.760202</ele>
        <time>2022-05-13T14:10:36.158Z</time>
      </trkpt>
      <trkpt lat="43.78063" lon="1.6346">
        <ele>170.648911</ele>
        <time>2022-05-13T14:10:39.136Z</time>
      </trkpt>
      <trkpt lat="43.78071" lon="1.63467">
        <ele>170.570031</ele>
        <time>2022-05-13T14:10:41.141Z</time>
      </trkpt>
      <trkpt lat="43.78079" lon="1.63473">
        <ele>170.486451</ele>
        <time>2022-05-13T14:10:43.160Z</time>
      </trkpt>
      <trkpt lat="43.78087" lon="1.6348">
        <ele>170.407155</ele>
        <time>2022-05-13T14:10:45.130Z</time>
      </trkpt>
      <trkpt lat="43.78098" lon="1.63489">
        <ele>170.296054</ele>
        <time>2022-05-13T14:10:48.138Z</time>
      </trkpt>
      <trkpt lat="43.78107" lon="1.63496">
        <ele>170.203904</ele>
        <time>2022-05-13T14:10:50.125Z</time>
      </trkpt>
      <trkpt lat="43.78117" lon="1.63504">
        <ele>170.102552</ele>
        <time>2022-05-13T14:10:52.121Z</time>
      </trkpt>
      <trkpt lat="43.78127" lon="1.63513">
        <ele>170.000346</ele>
        <time>2022-05-13T14:10:54.136Z</time>
      </trkpt>
      <trkpt lat="43.78137" lon="1.63521">
        <ele>169.899433</ele>
        <time>2022-05-13T14:10:56.131Z</time>
      </trkpt>
      <trkpt lat="43.78147" lon="1.6353">
        <ele>169.795931</ele>
        <time>2022-05-13T14:10:58.139Z</time>
      </trkpt>
      <trkpt lat="43.78156" lon="1.63539">
        <ele>169.69565</ele>
        <time>2022-05-13T14:11:00.134Z</time>
      </trkpt>
      <trkpt lat="43.78165" lon="1.63547">
        <ele>169.605766</ele>
        <time>2022-05-13T14:11:02.145Z</time>
      </trkpt>
      <trkpt lat="43.78172" lon="1.63556">
        <ele>169.521618</ele>
        <time>2022-05-13T14:11:04.125Z</time>
      </trkpt>
      <trkpt lat="43.78178" lon="1.63568">
        <ele>169.430344</ele>
        <time>2022-05-13T14:11:08.140Z</time>
      </trkpt>
      <trkpt lat="43.78187" lon="1.63574">
        <ele>169.341153</ele>
        <time>2022-05-13T14:11:11.129Z</time>
      </trkpt>
      <trkpt lat="43.78197" lon="1.63586">
        <ele>169.303712</ele>
        <time>2022-05-13T14:11:14.121Z</time>
      </trkpt>
      <trkpt lat="43.78203" lon="1.63596">
        <ele>169.34273</ele>
        <time>2022-05-13T14:11:16.121Z</time>
      </trkpt>
      <trkpt lat="43.78209" lon="1.63608">
        <ele>169.383546</ele>
        <time>2022-05-13T14:11:18.137Z</time>
      </trkpt>
      <trkpt lat="43.78213" lon="1.63622">
        <ele>169.425992</ele>
        <time>2022-05-13T14:11:20.114Z</time>
      </trkpt>
      <trkpt lat="43.78215" lon="1.63636">
        <ele>169.469081</ele>
        <time>2022-05-13T14:11:22.125Z</time>
      </trkpt>
      <trkpt lat="43.78217" lon="1.63651">
        <ele>169.512274</ele>
        <time>2022-05-13T14:11:24.150Z</time>
      </trkpt>
      <trkpt lat="43.78218" lon="1.63666">
        <ele>169.557163</ele>
        <time>2022-05-13T14:11:26.148Z</time>
      </trkpt>
      <trkpt lat="43.7822" lon="1.63682">
        <ele>169.602365</ele>
        <time>2022-05-13T14:11:28.127Z</time>
      </trkpt>
      <trkpt lat="43.78221" lon="1.63698">
        <ele>169.648573</ele>
        <time>2022-05-13T14:11:30.131Z</time>
      </trkpt>
      <trkpt lat="43.78222" lon="1.63714">
        <ele>169.696305</ele>
        <time>2022-05-13T14:11:32.141Z</time>
      </trkpt>
      <trkpt lat="43.78224" lon="1.6373">
        <ele>169.744095</ele>
        <time>2022-05-13T14:11:34.141Z</time>
      </trkpt>
      <trkpt lat="43.78226" lon="1.63747">
        <ele>169.79147</ele>
        <time>2022-05-13T14:11:36.130Z</time>
      </trkpt>
      <trkpt lat="43.78228" lon="1.63763">
        <ele>169.838974</ele>
        <time>2022-05-13T14:11:38.151Z</time>
      </trkpt>
      <trkpt lat="43.7823" lon="1.63779">
        <ele>169.886478</ele>
        <time>2022-05-13T14:11:40.145Z</time>
      </trkpt>
      <trkpt lat="43.78232" lon="1.63795">
        <ele>169.933556</ele>
        <time>2022-05-13T14:11:42.147Z</time>
      </trkpt>
      <trkpt lat="43.78234" lon="1.63811">
        <ele>169.979958</ele>
        <time>2022-05-13T14:11:44.184Z</time>
      </trkpt>
      <trkpt lat="43.78235" lon="1.63826">
        <ele>170.096182</ele>
        <time>2022-05-13T14:11:46.141Z</time>
      </trkpt>
      <trkpt lat="43.78237" lon="1.63841">
        <ele>170.275276</ele>
        <time>2022-05-13T14:11:48.143Z</time>
      </trkpt>
      <trkpt lat="43.78238" lon="1.63856">
        <ele>170.448152</ele>
        <time>2022-05-13T14:11:50.136Z</time>
      </trkpt>
      <trkpt lat="43.78239" lon="1.6387">
        <ele>170.606945</ele>
        <time>2022-05-13T14:11:52.140Z</time>
      </trkpt>
      <trkpt lat="43.7824" lon="1.63883">
        <ele>170.76836</ele>
        <time>2022-05-13T14:11:54.153Z</time>
      </trkpt>
      <trkpt lat="43.78241" lon="1.63896">
        <ele>170.91981</ele>
        <time>2022-05-13T14:11:56.172Z</time>
      </trkpt>
      <trkpt lat="43.78243" lon="1.63913">
        <ele>171.116806</ele>
        <time>2022-05-13T14:11:59.140Z</time>
      </trkpt>
      <trkpt lat="43.78243" lon="1.63926">
        <ele>171.271908</ele>
        <time>2022-05-13T14:12:02.138Z</time>
      </trkpt>
      <trkpt lat="43.78249" lon="1.6395">
        <ele>171.565811</ele>
        <time>2022-05-13T14:12:26.138Z</time>
      </trkpt>
      <trkpt lat="43.78257" lon="1.63964">
        <ele>171.770151</ele>
        <time>2022-05-13T14:12:29.143Z</time>
      </trkpt>
      <trkpt lat="43.78265" lon="1.63974">
        <ele>171.938236</ele>
        <time>2022-05-13T14:12:31.143Z</time>
      </trkpt>
      <trkpt lat="43.78273" lon="1.63983">
        <ele>172.112629</ele>
        <time>2022-05-13T14:12:33.126Z</time>
      </trkpt>
      <trkpt lat="43.78282" lon="1.63993">
        <ele>172.291</ele>
        <time>2022-05-13T14:12:35.124Z</time>
      </trkpt>
      <trkpt lat="43.7829" lon="1.64003">
        <ele>172.468208</ele>
        <time>2022-05-13T14:12:37.135Z</time>
      </trkpt>
      <trkpt lat="43.78298" lon="1.64013">
        <ele>172.645858</ele>
        <time>2022-05-13T14:12:39.121Z</time>
      </trkpt>
      <trkpt lat="43.78306" lon="1.64023">
        <ele>172.822244</ele>
        <time>2022-05-13T14:12:41.136Z</time>
      </trkpt>
      <trkpt lat="43.78314" lon="1.64033">
        <ele>173.17555</ele>
        <time>2022-05-13T14:12:43.138Z</time>
      </trkpt>
      <trkpt lat="43.78322" lon="1.64043">
        <ele>173.686408</ele>
        <time>2022-05-13T14:12:45.145Z</time>
      </trkpt>
      <trkpt lat="43.7833" lon="1.64054">
        <ele>174.183705</ele>
        <time>2022-05-13T14:12:47.132Z</time>
      </trkpt>
      <trkpt lat="43.78337" lon="1.64064">
        <ele>174.672741</ele>
        <time>2022-05-13T14:12:49.152Z</time>
      </trkpt>
      <trkpt lat="43.78345" lon="1.64075">
        <ele>175.182352</ele>
        <time>2022-05-13T14:12:51.127Z</time>
      </trkpt>
      <trkpt lat="43.78353" lon="1.64086">
        <ele>175.679412</ele>
        <time>2022-05-13T14:12:53.127Z</time>
      </trkpt>
      <trkpt lat="43.7836" lon="1.64097">
        <ele>176.177555</ele>
        <time>2022-05-13T14:12:55.150Z</time>
      </trkpt>
      <trkpt lat="43.78368" lon="1.64107">
        <ele>176.67155</ele>
        <time>2022-05-13T14:12:57.128Z</time>
      </trkpt>
      <trkpt lat="43.78375" lon="1.64117">
        <ele>177.151929</ele>
        <time>2022-05-13T14:12:59.151Z</time>
      </trkpt>
      <trkpt lat="43.78382" lon="1.64127">
        <ele>177.614519</ele>
        <time>2022-05-13T14:13:01.125Z</time>
      </trkpt>
      <trkpt lat="43.78389" lon="1.64137">
        <ele>178.060258</ele>
        <time>2022-05-13T14:13:03.151Z</time>
      </trkpt>
      <trkpt lat="43.78395" lon="1.64146">
        <ele>178.490881</ele>
        <time>2022-05-13T14:13:05.127Z</time>
      </trkpt>
      <trkpt lat="43.78404" lon="1.64159">
        <ele>179.08258</ele>
        <time>2022-05-13T14:13:08.131Z</time>
      </trkpt>
      <trkpt lat="43.78412" lon="1.64172">
        <ele>179.638099</ele>
        <time>2022-05-13T14:13:11.107Z</time>
      </trkpt>
      <trkpt lat="43.78419" lon="1.64184">
        <ele>180.155715</ele>
        <time>2022-05-13T14:13:14.115Z</time>
      </trkpt>
      <trkpt lat="43.78426" lon="1.64194">
        <ele>180.633537</ele>
        <time>2022-05-13T14:13:17.119Z</time>
      </trkpt>
      <trkpt lat="43.78433" lon="1.64203">
        <ele>181.080194</ele>
        <time>2022-05-13T14:13:20.113Z</time>
      </trkpt>
      <trkpt lat="43.78443" lon="1.64206">
        <ele>181.615616</ele>
        <time>2022-05-13T14:13:23.124Z</time>
      </trkpt>
      <trkpt lat="43.78454" lon="1.64202">
        <ele>182.226351</ele>
        <time>2022-05-13T14:13:26.107Z</time>
      </trkpt>
      <trkpt lat="43.78463" lon="1.64196">
        <ele>182.770208</ele>
        <time>2022-05-13T14:13:29.114Z</time>
      </trkpt>
      <trkpt lat="43.78484" lon="1.64186">
        <ele>183.921791</ele>
        <time>2022-05-13T14:14:14.116Z</time>
      </trkpt>
      <trkpt lat="43.78492" lon="1.64183">
        <ele>184.411238</ele>
        <time>2022-05-13T14:14:17.112Z</time>
      </trkpt>
      <trkpt lat="43.78504" lon="1.64179">
        <ele>185.036792</ele>
        <time>2022-05-13T14:14:20.125Z</time>
      </trkpt>
      <trkpt lat="43.78515" lon="1.64175">
        <ele>185.653806</ele>
        <time>2022-05-13T14:14:23.123Z</time>
      </trkpt>
      <trkpt lat="43.78526" lon="1.64172">
        <ele>186.252415</ele>
        <time>2022-05-13T14:14:26.123Z</time>
      </trkpt>
      <trkpt lat="43.78536" lon="1.64169">
        <ele>186.843502</ele>
        <time>2022-05-13T14:14:29.125Z</time>
      </trkpt>
      <trkpt lat="43.78547" lon="1.64165">
        <ele>187.416919</ele>
        <time>2022-05-13T14:14:32.117Z</time>
      </trkpt>
      <trkpt lat="43.78557" lon="1.64163">
        <ele>187.997433</ele>
        <time>2022-05-13T14:14:35.139Z</time>
      </trkpt>
      <trkpt lat="43.78568" lon="1.6416">
        <ele>188.58468</ele>
        <time>2022-05-13T14:14:38.124Z</time>
      </trkpt>
      <trkpt lat="43.78579" lon="1.6416">
        <ele>189.177252</ele>
        <time>2022-05-13T14:14:41.126Z</time>
      </trkpt>
      <trkpt lat="43.7859" lon="1.6416">
        <ele>189.780081</ele>
        <time>2022-05-13T14:14:44.129Z</time>
      </trkpt>
      <trkpt lat="43.78603" lon="1.64162">
        <ele>190.477962</ele>
        <time>2022-05-13T14:14:47.114Z</time>
      </trkpt>
      <trkpt lat="43.78615" lon="1.64165">
        <ele>191.266774</ele>
        <time>2022-05-13T14:14:50.099Z</time>
      </trkpt>
      <trkpt lat="43.78626" lon="1.64169">
        <ele>192.201823</ele>
        <time>2022-05-13T14:14:53.105Z</time>
      </trkpt>
      <trkpt lat="43.78636" lon="1.64174">
        <ele>193.072235</ele>
        <time>2022-05-13T14:14:56.114Z</time>
      </trkpt>
      <trkpt lat="43.78646" lon="1.64179">
        <ele>193.926858</ele>
        <time>2022-05-13T14:14:59.125Z</time>
      </trkpt>
      <trkpt lat="43.78656" lon="1.6418">
        <ele>194.829531</ele>
        <time>2022-05-13T14:15:02.129Z</time>
      </trkpt>
      <trkpt lat="43.78668" lon="1.64183">
        <ele>195.808475</ele>
        <time>2022-05-13T14:15:05.136Z</time>
      </trkpt>
      <trkpt lat="43.78678" lon="1.6418">
        <ele>196.634433</ele>
        <time>2022-05-13T14:15:09.108Z</time>
      </trkpt>
      <trkpt lat="43.78675" lon="1.64167">
        <ele>197.400875</ele>
        <time>2022-05-13T14:15:13.106Z</time>
      </trkpt>
      <trkpt lat="43.78668" lon="1.64158">
        <ele>198.22801</ele>
        <time>2022-05-13T14:15:17.118Z</time>
      </trkpt>
      <trkpt lat="43.78661" lon="1.64149">
        <ele>199.032391</ele>
        <time>2022-05-13T14:15:21.130Z</time>
      </trkpt>
      <trkpt lat="43.78654" lon="1.6414">
        <ele>199.832599</ele>
        <time>2022-05-13T14:15:25.133Z</time>
      </trkpt>
      <trkpt lat="43.78647" lon="1.64131">
        <ele>200.629017</ele>
        <time>2022-05-13T14:15:29.129Z</time>
      </trkpt>
      <trkpt lat="43.78641" lon="1.64121">
        <ele>201.42676</ele>
        <time>2022-05-13T14:15:34.121Z</time>
      </trkpt>
      <trkpt lat="43.78632" lon="1.64112">
        <ele>202.321593</ele>
        <time>2022-05-13T14:15:38.128Z</time>
      </trkpt>
      <trkpt lat="43.78626" lon="1.64102">
        <ele>203.094111</ele>
        <time>2022-05-13T14:15:42.138Z</time>
      </trkpt>
      <trkpt lat="43.78618" lon="1.64092">
        <ele>204.000443</ele>
        <time>2022-05-13T14:15:46.110Z</time>
      </trkpt>
      <trkpt lat="43.78612" lon="1.64083">
        <ele>204.767891</ele>
        <time>2022-05-13T14:15:50.097Z</time>
      </trkpt>
      <trkpt lat="43.786" lon="1.64066">
        <ele>206.301078</ele>
        <time>2022-05-13T14:16:05.127Z</time>
      </trkpt>
      <trkpt lat="43.78592" lon="1.64059">
        <ele>207.286929</ele>
        <time>2022-05-13T14:16:08.120Z</time>
      </trkpt>
      <trkpt lat="43.78583" lon="1.64051">
        <ele>208.412539</ele>
        <time>2022-05-13T14:16:12.109Z</time>
      </trkpt>
      <trkpt lat="43.78573" lon="1.64047">
        <ele>209.505008</ele>
        <time>2022-05-13T14:16:16.121Z</time>
      </trkpt>
      <trkpt lat="43.78564" lon="1.64042">
        <ele>210.539478</ele>
        <time>2022-05-13T14:16:21.139Z</time>
      </trkpt>
      <trkpt lat="43.78555" lon="1.64038">
        <ele>211.569018</ele>
        <time>2022-05-13T14:16:24.120Z</time>
      </trkpt>
      <trkpt lat="43.78544" lon="1.64037">
        <ele>212.735973</ele>
        <time>2022-05-13T14:16:28.111Z</time>
      </trkpt>
      <trkpt lat="43.78533" lon="1.64033">
        <ele>213.947705</ele>
        <time>2022-05-13T14:16:32.120Z</time>
      </trkpt>
      <trkpt lat="43.78523" lon="1.64024">
        <ele>215.23396</ele>
        <time>2022-05-13T14:16:36.132Z</time>
      </trkpt>
      <trkpt lat="43.78515" lon="1.64013">
        <ele>216.489691</ele>
        <time>2022-05-13T14:16:40.129Z</time>
      </trkpt>
      <trkpt lat="43.78511" lon="1.64001">
        <ele>217.493876</ele>
        <time>2022-05-13T14:16:43.129Z</time>
      </trkpt>
      <trkpt lat="43.78513" lon="1.63989">
        <ele>218.465605</ele>
        <time>2022-05-13T14:16:46.126Z</time>
      </trkpt>
      <trkpt lat="43.78521" lon="1.63982">
        <ele>219.479428</ele>
        <time>2022-05-13T14:16:49.124Z</time>
      </trkpt>
      <trkpt lat="43.7853" lon="1.63973">
        <ele>220.579722</ele>
        <time>2022-05-13T14:16:52.141Z</time>
      </trkpt>
      <trkpt lat="43.78539" lon="1.63966">
        <ele>221.731515</ele>
        <time>2022-05-13T14:16:56.129Z</time>
      </trkpt>
      <trkpt lat="43.78548" lon="1.6396">
        <ele>222.832942</ele>
        <time>2022-05-13T14:17:00.105Z</time>
      </trkpt>
      <trkpt lat="43.78558" lon="1.63956">
        <ele>223.928726</ele>
        <time>2022-05-13T14:17:04.142Z</time>
      </trkpt>
      <trkpt lat="43.78568" lon="1.63951">
        <ele>224.991048</ele>
        <time>2022-05-13T14:17:08.115Z</time>
      </trkpt>
      <trkpt lat="43.78577" lon="1.63946">
        <ele>226.401843</ele>
        <time>2022-05-13T14:17:13.150Z</time>
      </trkpt>
      <trkpt lat="43.78586" lon="1.6394">
        <ele>227.714431</ele>
        <time>2022-05-13T14:17:17.132Z</time>
      </trkpt>
      <trkpt lat="43.78595" lon="1.63931">
        <ele>229.330136</ele>
        <time>2022-05-13T14:17:22.149Z</time>
      </trkpt>
      <trkpt lat="43.78602" lon="1.63922">
        <ele>230.706149</ele>
        <time>2022-05-13T14:17:26.123Z</time>
      </trkpt>
      <trkpt lat="43.78611" lon="1.63912">
        <ele>232.282005</ele>
        <time>2022-05-13T14:17:30.135Z</time>
      </trkpt>
      <trkpt lat="43.7862" lon="1.63906">
        <ele>233.708247</ele>
        <time>2022-05-13T14:17:34.127Z</time>
      </trkpt>
      <trkpt lat="43.78629" lon="1.63902">
        <ele>235.08554</ele>
        <time>2022-05-13T14:17:38.128Z</time>
      </trkpt>
      <trkpt lat="43.78638" lon="1.63896">
        <ele>236.493878</ele>
        <time>2022-05-13T14:17:42.140Z</time>
      </trkpt>
      <trkpt lat="43.78647" lon="1.6389">
        <ele>237.829212</ele>
        <time>2022-05-13T14:17:47.133Z</time>
      </trkpt>
      <trkpt lat="43.78657" lon="1.6388">
        <ele>239.53082</ele>
        <time>2022-05-13T14:17:51.127Z</time>
      </trkpt>
      <trkpt lat="43.78667" lon="1.63875">
        <ele>241.055171</ele>
        <time>2022-05-13T14:17:55.127Z</time>
      </trkpt>
      <trkpt lat="43.78677" lon="1.63873">
        <ele>242.521053</ele>
        <time>2022-05-13T14:18:02.133Z</time>
      </trkpt>
      <trkpt lat="43.78689" lon="1.63872">
        <ele>244.155901</ele>
        <time>2022-05-13T14:18:06.142Z</time>
      </trkpt>
      <trkpt lat="43.78698" lon="1.63872">
        <ele>245.493555</ele>
        <time>2022-05-13T14:18:09.135Z</time>
      </trkpt>
      <trkpt lat="43.78708" lon="1.63873">
        <ele>246.863899</ele>
        <time>2022-05-13T14:18:12.128Z</time>
      </trkpt>
      <trkpt lat="43.78717" lon="1.63875">
        <ele>248.159667</ele>
        <time>2022-05-13T14:18:15.129Z</time>
      </trkpt>
      <trkpt lat="43.78726" lon="1.63877">
        <ele>249.500305</ele>
        <time>2022-05-13T14:18:18.122Z</time>
      </trkpt>
      <trkpt lat="43.78737" lon="1.63881">
        <ele>250.657317</ele>
        <time>2022-05-13T14:18:22.135Z</time>
      </trkpt>
      <trkpt lat="43.78746" lon="1.63887">
        <ele>251.180412</ele>
        <time>2022-05-13T14:18:26.113Z</time>
      </trkpt>
      <trkpt lat="43.78757" lon="1.63891">
        <ele>251.743722</ele>
        <time>2022-05-13T14:18:29.147Z</time>
      </trkpt>
      <trkpt lat="43.78767" lon="1.63895">
        <ele>252.261141</ele>
        <time>2022-05-13T14:18:33.156Z</time>
      </trkpt>
      <trkpt lat="43.78777" lon="1.63897">
        <ele>252.733901</ele>
        <time>2022-05-13T14:18:36.143Z</time>
      </trkpt>
      <trkpt lat="43.78788" lon="1.63903">
        <ele>253.325333</ele>
        <time>2022-05-13T14:18:40.115Z</time>
      </trkpt>
      <trkpt lat="43.78796" lon="1.6391">
        <ele>253.798424</ele>
        <time>2022-05-13T14:18:44.147Z</time>
      </trkpt>
      <trkpt lat="43.78806" lon="1.63917">
        <ele>254.329605</ele>
        <time>2022-05-13T14:18:47.143Z</time>
      </trkpt>
      <trkpt lat="43.78814" lon="1.63925">
        <ele>254.808033</ele>
        <time>2022-05-13T14:18:52.120Z</time>
      </trkpt>
      <trkpt lat="43.78823" lon="1.6393">
        <ele>255.292888</ele>
        <time>2022-05-13T14:18:55.135Z</time>
      </trkpt>
      <trkpt lat="43.78832" lon="1.63932">
        <ele>255.771809</ele>
        <time>2022-05-13T14:18:57.119Z</time>
      </trkpt>
      <trkpt lat="43.78843" lon="1.63934">
        <ele>256.338003</ele>
        <time>2022-05-13T14:19:00.115Z</time>
      </trkpt>
      <trkpt lat="43.78854" lon="1.63933">
        <ele>256.859803</ele>
        <time>2022-05-13T14:19:03.134Z</time>
      </trkpt>
      <trkpt lat="43.78865" lon="1.63934">
        <ele>257.430271</ele>
        <time>2022-05-13T14:19:06.142Z</time>
      </trkpt>
      <trkpt lat="43.78876" lon="1.63942">
        <ele>258.03764</ele>
        <time>2022-05-13T14:19:09.133Z</time>
      </trkpt>
      <trkpt lat="43.78886" lon="1.6395">
        <ele>258.588264</ele>
        <time>2022-05-13T14:19:11.180Z</time>
      </trkpt>
      <trkpt lat="43.78896" lon="1.6396">
        <ele>259.225746</ele>
        <time>2022-05-13T14:19:14.129Z</time>
      </trkpt>
      <trkpt lat="43.78909" lon="1.63969">
        <ele>259.840967</ele>
        <time>2022-05-13T14:19:17.126Z</time>
      </trkpt>
      <trkpt lat="43.78916" lon="1.63988">
        <ele>260.48787</ele>
        <time>2022-05-13T14:19:40.112Z</time>
      </trkpt>
      <trkpt lat="43.78921" lon="1.63998">
        <ele>260.881352</ele>
        <time>2022-05-13T14:19:49.119Z</time>
      </trkpt>
      <trkpt lat="43.78931" lon="1.63998">
        <ele>261.301</ele>
        <time>2022-05-13T14:19:56.123Z</time>
      </trkpt>
      <trkpt lat="43.78941" lon="1.63996">
        <ele>261.754804</ele>
        <time>2022-05-13T14:20:03.110Z</time>
      </trkpt>
      <trkpt lat="43.78949" lon="1.64002">
        <ele>262.151909</ele>
        <time>2022-05-13T14:20:11.126Z</time>
      </trkpt>
      <trkpt lat="43.78959" lon="1.63994">
        <ele>262.623922</ele>
        <time>2022-05-13T14:20:16.137Z</time>
      </trkpt>
      <trkpt lat="43.78968" lon="1.63999">
        <ele>263.034664</ele>
        <time>2022-05-13T14:20:19.122Z</time>
      </trkpt>
      <trkpt lat="43.78978" lon="1.64005">
        <ele>263.493421</ele>
        <time>2022-05-13T14:20:22.123Z</time>
      </trkpt>
      <trkpt lat="43.78987" lon="1.64013">
        <ele>263.954891</ele>
        <time>2022-05-13T14:20:25.124Z</time>
      </trkpt>
      <trkpt lat="43.78992" lon="1.6401">
        <ele>264.20185</ele>
        <time>2022-05-13T14:22:03.133Z</time>
      </trkpt>
      <trkpt lat="43.79001" lon="1.64008">
        <ele>264.593623</ele>
        <time>2022-05-13T14:22:10.123Z</time>
      </trkpt>
      <trkpt lat="43.79011" lon="1.64004">
        <ele>264.973306</ele>
        <time>2022-05-13T14:22:14.129Z</time>
      </trkpt>
      <trkpt lat="43.7902" lon="1.64007">
        <ele>265.333487</ele>
        <time>2022-05-13T14:22:20.132Z</time>
      </trkpt>
      <trkpt lat="43.79029" lon="1.64008">
        <ele>265.688664</ele>
        <time>2022-05-13T14:22:23.128Z</time>
      </trkpt>
      <trkpt lat="43.7904" lon="1.64012">
        <ele>266.119844</ele>
        <time>2022-05-13T14:22:27.121Z</time>
      </trkpt>
      <trkpt lat="43.79049" lon="1.64006">
        <ele>266.509917</ele>
        <time>2022-05-13T14:22:31.112Z</time>
      </trkpt>
      <trkpt lat="43.79057" lon="1.63997">
        <ele>266.895925</ele>
        <time>2022-05-13T14:22:35.144Z</time>
      </trkpt>
      <trkpt lat="43.79066" lon="1.63987">
        <ele>267.359057</ele>
        <time>2022-05-13T14:22:41.125Z</time>
      </trkpt>
      <trkpt lat="43.79075" lon="1.6398">
        <ele>267.755524</ele>
        <time>2022-05-13T14:22:47.137Z</time>
      </trkpt>
      <trkpt lat="43.79086" lon="1.63977">
        <ele>268.206933</ele>
        <time>2022-05-13T14:22:51.131Z</time>
      </trkpt>
      <trkpt lat="43.79095" lon="1.63981">
        <ele>268.593308</ele>
        <time>2022-05-13T14:22:55.123Z</time>
      </trkpt>
      <trkpt lat="43.79107" lon="1.63987">
        <ele>269.090945</ele>
        <time>2022-05-13T14:23:01.122Z</time>
      </trkpt>
      <trkpt lat="43.79116" lon="1.63991">
        <ele>269.44153</ele>
        <time>2022-05-13T14:23:04.118Z</time>
      </trkpt>
      <trkpt lat="43.79126" lon="1.63991">
        <ele>269.846426</ele>
        <time>2022-05-13T14:23:08.124Z</time>
      </trkpt>
      <trkpt lat="43.79136" lon="1.6399">
        <ele>270.225824</ele>
        <time>2022-05-13T14:23:12.118Z</time>
      </trkpt>
      <trkpt lat="43.79148" lon="1.63986">
        <ele>270.933192</ele>
        <time>2022-05-13T14:23:16.137Z</time>
      </trkpt>
      <trkpt lat="43.79158" lon="1.63986">
        <ele>271.585946</ele>
        <time>2022-05-13T14:23:21.140Z</time>
      </trkpt>
      <trkpt lat="43.79169" lon="1.63988">
        <ele>272.264848</ele>
        <time>2022-05-13T14:23:25.125Z</time>
      </trkpt>
      <trkpt lat="43.79179" lon="1.63992">
        <ele>272.917566</ele>
        <time>2022-05-13T14:23:29.147Z</time>
      </trkpt>
      <trkpt lat="43.79187" lon="1.63999">
        <ele>273.544879</ele>
        <time>2022-05-13T14:23:33.114Z</time>
      </trkpt>
      <trkpt lat="43.79194" lon="1.64008">
        <ele>274.16548</ele>
        <time>2022-05-13T14:23:36.136Z</time>
      </trkpt>
      <trkpt lat="43.79203" lon="1.64021">
        <ele>274.994598</ele>
        <time>2022-05-13T14:23:39.133Z</time>
      </trkpt>
      <trkpt lat="43.7921" lon="1.6403">
        <ele>275.582706</ele>
        <time>2022-05-13T14:23:42.131Z</time>
      </trkpt>
      <trkpt lat="43.79218" lon="1.64037">
        <ele>276.18035</ele>
        <time>2022-05-13T14:23:45.127Z</time>
      </trkpt>
      <trkpt lat="43.79226" lon="1.64041">
        <ele>276.780638</ele>
        <time>2022-05-13T14:23:47.137Z</time>
      </trkpt>
      <trkpt lat="43.79237" lon="1.64046">
        <ele>277.506284</ele>
        <time>2022-05-13T14:23:50.146Z</time>
      </trkpt>
      <trkpt lat="43.79247" lon="1.64048">
        <ele>278.125055</ele>
        <time>2022-05-13T14:23:53.140Z</time>
      </trkpt>
      <trkpt lat="43.79259" lon="1.6405">
        <ele>278.897471</ele>
        <time>2022-05-13T14:23:56.141Z</time>
      </trkpt>
      <trkpt lat="43.79268" lon="1.64051">
        <ele>279.500785</ele>
        <time>2022-05-13T14:23:59.134Z</time>
      </trkpt>
      <trkpt lat="43.79278" lon="1.64053">
        <ele>280.1277</ele>
        <time>2022-05-13T14:24:03.127Z</time>
      </trkpt>
      <trkpt lat="43.79288" lon="1.64058">
        <ele>280.804963</ele>
        <time>2022-05-13T14:24:08.135Z</time>
      </trkpt>
      <trkpt lat="43.79291" lon="1.6407">
        <ele>281.433323</ele>
        <time>2022-05-13T14:24:14.118Z</time>
      </trkpt>
      <trkpt lat="43.79291" lon="1.64083">
        <ele>282.065641</ele>
        <time>2022-05-13T14:24:20.125Z</time>
      </trkpt>
      <trkpt lat="43.79289" lon="1.64097">
        <ele>283.025133</ele>
        <time>2022-05-13T14:24:28.142Z</time>
      </trkpt>
      <trkpt lat="43.79287" lon="1.64111">
        <ele>283.941307</ele>
        <time>2022-05-13T14:24:34.135Z</time>
      </trkpt>
      <trkpt lat="43.79284" lon="1.64125">
        <ele>284.928945</ele>
        <time>2022-05-13T14:24:40.137Z</time>
      </trkpt>
      <trkpt lat="43.79285" lon="1.64141">
        <ele>285.967939</ele>
        <time>2022-05-13T14:24:45.123Z</time>
      </trkpt>
      <trkpt lat="43.79281" lon="1.64154">
        <ele>286.880798</ele>
        <time>2022-05-13T14:24:50.131Z</time>
      </trkpt>
      <trkpt lat="43.79286" lon="1.64166">
        <ele>287.793175</ele>
        <time>2022-05-13T14:24:56.142Z</time>
      </trkpt>
      <trkpt lat="43.79295" lon="1.6417">
        <ele>288.695718</ele>
        <time>2022-05-13T14:25:00.132Z</time>
      </trkpt>
      <trkpt lat="43.79305" lon="1.64173">
        <ele>289.609519</ele>
        <time>2022-05-13T14:25:03.137Z</time>
      </trkpt>
      <trkpt lat="43.79316" lon="1.64179">
        <ele>290.682617</ele>
        <time>2022-05-13T14:25:08.137Z</time>
      </trkpt>
      <trkpt lat="43.79326" lon="1.6418">
        <ele>291.564777</ele>
        <time>2022-05-13T14:25:12.149Z</time>
      </trkpt>
      <trkpt lat="43.79335" lon="1.64184">
        <ele>292.44049</ele>
        <time>2022-05-13T14:25:17.141Z</time>
      </trkpt>
      <trkpt lat="43.79352" lon="1.64192">
        <ele>294.068633</ele>
        <time>2022-05-13T14:26:28.132Z</time>
      </trkpt>
      <trkpt lat="43.7936" lon="1.642">
        <ele>294.903951</ele>
        <time>2022-05-13T14:26:32.116Z</time>
      </trkpt>
      <trkpt lat="43.79369" lon="1.6421">
        <ele>295.959976</ele>
        <time>2022-05-13T14:26:35.140Z</time>
      </trkpt>
      <trkpt lat="43.79375" lon="1.6422">
        <ele>296.810562</ele>
        <time>2022-05-13T14:26:38.142Z</time>
      </trkpt>
      <trkpt lat="43.79379" lon="1.64232">
        <ele>297.705569</ele>
        <time>2022-05-13T14:26:41.130Z</time>
      </trkpt>
      <trkpt lat="43.79381" lon="1.64244">
        <ele>297.925291</ele>
        <time>2022-05-13T14:26:45.120Z</time>
      </trkpt>
      <trkpt lat="43.79385" lon="1.64256">
        <ele>297.50007</ele>
        <time>2022-05-13T14:26:49.131Z</time>
      </trkpt>
      <trkpt lat="43.79389" lon="1.6427">
        <ele>296.997731</ele>
        <time>2022-05-13T14:26:54.132Z</time>
      </trkpt>
      <trkpt lat="43.794" lon="1.64279">
        <ele>296.436478</ele>
        <time>2022-05-13T14:26:57.137Z</time>
      </trkpt>
      <trkpt lat="43.79407" lon="1.64288">
        <ele>295.976209</ele>
        <time>2022-05-13T14:27:00.150Z</time>
      </trkpt>
      <trkpt lat="43.79415" lon="1.64296">
        <ele>295.547714</ele>
        <time>2022-05-13T14:27:05.134Z</time>
      </trkpt>
      <trkpt lat="43.79423" lon="1.64291">
        <ele>295.127514</ele>
        <time>2022-05-13T14:27:10.142Z</time>
      </trkpt>
      <trkpt lat="43.79433" lon="1.64284">
        <ele>294.623495</ele>
        <time>2022-05-13T14:27:15.143Z</time>
      </trkpt>
      <trkpt lat="43.79443" lon="1.64279">
        <ele>294.141923</ele>
        <time>2022-05-13T14:27:20.151Z</time>
      </trkpt>
      <trkpt lat="43.79455" lon="1.64276">
        <ele>293.617996</ele>
        <time>2022-05-13T14:27:24.135Z</time>
      </trkpt>
      <trkpt lat="43.79465" lon="1.64274">
        <ele>293.141479</ele>
        <time>2022-05-13T14:27:28.143Z</time>
      </trkpt>
      <trkpt lat="43.79474" lon="1.64268">
        <ele>292.681541</ele>
        <time>2022-05-13T14:27:32.139Z</time>
      </trkpt>
      <trkpt lat="43.79479" lon="1.64255">
        <ele>292.181353</ele>
        <time>2022-05-13T14:27:39.139Z</time>
      </trkpt>
      <trkpt lat="43.79472" lon="1.64243">
        <ele>291.701039</ele>
        <time>2022-05-13T14:27:44.132Z</time>
      </trkpt>
      <trkpt lat="43.79466" lon="1.6423">
        <ele>291.176379</ele>
        <time>2022-05-13T14:27:48.142Z</time>
      </trkpt>
      <trkpt lat="43.79457" lon="1.64221">
        <ele>290.686212</ele>
        <time>2022-05-13T14:27:53.119Z</time>
      </trkpt>
      <trkpt lat="43.79448" lon="1.64219">
        <ele>290.257963</ele>
        <time>2022-05-13T14:28:01.129Z</time>
      </trkpt>
      <trkpt lat="43.79439" lon="1.64212">
        <ele>289.934549</ele>
        <time>2022-05-13T14:28:13.129Z</time>
      </trkpt>
      <trkpt lat="43.79436" lon="1.64198">
        <ele>289.918462</ele>
        <time>2022-05-13T14:28:18.115Z</time>
      </trkpt>
      <trkpt lat="43.79434" lon="1.64185">
        <ele>289.903439</ele>
        <time>2022-05-13T14:28:23.118Z</time>
      </trkpt>
      <trkpt lat="43.7943" lon="1.64169">
        <ele>289.884665</ele>
        <time>2022-05-13T14:28:27.132Z</time>
      </trkpt>
      <trkpt lat="43.79426" lon="1.64157">
        <ele>289.870782</ele>
        <time>2022-05-13T14:28:32.116Z</time>
      </trkpt>
      <trkpt lat="43.7943" lon="1.64151">
        <ele>289.717774</ele>
        <time>2022-05-13T14:29:44.134Z</time>
      </trkpt>
      <trkpt lat="43.79432" lon="1.64138">
        <ele>289.703849</ele>
        <time>2022-05-13T14:29:56.109Z</time>
      </trkpt>
      <trkpt lat="43.79439" lon="1.64127">
        <ele>289.687172</ele>
        <time>2022-05-13T14:30:02.119Z</time>
      </trkpt>
      <trkpt lat="43.79448" lon="1.64124">
        <ele>289.672886</ele>
        <time>2022-05-13T14:30:08.110Z</time>
      </trkpt>
      <trkpt lat="43.79457" lon="1.64121">
        <ele>289.895543</ele>
        <time>2022-05-13T14:30:22.122Z</time>
      </trkpt>
      <trkpt lat="43.79465" lon="1.64116">
        <ele>290.294446</ele>
        <time>2022-05-13T14:30:40.121Z</time>
      </trkpt>
      <trkpt lat="43.79475" lon="1.64114">
        <ele>290.702226</ele>
        <time>2022-05-13T14:30:57.109Z</time>
      </trkpt>
      <trkpt lat="43.79482" lon="1.64106">
        <ele>291.110858</ele>
        <time>2022-05-13T14:31:13.122Z</time>
      </trkpt>
      <trkpt lat="43.79486" lon="1.64093">
        <ele>291.540194</ele>
        <time>2022-05-13T14:31:31.114Z</time>
      </trkpt>
      <trkpt lat="43.79491" lon="1.64083">
        <ele>291.943829</ele>
        <time>2022-05-13T14:31:42.128Z</time>
      </trkpt>
      <trkpt lat="43.79505" lon="1.64075">
        <ele>292.576915</ele>
        <time>2022-05-13T14:33:44.137Z</time>
      </trkpt>
      <trkpt lat="43.79514" lon="1.6407">
        <ele>293.01664</ele>
        <time>2022-05-13T14:33:55.124Z</time>
      </trkpt>
      <trkpt lat="43.79523" lon="1.64064">
        <ele>293.42903</ele>
        <time>2022-05-13T14:34:01.127Z</time>
      </trkpt>
      <trkpt lat="43.79533" lon="1.64057">
        <ele>293.916872</ele>
        <time>2022-05-13T14:34:07.131Z</time>
      </trkpt>
      <trkpt lat="43.79542" lon="1.64051">
        <ele>294.364054</ele>
        <time>2022-05-13T14:34:12.117Z</time>
      </trkpt>
      <trkpt lat="43.79553" lon="1.64047">
        <ele>294.846856</ele>
        <time>2022-05-13T14:34:17.125Z</time>
      </trkpt>
      <trkpt lat="43.79564" lon="1.64051">
        <ele>295.308691</ele>
        <time>2022-05-13T14:34:21.136Z</time>
      </trkpt>
      <trkpt lat="43.79574" lon="1.64053">
        <ele>295.769768</ele>
        <time>2022-05-13T14:34:25.111Z</time>
      </trkpt>
      <trkpt lat="43.79583" lon="1.64054">
        <ele>296.167625</ele>
        <time>2022-05-13T14:34:28.124Z</time>
      </trkpt>
      <trkpt lat="43.79591" lon="1.64048">
        <ele>296.57542</ele>
        <time>2022-05-13T14:34:32.135Z</time>
      </trkpt>
      <trkpt lat="43.796" lon="1.64032">
        <ele>297.191652</ele>
        <time>2022-05-13T14:35:41.119Z</time>
      </trkpt>
      <trkpt lat="43.796" lon="1.64019">
        <ele>297.035342</ele>
        <time>2022-05-13T14:35:44.129Z</time>
      </trkpt>
      <trkpt lat="43.79604" lon="1.64006">
        <ele>295.859963</ele>
        <time>2022-05-13T14:35:48.103Z</time>
      </trkpt>
      <trkpt lat="43.79608" lon="1.63995">
        <ele>294.757468</ele>
        <time>2022-05-13T14:35:54.128Z</time>
      </trkpt>
      <trkpt lat="43.79614" lon="1.63986">
        <ele>293.648426</ele>
        <time>2022-05-13T14:35:59.109Z</time>
      </trkpt>
      <trkpt lat="43.79624" lon="1.63978">
        <ele>292.235183</ele>
        <time>2022-05-13T14:36:04.148Z</time>
      </trkpt>
      <trkpt lat="43.79633" lon="1.63973">
        <ele>291.123884</ele>
        <time>2022-05-13T14:36:08.141Z</time>
      </trkpt>
      <trkpt lat="43.79645" lon="1.63975">
        <ele>289.551233</ele>
        <time>2022-05-13T14:36:13.136Z</time>
      </trkpt>
      <trkpt lat="43.79655" lon="1.63975">
        <ele>288.423835</ele>
        <time>2022-05-13T14:36:16.125Z</time>
      </trkpt>
      <trkpt lat="43.79663" lon="1.63969">
        <ele>287.255615</ele>
        <time>2022-05-13T14:36:20.142Z</time>
      </trkpt>
      <trkpt lat="43.79673" lon="1.63956">
        <ele>285.582652</ele>
        <time>2022-05-13T14:36:32.108Z</time>
      </trkpt>
      <trkpt lat="43.79676" lon="1.63944">
        <ele>284.461575</ele>
        <time>2022-05-13T14:36:35.139Z</time>
      </trkpt>
      <trkpt lat="43.79678" lon="1.63928">
        <ele>283.043334</ele>
        <time>2022-05-13T14:36:38.133Z</time>
      </trkpt>
      <trkpt lat="43.7968" lon="1.6391">
        <ele>281.419958</ele>
        <time>2022-05-13T14:36:41.127Z</time>
      </trkpt>
      <trkpt lat="43.79685" lon="1.63896">
        <ele>280.11179</ele>
        <time>2022-05-13T14:36:44.116Z</time>
      </trkpt>
      <trkpt lat="43.79689" lon="1.63882">
        <ele>278.753472</ele>
        <time>2022-05-13T14:36:47.128Z</time>
      </trkpt>
      <trkpt lat="43.7969" lon="1.63869">
        <ele>277.619344</ele>
        <time>2022-05-13T14:36:52.125Z</time>
      </trkpt>
      <trkpt lat="43.79698" lon="1.63857">
        <ele>276.19002</ele>
        <time>2022-05-13T14:36:56.119Z</time>
      </trkpt>
      <trkpt lat="43.79706" lon="1.63846">
        <ele>274.653755</ele>
        <time>2022-05-13T14:36:59.122Z</time>
      </trkpt>
      <trkpt lat="43.7971" lon="1.63832">
        <ele>273.198042</ele>
        <time>2022-05-13T14:37:01.128Z</time>
      </trkpt>
      <trkpt lat="43.79713" lon="1.63816">
        <ele>271.485593</ele>
        <time>2022-05-13T14:37:04.123Z</time>
      </trkpt>
      <trkpt lat="43.79717" lon="1.63805">
        <ele>270.212489</ele>
        <time>2022-05-13T14:37:07.120Z</time>
      </trkpt>
      <trkpt lat="43.79721" lon="1.63793">
        <ele>268.948111</ele>
        <time>2022-05-13T14:37:09.121Z</time>
      </trkpt>
      <trkpt lat="43.79727" lon="1.63782">
        <ele>267.545543</ele>
        <time>2022-05-13T14:37:12.130Z</time>
      </trkpt>
      <trkpt lat="43.79736" lon="1.63772">
        <ele>265.963259</ele>
        <time>2022-05-13T14:37:16.123Z</time>
      </trkpt>
      <trkpt lat="43.79742" lon="1.63763">
        <ele>264.629478</ele>
        <time>2022-05-13T14:37:19.110Z</time>
      </trkpt>
      <trkpt lat="43.79754" lon="1.63757">
        <ele>262.857249</ele>
        <time>2022-05-13T14:37:23.111Z</time>
      </trkpt>
      <trkpt lat="43.79765" lon="1.63739">
        <ele>260.541976</ele>
        <time>2022-05-13T14:37:26.132Z</time>
      </trkpt>
      <trkpt lat="43.79771" lon="1.63727">
        <ele>259.015685</ele>
        <time>2022-05-13T14:37:30.107Z</time>
      </trkpt>
      <trkpt lat="43.79779" lon="1.63714">
        <ele>257.325549</ele>
        <time>2022-05-13T14:37:32.114Z</time>
      </trkpt>
      <trkpt lat="43.79788" lon="1.637">
        <ele>255.425308</ele>
        <time>2022-05-13T14:37:35.121Z</time>
      </trkpt>
      <trkpt lat="43.79794" lon="1.63687">
        <ele>253.891128</ele>
        <time>2022-05-13T14:37:37.115Z</time>
      </trkpt>
      <trkpt lat="43.79805" lon="1.63677">
        <ele>251.967254</ele>
        <time>2022-05-13T14:37:40.115Z</time>
      </trkpt>
      <trkpt lat="43.79815" lon="1.6367">
        <ele>250.419254</ele>
        <time>2022-05-13T14:37:43.125Z</time>
      </trkpt>
      <trkpt lat="43.79827" lon="1.63665">
        <ele>248.432041</ele>
        <time>2022-05-13T14:37:46.124Z</time>
      </trkpt>
      <trkpt lat="43.79835" lon="1.63655">
        <ele>246.603806</ele>
        <time>2022-05-13T14:37:50.108Z</time>
      </trkpt>
      <trkpt lat="43.79842" lon="1.63643">
        <ele>244.762763</ele>
        <time>2022-05-13T14:37:54.128Z</time>
      </trkpt>
      <trkpt lat="43.79851" lon="1.6364">
        <ele>243.133736</ele>
        <time>2022-05-13T14:38:00.123Z</time>
      </trkpt>
      <trkpt lat="43.79861" lon="1.63641">
        <ele>241.505554</ele>
        <time>2022-05-13T14:38:08.128Z</time>
      </trkpt>
      <trkpt lat="43.7987" lon="1.63637">
        <ele>239.986409</ele>
        <time>2022-05-13T14:38:32.123Z</time>
      </trkpt>
      <trkpt lat="43.79879" lon="1.63643">
        <ele>238.289543</ele>
        <time>2022-05-13T14:38:37.119Z</time>
      </trkpt>
      <trkpt lat="43.79889" lon="1.63644">
        <ele>236.532031</ele>
        <time>2022-05-13T14:38:41.136Z</time>
      </trkpt>
      <trkpt lat="43.79898" lon="1.63648">
        <ele>234.926997</ele>
        <time>2022-05-13T14:38:45.116Z</time>
      </trkpt>
      <trkpt lat="43.79912" lon="1.63647">
        <ele>232.65272</ele>
        <time>2022-05-13T14:38:49.107Z</time>
      </trkpt>
      <trkpt lat="43.79921" lon="1.63648">
        <ele>231.127432</ele>
        <time>2022-05-13T14:38:52.109Z</time>
      </trkpt>
      <trkpt lat="43.79931" lon="1.63651">
        <ele>229.353804</ele>
        <time>2022-05-13T14:38:54.113Z</time>
      </trkpt>
      <trkpt lat="43.79942" lon="1.63652">
        <ele>227.575699</ele>
        <time>2022-05-13T14:38:58.107Z</time>
      </trkpt>
      <trkpt lat="43.79951" lon="1.63649">
        <ele>225.980632</ele>
        <time>2022-05-13T14:39:12.127Z</time>
      </trkpt>
      <trkpt lat="43.79961" lon="1.63647">
        <ele>224.386794</ele>
        <time>2022-05-13T14:39:17.127Z</time>
      </trkpt>
      <trkpt lat="43.7997" lon="1.63645">
        <ele>222.86976</ele>
        <time>2022-05-13T14:39:22.116Z</time>
      </trkpt>
      <trkpt lat="43.79967" lon="1.63624">
        <ele>220.299514</ele>
        <time>2022-05-13T14:40:20.119Z</time>
      </trkpt>
      <trkpt lat="43.79962" lon="1.63614">
        <ele>219.92881</ele>
        <time>2022-05-13T14:40:23.110Z</time>
      </trkpt>
      <trkpt lat="43.79956" lon="1.63599">
        <ele>219.549318</ele>
        <time>2022-05-13T14:40:28.104Z</time>
      </trkpt>
      <trkpt lat="43.79951" lon="1.63588">
        <ele>219.267061</ele>
        <time>2022-05-13T14:40:33.136Z</time>
      </trkpt>
      <trkpt lat="43.7995" lon="1.63575">
        <ele>218.9792</ele>
        <time>2022-05-13T14:40:40.130Z</time>
      </trkpt>
      <trkpt lat="43.79951" lon="1.6356">
        <ele>218.655131</ele>
        <time>2022-05-13T14:40:45.108Z</time>
      </trkpt>
      <trkpt lat="43.7995" lon="1.63546">
        <ele>218.327925</ele>
        <time>2022-05-13T14:40:50.108Z</time>
      </trkpt>
      <trkpt lat="43.79949" lon="1.63531">
        <ele>218.004126</ele>
        <time>2022-05-13T14:40:55.118Z</time>
      </trkpt>
      <trkpt lat="43.79947" lon="1.63516">
        <ele>217.669329</ele>
        <time>2022-05-13T14:40:58.111Z</time>
      </trkpt>
      <trkpt lat="43.79945" lon="1.63504">
        <ele>217.388508</ele>
        <time>2022-05-13T14:41:00.104Z</time>
      </trkpt>
      <trkpt lat="43.79942" lon="1.63491">
        <ele>217.076873</ele>
        <time>2022-05-13T14:41:05.108Z</time>
      </trkpt>
      <trkpt lat="43.79935" lon="1.6348">
        <ele>216.772578</ele>
        <time>2022-05-13T14:41:12.116Z</time>
      </trkpt>
      <trkpt lat="43.79939" lon="1.63466">
        <ele>216.445029</ele>
        <time>2022-05-13T14:41:18.110Z</time>
      </trkpt>
      <trkpt lat="43.79945" lon="1.63452">
        <ele>216.079144</ele>
        <time>2022-05-13T14:41:23.131Z</time>
      </trkpt>
      <trkpt lat="43.79949" lon="1.63439">
        <ele>215.76393</ele>
        <time>2022-05-13T14:41:27.124Z</time>
      </trkpt>
      <trkpt lat="43.79952" lon="1.63424">
        <ele>215.430924</ele>
        <time>2022-05-13T14:41:31.115Z</time>
      </trkpt>
      <trkpt lat="43.79958" lon="1.63412">
        <ele>215.112717</ele>
        <time>2022-05-13T14:41:36.127Z</time>
      </trkpt>
      <trkpt lat="43.79961" lon="1.634">
        <ele>214.824969</ele>
        <time>2022-05-13T14:41:38.129Z</time>
      </trkpt>
      <trkpt lat="43.79966" lon="1.63386">
        <ele>214.559457</ele>
        <time>2022-05-13T14:41:42.134Z</time>
      </trkpt>
      <trkpt lat="43.7997" lon="1.63374">
        <ele>214.400246</ele>
        <time>2022-05-13T14:41:45.122Z</time>
      </trkpt>
      <trkpt lat="43.79975" lon="1.6336">
        <ele>214.216575</ele>
        <time>2022-05-13T14:41:48.122Z</time>
      </trkpt>
      <trkpt lat="43.79979" lon="1.63348">
        <ele>214.04868</ele>
        <time>2022-05-13T14:41:51.137Z</time>
      </trkpt>
      <trkpt lat="43.79981" lon="1.63334">
        <ele>213.869445</ele>
        <time>2022-05-13T14:41:54.140Z</time>
      </trkpt>
      <trkpt lat="43.79983" lon="1.63318">
        <ele>213.679971</ele>
        <time>2022-05-13T14:41:57.118Z</time>
      </trkpt>
      <trkpt lat="43.79984" lon="1.63303">
        <ele>213.490496</ele>
        <time>2022-05-13T14:42:00.137Z</time>
      </trkpt>
      <trkpt lat="43.79986" lon="1.63286">
        <ele>213.28844</ele>
        <time>2022-05-13T14:42:02.112Z</time>
      </trkpt>
      <trkpt lat="43.79984" lon="1.6327">
        <ele>213.090576</ele>
        <time>2022-05-13T14:42:06.124Z</time>
      </trkpt>
      <trkpt lat="43.79981" lon="1.63255">
        <ele>212.898139</ele>
        <time>2022-05-13T14:42:09.131Z</time>
      </trkpt>
      <trkpt lat="43.79977" lon="1.63241">
        <ele>212.718616</ele>
        <time>2022-05-13T14:42:11.134Z</time>
      </trkpt>
      <trkpt lat="43.79972" lon="1.63229">
        <ele>212.550823</ele>
        <time>2022-05-13T14:42:13.131Z</time>
      </trkpt>
      <trkpt lat="43.79965" lon="1.63219">
        <ele>212.385438</ele>
        <time>2022-05-13T14:42:15.144Z</time>
      </trkpt>
      <trkpt lat="43.79958" lon="1.63208">
        <ele>212.209784</ele>
        <time>2022-05-13T14:42:17.131Z</time>
      </trkpt>
      <trkpt lat="43.79949" lon="1.63195">
        <ele>211.983952</ele>
        <time>2022-05-13T14:42:20.115Z</time>
      </trkpt>
      <trkpt lat="43.79939" lon="1.63183">
        <ele>211.770188</ele>
        <time>2022-05-13T14:42:23.128Z</time>
      </trkpt>
      <trkpt lat="43.79933" lon="1.63171">
        <ele>211.495072</ele>
        <time>2022-05-13T14:42:25.138Z</time>
      </trkpt>
      <trkpt lat="43.79927" lon="1.63157">
        <ele>210.994617</ele>
        <time>2022-05-13T14:42:27.124Z</time>
      </trkpt>
      <trkpt lat="43.79918" lon="1.63144">
        <ele>210.44936</ele>
        <time>2022-05-13T14:42:29.122Z</time>
      </trkpt>
      <trkpt lat="43.79907" lon="1.63131">
        <ele>209.834006</ele>
        <time>2022-05-13T14:42:31.146Z</time>
      </trkpt>
      <trkpt lat="43.79897" lon="1.63118">
        <ele>209.256139</ele>
        <time>2022-05-13T14:42:33.121Z</time>
      </trkpt>
      <trkpt lat="43.79887" lon="1.63105">
        <ele>208.680258</ele>
        <time>2022-05-13T14:42:35.120Z</time>
      </trkpt>
      <trkpt lat="43.79877" lon="1.63091">
        <ele>208.08278</ele>
        <time>2022-05-13T14:42:37.112Z</time>
      </trkpt>
      <trkpt lat="43.79867" lon="1.63079">
        <ele>207.503606</ele>
        <time>2022-05-13T14:42:39.113Z</time>
      </trkpt>
      <trkpt lat="43.79857" lon="1.6307">
        <ele>206.991962</ele>
        <time>2022-05-13T14:42:41.132Z</time>
      </trkpt>
      <trkpt lat="43.79843" lon="1.63062">
        <ele>206.373455</ele>
        <time>2022-05-13T14:42:43.133Z</time>
      </trkpt>
      <trkpt lat="43.79833" lon="1.63064">
        <ele>205.933532</ele>
        <time>2022-05-13T14:42:46.120Z</time>
      </trkpt>
      <trkpt lat="43.79809" lon="1.63052">
        <ele>204.849592</ele>
        <time>2022-05-13T14:43:55.124Z</time>
      </trkpt>
      <trkpt lat="43.79803" lon="1.63041">
        <ele>204.429774</ele>
        <time>2022-05-13T14:43:58.112Z</time>
      </trkpt>
      <trkpt lat="43.79801" lon="1.63026">
        <ele>203.945229</ele>
        <time>2022-05-13T14:44:03.123Z</time>
      </trkpt>
      <trkpt lat="43.79795" lon="1.63015">
        <ele>203.556733</ele>
        <time>2022-05-13T14:44:07.126Z</time>
      </trkpt>
      <trkpt lat="43.79785" lon="1.63004">
        <ele>203.069017</ele>
        <time>2022-05-13T14:44:11.113Z</time>
      </trkpt>
      <trkpt lat="43.79775" lon="1.62997">
        <ele>202.62104</ele>
        <time>2022-05-13T14:44:15.129Z</time>
      </trkpt>
      <trkpt lat="43.79765" lon="1.6299">
        <ele>202.16332</ele>
        <time>2022-05-13T14:44:19.120Z</time>
      </trkpt>
      <trkpt lat="43.79756" lon="1.62985">
        <ele>201.751641</ele>
        <time>2022-05-13T14:44:23.136Z</time>
      </trkpt>
      <trkpt lat="43.79746" lon="1.62979">
        <ele>201.331003</ele>
        <time>2022-05-13T14:44:27.119Z</time>
      </trkpt>
      <trkpt lat="43.7974" lon="1.62968">
        <ele>200.914464</ele>
        <time>2022-05-13T14:44:30.105Z</time>
      </trkpt>
      <trkpt lat="43.79734" lon="1.62953">
        <ele>200.451916</ele>
        <time>2022-05-13T14:44:34.115Z</time>
      </trkpt>
      <trkpt lat="43.79728" lon="1.62942">
        <ele>200.03965</ele>
        <time>2022-05-13T14:44:37.110Z</time>
      </trkpt>
      <trkpt lat="43.7972" lon="1.62934">
        <ele>199.638292</ele>
        <time>2022-05-13T14:44:40.130Z</time>
      </trkpt>
      <trkpt lat="43.7971" lon="1.62927">
        <ele>199.207188</ele>
        <time>2022-05-13T14:44:43.117Z</time>
      </trkpt>
      <trkpt lat="43.797" lon="1.62921">
        <ele>198.749676</ele>
        <time>2022-05-13T14:44:45.114Z</time>
      </trkpt>
      <trkpt lat="43.7969" lon="1.62914">
        <ele>198.323702</ele>
        <time>2022-05-13T14:44:48.133Z</time>
      </trkpt>
      <trkpt lat="43.7968" lon="1.62909">
        <ele>197.875878</ele>
        <time>2022-05-13T14:44:51.134Z</time>
      </trkpt>
      <trkpt lat="43.79669" lon="1.62903">
        <ele>197.404244</ele>
        <time>2022-05-13T14:44:54.109Z</time>
      </trkpt>
      <trkpt lat="43.79657" lon="1.62896">
        <ele>196.897183</ele>
        <time>2022-05-13T14:44:57.135Z</time>
      </trkpt>
      <trkpt lat="43.79648" lon="1.62894">
        <ele>196.442426</ele>
        <time>2022-05-13T14:44:59.121Z</time>
      </trkpt>
      <trkpt lat="43.79638" lon="1.62896">
        <ele>195.951407</ele>
        <time>2022-05-13T14:45:01.130Z</time>
      </trkpt>
      <trkpt lat="43.79629" lon="1.62896">
        <ele>195.467563</ele>
        <time>2022-05-13T14:45:03.121Z</time>
      </trkpt>
      <trkpt lat="43.79618" lon="1.62896">
        <ele>194.901253</ele>
        <time>2022-05-13T14:45:06.127Z</time>
      </trkpt>
      <trkpt lat="43.79608" lon="1.62896">
        <ele>194.396478</ele>
        <time>2022-05-13T14:45:09.127Z</time>
      </trkpt>
      <trkpt lat="43.79598" lon="1.62892">
        <ele>193.86846</ele>
        <time>2022-05-13T14:45:13.108Z</time>
      </trkpt>
      <trkpt lat="43.79586" lon="1.62887">
        <ele>193.193381</ele>
        <time>2022-05-13T14:45:16.114Z</time>
      </trkpt>
      <trkpt lat="43.79573" lon="1.62884">
        <ele>192.508115</ele>
        <time>2022-05-13T14:45:19.098Z</time>
      </trkpt>
      <trkpt lat="43.79562" lon="1.62887">
        <ele>191.970499</ele>
        <time>2022-05-13T14:45:21.114Z</time>
      </trkpt>
      <trkpt lat="43.79553" lon="1.62887">
        <ele>191.481</ele>
        <time>2022-05-13T14:45:23.117Z</time>
      </trkpt>
      <trkpt lat="43.79541" lon="1.62886">
        <ele>190.882761</ele>
        <time>2022-05-13T14:45:28.119Z</time>
      </trkpt>
      <trkpt lat="43.79532" lon="1.62883">
        <ele>190.363898</ele>
        <time>2022-05-13T14:45:31.129Z</time>
      </trkpt>
      <trkpt lat="43.79521" lon="1.62876">
        <ele>189.785996</ele>
        <time>2022-05-13T14:45:34.131Z</time>
      </trkpt>
      <trkpt lat="43.79511" lon="1.62867">
        <ele>189.151131</ele>
        <time>2022-05-13T14:45:37.129Z</time>
      </trkpt>
      <trkpt lat="43.79502" lon="1.62857">
        <ele>188.538822</ele>
        <time>2022-05-13T14:45:39.121Z</time>
      </trkpt>
      <trkpt lat="43.79494" lon="1.62848">
        <ele>188.015787</ele>
        <time>2022-05-13T14:45:41.123Z</time>
      </trkpt>
      <trkpt lat="43.79484" lon="1.62838">
        <ele>187.474301</ele>
        <time>2022-05-13T14:45:44.128Z</time>
      </trkpt>
      <trkpt lat="43.79474" lon="1.62828">
        <ele>187.159352</ele>
        <time>2022-05-13T14:45:47.124Z</time>
      </trkpt>
      <trkpt lat="43.79466" lon="1.62816">
        <ele>186.84773</ele>
        <time>2022-05-13T14:45:50.125Z</time>
      </trkpt>
      <trkpt lat="43.79456" lon="1.62815">
        <ele>186.58755</ele>
        <time>2022-05-13T14:45:53.123Z</time>
      </trkpt>
      <trkpt lat="43.79446" lon="1.62822">
        <ele>186.301206</ele>
        <time>2022-05-13T14:45:57.123Z</time>
      </trkpt>
      <trkpt lat="43.79439" lon="1.62832">
        <ele>186.041136</ele>
        <time>2022-05-13T14:46:00.124Z</time>
      </trkpt>
      <trkpt lat="43.79431" lon="1.62841">
        <ele>185.770133</ele>
        <time>2022-05-13T14:46:03.119Z</time>
      </trkpt>
      <trkpt lat="43.79424" lon="1.62851">
        <ele>185.500186</ele>
        <time>2022-05-13T14:46:07.129Z</time>
      </trkpt>
      <trkpt lat="43.79418" lon="1.62861">
        <ele>185.2611</ele>
        <time>2022-05-13T14:46:11.101Z</time>
      </trkpt>
      <trkpt lat="43.79405" lon="1.62873">
        <ele>184.848624</ele>
        <time>2022-05-13T14:46:31.124Z</time>
      </trkpt>
      <trkpt lat="43.79395" lon="1.6287">
        <ele>184.583306</ele>
        <time>2022-05-13T14:46:39.112Z</time>
      </trkpt>
      <trkpt lat="43.79389" lon="1.62858">
        <ele>184.301067</ele>
        <time>2022-05-13T14:46:44.120Z</time>
      </trkpt>
      <trkpt lat="43.79382" lon="1.62847">
        <ele>184.04191</ele>
        <time>2022-05-13T14:46:48.132Z</time>
      </trkpt>
      <trkpt lat="43.79383" lon="1.62835">
        <ele>183.803734</ele>
        <time>2022-05-13T14:46:54.124Z</time>
      </trkpt>
      <trkpt lat="43.7939" lon="1.62815">
        <ele>183.386522</ele>
        <time>2022-05-13T14:47:10.121Z</time>
      </trkpt>
      <trkpt lat="43.79392" lon="1.62799">
        <ele>183.075998</ele>
        <time>2022-05-13T14:47:14.117Z</time>
      </trkpt>
      <trkpt lat="43.7939" lon="1.62783">
        <ele>182.676667</ele>
        <time>2022-05-13T14:47:17.113Z</time>
      </trkpt>
      <trkpt lat="43.79387" lon="1.6277">
        <ele>182.086208</ele>
        <time>2022-05-13T14:47:20.107Z</time>
      </trkpt>
      <trkpt lat="43.79383" lon="1.62758">
        <ele>181.522746</ele>
        <time>2022-05-13T14:47:23.148Z</time>
      </trkpt>
      <trkpt lat="43.79377" lon="1.62748">
        <ele>180.983777</ele>
        <time>2022-05-13T14:47:26.120Z</time>
      </trkpt>
      <trkpt lat="43.79368" lon="1.62737">
        <ele>180.295081</ele>
        <time>2022-05-13T14:47:29.123Z</time>
      </trkpt>
      <trkpt lat="43.7936" lon="1.62725">
        <ele>179.635286</ele>
        <time>2022-05-13T14:47:32.115Z</time>
      </trkpt>
      <trkpt lat="43.79351" lon="1.6271">
        <ele>178.780602</ele>
        <time>2022-05-13T14:47:35.115Z</time>
      </trkpt>
      <trkpt lat="43.79343" lon="1.627">
        <ele>178.167491</ele>
        <time>2022-05-13T14:47:38.120Z</time>
      </trkpt>
      <trkpt lat="43.79335" lon="1.62692">
        <ele>177.612881</ele>
        <time>2022-05-13T14:47:40.120Z</time>
      </trkpt>
      <trkpt lat="43.79328" lon="1.62683">
        <ele>177.041692</ele>
        <time>2022-05-13T14:47:43.110Z</time>
      </trkpt>
      <trkpt lat="43.79326" lon="1.62669">
        <ele>176.466694</ele>
        <time>2022-05-13T14:47:47.121Z</time>
      </trkpt>
      <trkpt lat="43.79323" lon="1.62651">
        <ele>175.682457</ele>
        <time>2022-05-13T14:47:50.122Z</time>
      </trkpt>
      <trkpt lat="43.79322" lon="1.62638">
        <ele>175.125778</ele>
        <time>2022-05-13T14:47:52.131Z</time>
      </trkpt>
      <trkpt lat="43.79323" lon="1.62624">
        <ele>174.558097</ele>
        <time>2022-05-13T14:47:54.136Z</time>
      </trkpt>
      <trkpt lat="43.79324" lon="1.62611">
        <ele>174.002511</ele>
        <time>2022-05-13T14:47:56.146Z</time>
      </trkpt>
      <trkpt lat="43.79325" lon="1.62595">
        <ele>173.345096</ele>
        <time>2022-05-13T14:47:59.145Z</time>
      </trkpt>
      <trkpt lat="43.79318" lon="1.62576">
        <ele>172.433894</ele>
        <time>2022-05-13T14:49:00.145Z</time>
      </trkpt>
      <trkpt lat="43.79306" lon="1.62576">
        <ele>172.328012</ele>
        <time>2022-05-13T14:49:05.149Z</time>
      </trkpt>
      <trkpt lat="43.79295" lon="1.62577">
        <ele>172.253161</ele>
        <time>2022-05-13T14:49:08.112Z</time>
      </trkpt>
      <trkpt lat="43.79283" lon="1.62578">
        <ele>172.168953</ele>
        <time>2022-05-13T14:49:11.136Z</time>
      </trkpt>
      <trkpt lat="43.7927" lon="1.62579">
        <ele>172.082055</ele>
        <time>2022-05-13T14:49:14.136Z</time>
      </trkpt>
      <trkpt lat="43.79261" lon="1.62579">
        <ele>172.019523</ele>
        <time>2022-05-13T14:49:16.137Z</time>
      </trkpt>
      <trkpt lat="43.79251" lon="1.62581">
        <ele>171.956009</ele>
        <time>2022-05-13T14:49:18.121Z</time>
      </trkpt>
      <trkpt lat="43.79242" lon="1.62581">
        <ele>171.890887</ele>
        <time>2022-05-13T14:49:20.129Z</time>
      </trkpt>
      <trkpt lat="43.79233" lon="1.62581">
        <ele>171.82847</ele>
        <time>2022-05-13T14:49:22.139Z</time>
      </trkpt>
      <trkpt lat="43.79223" lon="1.62581">
        <ele>171.763996</ele>
        <time>2022-05-13T14:49:24.111Z</time>
      </trkpt>
      <trkpt lat="43.79213" lon="1.62582">
        <ele>171.696724</ele>
        <time>2022-05-13T14:49:26.142Z</time>
      </trkpt>
      <trkpt lat="43.79203" lon="1.62583">
        <ele>171.629521</ele>
        <time>2022-05-13T14:49:28.129Z</time>
      </trkpt>
      <trkpt lat="43.79194" lon="1.62583">
        <ele>171.563026</ele>
        <time>2022-05-13T14:49:30.150Z</time>
      </trkpt>
      <trkpt lat="43.79184" lon="1.62584">
        <ele>171.495804</ele>
        <time>2022-05-13T14:49:32.126Z</time>
      </trkpt>
      <trkpt lat="43.79174" lon="1.62584">
        <ele>171.427923</ele>
        <time>2022-05-13T14:49:34.132Z</time>
      </trkpt>
      <trkpt lat="43.79164" lon="1.62587">
        <ele>171.360326</ele>
        <time>2022-05-13T14:49:36.123Z</time>
      </trkpt>
      <trkpt lat="43.79154" lon="1.6259">
        <ele>171.292986</ele>
        <time>2022-05-13T14:49:38.118Z</time>
      </trkpt>
      <trkpt lat="43.79145" lon="1.62596">
        <ele>171.224196</ele>
        <time>2022-05-13T14:49:40.126Z</time>
      </trkpt>
      <trkpt lat="43.79136" lon="1.62602">
        <ele>171.182806</ele>
        <time>2022-05-13T14:49:42.135Z</time>
      </trkpt>
      <trkpt lat="43.79127" lon="1.62607">
        <ele>171.184286</ele>
        <time>2022-05-13T14:49:44.149Z</time>
      </trkpt>
      <trkpt lat="43.79118" lon="1.62613">
        <ele>171.185766</ele>
        <time>2022-05-13T14:49:46.131Z</time>
      </trkpt>
      <trkpt lat="43.79108" lon="1.6262">
        <ele>171.187286</ele>
        <time>2022-05-13T14:49:48.132Z</time>
      </trkpt>
      <trkpt lat="43.79099" lon="1.62626">
        <ele>171.188863</ele>
        <time>2022-05-13T14:49:50.133Z</time>
      </trkpt>
      <trkpt lat="43.7909" lon="1.62633">
        <ele>171.190457</ele>
        <time>2022-05-13T14:49:52.138Z</time>
      </trkpt>
      <trkpt lat="43.7908" lon="1.62641">
        <ele>171.192062</ele>
        <time>2022-05-13T14:49:54.138Z</time>
      </trkpt>
      <trkpt lat="43.7907" lon="1.62647">
        <ele>171.193672</ele>
        <time>2022-05-13T14:49:56.132Z</time>
      </trkpt>
      <trkpt lat="43.7906" lon="1.62654">
        <ele>171.195301</ele>
        <time>2022-05-13T14:49:58.115Z</time>
      </trkpt>
      <trkpt lat="43.79051" lon="1.62661">
        <ele>171.196958</ele>
        <time>2022-05-13T14:50:00.128Z</time>
      </trkpt>
      <trkpt lat="43.7904" lon="1.62668">
        <ele>171.198636</ele>
        <time>2022-05-13T14:50:02.132Z</time>
      </trkpt>
      <trkpt lat="43.7903" lon="1.62675">
        <ele>171.200291</ele>
        <time>2022-05-13T14:50:04.115Z</time>
      </trkpt>
      <trkpt lat="43.7902" lon="1.62682">
        <ele>171.201986</ele>
        <time>2022-05-13T14:50:06.121Z</time>
      </trkpt>
      <trkpt lat="43.79009" lon="1.62688">
        <ele>171.20375</ele>
        <time>2022-05-13T14:50:08.111Z</time>
      </trkpt>
      <trkpt lat="43.78997" lon="1.62692">
        <ele>171.205562</ele>
        <time>2022-05-13T14:50:10.114Z</time>
      </trkpt>
      <trkpt lat="43.78985" lon="1.62695">
        <ele>171.207407</ele>
        <time>2022-05-13T14:50:12.125Z</time>
      </trkpt>
      <trkpt lat="43.78972" lon="1.62695">
        <ele>171.207128</ele>
        <time>2022-05-13T14:50:14.129Z</time>
      </trkpt>
      <trkpt lat="43.7896" lon="1.62694">
        <ele>171.198973</ele>
        <time>2022-05-13T14:50:16.117Z</time>
      </trkpt>
      <trkpt lat="43.78948" lon="1.62692">
        <ele>171.190951</ele>
        <time>2022-05-13T14:50:18.128Z</time>
      </trkpt>
      <trkpt lat="43.78935" lon="1.6269">
        <ele>171.182832</ele>
        <time>2022-05-13T14:50:20.129Z</time>
      </trkpt>
      <trkpt lat="43.78923" lon="1.62686">
        <ele>171.174727</ele>
        <time>2022-05-13T14:50:22.129Z</time>
      </trkpt>
      <trkpt lat="43.78911" lon="1.62683">
        <ele>171.166841</ele>
        <time>2022-05-13T14:50:24.117Z</time>
      </trkpt>
      <trkpt lat="43.789" lon="1.6268">
        <ele>171.159138</ele>
        <time>2022-05-13T14:50:26.112Z</time>
      </trkpt>
      <trkpt lat="43.78888" lon="1.62677">
        <ele>171.151773</ele>
        <time>2022-05-13T14:50:28.120Z</time>
      </trkpt>
      <trkpt lat="43.78878" lon="1.62675">
        <ele>171.144746</ele>
        <time>2022-05-13T14:50:30.119Z</time>
      </trkpt>
      <trkpt lat="43.78867" lon="1.62674">
        <ele>171.137757</ele>
        <time>2022-05-13T14:50:32.113Z</time>
      </trkpt>
      <trkpt lat="43.78856" lon="1.62675">
        <ele>171.13068</ele>
        <time>2022-05-13T14:50:34.106Z</time>
      </trkpt>
      <trkpt lat="43.78846" lon="1.62679">
        <ele>171.123379</ele>
        <time>2022-05-13T14:50:36.115Z</time>
      </trkpt>
      <trkpt lat="43.78835" lon="1.62686">
        <ele>171.116038</ele>
        <time>2022-05-13T14:50:38.126Z</time>
      </trkpt>
      <trkpt lat="43.78825" lon="1.62692">
        <ele>171.108697</ele>
        <time>2022-05-13T14:50:40.115Z</time>
      </trkpt>
      <trkpt lat="43.78815" lon="1.62699">
        <ele>171.101337</ele>
        <time>2022-05-13T14:50:42.128Z</time>
      </trkpt>
      <trkpt lat="43.78805" lon="1.62705">
        <ele>171.094076</ele>
        <time>2022-05-13T14:50:44.112Z</time>
      </trkpt>
      <trkpt lat="43.78795" lon="1.62712">
        <ele>171.076718</ele>
        <time>2022-05-13T14:50:46.119Z</time>
      </trkpt>
      <trkpt lat="43.78785" lon="1.62719">
        <ele>171.054263</ele>
        <time>2022-05-13T14:50:48.124Z</time>
      </trkpt>
      <trkpt lat="43.78775" lon="1.62726">
        <ele>171.032235</ele>
        <time>2022-05-13T14:50:50.124Z</time>
      </trkpt>
      <trkpt lat="43.78766" lon="1.62733">
        <ele>171.010719</ele>
        <time>2022-05-13T14:50:52.132Z</time>
      </trkpt>
      <trkpt lat="43.78757" lon="1.6274">
        <ele>170.98952</ele>
        <time>2022-05-13T14:50:54.146Z</time>
      </trkpt>
      <trkpt lat="43.78748" lon="1.62747">
        <ele>170.968585</ele>
        <time>2022-05-13T14:50:56.132Z</time>
      </trkpt>
      <trkpt lat="43.78739" lon="1.62755">
        <ele>170.947757</ele>
        <time>2022-05-13T14:50:58.117Z</time>
      </trkpt>
      <trkpt lat="43.78731" lon="1.62763">
        <ele>170.926265</ele>
        <time>2022-05-13T14:51:00.123Z</time>
      </trkpt>
      <trkpt lat="43.78721" lon="1.62772">
        <ele>170.904026</ele>
        <time>2022-05-13T14:51:02.118Z</time>
      </trkpt>
      <trkpt lat="43.78712" lon="1.62781">
        <ele>170.880862</ele>
        <time>2022-05-13T14:51:04.128Z</time>
      </trkpt>
      <trkpt lat="43.78703" lon="1.62791">
        <ele>170.857524</ele>
        <time>2022-05-13T14:51:06.127Z</time>
      </trkpt>
      <trkpt lat="43.78694" lon="1.62801">
        <ele>170.834023</ele>
        <time>2022-05-13T14:51:08.119Z</time>
      </trkpt>
      <trkpt lat="43.78684" lon="1.62811">
        <ele>170.809919</ele>
        <time>2022-05-13T14:51:10.117Z</time>
      </trkpt>
      <trkpt lat="43.78675" lon="1.62821">
        <ele>170.785542</ele>
        <time>2022-05-13T14:51:12.121Z</time>
      </trkpt>
      <trkpt lat="43.78666" lon="1.62831">
        <ele>170.761507</ele>
        <time>2022-05-13T14:51:14.114Z</time>
      </trkpt>
      <trkpt lat="43.78656" lon="1.62842">
        <ele>170.737446</ele>
        <time>2022-05-13T14:51:16.143Z</time>
      </trkpt>
      <trkpt lat="43.78647" lon="1.62852">
        <ele>170.72048</ele>
        <time>2022-05-13T14:51:18.122Z</time>
      </trkpt>
      <trkpt lat="43.78637" lon="1.62862">
        <ele>170.708587</ele>
        <time>2022-05-13T14:51:20.122Z</time>
      </trkpt>
      <trkpt lat="43.78628" lon="1.62872">
        <ele>170.696649</ele>
        <time>2022-05-13T14:51:22.128Z</time>
      </trkpt>
      <trkpt lat="43.78618" lon="1.62883">
        <ele>170.684504</ele>
        <time>2022-05-13T14:51:24.128Z</time>
      </trkpt>
      <trkpt lat="43.78609" lon="1.62894">
        <ele>170.672812</ele>
        <time>2022-05-13T14:51:26.132Z</time>
      </trkpt>
      <trkpt lat="43.786" lon="1.62904">
        <ele>170.661269</ele>
        <time>2022-05-13T14:51:28.138Z</time>
      </trkpt>
      <trkpt lat="43.78591" lon="1.62914">
        <ele>170.650056</ele>
        <time>2022-05-13T14:51:30.135Z</time>
      </trkpt>
      <trkpt lat="43.78582" lon="1.62924">
        <ele>170.638892</ele>
        <time>2022-05-13T14:51:32.122Z</time>
      </trkpt>
      <trkpt lat="43.78573" lon="1.62934">
        <ele>170.627953</ele>
        <time>2022-05-13T14:51:34.115Z</time>
      </trkpt>
      <trkpt lat="43.78565" lon="1.62944">
        <ele>170.616984</ele>
        <time>2022-05-13T14:51:36.105Z</time>
      </trkpt>
      <trkpt lat="43.78557" lon="1.62954">
        <ele>170.606069</ele>
        <time>2022-05-13T14:51:38.132Z</time>
      </trkpt>
      <trkpt lat="43.78548" lon="1.62964">
        <ele>170.595145</ele>
        <time>2022-05-13T14:51:40.118Z</time>
      </trkpt>
      <trkpt lat="43.7854" lon="1.62975">
        <ele>170.584393</ele>
        <time>2022-05-13T14:51:42.117Z</time>
      </trkpt>
      <trkpt lat="43.78532" lon="1.62985">
        <ele>170.573598</ele>
        <time>2022-05-13T14:51:44.124Z</time>
      </trkpt>
      <trkpt lat="43.78525" lon="1.62996">
        <ele>170.562795</ele>
        <time>2022-05-13T14:51:46.146Z</time>
      </trkpt>
      <trkpt lat="43.78517" lon="1.63007">
        <ele>170.551902</ele>
        <time>2022-05-13T14:51:48.139Z</time>
      </trkpt>
      <trkpt lat="43.78509" lon="1.63018">
        <ele>170.555021</ele>
        <time>2022-05-13T14:51:50.148Z</time>
      </trkpt>
      <trkpt lat="43.78501" lon="1.63029">
        <ele>170.559462</ele>
        <time>2022-05-13T14:51:52.125Z</time>
      </trkpt>
      <trkpt lat="43.78493" lon="1.6304">
        <ele>170.563903</ele>
        <time>2022-05-13T14:51:54.134Z</time>
      </trkpt>
      <trkpt lat="43.78485" lon="1.63051">
        <ele>170.568254</ele>
        <time>2022-05-13T14:51:56.131Z</time>
      </trkpt>
      <trkpt lat="43.78478" lon="1.63062">
        <ele>170.572619</ele>
        <time>2022-05-13T14:51:58.127Z</time>
      </trkpt>
      <trkpt lat="43.7847" lon="1.63073">
        <ele>170.576963</ele>
        <time>2022-05-13T14:52:00.139Z</time>
      </trkpt>
      <trkpt lat="43.78462" lon="1.63084">
        <ele>170.581356</ele>
        <time>2022-05-13T14:52:02.146Z</time>
      </trkpt>
      <trkpt lat="43.78454" lon="1.63095">
        <ele>170.58588</ele>
        <time>2022-05-13T14:52:04.156Z</time>
      </trkpt>
      <trkpt lat="43.78446" lon="1.63106">
        <ele>170.590466</ele>
        <time>2022-05-13T14:52:06.144Z</time>
      </trkpt>
      <trkpt lat="43.78438" lon="1.63118">
        <ele>170.595052</ele>
        <time>2022-05-13T14:52:08.148Z</time>
      </trkpt>
      <trkpt lat="43.78431" lon="1.63129">
        <ele>170.599597</ele>
        <time>2022-05-13T14:52:10.156Z</time>
      </trkpt>
      <trkpt lat="43.78423" lon="1.63141">
        <ele>170.604072</ele>
        <time>2022-05-13T14:52:12.139Z</time>
      </trkpt>
      <trkpt lat="43.78415" lon="1.63152">
        <ele>170.608548</ele>
        <time>2022-05-13T14:52:14.153Z</time>
      </trkpt>
      <trkpt lat="43.78408" lon="1.63164">
        <ele>170.613045</ele>
        <time>2022-05-13T14:52:16.145Z</time>
      </trkpt>
      <trkpt lat="43.784" lon="1.63175">
        <ele>170.617547</ele>
        <time>2022-05-13T14:52:18.133Z</time>
      </trkpt>
      <trkpt lat="43.78392" lon="1.63187">
        <ele>170.622044</ele>
        <time>2022-05-13T14:52:20.134Z</time>
      </trkpt>
      <trkpt lat="43.78384" lon="1.63198">
        <ele>170.617476</ele>
        <time>2022-05-13T14:52:22.134Z</time>
      </trkpt>
      <trkpt lat="43.78377" lon="1.6321">
        <ele>170.612197</ele>
        <time>2022-05-13T14:52:24.150Z</time>
      </trkpt>
      <trkpt lat="43.7837" lon="1.63221">
        <ele>170.606993</ele>
        <time>2022-05-13T14:52:26.154Z</time>
      </trkpt>
      <trkpt lat="43.78362" lon="1.63232">
        <ele>170.601764</ele>
        <time>2022-05-13T14:52:28.153Z</time>
      </trkpt>
      <trkpt lat="43.78355" lon="1.63243">
        <ele>170.596561</ele>
        <time>2022-05-13T14:52:30.145Z</time>
      </trkpt>
      <trkpt lat="43.78347" lon="1.63254">
        <ele>170.591375</ele>
        <time>2022-05-13T14:52:32.139Z</time>
      </trkpt>
      <trkpt lat="43.7834" lon="1.63265">
        <ele>170.586222</ele>
        <time>2022-05-13T14:52:34.148Z</time>
      </trkpt>
      <trkpt lat="43.78333" lon="1.63277">
        <ele>170.581004</ele>
        <time>2022-05-13T14:52:36.144Z</time>
      </trkpt>
      <trkpt lat="43.78326" lon="1.63289">
        <ele>170.575713</ele>
        <time>2022-05-13T14:52:38.137Z</time>
      </trkpt>
      <trkpt lat="43.78319" lon="1.63301">
        <ele>170.570479</ele>
        <time>2022-05-13T14:52:40.161Z</time>
      </trkpt>
      <trkpt lat="43.78312" lon="1.63313">
        <ele>170.565058</ele>
        <time>2022-05-13T14:52:42.139Z</time>
      </trkpt>
      <trkpt lat="43.78305" lon="1.63326">
        <ele>170.559636</ele>
        <time>2022-05-13T14:52:44.150Z</time>
      </trkpt>
      <trkpt lat="43.78298" lon="1.63339">
        <ele>170.554078</ele>
        <time>2022-05-13T14:52:46.140Z</time>
      </trkpt>
      <trkpt lat="43.78291" lon="1.63352">
        <ele>170.548603</ele>
        <time>2022-05-13T14:52:48.153Z</time>
      </trkpt>
      <trkpt lat="43.78284" lon="1.63364">
        <ele>170.543296</ele>
        <time>2022-05-13T14:52:50.151Z</time>
      </trkpt>
      <trkpt lat="43.78278" lon="1.63377">
        <ele>170.537904</ele>
        <time>2022-05-13T14:52:52.140Z</time>
      </trkpt>
      <trkpt lat="43.78271" lon="1.6339">
        <ele>170.574464</ele>
        <time>2022-05-13T14:52:54.148Z</time>
      </trkpt>
      <trkpt lat="43.78264" lon="1.63402">
        <ele>170.619289</ele>
        <time>2022-05-13T14:52:56.150Z</time>
      </trkpt>
      <trkpt lat="43.78258" lon="1.63415">
        <ele>170.665043</ele>
        <time>2022-05-13T14:52:58.135Z</time>
      </trkpt>
      <trkpt lat="43.78251" lon="1.63428">
        <ele>170.710335</ele>
        <time>2022-05-13T14:53:00.155Z</time>
      </trkpt>
      <trkpt lat="43.78245" lon="1.63441">
        <ele>170.755626</ele>
        <time>2022-05-13T14:53:02.147Z</time>
      </trkpt>
      <trkpt lat="43.78238" lon="1.63454">
        <ele>170.800689</ele>
        <time>2022-05-13T14:53:04.140Z</time>
      </trkpt>
      <trkpt lat="43.78232" lon="1.63467">
        <ele>170.84556</ele>
        <time>2022-05-13T14:53:06.145Z</time>
      </trkpt>
      <trkpt lat="43.78225" lon="1.63479">
        <ele>170.88946</ele>
        <time>2022-05-13T14:53:08.159Z</time>
      </trkpt>
      <trkpt lat="43.78218" lon="1.63492">
        <ele>170.933612</ele>
        <time>2022-05-13T14:53:10.171Z</time>
      </trkpt>
      <trkpt lat="43.78212" lon="1.63504">
        <ele>170.977046</ele>
        <time>2022-05-13T14:53:12.137Z</time>
      </trkpt>
      <trkpt lat="43.78206" lon="1.63516">
        <ele>171.019317</ele>
        <time>2022-05-13T14:53:14.146Z</time>
      </trkpt>
      <trkpt lat="43.782" lon="1.63527">
        <ele>171.05973</ele>
        <time>2022-05-13T14:53:16.156Z</time>
      </trkpt>
      <trkpt lat="43.78195" lon="1.63539">
        <ele>171.098331</ele>
        <time>2022-05-13T14:53:18.160Z</time>
      </trkpt>
      <trkpt lat="43.78187" lon="1.63553">
        <ele>171.150138</ele>
        <time>2022-05-13T14:53:21.158Z</time>
      </trkpt>
      <trkpt lat="43.78175" lon="1.63555">
        <ele>171.197524</ele>
        <time>2022-05-13T14:53:24.149Z</time>
      </trkpt>
      <trkpt lat="43.78164" lon="1.63546">
        <ele>171.248215</ele>
        <time>2022-05-13T14:53:27.160Z</time>
      </trkpt>
      <trkpt lat="43.78154" lon="1.63537">
        <ele>171.331921</ele>
        <time>2022-05-13T14:53:30.142Z</time>
      </trkpt>
      <trkpt lat="43.78147" lon="1.63529">
        <ele>171.39814</ele>
        <time>2022-05-13T14:53:34.156Z</time>
      </trkpt>
      <trkpt lat="43.78137" lon="1.6352">
        <ele>171.480688</ele>
        <time>2022-05-13T14:53:38.148Z</time>
      </trkpt>
      <trkpt lat="43.78128" lon="1.63513">
        <ele>171.557141</ele>
        <time>2022-05-13T14:53:41.142Z</time>
      </trkpt>
      <trkpt lat="43.78118" lon="1.63504">
        <ele>171.645161</ele>
        <time>2022-05-13T14:53:44.153Z</time>
      </trkpt>
      <trkpt lat="43.78106" lon="1.63495">
        <ele>171.738835</ele>
        <time>2022-05-13T14:53:47.144Z</time>
      </trkpt>
      <trkpt lat="43.78099" lon="1.63488">
        <ele>171.805625</ele>
        <time>2022-05-13T14:53:49.139Z</time>
      </trkpt>
      <trkpt lat="43.7809" lon="1.63482">
        <ele>171.874925</ele>
        <time>2022-05-13T14:53:51.137Z</time>
      </trkpt>
      <trkpt lat="43.78082" lon="1.63475">
        <ele>171.945373</ele>
        <time>2022-05-13T14:53:53.133Z</time>
      </trkpt>
      <trkpt lat="43.78073" lon="1.63468">
        <ele>172.016438</ele>
        <time>2022-05-13T14:53:55.133Z</time>
      </trkpt>
      <trkpt lat="43.78065" lon="1.6346">
        <ele>172.090964</ele>
        <time>2022-05-13T14:53:57.135Z</time>
      </trkpt>
      <trkpt lat="43.78056" lon="1.63452">
        <ele>172.167535</ele>
        <time>2022-05-13T14:53:59.140Z</time>
      </trkpt>
      <trkpt lat="43.78046" lon="1.63444">
        <ele>172.244515</ele>
        <time>2022-05-13T14:54:01.133Z</time>
      </trkpt>
      <trkpt lat="43.78038" lon="1.63437">
        <ele>172.318497</ele>
        <time>2022-05-13T14:54:03.145Z</time>
      </trkpt>
      <trkpt lat="43.78029" lon="1.6343">
        <ele>172.388268</ele>
        <time>2022-05-13T14:54:05.136Z</time>
      </trkpt>
      <trkpt lat="43.78022" lon="1.63422">
        <ele>172.453604</ele>
        <time>2022-05-13T14:54:07.146Z</time>
      </trkpt>
      <trkpt lat="43.78014" lon="1.63414">
        <ele>172.52657</ele>
        <time>2022-05-13T14:54:10.143Z</time>
      </trkpt>
      <trkpt lat="43.78003" lon="1.63408">
        <ele>172.597251</ele>
        <time>2022-05-13T14:54:15.132Z</time>
      </trkpt>
      <trkpt lat="43.78005" lon="1.63393">
        <ele>172.660889</ele>
        <time>2022-05-13T14:54:19.126Z</time>
      </trkpt>
      <trkpt lat="43.78011" lon="1.63381">
        <ele>172.723661</ele>
        <time>2022-05-13T14:54:22.136Z</time>
      </trkpt>
      <trkpt lat="43.78017" lon="1.63367">
        <ele>172.791131</ele>
        <time>2022-05-13T14:54:25.137Z</time>
      </trkpt>
      <trkpt lat="43.78022" lon="1.63352">
        <ele>172.864971</ele>
        <time>2022-05-13T14:54:28.129Z</time>
      </trkpt>
      <trkpt lat="43.78026" lon="1.63336">
        <ele>172.93638</ele>
        <time>2022-05-13T14:54:31.147Z</time>
      </trkpt>
      <trkpt lat="43.78031" lon="1.63324">
        <ele>172.993722</ele>
        <time>2022-05-13T14:54:33.136Z</time>
      </trkpt>
      <trkpt lat="43.78036" lon="1.63313">
        <ele>173.051785</ele>
        <time>2022-05-13T14:54:35.135Z</time>
      </trkpt>
      <trkpt lat="43.78041" lon="1.63302">
        <ele>173.107734</ele>
        <time>2022-05-13T14:54:38.141Z</time>
      </trkpt>
      <trkpt lat="43.78047" lon="1.63289">
        <ele>173.170112</ele>
        <time>2022-05-13T14:54:42.140Z</time>
      </trkpt>
      <trkpt lat="43.78052" lon="1.63277">
        <ele>173.227814</ele>
        <time>2022-05-13T14:54:45.139Z</time>
      </trkpt>
      <trkpt lat="43.78058" lon="1.63264">
        <ele>173.294865</ele>
        <time>2022-05-13T14:54:48.155Z</time>
      </trkpt>
      <trkpt lat="43.78063" lon="1.63248">
        <ele>173.368433</ele>
        <time>2022-05-13T14:54:51.145Z</time>
      </trkpt>
      <trkpt lat="43.78069" lon="1.63233">
        <ele>173.439328</ele>
        <time>2022-05-13T14:54:54.144Z</time>
      </trkpt>
      <trkpt lat="43.78072" lon="1.63221">
        <ele>173.495925</ele>
        <time>2022-05-13T14:54:57.142Z</time>
      </trkpt>
      <trkpt lat="43.78076" lon="1.63206">
        <ele>173.563547</ele>
        <time>2022-05-13T14:55:00.140Z</time>
      </trkpt>
      <trkpt lat="43.78067" lon="1.63198">
        <ele>173.566052</ele>
        <time>2022-05-13T14:55:14.135Z</time>
      </trkpt>
      <trkpt lat="43.78062" lon="1.63182">
        <ele>173.453088</ele>
        <time>2022-05-13T14:55:18.139Z</time>
      </trkpt>
      <trkpt lat="43.78055" lon="1.63174">
        <ele>173.367565</ele>
        <time>2022-05-13T14:55:20.137Z</time>
      </trkpt>
      <trkpt lat="43.78048" lon="1.63166">
        <ele>173.283109</ele>
        <time>2022-05-13T14:55:23.133Z</time>
      </trkpt>
      <trkpt lat="43.7804" lon="1.63157">
        <ele>173.187281</ele>
        <time>2022-05-13T14:55:26.139Z</time>
      </trkpt>
      <trkpt lat="43.78033" lon="1.63147">
        <ele>173.092685</ele>
        <time>2022-05-13T14:55:29.142Z</time>
      </trkpt>
      <trkpt lat="43.78032" lon="1.63132">
        <ele>172.991256</ele>
        <time>2022-05-13T14:55:32.133Z</time>
      </trkpt>
      <trkpt lat="43.78039" lon="1.63121">
        <ele>172.89307</ele>
        <time>2022-05-13T14:55:35.139Z</time>
      </trkpt>
      <trkpt lat="43.7805" lon="1.63109">
        <ele>172.764024</ele>
        <time>2022-05-13T14:55:38.172Z</time>
      </trkpt>
      <trkpt lat="43.78058" lon="1.63101">
        <ele>172.670522</ele>
        <time>2022-05-13T14:55:40.164Z</time>
      </trkpt>
      <trkpt lat="43.78066" lon="1.63091">
        <ele>172.57206</ele>
        <time>2022-05-13T14:55:42.161Z</time>
      </trkpt>
      <trkpt lat="43.78073" lon="1.63082">
        <ele>172.477672</ele>
        <time>2022-05-13T14:55:44.146Z</time>
      </trkpt>
      <trkpt lat="43.78083" lon="1.6307">
        <ele>172.362163</ele>
        <time>2022-05-13T14:55:47.138Z</time>
      </trkpt>
      <trkpt lat="43.78087" lon="1.63057">
        <ele>172.268668</ele>
        <time>2022-05-13T14:55:50.134Z</time>
      </trkpt>
      <trkpt lat="43.78079" lon="1.63046">
        <ele>172.166899</ele>
        <time>2022-05-13T14:55:53.149Z</time>
      </trkpt>
      <trkpt lat="43.7807" lon="1.63038">
        <ele>172.068051</ele>
        <time>2022-05-13T14:55:55.148Z</time>
      </trkpt>
      <trkpt lat="43.78061" lon="1.63029">
        <ele>171.963479</ele>
        <time>2022-05-13T14:55:57.139Z</time>
      </trkpt>
      <trkpt lat="43.78052" lon="1.63019">
        <ele>171.898111</ele>
        <time>2022-05-13T14:55:59.148Z</time>
      </trkpt>
      <trkpt lat="43.78042" lon="1.6301">
        <ele>171.848648</ele>
        <time>2022-05-13T14:56:01.151Z</time>
      </trkpt>
      <trkpt lat="43.78032" lon="1.63002">
        <ele>171.798557</ele>
        <time>2022-05-13T14:56:03.153Z</time>
      </trkpt>
      <trkpt lat="43.78022" lon="1.62995">
        <ele>171.747445</ele>
        <time>2022-05-13T14:56:05.144Z</time>
      </trkpt>
      <trkpt lat="43.7801" lon="1.62988">
        <ele>171.693347</ele>
        <time>2022-05-13T14:56:07.138Z</time>
      </trkpt>
      <trkpt lat="43.77999" lon="1.62981">
        <ele>171.639498</ele>
        <time>2022-05-13T14:56:09.146Z</time>
      </trkpt>
      <trkpt lat="43.77987" lon="1.62974">
        <ele>171.585615</ele>
        <time>2022-05-13T14:56:11.136Z</time>
      </trkpt>
      <trkpt lat="43.77976" lon="1.62968">
        <ele>171.532284</ele>
        <time>2022-05-13T14:56:13.144Z</time>
      </trkpt>
      <trkpt lat="43.77964" lon="1.62963">
        <ele>171.477706</ele>
        <time>2022-05-13T14:56:15.149Z</time>
      </trkpt>
      <trkpt lat="43.77951" lon="1.62961">
        <ele>171.423312</ele>
        <time>2022-05-13T14:56:17.147Z</time>
      </trkpt>
      <trkpt lat="43.77939" lon="1.62962">
        <ele>171.371263</ele>
        <time>2022-05-13T14:56:19.143Z</time>
      </trkpt>
      <trkpt lat="43.77927" lon="1.62965">
        <ele>171.317912</ele>
        <time>2022-05-13T14:56:21.140Z</time>
      </trkpt>
      <trkpt lat="43.77915" lon="1.62971">
        <ele>171.2632</ele>
        <time>2022-05-13T14:56:23.139Z</time>
      </trkpt>
      <trkpt lat="43.77903" lon="1.62979">
        <ele>171.207273</ele>
        <time>2022-05-13T14:56:25.153Z</time>
      </trkpt>
      <trkpt lat="43.77892" lon="1.62988">
        <ele>171.139612</ele>
        <time>2022-05-13T14:56:27.135Z</time>
      </trkpt>
      <trkpt lat="43.77881" lon="1.62995">
        <ele>171.005215</ele>
        <time>2022-05-13T14:56:29.162Z</time>
      </trkpt>
      <trkpt lat="43.77869" lon="1.62998">
        <ele>170.874808</ele>
        <time>2022-05-13T14:56:31.141Z</time>
      </trkpt>
      <trkpt lat="43.77857" lon="1.62998">
        <ele>170.751451</ele>
        <time>2022-05-13T14:56:33.123Z</time>
      </trkpt>
      <trkpt lat="43.77845" lon="1.62996">
        <ele>170.625178</ele>
        <time>2022-05-13T14:56:35.137Z</time>
      </trkpt>
      <trkpt lat="43.77834" lon="1.62993">
        <ele>170.497253</ele>
        <time>2022-05-13T14:56:37.155Z</time>
      </trkpt>
      <trkpt lat="43.77821" lon="1.6299">
        <ele>170.360369</ele>
        <time>2022-05-13T14:56:39.163Z</time>
      </trkpt>
      <trkpt lat="43.77808" lon="1.62989">
        <ele>170.220707</ele>
        <time>2022-05-13T14:56:41.152Z</time>
      </trkpt>
      <trkpt lat="43.77794" lon="1.62989">
        <ele>170.073751</ele>
        <time>2022-05-13T14:56:43.157Z</time>
      </trkpt>
      <trkpt lat="43.77781" lon="1.62989">
        <ele>169.928867</ele>
        <time>2022-05-13T14:56:45.146Z</time>
      </trkpt>
      <trkpt lat="43.77771" lon="1.62987">
        <ele>169.821658</ele>
        <time>2022-05-13T14:56:47.147Z</time>
      </trkpt>
      <trkpt lat="43.77764" lon="1.62975">
        <ele>169.710367</ele>
        <time>2022-05-13T14:56:51.146Z</time>
      </trkpt>
      <trkpt lat="43.77763" lon="1.62963">
        <ele>169.609934</ele>
        <time>2022-05-13T14:56:55.157Z</time>
      </trkpt>
      <trkpt lat="43.77767" lon="1.62949">
        <ele>169.494821</ele>
        <time>2022-05-13T14:57:01.152Z</time>
      </trkpt>
      <trkpt lat="43.77758" lon="1.6296">
        <ele>169.370296</ele>
        <time>2022-05-13T14:57:09.135Z</time>
      </trkpt>
      <trkpt lat="43.77749" lon="1.62968">
        <ele>169.249922</ele>
        <time>2022-05-13T14:57:12.148Z</time>
      </trkpt>
      <trkpt lat="43.77738" lon="1.62973">
        <ele>169.334077</ele>
        <time>2022-05-13T14:57:16.149Z</time>
      </trkpt>
      <trkpt lat="43.77749" lon="1.62973">
        <ele>169.455642</ele>
        <time>2022-05-13T14:57:23.152Z</time>
      </trkpt>
      <trkpt lat="43.77757" lon="1.62964">
        <ele>169.560165</ele>
        <time>2022-05-13T14:57:25.142Z</time>
      </trkpt>
      <trkpt lat="43.77763" lon="1.62954">
        <ele>169.665164</ele>
        <time>2022-05-13T14:57:27.138Z</time>
      </trkpt>
      <trkpt lat="43.77765" lon="1.62941">
        <ele>169.772673</ele>
        <time>2022-05-13T14:57:29.139Z</time>
      </trkpt>
      <trkpt lat="43.77771" lon="1.62927">
        <ele>169.894298</ele>
        <time>2022-05-13T14:57:31.125Z</time>
      </trkpt>
      <trkpt lat="43.77776" lon="1.62913">
        <ele>170.018368</ele>
        <time>2022-05-13T14:57:33.146Z</time>
      </trkpt>
      <trkpt lat="43.77781" lon="1.62899">
        <ele>170.141248</ele>
        <time>2022-05-13T14:57:35.171Z</time>
      </trkpt>
      <trkpt lat="43.77786" lon="1.62885">
        <ele>170.261068</ele>
        <time>2022-05-13T14:57:37.141Z</time>
      </trkpt>
      <trkpt lat="43.7779" lon="1.62871">
        <ele>170.380718</ele>
        <time>2022-05-13T14:57:39.135Z</time>
      </trkpt>
      <trkpt lat="43.77794" lon="1.62856">
        <ele>170.503441</ele>
        <time>2022-05-13T14:57:41.167Z</time>
      </trkpt>
      <trkpt lat="43.77798" lon="1.62842">
        <ele>170.627417</ele>
        <time>2022-05-13T14:57:43.145Z</time>
      </trkpt>
      <trkpt lat="43.77852" lon="1.62683">
        <ele>171.016642</ele>
        <time>2022-05-13T14:58:05.147Z</time>
      </trkpt>
      <trkpt lat="43.77857" lon="1.62667">
        <ele>170.990109</ele>
        <time>2022-05-13T14:58:07.139Z</time>
      </trkpt>
      <trkpt lat="43.77861" lon="1.62652">
        <ele>170.96343</ele>
        <time>2022-05-13T14:58:09.142Z</time>
      </trkpt>
      <trkpt lat="43.77866" lon="1.62636">
        <ele>170.93644</ele>
        <time>2022-05-13T14:58:11.146Z</time>
      </trkpt>
      <trkpt lat="43.7787" lon="1.6262">
        <ele>170.909623</ele>
        <time>2022-05-13T14:58:13.147Z</time>
      </trkpt>
      <trkpt lat="43.77874" lon="1.62605">
        <ele>170.883692</ele>
        <time>2022-05-13T14:58:15.169Z</time>
      </trkpt>
      <trkpt lat="43.77878" lon="1.62589">
        <ele>170.857198</ele>
        <time>2022-05-13T14:58:17.146Z</time>
      </trkpt>
      <trkpt lat="43.77881" lon="1.62573">
        <ele>170.830823</ele>
        <time>2022-05-13T14:58:19.163Z</time>
      </trkpt>
      <trkpt lat="43.77884" lon="1.62557">
        <ele>170.804715</ele>
        <time>2022-05-13T14:58:21.150Z</time>
      </trkpt>
      <trkpt lat="43.77887" lon="1.6254">
        <ele>170.777701</ele>
        <time>2022-05-13T14:58:23.179Z</time>
      </trkpt>
      <trkpt lat="43.77889" lon="1.62524">
        <ele>170.749513</ele>
        <time>2022-05-13T14:58:25.156Z</time>
      </trkpt>
      <trkpt lat="43.77892" lon="1.62508">
        <ele>170.721302</ele>
        <time>2022-05-13T14:58:27.142Z</time>
      </trkpt>
      <trkpt lat="43.77894" lon="1.62491">
        <ele>170.692342</ele>
        <time>2022-05-13T14:58:29.155Z</time>
      </trkpt>
      <trkpt lat="43.77895" lon="1.62474">
        <ele>170.663191</ele>
        <time>2022-05-13T14:58:31.157Z</time>
      </trkpt>
      <trkpt lat="43.77897" lon="1.62457">
        <ele>170.633932</ele>
        <time>2022-05-13T14:58:33.136Z</time>
      </trkpt>
      <trkpt lat="43.77898" lon="1.6244">
        <ele>170.604475</ele>
        <time>2022-05-13T14:58:35.157Z</time>
      </trkpt>
      <trkpt lat="43.779" lon="1.62423">
        <ele>170.575122</ele>
        <time>2022-05-13T14:58:37.157Z</time>
      </trkpt>
      <trkpt lat="43.77902" lon="1.62406">
        <ele>170.545834</ele>
        <time>2022-05-13T14:58:39.146Z</time>
      </trkpt>
      <trkpt lat="43.77903" lon="1.62388">
        <ele>170.516238</ele>
        <time>2022-05-13T14:58:41.149Z</time>
      </trkpt>
      <trkpt lat="43.77905" lon="1.62371">
        <ele>170.486918</ele>
        <time>2022-05-13T14:58:43.156Z</time>
      </trkpt>
      <trkpt lat="43.77907" lon="1.62354">
        <ele>170.457935</ele>
        <time>2022-05-13T14:58:45.162Z</time>
      </trkpt>
      <trkpt lat="43.77908" lon="1.62337">
        <ele>170.428984</ele>
        <time>2022-05-13T14:58:47.150Z</time>
      </trkpt>
      <trkpt lat="43.7791" lon="1.6232">
        <ele>170.399864</ele>
        <time>2022-05-13T14:58:49.161Z</time>
      </trkpt>
      <trkpt lat="43.77911" lon="1.62303">
        <ele>170.370295</ele>
        <time>2022-05-13T14:58:51.151Z</time>
      </trkpt>
      <trkpt lat="43.77913" lon="1.62286">
        <ele>170.393244</ele>
        <time>2022-05-13T14:58:53.155Z</time>
      </trkpt>
      <trkpt lat="43.77913" lon="1.62269">
        <ele>170.424806</ele>
        <time>2022-05-13T14:58:55.152Z</time>
      </trkpt>
      <trkpt lat="43.77912" lon="1.62252">
        <ele>170.456436</ele>
        <time>2022-05-13T14:58:57.146Z</time>
      </trkpt>
      <trkpt lat="43.77909" lon="1.62236">
        <ele>170.488146</ele>
        <time>2022-05-13T14:58:59.151Z</time>
      </trkpt>
      <trkpt lat="43.77905" lon="1.6222">
        <ele>170.520012</ele>
        <time>2022-05-13T14:59:01.154Z</time>
      </trkpt>
      <trkpt lat="43.77901" lon="1.62204">
        <ele>170.55144</ele>
        <time>2022-05-13T14:59:03.145Z</time>
      </trkpt>
      <trkpt lat="43.77898" lon="1.62188">
        <ele>170.581932</ele>
        <time>2022-05-13T14:59:05.159Z</time>
      </trkpt>
      <trkpt lat="43.77894" lon="1.62173">
        <ele>170.612348</ele>
        <time>2022-05-13T14:59:07.136Z</time>
      </trkpt>
      <trkpt lat="43.77891" lon="1.62157">
        <ele>170.642729</ele>
        <time>2022-05-13T14:59:09.159Z</time>
      </trkpt>
      <trkpt lat="43.77889" lon="1.62141">
        <ele>170.673285</ele>
        <time>2022-05-13T14:59:11.151Z</time>
      </trkpt>
      <trkpt lat="43.77886" lon="1.62125">
        <ele>170.704023</ele>
        <time>2022-05-13T14:59:13.151Z</time>
      </trkpt>
      <trkpt lat="43.77883" lon="1.62109">
        <ele>170.734996</ele>
        <time>2022-05-13T14:59:15.143Z</time>
      </trkpt>
      <trkpt lat="43.7788" lon="1.62093">
        <ele>170.765907</ele>
        <time>2022-05-13T14:59:17.150Z</time>
      </trkpt>
      <trkpt lat="43.77877" lon="1.62077">
        <ele>170.796699</ele>
        <time>2022-05-13T14:59:19.153Z</time>
      </trkpt>
      <trkpt lat="43.77875" lon="1.62061">
        <ele>170.827187</ele>
        <time>2022-05-13T14:59:21.162Z</time>
      </trkpt>
      <trkpt lat="43.77872" lon="1.62045">
        <ele>170.916915</ele>
        <time>2022-05-13T14:59:23.161Z</time>
      </trkpt>
      <trkpt lat="43.77869" lon="1.62029">
        <ele>171.016271</ele>
        <time>2022-05-13T14:59:25.150Z</time>
      </trkpt>
      <trkpt lat="43.77866" lon="1.62012">
        <ele>171.115643</ele>
        <time>2022-05-13T14:59:27.149Z</time>
      </trkpt>
      <trkpt lat="43.77863" lon="1.61996">
        <ele>171.2147</ele>
        <time>2022-05-13T14:59:29.153Z</time>
      </trkpt>
      <trkpt lat="43.7786" lon="1.6198">
        <ele>171.313105</ele>
        <time>2022-05-13T14:59:31.152Z</time>
      </trkpt>
      <trkpt lat="43.77856" lon="1.61964">
        <ele>171.412301</ele>
        <time>2022-05-13T14:59:33.154Z</time>
      </trkpt>
      <trkpt lat="43.77852" lon="1.61949">
        <ele>171.510576</ele>
        <time>2022-05-13T14:59:35.161Z</time>
      </trkpt>
      <trkpt lat="43.77848" lon="1.61933">
        <ele>171.608003</ele>
        <time>2022-05-13T14:59:37.167Z</time>
      </trkpt>
      <trkpt lat="43.77844" lon="1.61918">
        <ele>171.706557</ele>
        <time>2022-05-13T14:59:39.153Z</time>
      </trkpt>
      <trkpt lat="43.7784" lon="1.61902">
        <ele>171.804544</ele>
        <time>2022-05-13T14:59:41.151Z</time>
      </trkpt>
      <trkpt lat="43.77836" lon="1.61887">
        <ele>171.902106</ele>
        <time>2022-05-13T14:59:43.146Z</time>
      </trkpt>
      <trkpt lat="43.77831" lon="1.61873">
        <ele>171.997703</ele>
        <time>2022-05-13T14:59:45.154Z</time>
      </trkpt>
      <trkpt lat="43.77827" lon="1.61858">
        <ele>172.090958</ele>
        <time>2022-05-13T14:59:47.157Z</time>
      </trkpt>
      <trkpt lat="43.77823" lon="1.61843">
        <ele>172.183362</ele>
        <time>2022-05-13T14:59:49.159Z</time>
      </trkpt>
      <trkpt lat="43.77819" lon="1.61829">
        <ele>172.274161</ele>
        <time>2022-05-13T14:59:51.141Z</time>
      </trkpt>
      <trkpt lat="43.77814" lon="1.61815">
        <ele>172.430759</ele>
        <time>2022-05-13T14:59:53.147Z</time>
      </trkpt>
      <trkpt lat="43.77811" lon="1.61801">
        <ele>172.637705</ele>
        <time>2022-05-13T14:59:55.163Z</time>
      </trkpt>
      <trkpt lat="43.77809" lon="1.61785">
        <ele>172.846624</ele>
        <time>2022-05-13T14:59:57.161Z</time>
      </trkpt>
      <trkpt lat="43.77812" lon="1.61771">
        <ele>173.048662</ele>
        <time>2022-05-13T14:59:59.155Z</time>
      </trkpt>
      <trkpt lat="43.77817" lon="1.61757">
        <ele>173.257417</ele>
        <time>2022-05-13T15:00:01.152Z</time>
      </trkpt>
      <trkpt lat="43.77823" lon="1.61744">
        <ele>173.463913</ele>
        <time>2022-05-13T15:00:03.155Z</time>
      </trkpt>
      <trkpt lat="43.77829" lon="1.6173">
        <ele>173.67726</ele>
        <time>2022-05-13T15:00:05.159Z</time>
      </trkpt>
      <trkpt lat="43.77834" lon="1.61715">
        <ele>173.894726</ele>
        <time>2022-05-13T15:00:07.162Z</time>
      </trkpt>
      <trkpt lat="43.77837" lon="1.617">
        <ele>174.110105</ele>
        <time>2022-05-13T15:00:09.147Z</time>
      </trkpt>
      <trkpt lat="43.77839" lon="1.61684">
        <ele>174.325314</ele>
        <time>2022-05-13T15:00:11.146Z</time>
      </trkpt>
      <trkpt lat="43.77841" lon="1.61668">
        <ele>174.540272</ele>
        <time>2022-05-13T15:00:13.157Z</time>
      </trkpt>
      <trkpt lat="43.77841" lon="1.61652">
        <ele>174.758282</ele>
        <time>2022-05-13T15:00:15.160Z</time>
      </trkpt>
      <trkpt lat="43.7784" lon="1.61635">
        <ele>174.980366</ele>
        <time>2022-05-13T15:00:17.157Z</time>
      </trkpt>
      <trkpt lat="43.7784" lon="1.61618">
        <ele>175.202874</ele>
        <time>2022-05-13T15:00:19.149Z</time>
      </trkpt>
      <trkpt lat="43.77839" lon="1.61602">
        <ele>175.426602</ele>
        <time>2022-05-13T15:00:21.147Z</time>
      </trkpt>
      <trkpt lat="43.77839" lon="1.61585">
        <ele>175.646648</ele>
        <time>2022-05-13T15:00:23.165Z</time>
      </trkpt>
      <trkpt lat="43.77838" lon="1.61568">
        <ele>175.697774</ele>
        <time>2022-05-13T15:00:25.164Z</time>
      </trkpt>
      <trkpt lat="43.77838" lon="1.61552">
        <ele>175.749787</ele>
        <time>2022-05-13T15:00:27.158Z</time>
      </trkpt>
      <trkpt lat="43.77837" lon="1.61535">
        <ele>175.801787</ele>
        <time>2022-05-13T15:00:29.160Z</time>
      </trkpt>
      <trkpt lat="43.77837" lon="1.61518">
        <ele>175.853788</ele>
        <time>2022-05-13T15:00:31.150Z</time>
      </trkpt>
      <trkpt lat="43.77837" lon="1.61501">
        <ele>175.904894</ele>
        <time>2022-05-13T15:00:33.138Z</time>
      </trkpt>
      <trkpt lat="43.77836" lon="1.61485">
        <ele>175.955985</ele>
        <time>2022-05-13T15:00:35.158Z</time>
      </trkpt>
      <trkpt lat="43.77836" lon="1.61468">
        <ele>176.007075</ele>
        <time>2022-05-13T15:00:37.163Z</time>
      </trkpt>
      <trkpt lat="43.77835" lon="1.61451">
        <ele>176.058781</ele>
        <time>2022-05-13T15:00:39.154Z</time>
      </trkpt>
      <trkpt lat="43.77835" lon="1.61434">
        <ele>176.110194</ele>
        <time>2022-05-13T15:00:41.155Z</time>
      </trkpt>
      <trkpt lat="43.77834" lon="1.61418">
        <ele>176.161707</ele>
        <time>2022-05-13T15:00:43.168Z</time>
      </trkpt>
      <trkpt lat="43.77833" lon="1.61401">
        <ele>176.21414</ele>
        <time>2022-05-13T15:00:45.161Z</time>
      </trkpt>
      <trkpt lat="43.77832" lon="1.61384">
        <ele>176.26621</ele>
        <time>2022-05-13T15:00:47.151Z</time>
      </trkpt>
      <trkpt lat="43.77832" lon="1.61367">
        <ele>176.318817</ele>
        <time>2022-05-13T15:00:49.151Z</time>
      </trkpt>
      <trkpt lat="43.77831" lon="1.6135">
        <ele>176.371143</ele>
        <time>2022-05-13T15:00:51.164Z</time>
      </trkpt>
      <trkpt lat="43.77829" lon="1.61333">
        <ele>176.413089</ele>
        <time>2022-05-13T15:00:53.149Z</time>
      </trkpt>
      <trkpt lat="43.77827" lon="1.61316">
        <ele>176.418199</ele>
        <time>2022-05-13T15:00:55.159Z</time>
      </trkpt>
      <trkpt lat="43.77824" lon="1.613">
        <ele>176.42327</ele>
        <time>2022-05-13T15:00:57.141Z</time>
      </trkpt>
      <trkpt lat="43.7782" lon="1.61284">
        <ele>176.428336</ele>
        <time>2022-05-13T15:00:59.159Z</time>
      </trkpt>
      <trkpt lat="43.77816" lon="1.61267">
        <ele>176.433513</ele>
        <time>2022-05-13T15:01:01.164Z</time>
      </trkpt>
      <trkpt lat="43.77812" lon="1.61251">
        <ele>176.438715</ele>
        <time>2022-05-13T15:01:03.155Z</time>
      </trkpt>
      <trkpt lat="43.77808" lon="1.61235">
        <ele>176.44378</ele>
        <time>2022-05-13T15:01:05.154Z</time>
      </trkpt>
      <trkpt lat="43.77805" lon="1.61219">
        <ele>176.448789</ele>
        <time>2022-05-13T15:01:07.149Z</time>
      </trkpt>
      <trkpt lat="43.77801" lon="1.61203">
        <ele>176.453779</ele>
        <time>2022-05-13T15:01:09.153Z</time>
      </trkpt>
      <trkpt lat="43.77798" lon="1.61188">
        <ele>176.458723</ele>
        <time>2022-05-13T15:01:11.155Z</time>
      </trkpt>
      <trkpt lat="43.77793" lon="1.61172">
        <ele>176.463677</ele>
        <time>2022-05-13T15:01:13.153Z</time>
      </trkpt>
      <trkpt lat="43.77787" lon="1.61158">
        <ele>176.468646</ele>
        <time>2022-05-13T15:01:15.156Z</time>
      </trkpt>
      <trkpt lat="43.7778" lon="1.61145">
        <ele>176.473676</ele>
        <time>2022-05-13T15:01:17.153Z</time>
      </trkpt>
      <trkpt lat="43.77771" lon="1.61134">
        <ele>176.4785</ele>
        <time>2022-05-13T15:01:19.155Z</time>
      </trkpt>
      <trkpt lat="43.77761" lon="1.61126">
        <ele>176.483389</ele>
        <time>2022-05-13T15:01:21.154Z</time>
      </trkpt>
      <trkpt lat="43.77751" lon="1.61118">
        <ele>176.484705</ele>
        <time>2022-05-13T15:01:23.161Z</time>
      </trkpt>
      <trkpt lat="43.7774" lon="1.6111">
        <ele>176.477653</ele>
        <time>2022-05-13T15:01:25.149Z</time>
      </trkpt>
      <trkpt lat="43.7773" lon="1.61102">
        <ele>176.470655</ele>
        <time>2022-05-13T15:01:27.152Z</time>
      </trkpt>
      <trkpt lat="43.7772" lon="1.61093">
        <ele>176.463848</ele>
        <time>2022-05-13T15:01:29.159Z</time>
      </trkpt>
      <trkpt lat="43.77711" lon="1.61085">
        <ele>176.457077</ele>
        <time>2022-05-13T15:01:31.164Z</time>
      </trkpt>
      <trkpt lat="43.77702" lon="1.61076">
        <ele>176.450478</ele>
        <time>2022-05-13T15:01:33.179Z</time>
      </trkpt>
      <trkpt lat="43.77693" lon="1.61068">
        <ele>176.443903</ele>
        <time>2022-05-13T15:01:35.167Z</time>
      </trkpt>
      <trkpt lat="43.77683" lon="1.61059">
        <ele>176.437009</ele>
        <time>2022-05-13T15:01:37.155Z</time>
      </trkpt>
      <trkpt lat="43.77673" lon="1.6105">
        <ele>176.429895</ele>
        <time>2022-05-13T15:01:39.158Z</time>
      </trkpt>
      <trkpt lat="43.77663" lon="1.6104">
        <ele>176.422611</ele>
        <time>2022-05-13T15:01:41.160Z</time>
      </trkpt>
      <trkpt lat="43.77652" lon="1.6103">
        <ele>176.414962</ele>
        <time>2022-05-13T15:01:43.167Z</time>
      </trkpt>
      <trkpt lat="43.77642" lon="1.6102">
        <ele>176.4076</ele>
        <time>2022-05-13T15:01:45.159Z</time>
      </trkpt>
      <trkpt lat="43.77632" lon="1.6101">
        <ele>176.400122</ele>
        <time>2022-05-13T15:01:47.167Z</time>
      </trkpt>
      <trkpt lat="43.77622" lon="1.61">
        <ele>176.39274</ele>
        <time>2022-05-13T15:01:49.174Z</time>
      </trkpt>
      <trkpt lat="43.77612" lon="1.6099">
        <ele>176.385555</ele>
        <time>2022-05-13T15:01:51.151Z</time>
      </trkpt>
      <trkpt lat="43.77602" lon="1.6098">
        <ele>176.388814</ele>
        <time>2022-05-13T15:01:53.153Z</time>
      </trkpt>
      <trkpt lat="43.77593" lon="1.60969">
        <ele>176.428928</ele>
        <time>2022-05-13T15:01:55.159Z</time>
      </trkpt>
      <trkpt lat="43.77585" lon="1.60957">
        <ele>176.468787</ele>
        <time>2022-05-13T15:01:57.172Z</time>
      </trkpt>
      <trkpt lat="43.77576" lon="1.60946">
        <ele>176.508905</ele>
        <time>2022-05-13T15:01:59.176Z</time>
      </trkpt>
      <trkpt lat="43.77567" lon="1.60935">
        <ele>176.548846</ele>
        <time>2022-05-13T15:02:01.171Z</time>
      </trkpt>
      <trkpt lat="43.77559" lon="1.60924">
        <ele>176.588132</ele>
        <time>2022-05-13T15:02:03.171Z</time>
      </trkpt>
      <trkpt lat="43.7755" lon="1.60912">
        <ele>176.627748</ele>
        <time>2022-05-13T15:02:05.166Z</time>
      </trkpt>
      <trkpt lat="43.77541" lon="1.60901">
        <ele>176.667955</ele>
        <time>2022-05-13T15:02:07.175Z</time>
      </trkpt>
      <trkpt lat="43.77532" lon="1.60891">
        <ele>176.707594</ele>
        <time>2022-05-13T15:02:09.158Z</time>
      </trkpt>
      <trkpt lat="43.77523" lon="1.6088">
        <ele>176.747233</ele>
        <time>2022-05-13T15:02:11.138Z</time>
      </trkpt>
      <trkpt lat="43.77514" lon="1.6087">
        <ele>176.785756</ele>
        <time>2022-05-13T15:02:13.156Z</time>
      </trkpt>
      <trkpt lat="43.77504" lon="1.60861">
        <ele>176.823673</ele>
        <time>2022-05-13T15:02:15.153Z</time>
      </trkpt>
      <trkpt lat="43.77495" lon="1.60853">
        <ele>176.861314</ele>
        <time>2022-05-13T15:02:17.143Z</time>
      </trkpt>
      <trkpt lat="43.77485" lon="1.60844">
        <ele>176.899829</ele>
        <time>2022-05-13T15:02:19.145Z</time>
      </trkpt>
      <trkpt lat="43.77475" lon="1.60836">
        <ele>176.938218</ele>
        <time>2022-05-13T15:02:21.138Z</time>
      </trkpt>
      <trkpt lat="43.77466" lon="1.60828">
        <ele>176.976112</ele>
        <time>2022-05-13T15:02:23.155Z</time>
      </trkpt>
      <trkpt lat="43.77456" lon="1.6082">
        <ele>177.351828</ele>
        <time>2022-05-13T15:02:25.179Z</time>
      </trkpt>
      <trkpt lat="43.77446" lon="1.60812">
        <ele>177.781227</ele>
        <time>2022-05-13T15:02:27.161Z</time>
      </trkpt>
      <trkpt lat="43.77436" lon="1.60803">
        <ele>178.21377</ele>
        <time>2022-05-13T15:02:29.161Z</time>
      </trkpt>
      <trkpt lat="43.77426" lon="1.60794">
        <ele>178.639391</ele>
        <time>2022-05-13T15:02:31.161Z</time>
      </trkpt>
      <trkpt lat="43.77416" lon="1.60786">
        <ele>179.056625</ele>
        <time>2022-05-13T15:02:33.158Z</time>
      </trkpt>
      <trkpt lat="43.77407" lon="1.60779">
        <ele>179.458718</ele>
        <time>2022-05-13T15:02:35.156Z</time>
      </trkpt>
      <trkpt lat="43.77398" lon="1.60771">
        <ele>179.841215</ele>
        <time>2022-05-13T15:02:37.152Z</time>
      </trkpt>
      <trkpt lat="43.77389" lon="1.60763">
        <ele>180.233851</ele>
        <time>2022-05-13T15:02:39.161Z</time>
      </trkpt>
      <trkpt lat="43.7738" lon="1.60755">
        <ele>180.614429</ele>
        <time>2022-05-13T15:02:41.150Z</time>
      </trkpt>
      <trkpt lat="43.77373" lon="1.60746">
        <ele>180.973087</ele>
        <time>2022-05-13T15:02:43.152Z</time>
      </trkpt>
      <trkpt lat="43.77366" lon="1.60737">
        <ele>181.320044</ele>
        <time>2022-05-13T15:02:45.164Z</time>
      </trkpt>
      <trkpt lat="43.7736" lon="1.60727">
        <ele>181.67087</ele>
        <time>2022-05-13T15:02:47.153Z</time>
      </trkpt>
      <trkpt lat="43.77353" lon="1.60717">
        <ele>182.027108</ele>
        <time>2022-05-13T15:02:49.166Z</time>
      </trkpt>
      <trkpt lat="43.77348" lon="1.60707">
        <ele>182.36537</ele>
        <time>2022-05-13T15:02:51.149Z</time>
      </trkpt>
      <trkpt lat="43.77342" lon="1.60697">
        <ele>182.711645</ele>
        <time>2022-05-13T15:02:53.150Z</time>
      </trkpt>
      <trkpt lat="43.77336" lon="1.60685">
        <ele>183.085678</ele>
        <time>2022-05-13T15:02:55.149Z</time>
      </trkpt>
      <trkpt lat="43.7733" lon="1.60672">
        <ele>183.494473</ele>
        <time>2022-05-13T15:02:57.150Z</time>
      </trkpt>
      <trkpt lat="43.77325" lon="1.60658">
        <ele>183.599653</ele>
        <time>2022-05-13T15:02:59.146Z</time>
      </trkpt>
      <trkpt lat="43.77322" lon="1.60642">
        <ele>183.619631</ele>
        <time>2022-05-13T15:03:01.154Z</time>
      </trkpt>
      <trkpt lat="43.7732" lon="1.60625">
        <ele>183.639762</ele>
        <time>2022-05-13T15:03:03.149Z</time>
      </trkpt>
      <trkpt lat="43.77318" lon="1.60608">
        <ele>183.659864</ele>
        <time>2022-05-13T15:03:05.145Z</time>
      </trkpt>
      <trkpt lat="43.77317" lon="1.60592">
        <ele>183.67959</ele>
        <time>2022-05-13T15:03:07.152Z</time>
      </trkpt>
      <trkpt lat="43.77315" lon="1.60576">
        <ele>183.699198</ele>
        <time>2022-05-13T15:03:09.155Z</time>
      </trkpt>
      <trkpt lat="43.77314" lon="1.6056">
        <ele>183.718194</ele>
        <time>2022-05-13T15:03:11.154Z</time>
      </trkpt>
      <trkpt lat="43.77312" lon="1.60544">
        <ele>183.737039</ele>
        <time>2022-05-13T15:03:13.147Z</time>
      </trkpt>
      <trkpt lat="43.77311" lon="1.60529">
        <ele>183.755698</ele>
        <time>2022-05-13T15:03:15.151Z</time>
      </trkpt>
      <trkpt lat="43.77309" lon="1.60514">
        <ele>183.773669</ele>
        <time>2022-05-13T15:03:17.144Z</time>
      </trkpt>
      <trkpt lat="43.77308" lon="1.60499">
        <ele>183.79138</ele>
        <time>2022-05-13T15:03:19.152Z</time>
      </trkpt>
      <trkpt lat="43.77307" lon="1.60484">
        <ele>183.809071</ele>
        <time>2022-05-13T15:03:21.162Z</time>
      </trkpt>
      <trkpt lat="43.77305" lon="1.6047">
        <ele>183.826687</ele>
        <time>2022-05-13T15:03:23.168Z</time>
      </trkpt>
      <trkpt lat="43.77304" lon="1.60455">
        <ele>183.844539</ele>
        <time>2022-05-13T15:03:25.154Z</time>
      </trkpt>
      <trkpt lat="43.77302" lon="1.6044">
        <ele>183.862231</ele>
        <time>2022-05-13T15:03:27.131Z</time>
      </trkpt>
      <trkpt lat="43.77301" lon="1.60426">
        <ele>183.879943</ele>
        <time>2022-05-13T15:03:29.145Z</time>
      </trkpt>
      <trkpt lat="43.77299" lon="1.60411">
        <ele>183.827521</ele>
        <time>2022-05-13T15:03:31.153Z</time>
      </trkpt>
      <trkpt lat="43.77297" lon="1.60396">
        <ele>183.764198</ele>
        <time>2022-05-13T15:03:33.139Z</time>
      </trkpt>
      <trkpt lat="43.77295" lon="1.6038">
        <ele>183.698335</ele>
        <time>2022-05-13T15:03:35.152Z</time>
      </trkpt>
      <trkpt lat="43.77292" lon="1.60364">
        <ele>183.629245</ele>
        <time>2022-05-13T15:03:37.163Z</time>
      </trkpt>
      <trkpt lat="43.77289" lon="1.60347">
        <ele>183.558357</ele>
        <time>2022-05-13T15:03:39.163Z</time>
      </trkpt>
      <trkpt lat="43.77285" lon="1.60331">
        <ele>183.487247</ele>
        <time>2022-05-13T15:03:41.158Z</time>
      </trkpt>
      <trkpt lat="43.7728" lon="1.60316">
        <ele>183.418056</ele>
        <time>2022-05-13T15:03:43.154Z</time>
      </trkpt>
      <trkpt lat="43.77275" lon="1.603">
        <ele>183.347166</ele>
        <time>2022-05-13T15:03:45.152Z</time>
      </trkpt>
      <trkpt lat="43.7727" lon="1.60284">
        <ele>183.275806</ele>
        <time>2022-05-13T15:03:47.162Z</time>
      </trkpt>
      <trkpt lat="43.77266" lon="1.60268">
        <ele>183.204112</ele>
        <time>2022-05-13T15:03:49.158Z</time>
      </trkpt>
      <trkpt lat="43.77261" lon="1.60252">
        <ele>183.134554</ele>
        <time>2022-05-13T15:03:51.154Z</time>
      </trkpt>
      <trkpt lat="43.77257" lon="1.60236">
        <ele>183.064797</ele>
        <time>2022-05-13T15:03:53.149Z</time>
      </trkpt>
      <trkpt lat="43.77253" lon="1.6022">
        <ele>182.995422</ele>
        <time>2022-05-13T15:03:55.164Z</time>
      </trkpt>
      <trkpt lat="43.77249" lon="1.60204">
        <ele>182.926048</ele>
        <time>2022-05-13T15:03:57.152Z</time>
      </trkpt>
      <trkpt lat="43.77245" lon="1.60189">
        <ele>182.857064</ele>
        <time>2022-05-13T15:03:59.154Z</time>
      </trkpt>
      <trkpt lat="43.77242" lon="1.60173">
        <ele>182.913767</ele>
        <time>2022-05-13T15:04:01.153Z</time>
      </trkpt>
      <trkpt lat="43.77238" lon="1.60158">
        <ele>182.977246</ele>
        <time>2022-05-13T15:04:03.161Z</time>
      </trkpt>
      <trkpt lat="43.77234" lon="1.60143">
        <ele>183.03944</ele>
        <time>2022-05-13T15:04:05.169Z</time>
      </trkpt>
      <trkpt lat="43.77231" lon="1.60128">
        <ele>183.098586</ele>
        <time>2022-05-13T15:04:07.159Z</time>
      </trkpt>
      <trkpt lat="43.77229" lon="1.60114">
        <ele>183.155372</ele>
        <time>2022-05-13T15:04:09.155Z</time>
      </trkpt>
      <trkpt lat="43.77227" lon="1.601">
        <ele>183.211298</ele>
        <time>2022-05-13T15:04:11.168Z</time>
      </trkpt>
      <trkpt lat="43.77225" lon="1.60085">
        <ele>183.270385</ele>
        <time>2022-05-13T15:04:13.157Z</time>
      </trkpt>
      <trkpt lat="43.77223" lon="1.60069">
        <ele>183.332946</ele>
        <time>2022-05-13T15:04:15.157Z</time>
      </trkpt>
      <trkpt lat="43.77221" lon="1.60053">
        <ele>183.395812</ele>
        <time>2022-05-13T15:04:17.154Z</time>
      </trkpt>
      <trkpt lat="43.77219" lon="1.60037">
        <ele>183.459533</ele>
        <time>2022-05-13T15:04:19.156Z</time>
      </trkpt>
      <trkpt lat="43.77217" lon="1.60021">
        <ele>183.523137</ele>
        <time>2022-05-13T15:04:21.166Z</time>
      </trkpt>
      <trkpt lat="43.77215" lon="1.60005">
        <ele>183.587418</ele>
        <time>2022-05-13T15:04:23.151Z</time>
      </trkpt>
      <trkpt lat="43.77212" lon="1.59989">
        <ele>183.651181</ele>
        <time>2022-05-13T15:04:25.150Z</time>
      </trkpt>
      <trkpt lat="43.77208" lon="1.59974">
        <ele>183.715191</ele>
        <time>2022-05-13T15:04:27.154Z</time>
      </trkpt>
      <trkpt lat="43.77204" lon="1.59959">
        <ele>183.779227</ele>
        <time>2022-05-13T15:04:29.149Z</time>
      </trkpt>
      <trkpt lat="43.77198" lon="1.59945">
        <ele>183.82109</ele>
        <time>2022-05-13T15:04:31.131Z</time>
      </trkpt>
      <trkpt lat="43.77192" lon="1.59931">
        <ele>183.796671</ele>
        <time>2022-05-13T15:04:33.157Z</time>
      </trkpt>
      <trkpt lat="43.77187" lon="1.59916">
        <ele>183.771419</ele>
        <time>2022-05-13T15:04:35.148Z</time>
      </trkpt>
      <trkpt lat="43.7718" lon="1.59902">
        <ele>183.745947</ele>
        <time>2022-05-13T15:04:37.154Z</time>
      </trkpt>
      <trkpt lat="43.77173" lon="1.59889">
        <ele>183.720635</ele>
        <time>2022-05-13T15:04:39.137Z</time>
      </trkpt>
      <trkpt lat="43.77164" lon="1.59876">
        <ele>183.694802</ele>
        <time>2022-05-13T15:04:41.145Z</time>
      </trkpt>
      <trkpt lat="43.77155" lon="1.59864">
        <ele>183.668923</ele>
        <time>2022-05-13T15:04:43.140Z</time>
      </trkpt>
      <trkpt lat="43.77147" lon="1.59853">
        <ele>183.643415</ele>
        <time>2022-05-13T15:04:45.164Z</time>
      </trkpt>
      <trkpt lat="43.77138" lon="1.59842">
        <ele>183.618366</ele>
        <time>2022-05-13T15:04:47.153Z</time>
      </trkpt>
      <trkpt lat="43.77129" lon="1.5983">
        <ele>183.593061</ele>
        <time>2022-05-13T15:04:49.151Z</time>
      </trkpt>
      <trkpt lat="43.77121" lon="1.59819">
        <ele>183.56765</ele>
        <time>2022-05-13T15:04:51.150Z</time>
      </trkpt>
      <trkpt lat="43.77112" lon="1.59807">
        <ele>183.54273</ele>
        <time>2022-05-13T15:04:53.148Z</time>
      </trkpt>
      <trkpt lat="43.77104" lon="1.59795">
        <ele>183.517919</ele>
        <time>2022-05-13T15:04:55.159Z</time>
      </trkpt>
      <trkpt lat="43.77096" lon="1.59784">
        <ele>183.493322</ele>
        <time>2022-05-13T15:04:57.154Z</time>
      </trkpt>
      <trkpt lat="43.77088" lon="1.59772">
        <ele>183.469382</ele>
        <time>2022-05-13T15:04:59.145Z</time>
      </trkpt>
      <trkpt lat="43.7708" lon="1.59761">
        <ele>183.451504</ele>
        <time>2022-05-13T15:05:01.152Z</time>
      </trkpt>
      <trkpt lat="43.77073" lon="1.59751">
        <ele>183.475934</ele>
        <time>2022-05-13T15:05:03.155Z</time>
      </trkpt>
      <trkpt lat="43.77066" lon="1.5974">
        <ele>183.500727</ele>
        <time>2022-05-13T15:05:05.157Z</time>
      </trkpt>
      <trkpt lat="43.77058" lon="1.59728">
        <ele>183.526787</ele>
        <time>2022-05-13T15:05:07.162Z</time>
      </trkpt>
      <trkpt lat="43.7705" lon="1.59716">
        <ele>183.553205</ele>
        <time>2022-05-13T15:05:09.142Z</time>
      </trkpt>
      <trkpt lat="43.77043" lon="1.59704">
        <ele>183.579381</ele>
        <time>2022-05-13T15:05:11.158Z</time>
      </trkpt>
      <trkpt lat="43.77035" lon="1.59692">
        <ele>183.605645</ele>
        <time>2022-05-13T15:05:13.181Z</time>
      </trkpt>
      <trkpt lat="43.77027" lon="1.5968">
        <ele>183.632431</ele>
        <time>2022-05-13T15:05:15.148Z</time>
      </trkpt>
      <trkpt lat="43.77019" lon="1.59668">
        <ele>183.659247</ele>
        <time>2022-05-13T15:05:17.148Z</time>
      </trkpt>
      <trkpt lat="43.77011" lon="1.59656">
        <ele>183.686556</ele>
        <time>2022-05-13T15:05:19.171Z</time>
      </trkpt>
      <trkpt lat="43.77003" lon="1.59644">
        <ele>183.713617</ele>
        <time>2022-05-13T15:05:21.145Z</time>
      </trkpt>
      <trkpt lat="43.76995" lon="1.59632">
        <ele>183.740503</ele>
        <time>2022-05-13T15:05:23.153Z</time>
      </trkpt>
      <trkpt lat="43.76988" lon="1.59619">
        <ele>183.767511</ele>
        <time>2022-05-13T15:05:25.159Z</time>
      </trkpt>
      <trkpt lat="43.7698" lon="1.59607">
        <ele>183.794519</ele>
        <time>2022-05-13T15:05:27.161Z</time>
      </trkpt>
      <trkpt lat="43.76973" lon="1.59594">
        <ele>183.821564</ele>
        <time>2022-05-13T15:05:29.154Z</time>
      </trkpt>
      <trkpt lat="43.76967" lon="1.5958">
        <ele>183.848666</ele>
        <time>2022-05-13T15:05:31.152Z</time>
      </trkpt>
      <trkpt lat="43.76961" lon="1.59566">
        <ele>183.916502</ele>
        <time>2022-05-13T15:05:33.159Z</time>
      </trkpt>
      <trkpt lat="43.76955" lon="1.59551">
        <ele>184.013167</ele>
        <time>2022-05-13T15:05:35.153Z</time>
      </trkpt>
      <trkpt lat="43.7695" lon="1.59537">
        <ele>184.108833</ele>
        <time>2022-05-13T15:05:37.157Z</time>
      </trkpt>
      <trkpt lat="43.76944" lon="1.59522">
        <ele>184.204347</ele>
        <time>2022-05-13T15:05:39.152Z</time>
      </trkpt>
      <trkpt lat="43.76939" lon="1.59508">
        <ele>184.299647</ele>
        <time>2022-05-13T15:05:41.157Z</time>
      </trkpt>
      <trkpt lat="43.76934" lon="1.59494">
        <ele>184.394264</ele>
        <time>2022-05-13T15:05:43.153Z</time>
      </trkpt>
      <trkpt lat="43.76929" lon="1.59479">
        <ele>184.487462</ele>
        <time>2022-05-13T15:05:45.163Z</time>
      </trkpt>
      <trkpt lat="43.76923" lon="1.59466">
        <ele>184.57999</ele>
        <time>2022-05-13T15:05:47.143Z</time>
      </trkpt>
      <trkpt lat="43.76918" lon="1.59452">
        <ele>184.671042</ele>
        <time>2022-05-13T15:05:49.148Z</time>
      </trkpt>
      <trkpt lat="43.76913" lon="1.59438">
        <ele>184.762623</ele>
        <time>2022-05-13T15:05:51.164Z</time>
      </trkpt>
      <trkpt lat="43.76908" lon="1.59424">
        <ele>184.85373</ele>
        <time>2022-05-13T15:05:53.153Z</time>
      </trkpt>
      <trkpt lat="43.76903" lon="1.5941">
        <ele>184.944091</ele>
        <time>2022-05-13T15:05:55.167Z</time>
      </trkpt>
      <trkpt lat="43.76898" lon="1.59396">
        <ele>185.034614</ele>
        <time>2022-05-13T15:05:57.154Z</time>
      </trkpt>
      <trkpt lat="43.76893" lon="1.59383">
        <ele>185.125345</ele>
        <time>2022-05-13T15:05:59.153Z</time>
      </trkpt>
      <trkpt lat="43.76888" lon="1.59369">
        <ele>185.215553</ele>
        <time>2022-05-13T15:06:01.157Z</time>
      </trkpt>
      <trkpt lat="43.76883" lon="1.59355">
        <ele>185.306077</ele>
        <time>2022-05-13T15:06:03.159Z</time>
      </trkpt>
      <trkpt lat="43.76878" lon="1.59342">
        <ele>185.486881</ele>
        <time>2022-05-13T15:06:05.169Z</time>
      </trkpt>
      <trkpt lat="43.76873" lon="1.59328">
        <ele>185.689674</ele>
        <time>2022-05-13T15:06:07.150Z</time>
      </trkpt>
      <trkpt lat="43.76868" lon="1.59314">
        <ele>185.890356</ele>
        <time>2022-05-13T15:06:09.161Z</time>
      </trkpt>
      <trkpt lat="43.76863" lon="1.59301">
        <ele>186.092657</ele>
        <time>2022-05-13T15:06:11.150Z</time>
      </trkpt>
      <trkpt lat="43.76859" lon="1.59287">
        <ele>186.292579</ele>
        <time>2022-05-13T15:06:13.169Z</time>
      </trkpt>
      <trkpt lat="43.76854" lon="1.59274">
        <ele>186.49216</ele>
        <time>2022-05-13T15:06:15.156Z</time>
      </trkpt>
      <trkpt lat="43.76849" lon="1.59261">
        <ele>186.691643</ele>
        <time>2022-05-13T15:06:17.165Z</time>
      </trkpt>
      <trkpt lat="43.76844" lon="1.59247">
        <ele>186.892405</ele>
        <time>2022-05-13T15:06:19.153Z</time>
      </trkpt>
      <trkpt lat="43.76839" lon="1.59234">
        <ele>187.091141</ele>
        <time>2022-05-13T15:06:21.156Z</time>
      </trkpt>
      <trkpt lat="43.76834" lon="1.59221">
        <ele>187.290239</ele>
        <time>2022-05-13T15:06:23.156Z</time>
      </trkpt>
      <trkpt lat="43.76829" lon="1.59207">
        <ele>187.488145</ele>
        <time>2022-05-13T15:06:25.154Z</time>
      </trkpt>
      <trkpt lat="43.76825" lon="1.59194">
        <ele>187.683641</ele>
        <time>2022-05-13T15:06:27.160Z</time>
      </trkpt>
      <trkpt lat="43.7682" lon="1.59181">
        <ele>187.875617</ele>
        <time>2022-05-13T15:06:29.153Z</time>
      </trkpt>
      <trkpt lat="43.76814" lon="1.59169">
        <ele>188.07313</ele>
        <time>2022-05-13T15:06:31.145Z</time>
      </trkpt>
      <trkpt lat="43.76808" lon="1.59158">
        <ele>188.260894</ele>
        <time>2022-05-13T15:06:33.151Z</time>
      </trkpt>
      <trkpt lat="43.76802" lon="1.59146">
        <ele>188.452044</ele>
        <time>2022-05-13T15:06:35.156Z</time>
      </trkpt>
      <trkpt lat="43.76795" lon="1.59135">
        <ele>188.659393</ele>
        <time>2022-05-13T15:06:37.143Z</time>
      </trkpt>
      <trkpt lat="43.76787" lon="1.59124">
        <ele>189.120055</ele>
        <time>2022-05-13T15:06:39.168Z</time>
      </trkpt>
      <trkpt lat="43.76781" lon="1.59113">
        <ele>189.55959</ele>
        <time>2022-05-13T15:06:41.157Z</time>
      </trkpt>
      <trkpt lat="43.76772" lon="1.591">
        <ele>190.106711</ele>
        <time>2022-05-13T15:06:44.164Z</time>
      </trkpt>
      <trkpt lat="43.76815" lon="1.59024">
        <ele>123.1</ele>
      </trkpt>
      <trkpt lat="43.76815" lon="1.59">
        <ele>124</ele>
      </trkpt>
      <trkpt lat="43.76811" lon="1.58973">
        <ele>125.8</ele>
      </trkpt>
      <trkpt lat="43.76828" lon="1.58947">
        <ele>127</ele>
      </trkpt>
      <trkpt lat="43.76889" lon="1.58883">
        <ele>131.9</ele>
      </trkpt>
      <trkpt lat="43.76912" lon="1.58868">
        <ele>130.9</ele>
      </trkpt>
      <trkpt lat="43.76913" lon="1.58848">
        <ele>134.3</ele>
      </trkpt>
      <trkpt lat="43.76907" lon="1.58839">
        <ele>136.8</ele>
      </trkpt>
      <trkpt lat="43.76895" lon="1.58835">
        <ele>139.1</ele>
      </trkpt>
      <trkpt lat="43.76905" lon="1.58816">
        <ele>142.1</ele>
      </trkpt>
      <trkpt lat="43.76903" lon="1.58806">
        <ele>144.4</ele>
      </trkpt>
      <trkpt lat="43.77027" lon="1.5868">
        <ele>147.7</ele>
      </trkpt>
      <trkpt lat="43.77168" lon="1.58559">
        <ele>149.4</ele>
      </trkpt>
      <trkpt lat="43.77201" lon="1.58542">
        <ele>148.4</ele>
      </trkpt>
      <trkpt lat="43.77511" lon="1.58203">
        <ele>148.4</ele>
      </trkpt>
      <trkpt lat="43.778" lon="1.57845">
        <ele>149.4</ele>
      </trkpt>
      <trkpt lat="43.77825" lon="1.57748">
        <ele>152.3</ele>
      </trkpt>
      <trkpt lat="43.77841" lon="1.57751">
        <ele>150.8</ele>
      </trkpt>
      <trkpt lat="43.77885" lon="1.5772">
        <ele>145.6</ele>
      </trkpt>
      <trkpt lat="43.779" lon="1.57698">
        <ele>143.3</ele>
      </trkpt>
      <trkpt lat="43.77929" lon="1.57671">
        <ele>139.1</ele>
      </trkpt>
      <trkpt lat="43.77972" lon="1.57643">
        <ele>133</ele>
      </trkpt>
      <trkpt lat="43.78009" lon="1.57665">
        <ele>129.4</ele>
      </trkpt>
      <trkpt lat="43.78049" lon="1.57652">
        <ele>127.3</ele>
      </trkpt>
      <trkpt lat="43.78075" lon="1.57718">
        <ele>126</ele>
      </trkpt>
      <trkpt lat="43.78098" lon="1.5766">
        <ele>126</ele>
      </trkpt>
      <trkpt lat="43.78124" lon="1.57607">
        <ele>126</ele>
      </trkpt>
      <trkpt lat="43.7811" lon="1.57541">
        <ele>126.1</ele>
      </trkpt>
      <trkpt lat="43.78144" lon="1.57486">
        <ele>125.8</ele>
      </trkpt>
      <trkpt lat="43.78239" lon="1.5755">
        <ele>123.4</ele>
      </trkpt>
      <trkpt lat="43.78271" lon="1.57539">
        <ele>123</ele>
      </trkpt>
      <trkpt lat="43.78309" lon="1.57508">
        <ele>122</ele>
      </trkpt>
      <trkpt lat="43.78327" lon="1.57506">
        <ele>122</ele>
      </trkpt>
      <trkpt lat="43.78354" lon="1.57517">
        <ele>121.2</ele>
      </trkpt>
      <trkpt lat="43.78387" lon="1.57493">
        <ele>120.1</ele>
      </trkpt>
      <trkpt lat="43.78417" lon="1.57466">
        <ele>119</ele>
      </trkpt>
      <trkpt lat="43.78507" lon="1.57427">
        <ele>116.9</ele>
      </trkpt>
      <trkpt lat="43.78493" lon="1.57397">
        <ele>117.3</ele>
      </trkpt>
      <trkpt lat="43.78471" lon="1.57383">
        <ele>118</ele>
      </trkpt>
      <trkpt lat="43.78465" lon="1.57346">
        <ele>117.6</ele>
      </trkpt>
      <trkpt lat="43.78471" lon="1.573">
        <ele>117</ele>
      </trkpt>
      <trkpt lat="43.78456" lon="1.57266">
        <ele>117</ele>
      </trkpt>
      <trkpt lat="43.78459" lon="1.57227">
        <ele>117</ele>
      </trkpt>
      <trkpt lat="43.78451" lon="1.57191">
        <ele>117</ele>
      </trkpt>
      <trkpt lat="43.78475" lon="1.57142">
        <ele>117.9</ele>
      </trkpt>
      <trkpt lat="43.78424" lon="1.57093">
        <ele>118.2</ele>
      </trkpt>
      <trkpt lat="43.78347" lon="1.57065">
        <ele>118.5</ele>
      </trkpt>
      <trkpt lat="43.78368" lon="1.57007">
        <ele>118.2</ele>
      </trkpt>
      <trkpt lat="43.78329" lon="1.56982">
        <ele>119.2</ele>
      </trkpt>
      <trkpt lat="43.78277" lon="1.56944">
        <ele>121</ele>
      </trkpt>
      <trkpt lat="43.78254" lon="1.56894">
        <ele>121.9</ele>
      </trkpt>
      <trkpt lat="43.78213" lon="1.56875">
        <ele>123</ele>
      </trkpt>
      <trkpt lat="43.78128" lon="1.56794">
        <ele>125.4</ele>
      </trkpt>
      <trkpt lat="43.78076" lon="1.56774">
        <ele>126.3</ele>
      </trkpt>
      <trkpt lat="43.7808" lon="1.56759">
        <ele>126.1</ele>
      </trkpt>
      <trkpt lat="43.77528" lon="1.56587">
        <ele>143.1</ele>
      </trkpt>
      <trkpt lat="43.77461" lon="1.56547">
        <ele>145.5</ele>
      </trkpt>
      <trkpt lat="43.77396" lon="1.56504">
        <ele>146.9</ele>
      </trkpt>
      <trkpt lat="43.77376" lon="1.56468">
        <ele>147.4</ele>
      </trkpt>
      <trkpt lat="43.77344" lon="1.56536">
        <ele>151.1</ele>
      </trkpt>
      <trkpt lat="43.77263" lon="1.56586">
        <ele>158.6</ele>
      </trkpt>
      <trkpt lat="43.77147" lon="1.56619">
        <ele>163.2</ele>
      </trkpt>
      <trkpt lat="43.77066" lon="1.5661">
        <ele>162.9</ele>
      </trkpt>
      <trkpt lat="43.76906" lon="1.56557">
        <ele>148.4</ele>
      </trkpt>
      <trkpt lat="43.7681" lon="1.56435">
        <ele>150.6</ele>
      </trkpt>
      <trkpt lat="43.76713" lon="1.56401">
        <ele>158.5</ele>
      </trkpt>
      <trkpt lat="43.76668" lon="1.56426">
        <ele>158.3</ele>
      </trkpt>
      <trkpt lat="43.76482" lon="1.56272">
        <ele>163</ele>
      </trkpt>
      <trkpt lat="43.76184" lon="1.56124">
        <ele>165.7</ele>
      </trkpt>
      <trkpt lat="43.75978" lon="1.55819">
        <ele>171.4</ele>
      </trkpt>
      <trkpt lat="43.75611" lon="1.55545">
        <ele>250.817267</ele>
        <time>2022-05-13T15:20:28.157Z</time>
      </trkpt>
      <trkpt lat="43.75618" lon="1.55532">
        <ele>250.68668</ele>
        <time>2022-05-13T15:20:30.158Z</time>
      </trkpt>
      <trkpt lat="43.75625" lon="1.55519">
        <ele>250.37159</ele>
        <time>2022-05-13T15:20:32.160Z</time>
      </trkpt>
      <trkpt lat="43.75633" lon="1.55505">
        <ele>249.694888</ele>
        <time>2022-05-13T15:20:34.155Z</time>
      </trkpt>
      <trkpt lat="43.75641" lon="1.55492">
        <ele>248.972468</ele>
        <time>2022-05-13T15:20:36.161Z</time>
      </trkpt>
      <trkpt lat="43.75652" lon="1.5548">
        <ele>248.244453</ele>
        <time>2022-05-13T15:20:38.151Z</time>
      </trkpt>
      <trkpt lat="43.75664" lon="1.5547">
        <ele>247.469491</ele>
        <time>2022-05-13T15:20:40.166Z</time>
      </trkpt>
      <trkpt lat="43.75677" lon="1.55462">
        <ele>246.682733</ele>
        <time>2022-05-13T15:20:42.157Z</time>
      </trkpt>
      <trkpt lat="43.75685" lon="1.55452">
        <ele>246.086849</ele>
        <time>2022-05-13T15:20:44.163Z</time>
      </trkpt>
      <trkpt lat="43.75685" lon="1.55439">
        <ele>245.543362</ele>
        <time>2022-05-13T15:20:46.156Z</time>
      </trkpt>
      <trkpt lat="43.75679" lon="1.55422">
        <ele>244.81542</ele>
        <time>2022-05-13T15:20:49.142Z</time>
      </trkpt>
      <trkpt lat="43.75674" lon="1.55411">
        <ele>244.281325</ele>
        <time>2022-05-13T15:20:51.147Z</time>
      </trkpt>
      <trkpt lat="43.75667" lon="1.55401">
        <ele>243.713704</ele>
        <time>2022-05-13T15:20:53.128Z</time>
      </trkpt>
      <trkpt lat="43.75659" lon="1.5539">
        <ele>243.098782</ele>
        <time>2022-05-13T15:20:55.140Z</time>
      </trkpt>
      <trkpt lat="43.7565" lon="1.55381">
        <ele>242.51025</ele>
        <time>2022-05-13T15:20:57.136Z</time>
      </trkpt>
      <trkpt lat="43.75643" lon="1.55368">
        <ele>241.871061</ele>
        <time>2022-05-13T15:20:59.147Z</time>
      </trkpt>
      <trkpt lat="43.75635" lon="1.55356">
        <ele>241.199308</ele>
        <time>2022-05-13T15:21:01.163Z</time>
      </trkpt>
      <trkpt lat="43.75626" lon="1.55343">
        <ele>240.312726</ele>
        <time>2022-05-13T15:21:03.148Z</time>
      </trkpt>
      <trkpt lat="43.75617" lon="1.55328">
        <ele>238.600867</ele>
        <time>2022-05-13T15:21:05.143Z</time>
      </trkpt>
      <trkpt lat="43.7561" lon="1.55317">
        <ele>237.363461</ele>
        <time>2022-05-13T15:21:07.143Z</time>
      </trkpt>
      <trkpt lat="43.75603" lon="1.55305">
        <ele>236.003359</ele>
        <time>2022-05-13T15:21:11.159Z</time>
      </trkpt>
      <trkpt lat="43.75596" lon="1.55295">
        <ele>234.802115</ele>
        <time>2022-05-13T15:21:14.173Z</time>
      </trkpt>
      <trkpt lat="43.75589" lon="1.55282">
        <ele>233.447104</ele>
        <time>2022-05-13T15:21:16.150Z</time>
      </trkpt>
      <trkpt lat="43.7558" lon="1.55264">
        <ele>231.539027</ele>
        <time>2022-05-13T15:21:18.156Z</time>
      </trkpt>
      <trkpt lat="43.75571" lon="1.55245">
        <ele>229.57867</ele>
        <time>2022-05-13T15:21:20.151Z</time>
      </trkpt>
      <trkpt lat="43.75564" lon="1.55229">
        <ele>227.89903</ele>
        <time>2022-05-13T15:21:22.162Z</time>
      </trkpt>
      <trkpt lat="43.75557" lon="1.55211">
        <ele>226.133693</ele>
        <time>2022-05-13T15:21:24.165Z</time>
      </trkpt>
      <trkpt lat="43.75554" lon="1.55188">
        <ele>224.109115</ele>
        <time>2022-05-13T15:21:26.152Z</time>
      </trkpt>
      <trkpt lat="43.75552" lon="1.55163">
        <ele>221.968305</ele>
        <time>2022-05-13T15:21:28.152Z</time>
      </trkpt>
      <trkpt lat="43.75549" lon="1.55151">
        <ele>220.893989</ele>
        <time>2022-05-13T15:21:29.159Z</time>
      </trkpt>
      <trkpt lat="43.75545" lon="1.5514">
        <ele>219.799747</ele>
        <time>2022-05-13T15:21:30.181Z</time>
      </trkpt>
      <trkpt lat="43.75541" lon="1.55129">
        <ele>219.109511</ele>
        <time>2022-05-13T15:21:31.156Z</time>
      </trkpt>
      <trkpt lat="43.75535" lon="1.55119">
        <ele>219.12889</ele>
        <time>2022-05-13T15:21:32.146Z</time>
      </trkpt>
      <trkpt lat="43.7553" lon="1.55108">
        <ele>219.148274</ele>
        <time>2022-05-13T15:21:33.154Z</time>
      </trkpt>
      <trkpt lat="43.75524" lon="1.55098">
        <ele>219.168411</ele>
        <time>2022-05-13T15:21:34.143Z</time>
      </trkpt>
      <trkpt lat="43.75518" lon="1.55088">
        <ele>219.188064</ele>
        <time>2022-05-13T15:21:35.147Z</time>
      </trkpt>
      <trkpt lat="43.75512" lon="1.55078">
        <ele>219.207271</ele>
        <time>2022-05-13T15:21:36.162Z</time>
      </trkpt>
      <trkpt lat="43.75501" lon="1.5506">
        <ele>219.24356</ele>
        <time>2022-05-13T15:21:38.163Z</time>
      </trkpt>
      <trkpt lat="43.75493" lon="1.55044">
        <ele>219.272874</ele>
        <time>2022-05-13T15:21:40.165Z</time>
      </trkpt>
      <trkpt lat="43.75494" lon="1.55028">
        <ele>219.298227</ele>
        <time>2022-05-13T15:21:43.150Z</time>
      </trkpt>
      <trkpt lat="43.75503" lon="1.55017">
        <ele>219.323492</ele>
        <time>2022-05-13T15:21:46.151Z</time>
      </trkpt>
      <trkpt lat="43.75511" lon="1.55003">
        <ele>219.350044</ele>
        <time>2022-05-13T15:21:49.160Z</time>
      </trkpt>
      <trkpt lat="43.75508" lon="1.54991">
        <ele>219.370183</ele>
        <time>2022-05-13T15:21:52.137Z</time>
      </trkpt>
      <trkpt lat="43.755" lon="1.54977">
        <ele>219.396208</ele>
        <time>2022-05-13T15:21:55.149Z</time>
      </trkpt>
      <trkpt lat="43.75492" lon="1.54963">
        <ele>219.4226</ele>
        <time>2022-05-13T15:21:58.163Z</time>
      </trkpt>
      <trkpt lat="43.75486" lon="1.54948">
        <ele>219.449509</ele>
        <time>2022-05-13T15:22:01.156Z</time>
      </trkpt>
      <trkpt lat="43.75481" lon="1.54934">
        <ele>219.473409</ele>
        <time>2022-05-13T15:22:04.162Z</time>
      </trkpt>
      <trkpt lat="43.75477" lon="1.54919">
        <ele>220.222284</ele>
        <time>2022-05-13T15:22:07.168Z</time>
      </trkpt>
      <trkpt lat="43.75474" lon="1.54904">
        <ele>221.228508</ele>
        <time>2022-05-13T15:22:10.150Z</time>
      </trkpt>
      <trkpt lat="43.75471" lon="1.54888">
        <ele>222.241479</ele>
        <time>2022-05-13T15:22:13.153Z</time>
      </trkpt>
      <trkpt lat="43.75467" lon="1.54874">
        <ele>223.244948</ele>
        <time>2022-05-13T15:22:16.160Z</time>
      </trkpt>
      <trkpt lat="43.75461" lon="1.54861">
        <ele>224.228522</ele>
        <time>2022-05-13T15:22:19.138Z</time>
      </trkpt>
      <trkpt lat="43.75454" lon="1.54848">
        <ele>225.204532</ele>
        <time>2022-05-13T15:22:22.144Z</time>
      </trkpt>
      <trkpt lat="43.75448" lon="1.54836">
        <ele>226.185979</ele>
        <time>2022-05-13T15:22:25.144Z</time>
      </trkpt>
      <trkpt lat="43.75441" lon="1.54824">
        <ele>227.142005</ele>
        <time>2022-05-13T15:22:28.134Z</time>
      </trkpt>
      <trkpt lat="43.75435" lon="1.54812">
        <ele>228.087193</ele>
        <time>2022-05-13T15:22:31.139Z</time>
      </trkpt>
      <trkpt lat="43.75429" lon="1.548">
        <ele>229.022045</ele>
        <time>2022-05-13T15:22:34.153Z</time>
      </trkpt>
      <trkpt lat="43.75422" lon="1.54788">
        <ele>229.946947</ele>
        <time>2022-05-13T15:22:37.143Z</time>
      </trkpt>
      <trkpt lat="43.75415" lon="1.54777">
        <ele>230.845247</ele>
        <time>2022-05-13T15:22:40.151Z</time>
      </trkpt>
      <trkpt lat="43.75408" lon="1.54769">
        <ele>231.677937</ele>
        <time>2022-05-13T15:22:43.156Z</time>
      </trkpt>
      <trkpt lat="43.754" lon="1.54762">
        <ele>232.487351</ele>
        <time>2022-05-13T15:22:46.152Z</time>
      </trkpt>
      <trkpt lat="43.75392" lon="1.54757">
        <ele>233.281392</ele>
        <time>2022-05-13T15:22:49.156Z</time>
      </trkpt>
      <trkpt lat="43.75381" lon="1.54751">
        <ele>234.304608</ele>
        <time>2022-05-13T15:22:53.153Z</time>
      </trkpt>
      <trkpt lat="43.75372" lon="1.54744">
        <ele>235.242771</ele>
        <time>2022-05-13T15:22:57.157Z</time>
      </trkpt>
      <trkpt lat="43.75364" lon="1.54736">
        <ele>235.635707</ele>
        <time>2022-05-13T15:23:01.149Z</time>
      </trkpt>
      <trkpt lat="43.75357" lon="1.54725">
        <ele>236.043627</ele>
        <time>2022-05-13T15:23:05.160Z</time>
      </trkpt>
      <trkpt lat="43.75351" lon="1.54713">
        <ele>236.451412</ele>
        <time>2022-05-13T15:23:09.159Z</time>
      </trkpt>
      <trkpt lat="43.75346" lon="1.54701">
        <ele>236.855044</ele>
        <time>2022-05-13T15:23:13.154Z</time>
      </trkpt>
      <trkpt lat="43.7534" lon="1.54689">
        <ele>237.265325</ele>
        <time>2022-05-13T15:23:17.150Z</time>
      </trkpt>
      <trkpt lat="43.75334" lon="1.54677">
        <ele>237.675606</ele>
        <time>2022-05-13T15:23:21.138Z</time>
      </trkpt>
      <trkpt lat="43.75328" lon="1.54664">
        <ele>238.092759</ele>
        <time>2022-05-13T15:23:25.164Z</time>
      </trkpt>
      <trkpt lat="43.75323" lon="1.54654">
        <ele>238.448019</ele>
        <time>2022-05-13T15:23:28.155Z</time>
      </trkpt>
      <trkpt lat="43.75317" lon="1.54643">
        <ele>238.853605</ele>
        <time>2022-05-13T15:23:31.161Z</time>
      </trkpt>
      <trkpt lat="43.75311" lon="1.54628">
        <ele>239.325245</ele>
        <time>2022-05-13T15:23:34.150Z</time>
      </trkpt>
      <trkpt lat="43.75306" lon="1.54611">
        <ele>239.841634</ele>
        <time>2022-05-13T15:23:37.153Z</time>
      </trkpt>
      <trkpt lat="43.75303" lon="1.54598">
        <ele>240.233786</ele>
        <time>2022-05-13T15:23:39.146Z</time>
      </trkpt>
      <trkpt lat="43.753" lon="1.54584">
        <ele>240.656845</ele>
        <time>2022-05-13T15:23:41.138Z</time>
      </trkpt>
      <trkpt lat="43.75298" lon="1.5457">
        <ele>241.056978</ele>
        <time>2022-05-13T15:23:43.143Z</time>
      </trkpt>
      <trkpt lat="43.75296" lon="1.54557">
        <ele>241.427455</ele>
        <time>2022-05-13T15:23:45.142Z</time>
      </trkpt>
      <trkpt lat="43.75294" lon="1.54544">
        <ele>241.802188</ele>
        <time>2022-05-13T15:23:47.146Z</time>
      </trkpt>
      <trkpt lat="43.75293" lon="1.54529">
        <ele>242.224988</ele>
        <time>2022-05-13T15:23:49.144Z</time>
      </trkpt>
      <trkpt lat="43.75291" lon="1.54513">
        <ele>241.845107</ele>
        <time>2022-05-13T15:23:51.167Z</time>
      </trkpt>
      <trkpt lat="43.75289" lon="1.54498">
        <ele>241.342934</ele>
        <time>2022-05-13T15:23:53.164Z</time>
      </trkpt>
      <trkpt lat="43.75287" lon="1.54483">
        <ele>240.863478</ele>
        <time>2022-05-13T15:23:55.155Z</time>
      </trkpt>
      <trkpt lat="43.75287" lon="1.54468">
        <ele>240.361156</ele>
        <time>2022-05-13T15:23:57.167Z</time>
      </trkpt>
      <trkpt lat="43.75288" lon="1.54452">
        <ele>239.850902</ele>
        <time>2022-05-13T15:23:59.163Z</time>
      </trkpt>
      <trkpt lat="43.75292" lon="1.54438">
        <ele>239.337626</ele>
        <time>2022-05-13T15:24:01.159Z</time>
      </trkpt>
      <trkpt lat="43.75297" lon="1.54424">
        <ele>238.832123</ele>
        <time>2022-05-13T15:24:03.158Z</time>
      </trkpt>
      <trkpt lat="43.75303" lon="1.54409">
        <ele>238.297576</ele>
        <time>2022-05-13T15:24:05.151Z</time>
      </trkpt>
      <trkpt lat="43.75309" lon="1.54395">
        <ele>237.768729</ele>
        <time>2022-05-13T15:24:07.155Z</time>
      </trkpt>
      <trkpt lat="43.75314" lon="1.54382">
        <ele>237.276839</ele>
        <time>2022-05-13T15:24:09.155Z</time>
      </trkpt>
      <trkpt lat="43.7532" lon="1.5437">
        <ele>236.818496</ele>
        <time>2022-05-13T15:24:11.148Z</time>
      </trkpt>
      <trkpt lat="43.75324" lon="1.54359">
        <ele>236.398089</ele>
        <time>2022-05-13T15:24:13.164Z</time>
      </trkpt>
      <trkpt lat="43.75331" lon="1.54343">
        <ele>235.7947</ele>
        <time>2022-05-13T15:24:16.141Z</time>
      </trkpt>
      <trkpt lat="43.75337" lon="1.54329">
        <ele>235.273142</ele>
        <time>2022-05-13T15:24:18.152Z</time>
      </trkpt>
      <trkpt lat="43.75343" lon="1.54314">
        <ele>234.714274</ele>
        <time>2022-05-13T15:24:20.171Z</time>
      </trkpt>
      <trkpt lat="43.75347" lon="1.54299">
        <ele>234.172697</ele>
        <time>2022-05-13T15:24:22.150Z</time>
      </trkpt>
      <trkpt lat="43.7535" lon="1.54282">
        <ele>233.873677</ele>
        <time>2022-05-13T15:24:24.153Z</time>
      </trkpt>
      <trkpt lat="43.75352" lon="1.54266">
        <ele>233.601794</ele>
        <time>2022-05-13T15:24:26.161Z</time>
      </trkpt>
      <trkpt lat="43.75348" lon="1.54252">
        <ele>233.350746</ele>
        <time>2022-05-13T15:24:28.148Z</time>
      </trkpt>
      <trkpt lat="43.75339" lon="1.54241">
        <ele>233.056057</ele>
        <time>2022-05-13T15:24:30.159Z</time>
      </trkpt>
      <trkpt lat="43.75329" lon="1.54229">
        <ele>232.732531</ele>
        <time>2022-05-13T15:24:32.146Z</time>
      </trkpt>
      <trkpt lat="43.75319" lon="1.54215">
        <ele>232.401876</ele>
        <time>2022-05-13T15:24:34.164Z</time>
      </trkpt>
      <trkpt lat="43.75311" lon="1.542">
        <ele>232.081139</ele>
        <time>2022-05-13T15:24:36.142Z</time>
      </trkpt>
      <trkpt lat="43.75304" lon="1.54185">
        <ele>231.769315</ele>
        <time>2022-05-13T15:24:38.158Z</time>
      </trkpt>
      <trkpt lat="43.75298" lon="1.5417">
        <ele>231.47158</ele>
        <time>2022-05-13T15:24:40.149Z</time>
      </trkpt>
      <trkpt lat="43.75293" lon="1.54155">
        <ele>231.194451</ele>
        <time>2022-05-13T15:24:42.164Z</time>
      </trkpt>
      <trkpt lat="43.75289" lon="1.54141">
        <ele>230.919881</ele>
        <time>2022-05-13T15:24:44.166Z</time>
      </trkpt>
      <trkpt lat="43.75284" lon="1.54126">
        <ele>230.644324</ele>
        <time>2022-05-13T15:24:46.164Z</time>
      </trkpt>
      <trkpt lat="43.75281" lon="1.54111">
        <ele>230.379762</ele>
        <time>2022-05-13T15:24:48.148Z</time>
      </trkpt>
      <trkpt lat="43.7528" lon="1.54097">
        <ele>230.125397</ele>
        <time>2022-05-13T15:24:50.158Z</time>
      </trkpt>
      <trkpt lat="43.75282" lon="1.54082">
        <ele>229.922497</ele>
        <time>2022-05-13T15:24:52.141Z</time>
      </trkpt>
      <trkpt lat="43.75284" lon="1.54068">
        <ele>230.747083</ele>
        <time>2022-05-13T15:24:54.147Z</time>
      </trkpt>
      <trkpt lat="43.75285" lon="1.54054">
        <ele>231.566459</ele>
        <time>2022-05-13T15:24:56.159Z</time>
      </trkpt>
      <trkpt lat="43.75285" lon="1.5404">
        <ele>232.383008</ele>
        <time>2022-05-13T15:24:58.160Z</time>
      </trkpt>
      <trkpt lat="43.75285" lon="1.54027">
        <ele>233.135912</ele>
        <time>2022-05-13T15:25:00.128Z</time>
      </trkpt>
      <trkpt lat="43.75283" lon="1.54009">
        <ele>234.192674</ele>
        <time>2022-05-13T15:25:03.137Z</time>
      </trkpt>
      <trkpt lat="43.75279" lon="1.53992">
        <ele>235.219344</ele>
        <time>2022-05-13T15:25:06.141Z</time>
      </trkpt>
      <trkpt lat="43.75274" lon="1.53976">
        <ele>236.25936</ele>
        <time>2022-05-13T15:25:09.152Z</time>
      </trkpt>
      <trkpt lat="43.75267" lon="1.5396">
        <ele>237.315886</ele>
        <time>2022-05-13T15:25:12.147Z</time>
      </trkpt>
      <trkpt lat="43.7526" lon="1.53945">
        <ele>238.363701</ele>
        <time>2022-05-13T15:25:15.150Z</time>
      </trkpt>
      <trkpt lat="43.75253" lon="1.5393">
        <ele>239.405889</ele>
        <time>2022-05-13T15:25:18.141Z</time>
      </trkpt>
      <trkpt lat="43.75246" lon="1.53915">
        <ele>240.429927</ele>
        <time>2022-05-13T15:25:21.138Z</time>
      </trkpt>
      <trkpt lat="43.75239" lon="1.539">
        <ele>241.440996</ele>
        <time>2022-05-13T15:25:24.149Z</time>
      </trkpt>
      <trkpt lat="43.75232" lon="1.53886">
        <ele>242.432045</ele>
        <time>2022-05-13T15:25:27.138Z</time>
      </trkpt>
      <trkpt lat="43.75224" lon="1.53874">
        <ele>243.373094</ele>
        <time>2022-05-13T15:25:30.159Z</time>
      </trkpt>
      <trkpt lat="43.75216" lon="1.53866">
        <ele>244.213391</ele>
        <time>2022-05-13T15:25:33.144Z</time>
      </trkpt>
      <trkpt lat="43.75206" lon="1.53859">
        <ele>245.521327</ele>
        <time>2022-05-13T15:25:36.137Z</time>
      </trkpt>
      <trkpt lat="43.75197" lon="1.53852">
        <ele>246.878934</ele>
        <time>2022-05-13T15:25:39.147Z</time>
      </trkpt>
      <trkpt lat="43.75188" lon="1.53846">
        <ele>248.224382</ele>
        <time>2022-05-13T15:25:42.158Z</time>
      </trkpt>
      <trkpt lat="43.75179" lon="1.53839">
        <ele>249.550984</ele>
        <time>2022-05-13T15:25:45.161Z</time>
      </trkpt>
      <trkpt lat="43.75171" lon="1.53832">
        <ele>250.819139</ele>
        <time>2022-05-13T15:25:48.166Z</time>
      </trkpt>
      <trkpt lat="43.75161" lon="1.53823">
        <ele>252.28511</ele>
        <time>2022-05-13T15:25:52.166Z</time>
      </trkpt>
      <trkpt lat="43.75153" lon="1.53817">
        <ele>253.455466</ele>
        <time>2022-05-13T15:25:55.159Z</time>
      </trkpt>
      <trkpt lat="43.75144" lon="1.53807">
        <ele>254.990278</ele>
        <time>2022-05-13T15:25:59.155Z</time>
      </trkpt>
      <trkpt lat="43.75134" lon="1.53798">
        <ele>256.487653</ele>
        <time>2022-05-13T15:26:03.151Z</time>
      </trkpt>
      <trkpt lat="43.75126" lon="1.53789">
        <ele>257.907743</ele>
        <time>2022-05-13T15:26:07.142Z</time>
      </trkpt>
      <trkpt lat="43.75119" lon="1.5378">
        <ele>259.07036</ele>
        <time>2022-05-13T15:26:10.140Z</time>
      </trkpt>
      <trkpt lat="43.7511" lon="1.5377">
        <ele>260.607863</ele>
        <time>2022-05-13T15:26:14.155Z</time>
      </trkpt>
      <trkpt lat="43.75103" lon="1.53761">
        <ele>261.773089</ele>
        <time>2022-05-13T15:26:17.144Z</time>
      </trkpt>
      <trkpt lat="43.75096" lon="1.53753">
        <ele>262.948006</ele>
        <time>2022-05-13T15:26:20.160Z</time>
      </trkpt>
      <trkpt lat="43.75087" lon="1.53743">
        <ele>264.46138</ele>
        <time>2022-05-13T15:26:24.163Z</time>
      </trkpt>
      <trkpt lat="43.75078" lon="1.53733">
        <ele>265.984766</ele>
        <time>2022-05-13T15:26:28.162Z</time>
      </trkpt>
      <trkpt lat="43.7507" lon="1.53722">
        <ele>267.4647</ele>
        <time>2022-05-13T15:26:32.164Z</time>
      </trkpt>
      <trkpt lat="43.75063" lon="1.53714">
        <ele>268.075125</ele>
        <time>2022-05-13T15:26:35.154Z</time>
      </trkpt>
      <trkpt lat="43.75055" lon="1.53706">
        <ele>268.605687</ele>
        <time>2022-05-13T15:26:38.155Z</time>
      </trkpt>
      <trkpt lat="43.75049" lon="1.53698">
        <ele>269.128342</ele>
        <time>2022-05-13T15:26:41.156Z</time>
      </trkpt>
      <trkpt lat="43.7504" lon="1.53687">
        <ele>269.804111</ele>
        <time>2022-05-13T15:26:45.157Z</time>
      </trkpt>
      <trkpt lat="43.75033" lon="1.53678">
        <ele>270.347846</ele>
        <time>2022-05-13T15:26:48.156Z</time>
      </trkpt>
      <trkpt lat="43.75026" lon="1.53669">
        <ele>270.918727</ele>
        <time>2022-05-13T15:26:51.158Z</time>
      </trkpt>
      <trkpt lat="43.75018" lon="1.5366">
        <ele>271.502274</ele>
        <time>2022-05-13T15:26:54.147Z</time>
      </trkpt>
      <trkpt lat="43.7501" lon="1.53648">
        <ele>272.186966</ele>
        <time>2022-05-13T15:26:57.166Z</time>
      </trkpt>
      <trkpt lat="43.75002" lon="1.53636">
        <ele>272.901716</ele>
        <time>2022-05-13T15:27:00.153Z</time>
      </trkpt>
      <trkpt lat="43.74994" lon="1.53622">
        <ele>273.645233</ele>
        <time>2022-05-13T15:27:03.181Z</time>
      </trkpt>
      <trkpt lat="43.74989" lon="1.5361">
        <ele>274.207812</ele>
        <time>2022-05-13T15:27:05.163Z</time>
      </trkpt>
      <trkpt lat="43.74985" lon="1.53597">
        <ele>274.789957</ele>
        <time>2022-05-13T15:27:07.169Z</time>
      </trkpt>
      <trkpt lat="43.74981" lon="1.53584">
        <ele>275.374932</ele>
        <time>2022-05-13T15:27:09.158Z</time>
      </trkpt>
      <trkpt lat="43.74976" lon="1.53572">
        <ele>275.969721</ele>
        <time>2022-05-13T15:27:11.158Z</time>
      </trkpt>
      <trkpt lat="43.74972" lon="1.53559">
        <ele>276.563586</ele>
        <time>2022-05-13T15:27:13.158Z</time>
      </trkpt>
      <trkpt lat="43.74968" lon="1.53546">
        <ele>277.149499</ele>
        <time>2022-05-13T15:27:15.139Z</time>
      </trkpt>
      <trkpt lat="43.74963" lon="1.53534">
        <ele>277.720109</ele>
        <time>2022-05-13T15:27:17.150Z</time>
      </trkpt>
      <trkpt lat="43.74959" lon="1.53522">
        <ele>278.055321</ele>
        <time>2022-05-13T15:27:19.171Z</time>
      </trkpt>
      <trkpt lat="43.74956" lon="1.5351">
        <ele>278.105023</ele>
        <time>2022-05-13T15:27:21.149Z</time>
      </trkpt>
      <trkpt lat="43.74952" lon="1.53498">
        <ele>278.152928</ele>
        <time>2022-05-13T15:27:23.155Z</time>
      </trkpt>
      <trkpt lat="43.74948" lon="1.53487">
        <ele>278.200492</ele>
        <time>2022-05-13T15:27:25.151Z</time>
      </trkpt>
      <trkpt lat="43.74944" lon="1.53476">
        <ele>278.249997</ele>
        <time>2022-05-13T15:27:27.158Z</time>
      </trkpt>
      <trkpt lat="43.7494" lon="1.53465">
        <ele>278.298304</ele>
        <time>2022-05-13T15:27:29.155Z</time>
      </trkpt>
      <trkpt lat="43.74929" lon="1.53464">
        <ele>278.354973</ele>
        <time>2022-05-13T15:27:34.143Z</time>
      </trkpt>
      <trkpt lat="43.74922" lon="1.53474">
        <ele>278.408741</ele>
        <time>2022-05-13T15:27:37.153Z</time>
      </trkpt>
      <trkpt lat="43.74916" lon="1.53484">
        <ele>278.461047</ele>
        <time>2022-05-13T15:27:40.149Z</time>
      </trkpt>
      <trkpt lat="43.74913" lon="1.53496">
        <ele>279.930711</ele>
        <time>2022-05-13T15:34:10.129Z</time>
      </trkpt>
      <trkpt lat="43.74906" lon="1.5351">
        <ele>280.012526</ele>
        <time>2022-05-13T15:34:13.151Z</time>
      </trkpt>
      <trkpt lat="43.74902" lon="1.53521">
        <ele>280.072041</ele>
        <time>2022-05-13T15:34:15.155Z</time>
      </trkpt>
      <trkpt lat="43.74897" lon="1.53538">
        <ele>280.160928</ele>
        <time>2022-05-13T15:34:18.157Z</time>
      </trkpt>
      <trkpt lat="43.74893" lon="1.53552">
        <ele>280.01262</ele>
        <time>2022-05-13T15:34:20.164Z</time>
      </trkpt>
      <trkpt lat="43.7489" lon="1.53567">
        <ele>279.789</ele>
        <time>2022-05-13T15:34:22.161Z</time>
      </trkpt>
      <trkpt lat="43.74886" lon="1.53583">
        <ele>279.563926</ele>
        <time>2022-05-13T15:34:24.162Z</time>
      </trkpt>
      <trkpt lat="43.74883" lon="1.536">
        <ele>279.334213</ele>
        <time>2022-05-13T15:34:26.162Z</time>
      </trkpt>
      <trkpt lat="43.74879" lon="1.53616">
        <ele>279.10785</ele>
        <time>2022-05-13T15:34:28.170Z</time>
      </trkpt>
      <trkpt lat="43.74876" lon="1.53632">
        <ele>278.879137</ele>
        <time>2022-05-13T15:34:30.137Z</time>
      </trkpt>
      <trkpt lat="43.74873" lon="1.53649">
        <ele>278.648903</ele>
        <time>2022-05-13T15:34:32.155Z</time>
      </trkpt>
      <trkpt lat="43.74869" lon="1.53665">
        <ele>278.419959</ele>
        <time>2022-05-13T15:34:34.178Z</time>
      </trkpt>
      <trkpt lat="43.74866" lon="1.5368">
        <ele>278.204723</ele>
        <time>2022-05-13T15:34:36.160Z</time>
      </trkpt>
      <trkpt lat="43.74863" lon="1.53695">
        <ele>277.998019</ele>
        <time>2022-05-13T15:34:38.161Z</time>
      </trkpt>
      <trkpt lat="43.7486" lon="1.53709">
        <ele>277.79883</ele>
        <time>2022-05-13T15:34:40.155Z</time>
      </trkpt>
      <trkpt lat="43.74857" lon="1.53723">
        <ele>277.609394</ele>
        <time>2022-05-13T15:34:42.157Z</time>
      </trkpt>
      <trkpt lat="43.74854" lon="1.53736">
        <ele>277.429082</ele>
        <time>2022-05-13T15:34:44.157Z</time>
      </trkpt>
      <trkpt lat="43.74843" lon="1.53737">
        <ele>277.218939</ele>
        <time>2022-05-13T15:34:48.153Z</time>
      </trkpt>
      <trkpt lat="43.74834" lon="1.53728">
        <ele>277.016372</ele>
        <time>2022-05-13T15:34:50.152Z</time>
      </trkpt>
      <trkpt lat="43.74824" lon="1.53717">
        <ele>276.6885</ele>
        <time>2022-05-13T15:34:52.146Z</time>
      </trkpt>
      <trkpt lat="43.74812" lon="1.53704">
        <ele>275.94751</ele>
        <time>2022-05-13T15:34:54.164Z</time>
      </trkpt>
      <trkpt lat="43.74798" lon="1.53688">
        <ele>275.095532</ele>
        <time>2022-05-13T15:34:56.151Z</time>
      </trkpt>
      <trkpt lat="43.7479" lon="1.5368">
        <ele>274.616182</ele>
        <time>2022-05-13T15:34:57.152Z</time>
      </trkpt>
      <trkpt lat="43.74782" lon="1.53671">
        <ele>274.109507</ele>
        <time>2022-05-13T15:34:58.161Z</time>
      </trkpt>
      <trkpt lat="43.74773" lon="1.53661">
        <ele>273.580825</ele>
        <time>2022-05-13T15:34:59.161Z</time>
      </trkpt>
      <trkpt lat="43.74765" lon="1.53649">
        <ele>273.020785</ele>
        <time>2022-05-13T15:35:00.143Z</time>
      </trkpt>
      <trkpt lat="43.74758" lon="1.53636">
        <ele>272.453721</ele>
        <time>2022-05-13T15:35:01.151Z</time>
      </trkpt>
      <trkpt lat="43.7475" lon="1.53624">
        <ele>271.903418</ele>
        <time>2022-05-13T15:35:02.169Z</time>
      </trkpt>
      <trkpt lat="43.74742" lon="1.53613">
        <ele>271.352157</ele>
        <time>2022-05-13T15:35:03.154Z</time>
      </trkpt>
      <trkpt lat="43.74733" lon="1.53604">
        <ele>270.834727</ele>
        <time>2022-05-13T15:35:04.164Z</time>
      </trkpt>
      <trkpt lat="43.74725" lon="1.53597">
        <ele>270.346469</ele>
        <time>2022-05-13T15:35:05.141Z</time>
      </trkpt>
      <trkpt lat="43.74715" lon="1.53595">
        <ele>269.883752</ele>
        <time>2022-05-13T15:35:06.151Z</time>
      </trkpt>
      <trkpt lat="43.74706" lon="1.53594">
        <ele>269.441855</ele>
        <time>2022-05-13T15:35:07.160Z</time>
      </trkpt>
      <trkpt lat="43.74689" lon="1.53593">
        <ele>268.646869</ele>
        <time>2022-05-13T15:35:09.141Z</time>
      </trkpt>
      <trkpt lat="43.74675" lon="1.53592">
        <ele>268.118887</ele>
        <time>2022-05-13T15:35:11.171Z</time>
      </trkpt>
      <trkpt lat="43.74664" lon="1.53589">
        <ele>267.894444</ele>
        <time>2022-05-13T15:35:13.158Z</time>
      </trkpt>
      <trkpt lat="43.74654" lon="1.53583">
        <ele>267.698026</ele>
        <time>2022-05-13T15:35:15.151Z</time>
      </trkpt>
      <trkpt lat="43.74645" lon="1.53575">
        <ele>267.484122</ele>
        <time>2022-05-13T15:35:17.158Z</time>
      </trkpt>
      <trkpt lat="43.74634" lon="1.53566">
        <ele>267.245378</ele>
        <time>2022-05-13T15:35:19.161Z</time>
      </trkpt>
      <trkpt lat="43.74621" lon="1.53558">
        <ele>266.975974</ele>
        <time>2022-05-13T15:35:21.159Z</time>
      </trkpt>
      <trkpt lat="43.74608" lon="1.5355">
        <ele>266.697366</ele>
        <time>2022-05-13T15:35:23.158Z</time>
      </trkpt>
      <trkpt lat="43.74594" lon="1.53542">
        <ele>266.413996</ele>
        <time>2022-05-13T15:35:25.157Z</time>
      </trkpt>
      <trkpt lat="43.74579" lon="1.53534">
        <ele>266.123471</ele>
        <time>2022-05-13T15:35:27.156Z</time>
      </trkpt>
      <trkpt lat="43.74565" lon="1.53527">
        <ele>265.828776</ele>
        <time>2022-05-13T15:35:29.158Z</time>
      </trkpt>
      <trkpt lat="43.7455" lon="1.53517">
        <ele>265.51055</ele>
        <time>2022-05-13T15:35:31.143Z</time>
      </trkpt>
      <trkpt lat="43.74535" lon="1.53503">
        <ele>265.184402</ele>
        <time>2022-05-13T15:35:33.158Z</time>
      </trkpt>
      <trkpt lat="43.74522" lon="1.53489">
        <ele>264.856473</ele>
        <time>2022-05-13T15:35:35.154Z</time>
      </trkpt>
      <trkpt lat="43.74508" lon="1.53476">
        <ele>264.655361</ele>
        <time>2022-05-13T15:35:37.158Z</time>
      </trkpt>
      <trkpt lat="43.74496" lon="1.53462">
        <ele>264.488874</ele>
        <time>2022-05-13T15:35:39.149Z</time>
      </trkpt>
      <trkpt lat="43.74483" lon="1.53449">
        <ele>264.318944</ele>
        <time>2022-05-13T15:35:41.172Z</time>
      </trkpt>
      <trkpt lat="43.74471" lon="1.53437">
        <ele>264.163417</ele>
        <time>2022-05-13T15:35:43.150Z</time>
      </trkpt>
      <trkpt lat="43.74459" lon="1.53425">
        <ele>264.009282</ele>
        <time>2022-05-13T15:35:45.157Z</time>
      </trkpt>
      <trkpt lat="43.74448" lon="1.53414">
        <ele>263.860772</ele>
        <time>2022-05-13T15:35:47.169Z</time>
      </trkpt>
      <trkpt lat="43.74436" lon="1.53403">
        <ele>263.708814</ele>
        <time>2022-05-13T15:35:49.164Z</time>
      </trkpt>
      <trkpt lat="43.74424" lon="1.53392">
        <ele>263.556829</ele>
        <time>2022-05-13T15:35:51.154Z</time>
      </trkpt>
      <trkpt lat="43.74412" lon="1.53382">
        <ele>263.411121</ele>
        <time>2022-05-13T15:35:53.160Z</time>
      </trkpt>
      <trkpt lat="43.744" lon="1.53373">
        <ele>263.268481</ele>
        <time>2022-05-13T15:35:55.151Z</time>
      </trkpt>
      <trkpt lat="43.74388" lon="1.53365">
        <ele>263.12881</ele>
        <time>2022-05-13T15:35:57.152Z</time>
      </trkpt>
      <trkpt lat="43.74376" lon="1.53358">
        <ele>262.994811</ele>
        <time>2022-05-13T15:35:59.154Z</time>
      </trkpt>
      <trkpt lat="43.74365" lon="1.53351">
        <ele>262.826167</ele>
        <time>2022-05-13T15:36:01.159Z</time>
      </trkpt>
      <trkpt lat="43.74355" lon="1.53344">
        <ele>262.584253</ele>
        <time>2022-05-13T15:36:03.163Z</time>
      </trkpt>
      <trkpt lat="43.74345" lon="1.53337">
        <ele>262.350007</ele>
        <time>2022-05-13T15:36:05.141Z</time>
      </trkpt>
      <trkpt lat="43.74334" lon="1.53331">
        <ele>262.107952</ele>
        <time>2022-05-13T15:36:07.159Z</time>
      </trkpt>
      <trkpt lat="43.74323" lon="1.53325">
        <ele>261.841094</ele>
        <time>2022-05-13T15:36:09.171Z</time>
      </trkpt>
      <trkpt lat="43.7431" lon="1.53318">
        <ele>261.557012</ele>
        <time>2022-05-13T15:36:11.150Z</time>
      </trkpt>
      <trkpt lat="43.74297" lon="1.53311">
        <ele>261.251109</ele>
        <time>2022-05-13T15:36:13.157Z</time>
      </trkpt>
      <trkpt lat="43.74283" lon="1.53305">
        <ele>260.939725</ele>
        <time>2022-05-13T15:36:15.152Z</time>
      </trkpt>
      <trkpt lat="43.74269" lon="1.53299">
        <ele>260.629956</ele>
        <time>2022-05-13T15:36:17.158Z</time>
      </trkpt>
      <trkpt lat="43.74256" lon="1.53292">
        <ele>260.337967</ele>
        <time>2022-05-13T15:36:19.164Z</time>
      </trkpt>
      <trkpt lat="43.74245" lon="1.53285">
        <ele>260.076634</ele>
        <time>2022-05-13T15:36:21.163Z</time>
      </trkpt>
      <trkpt lat="43.74236" lon="1.53277">
        <ele>259.840786</ele>
        <time>2022-05-13T15:36:23.160Z</time>
      </trkpt>
      <trkpt lat="43.74227" lon="1.53269">
        <ele>259.614252</ele>
        <time>2022-05-13T15:36:25.161Z</time>
      </trkpt>
      <trkpt lat="43.74217" lon="1.53261">
        <ele>259.381654</ele>
        <time>2022-05-13T15:36:27.173Z</time>
      </trkpt>
      <trkpt lat="43.74208" lon="1.53253">
        <ele>259.156912</ele>
        <time>2022-05-13T15:36:29.155Z</time>
      </trkpt>
      <trkpt lat="43.742" lon="1.53245">
        <ele>258.275685</ele>
        <time>2022-05-13T15:36:31.162Z</time>
      </trkpt>
      <trkpt lat="43.7419" lon="1.53238">
        <ele>256.975728</ele>
        <time>2022-05-13T15:36:33.143Z</time>
      </trkpt>
      <trkpt lat="43.74177" lon="1.53235">
        <ele>255.448611</ele>
        <time>2022-05-13T15:36:35.158Z</time>
      </trkpt>
      <trkpt lat="43.74161" lon="1.53233">
        <ele>253.605145</ele>
        <time>2022-05-13T15:36:37.155Z</time>
      </trkpt>
      <trkpt lat="43.74144" lon="1.53231">
        <ele>251.598291</ele>
        <time>2022-05-13T15:36:39.145Z</time>
      </trkpt>
      <trkpt lat="43.74135" lon="1.53229">
        <ele>250.530587</ele>
        <time>2022-05-13T15:36:40.157Z</time>
      </trkpt>
      <trkpt lat="43.74126" lon="1.53227">
        <ele>249.465252</ele>
        <time>2022-05-13T15:36:41.157Z</time>
      </trkpt>
      <trkpt lat="43.7411" lon="1.53218">
        <ele>247.390719</ele>
        <time>2022-05-13T15:36:43.173Z</time>
      </trkpt>
      <trkpt lat="43.74102" lon="1.53211">
        <ele>246.281579</ele>
        <time>2022-05-13T15:36:44.155Z</time>
      </trkpt>
      <trkpt lat="43.74094" lon="1.53203">
        <ele>245.149385</ele>
        <time>2022-05-13T15:36:45.130Z</time>
      </trkpt>
      <trkpt lat="43.74087" lon="1.53196">
        <ele>244.094726</ele>
        <time>2022-05-13T15:36:46.147Z</time>
      </trkpt>
      <trkpt lat="43.74073" lon="1.53185">
        <ele>242.170399</ele>
        <time>2022-05-13T15:36:48.154Z</time>
      </trkpt>
      <trkpt lat="43.74064" lon="1.5318">
        <ele>241.069437</ele>
        <time>2022-05-13T15:36:49.165Z</time>
      </trkpt>
      <trkpt lat="43.74054" lon="1.53177">
        <ele>239.892036</ele>
        <time>2022-05-13T15:36:50.142Z</time>
      </trkpt>
      <trkpt lat="43.74044" lon="1.53174">
        <ele>238.670078</ele>
        <time>2022-05-13T15:36:51.162Z</time>
      </trkpt>
      <trkpt lat="43.74033" lon="1.53171">
        <ele>237.314039</ele>
        <time>2022-05-13T15:36:52.158Z</time>
      </trkpt>
      <trkpt lat="43.74023" lon="1.53169">
        <ele>235.853476</ele>
        <time>2022-05-13T15:36:53.165Z</time>
      </trkpt>
      <trkpt lat="43.74007" lon="1.53165">
        <ele>233.482329</ele>
        <time>2022-05-13T15:36:55.151Z</time>
      </trkpt>
      <trkpt lat="43.7399" lon="1.53163">
        <ele>231.162919</ele>
        <time>2022-05-13T15:36:57.154Z</time>
      </trkpt>
      <trkpt lat="43.73973" lon="1.53159">
        <ele>228.76366</ele>
        <time>2022-05-13T15:36:59.150Z</time>
      </trkpt>
      <trkpt lat="43.73964" lon="1.53156">
        <ele>227.461679</ele>
        <time>2022-05-13T15:37:00.158Z</time>
      </trkpt>
      <trkpt lat="43.73955" lon="1.53153">
        <ele>226.045536</ele>
        <time>2022-05-13T15:37:01.148Z</time>
      </trkpt>
      <trkpt lat="43.73944" lon="1.53149">
        <ele>224.542596</ele>
        <time>2022-05-13T15:37:02.157Z</time>
      </trkpt>
      <trkpt lat="43.73934" lon="1.53146">
        <ele>223.075751</ele>
        <time>2022-05-13T15:37:03.157Z</time>
      </trkpt>
      <trkpt lat="43.73923" lon="1.53142">
        <ele>221.535735</ele>
        <time>2022-05-13T15:37:04.168Z</time>
      </trkpt>
      <trkpt lat="43.73914" lon="1.53138">
        <ele>220.169034</ele>
        <time>2022-05-13T15:37:05.156Z</time>
      </trkpt>
      <trkpt lat="43.73905" lon="1.53133">
        <ele>218.766785</ele>
        <time>2022-05-13T15:37:06.175Z</time>
      </trkpt>
      <trkpt lat="43.73896" lon="1.53129">
        <ele>217.401081</ele>
        <time>2022-05-13T15:37:07.156Z</time>
      </trkpt>
      <trkpt lat="43.73886" lon="1.53125">
        <ele>215.953411</ele>
        <time>2022-05-13T15:37:08.167Z</time>
      </trkpt>
      <trkpt lat="43.73876" lon="1.53122">
        <ele>214.540975</ele>
        <time>2022-05-13T15:37:09.160Z</time>
      </trkpt>
      <trkpt lat="43.7386" lon="1.53117">
        <ele>212.585879</ele>
        <time>2022-05-13T15:37:11.159Z</time>
      </trkpt>
      <trkpt lat="43.73845" lon="1.53113">
        <ele>212.417391</ele>
        <time>2022-05-13T15:37:13.172Z</time>
      </trkpt>
      <trkpt lat="43.73831" lon="1.53109">
        <ele>212.261094</ele>
        <time>2022-05-13T15:37:15.173Z</time>
      </trkpt>
      <trkpt lat="43.73818" lon="1.53103">
        <ele>212.104124</ele>
        <time>2022-05-13T15:37:17.143Z</time>
      </trkpt>
      <trkpt lat="43.73806" lon="1.53094">
        <ele>211.94993</ele>
        <time>2022-05-13T15:37:19.147Z</time>
      </trkpt>
      <trkpt lat="43.73795" lon="1.53084">
        <ele>211.803504</ele>
        <time>2022-05-13T15:37:21.138Z</time>
      </trkpt>
      <trkpt lat="43.73785" lon="1.53073">
        <ele>211.658529</ele>
        <time>2022-05-13T15:37:23.140Z</time>
      </trkpt>
      <trkpt lat="43.73775" lon="1.53061">
        <ele>211.512179</ele>
        <time>2022-05-13T15:37:25.159Z</time>
      </trkpt>
      <trkpt lat="43.73764" lon="1.53051">
        <ele>211.368047</ele>
        <time>2022-05-13T15:37:27.159Z</time>
      </trkpt>
      <trkpt lat="43.73754" lon="1.53042">
        <ele>211.232665</ele>
        <time>2022-05-13T15:37:29.152Z</time>
      </trkpt>
      <trkpt lat="43.73742" lon="1.53035">
        <ele>211.09478</ele>
        <time>2022-05-13T15:37:31.146Z</time>
      </trkpt>
      <trkpt lat="43.73732" lon="1.53029">
        <ele>210.969003</ele>
        <time>2022-05-13T15:37:33.147Z</time>
      </trkpt>
      <trkpt lat="43.73722" lon="1.53024">
        <ele>210.847125</ele>
        <time>2022-05-13T15:37:35.152Z</time>
      </trkpt>
      <trkpt lat="43.73711" lon="1.5302">
        <ele>210.722052</ele>
        <time>2022-05-13T15:37:37.142Z</time>
      </trkpt>
      <trkpt lat="43.73701" lon="1.53015">
        <ele>210.608354</ele>
        <time>2022-05-13T15:37:39.148Z</time>
      </trkpt>
      <trkpt lat="43.7369" lon="1.53013">
        <ele>210.527775</ele>
        <time>2022-05-13T15:37:42.148Z</time>
      </trkpt>
      <trkpt lat="43.7368" lon="1.53011">
        <ele>210.450261</ele>
        <time>2022-05-13T15:37:45.142Z</time>
      </trkpt>
      <trkpt lat="43.73669" lon="1.53007">
        <ele>210.364785</ele>
        <time>2022-05-13T15:37:48.158Z</time>
      </trkpt>
      <trkpt lat="43.73655" lon="1.53002">
        <ele>210.261217</ele>
        <time>2022-05-13T15:37:51.137Z</time>
      </trkpt>
      <trkpt lat="43.73644" lon="1.52997">
        <ele>210.179585</ele>
        <time>2022-05-13T15:37:53.164Z</time>
      </trkpt>
      <trkpt lat="43.73633" lon="1.52992">
        <ele>210.089</ele>
        <time>2022-05-13T15:37:55.143Z</time>
      </trkpt>
      <trkpt lat="43.73621" lon="1.52989">
        <ele>210.002418</ele>
        <time>2022-05-13T15:37:57.139Z</time>
      </trkpt>
      <trkpt lat="43.7361" lon="1.52987">
        <ele>209.920146</ele>
        <time>2022-05-13T15:37:59.127Z</time>
      </trkpt>
      <trkpt lat="43.73598" lon="1.52987">
        <ele>209.830742</ele>
        <time>2022-05-13T15:38:01.149Z</time>
      </trkpt>
      <trkpt lat="43.73585" lon="1.52986">
        <ele>209.739899</ele>
        <time>2022-05-13T15:38:03.137Z</time>
      </trkpt>
      <trkpt lat="43.73573" lon="1.52983">
        <ele>209.649698</ele>
        <time>2022-05-13T15:38:05.141Z</time>
      </trkpt>
      <trkpt lat="43.73561" lon="1.52981">
        <ele>209.559569</ele>
        <time>2022-05-13T15:38:07.143Z</time>
      </trkpt>
      <trkpt lat="43.73549" lon="1.52981">
        <ele>209.470264</ele>
        <time>2022-05-13T15:38:09.147Z</time>
      </trkpt>
      <trkpt lat="43.73536" lon="1.52981">
        <ele>209.380935</ele>
        <time>2022-05-13T15:38:11.143Z</time>
      </trkpt>
      <trkpt lat="43.73525" lon="1.52979">
        <ele>209.295701</ele>
        <time>2022-05-13T15:38:13.128Z</time>
      </trkpt>
      <trkpt lat="43.73513" lon="1.52978">
        <ele>209.255568</ele>
        <time>2022-05-13T15:38:15.130Z</time>
      </trkpt>
      <trkpt lat="43.73502" lon="1.52975">
        <ele>209.218762</ele>
        <time>2022-05-13T15:38:17.149Z</time>
      </trkpt>
      <trkpt lat="43.73492" lon="1.52973">
        <ele>209.183432</ele>
        <time>2022-05-13T15:38:19.145Z</time>
      </trkpt>
      <trkpt lat="43.73482" lon="1.5297">
        <ele>209.150387</ele>
        <time>2022-05-13T15:38:21.141Z</time>
      </trkpt>
      <trkpt lat="43.73472" lon="1.52968">
        <ele>209.117385</ele>
        <time>2022-05-13T15:38:23.142Z</time>
      </trkpt>
      <trkpt lat="43.73461" lon="1.52967">
        <ele>209.07916</ele>
        <time>2022-05-13T15:38:25.139Z</time>
      </trkpt>
      <trkpt lat="43.73449" lon="1.52962">
        <ele>209.038573</ele>
        <time>2022-05-13T15:38:27.139Z</time>
      </trkpt>
      <trkpt lat="43.73439" lon="1.52958">
        <ele>209.002999</ele>
        <time>2022-05-13T15:38:29.159Z</time>
      </trkpt>
      <trkpt lat="43.73429" lon="1.52952">
        <ele>208.968636</ele>
        <time>2022-05-13T15:38:31.149Z</time>
      </trkpt>
      <trkpt lat="43.73421" lon="1.52944">
        <ele>208.93455</ele>
        <time>2022-05-13T15:38:33.155Z</time>
      </trkpt>
      <trkpt lat="43.73413" lon="1.52933">
        <ele>208.897431</ele>
        <time>2022-05-13T15:38:35.142Z</time>
      </trkpt>
      <trkpt lat="43.73406" lon="1.52919">
        <ele>208.856841</ele>
        <time>2022-05-13T15:38:37.161Z</time>
      </trkpt>
      <trkpt lat="43.734" lon="1.52904">
        <ele>208.81572</ele>
        <time>2022-05-13T15:38:39.147Z</time>
      </trkpt>
      <trkpt lat="43.73395" lon="1.52887">
        <ele>208.772236</ele>
        <time>2022-05-13T15:38:41.137Z</time>
      </trkpt>
      <trkpt lat="43.73388" lon="1.52874">
        <ele>208.732617</ele>
        <time>2022-05-13T15:38:43.148Z</time>
      </trkpt>
      <trkpt lat="43.73378" lon="1.52863">
        <ele>208.68609</ele>
        <time>2022-05-13T15:38:45.141Z</time>
      </trkpt>
      <trkpt lat="43.73369" lon="1.52855">
        <ele>208.525352</ele>
        <time>2022-05-13T15:38:47.125Z</time>
      </trkpt>
      <trkpt lat="43.73358" lon="1.52847">
        <ele>208.363285</ele>
        <time>2022-05-13T15:38:49.164Z</time>
      </trkpt>
      <trkpt lat="43.73348" lon="1.52839">
        <ele>208.190355</ele>
        <time>2022-05-13T15:38:51.146Z</time>
      </trkpt>
      <trkpt lat="43.73342" lon="1.52822">
        <ele>208.007592</ele>
        <time>2022-05-13T15:38:53.152Z</time>
      </trkpt>
      <trkpt lat="43.73339" lon="1.52804">
        <ele>207.8179</ele>
        <time>2022-05-13T15:38:55.158Z</time>
      </trkpt>
      <trkpt lat="43.73336" lon="1.52786">
        <ele>207.631072</ele>
        <time>2022-05-13T15:38:57.147Z</time>
      </trkpt>
      <trkpt lat="43.73332" lon="1.52771">
        <ele>207.468756</ele>
        <time>2022-05-13T15:38:59.145Z</time>
      </trkpt>
      <trkpt lat="43.73325" lon="1.52758">
        <ele>207.303146</ele>
        <time>2022-05-13T15:39:01.148Z</time>
      </trkpt>
      <trkpt lat="43.73318" lon="1.52743">
        <ele>207.116319</ele>
        <time>2022-05-13T15:39:03.142Z</time>
      </trkpt>
      <trkpt lat="43.7331" lon="1.52727">
        <ele>206.92534</ele>
        <time>2022-05-13T15:39:05.140Z</time>
      </trkpt>
      <trkpt lat="43.73303" lon="1.52711">
        <ele>206.738217</ele>
        <time>2022-05-13T15:39:07.129Z</time>
      </trkpt>
      <trkpt lat="43.73296" lon="1.52695">
        <ele>206.546005</ele>
        <time>2022-05-13T15:39:09.152Z</time>
      </trkpt>
      <trkpt lat="43.73289" lon="1.52678">
        <ele>206.351537</ele>
        <time>2022-05-13T15:39:11.152Z</time>
      </trkpt>
      <trkpt lat="43.73283" lon="1.52662">
        <ele>206.170968</ele>
        <time>2022-05-13T15:39:13.146Z</time>
      </trkpt>
      <trkpt lat="43.73277" lon="1.52645">
        <ele>206.070404</ele>
        <time>2022-05-13T15:39:15.140Z</time>
      </trkpt>
      <trkpt lat="43.73271" lon="1.52629">
        <ele>205.969037</ele>
        <time>2022-05-13T15:39:17.140Z</time>
      </trkpt>
      <trkpt lat="43.73265" lon="1.52612">
        <ele>205.868474</ele>
        <time>2022-05-13T15:39:19.156Z</time>
      </trkpt>
      <trkpt lat="43.73259" lon="1.52596">
        <ele>205.767569</ele>
        <time>2022-05-13T15:39:21.146Z</time>
      </trkpt>
      <trkpt lat="43.73252" lon="1.5258">
        <ele>205.66706</ele>
        <time>2022-05-13T15:39:23.157Z</time>
      </trkpt>
      <trkpt lat="43.73245" lon="1.52564">
        <ele>205.568259</ele>
        <time>2022-05-13T15:39:25.157Z</time>
      </trkpt>
      <trkpt lat="43.73237" lon="1.52551">
        <ele>205.473562</ele>
        <time>2022-05-13T15:39:27.145Z</time>
      </trkpt>
      <trkpt lat="43.73229" lon="1.52538">
        <ele>205.381835</ele>
        <time>2022-05-13T15:39:29.157Z</time>
      </trkpt>
      <trkpt lat="43.73223" lon="1.52525">
        <ele>205.29515</ele>
        <time>2022-05-13T15:39:31.150Z</time>
      </trkpt>
      <trkpt lat="43.73218" lon="1.52511">
        <ele>205.21241</ele>
        <time>2022-05-13T15:39:33.168Z</time>
      </trkpt>
      <trkpt lat="43.73213" lon="1.52497">
        <ele>205.128035</ele>
        <time>2022-05-13T15:39:35.153Z</time>
      </trkpt>
      <trkpt lat="43.73206" lon="1.52485">
        <ele>205.041936</ele>
        <time>2022-05-13T15:39:37.140Z</time>
      </trkpt>
      <trkpt lat="43.73199" lon="1.52472">
        <ele>204.953218</ele>
        <time>2022-05-13T15:39:39.142Z</time>
      </trkpt>
      <trkpt lat="43.73192" lon="1.52458">
        <ele>204.863604</ele>
        <time>2022-05-13T15:39:41.167Z</time>
      </trkpt>
      <trkpt lat="43.73185" lon="1.52445">
        <ele>204.792322</ele>
        <time>2022-05-13T15:39:43.163Z</time>
      </trkpt>
      <trkpt lat="43.73178" lon="1.52433">
        <ele>204.737124</ele>
        <time>2022-05-13T15:39:45.168Z</time>
      </trkpt>
      <trkpt lat="43.7317" lon="1.52423">
        <ele>204.680979</ele>
        <time>2022-05-13T15:39:47.163Z</time>
      </trkpt>
      <trkpt lat="43.73161" lon="1.52412">
        <ele>204.624636</ele>
        <time>2022-05-13T15:39:49.149Z</time>
      </trkpt>
      <trkpt lat="43.73151" lon="1.52403">
        <ele>204.567082</ele>
        <time>2022-05-13T15:39:51.144Z</time>
      </trkpt>
      <trkpt lat="43.73142" lon="1.52393">
        <ele>204.509752</ele>
        <time>2022-05-13T15:39:53.143Z</time>
      </trkpt>
      <trkpt lat="43.73133" lon="1.52383">
        <ele>204.453701</ele>
        <time>2022-05-13T15:39:55.163Z</time>
      </trkpt>
      <trkpt lat="43.73125" lon="1.52374">
        <ele>204.399085</ele>
        <time>2022-05-13T15:39:57.164Z</time>
      </trkpt>
      <trkpt lat="43.73116" lon="1.52365">
        <ele>204.345554</ele>
        <time>2022-05-13T15:39:59.154Z</time>
      </trkpt>
      <trkpt lat="43.73108" lon="1.52355">
        <ele>204.291866</ele>
        <time>2022-05-13T15:40:01.156Z</time>
      </trkpt>
      <trkpt lat="43.73099" lon="1.52344">
        <ele>204.237169</ele>
        <time>2022-05-13T15:40:03.171Z</time>
      </trkpt>
      <trkpt lat="43.73092" lon="1.52333">
        <ele>204.181598</ele>
        <time>2022-05-13T15:40:05.157Z</time>
      </trkpt>
      <trkpt lat="43.73084" lon="1.52322">
        <ele>204.125169</ele>
        <time>2022-05-13T15:40:07.164Z</time>
      </trkpt>
      <trkpt lat="43.73075" lon="1.52311">
        <ele>204.069381</ele>
        <time>2022-05-13T15:40:09.157Z</time>
      </trkpt>
      <trkpt lat="43.73067" lon="1.523">
        <ele>204.013803</ele>
        <time>2022-05-13T15:40:11.174Z</time>
      </trkpt>
      <trkpt lat="43.7306" lon="1.52289">
        <ele>203.958573</ele>
        <time>2022-05-13T15:40:13.162Z</time>
      </trkpt>
      <trkpt lat="43.73051" lon="1.52279">
        <ele>203.932612</ele>
        <time>2022-05-13T15:40:15.147Z</time>
      </trkpt>
      <trkpt lat="43.73043" lon="1.52268">
        <ele>203.924998</ele>
        <time>2022-05-13T15:40:17.141Z</time>
      </trkpt>
      <trkpt lat="43.73036" lon="1.52258">
        <ele>203.917547</ele>
        <time>2022-05-13T15:40:19.165Z</time>
      </trkpt>
      <trkpt lat="43.73028" lon="1.52247">
        <ele>203.910047</ele>
        <time>2022-05-13T15:40:21.146Z</time>
      </trkpt>
      <trkpt lat="43.7302" lon="1.52238">
        <ele>203.90285</ele>
        <time>2022-05-13T15:40:23.157Z</time>
      </trkpt>
      <trkpt lat="43.73011" lon="1.52232">
        <ele>203.896284</ele>
        <time>2022-05-13T15:40:25.147Z</time>
      </trkpt>
      <trkpt lat="43.73002" lon="1.52228">
        <ele>203.889822</ele>
        <time>2022-05-13T15:40:27.151Z</time>
      </trkpt>
      <trkpt lat="43.72993" lon="1.52229">
        <ele>203.883121</ele>
        <time>2022-05-13T15:40:29.170Z</time>
      </trkpt>
      <trkpt lat="43.72983" lon="1.52233">
        <ele>203.875985</ele>
        <time>2022-05-13T15:40:31.147Z</time>
      </trkpt>
      <trkpt lat="43.72972" lon="1.52238">
        <ele>203.868299</ele>
        <time>2022-05-13T15:40:33.156Z</time>
      </trkpt>
      <trkpt lat="43.72961" lon="1.52242">
        <ele>203.860297</ele>
        <time>2022-05-13T15:40:35.153Z</time>
      </trkpt>
      <trkpt lat="43.7295" lon="1.52245">
        <ele>203.852342</ele>
        <time>2022-05-13T15:40:37.165Z</time>
      </trkpt>
      <trkpt lat="43.72938" lon="1.52248">
        <ele>203.844338</ele>
        <time>2022-05-13T15:40:39.155Z</time>
      </trkpt>
      <trkpt lat="43.72927" lon="1.5225">
        <ele>203.836109</ele>
        <time>2022-05-13T15:40:41.148Z</time>
      </trkpt>
      <trkpt lat="43.72915" lon="1.52253">
        <ele>203.828078</ele>
        <time>2022-05-13T15:40:43.143Z</time>
      </trkpt>
      <trkpt lat="43.72904" lon="1.52255">
        <ele>203.820108</ele>
        <time>2022-05-13T15:40:45.166Z</time>
      </trkpt>
      <trkpt lat="43.72892" lon="1.52258">
        <ele>203.847679</ele>
        <time>2022-05-13T15:40:47.160Z</time>
      </trkpt>
      <trkpt lat="43.72881" lon="1.5226">
        <ele>204.11164</ele>
        <time>2022-05-13T15:40:49.162Z</time>
      </trkpt>
      <trkpt lat="43.7287" lon="1.52259">
        <ele>204.375613</ele>
        <time>2022-05-13T15:40:51.161Z</time>
      </trkpt>
      <trkpt lat="43.72859" lon="1.52258">
        <ele>204.643244</ele>
        <time>2022-05-13T15:40:53.161Z</time>
      </trkpt>
      <trkpt lat="43.72848" lon="1.52253">
        <ele>204.914488</ele>
        <time>2022-05-13T15:40:55.159Z</time>
      </trkpt>
      <trkpt lat="43.72837" lon="1.52246">
        <ele>205.188352</ele>
        <time>2022-05-13T15:40:57.155Z</time>
      </trkpt>
      <trkpt lat="43.72827" lon="1.5224">
        <ele>205.459362</ele>
        <time>2022-05-13T15:40:59.145Z</time>
      </trkpt>
      <trkpt lat="43.72816" lon="1.52233">
        <ele>205.728935</ele>
        <time>2022-05-13T15:41:01.160Z</time>
      </trkpt>
      <trkpt lat="43.72806" lon="1.52226">
        <ele>205.999496</ele>
        <time>2022-05-13T15:41:03.159Z</time>
      </trkpt>
      <trkpt lat="43.72797" lon="1.52217">
        <ele>206.266931</ele>
        <time>2022-05-13T15:41:05.141Z</time>
      </trkpt>
      <trkpt lat="43.72789" lon="1.52205">
        <ele>206.52691</ele>
        <time>2022-05-13T15:41:07.145Z</time>
      </trkpt>
      <trkpt lat="43.72783" lon="1.52193">
        <ele>206.774028</ele>
        <time>2022-05-13T15:41:09.151Z</time>
      </trkpt>
      <trkpt lat="43.72778" lon="1.52181">
        <ele>207.020108</ele>
        <time>2022-05-13T15:41:11.152Z</time>
      </trkpt>
      <trkpt lat="43.72772" lon="1.52169">
        <ele>207.259045</ele>
        <time>2022-05-13T15:41:13.142Z</time>
      </trkpt>
      <trkpt lat="43.72765" lon="1.5216">
        <ele>207.484304</ele>
        <time>2022-05-13T15:41:15.167Z</time>
      </trkpt>
      <trkpt lat="43.72755" lon="1.52149">
        <ele>207.793995</ele>
        <time>2022-05-13T15:41:18.148Z</time>
      </trkpt>
      <trkpt lat="43.72746" lon="1.52136">
        <ele>208.008295</ele>
        <time>2022-05-13T15:41:21.149Z</time>
      </trkpt>
      <trkpt lat="43.72739" lon="1.52127">
        <ele>207.831547</ele>
        <time>2022-05-13T15:41:23.152Z</time>
      </trkpt>
      <trkpt lat="43.72729" lon="1.52116">
        <ele>207.578814</ele>
        <time>2022-05-13T15:41:26.141Z</time>
      </trkpt>
      <trkpt lat="43.72721" lon="1.52107">
        <ele>207.398582</ele>
        <time>2022-05-13T15:41:28.147Z</time>
      </trkpt>
      <trkpt lat="43.72713" lon="1.52099">
        <ele>207.197601</ele>
        <time>2022-05-13T15:41:30.147Z</time>
      </trkpt>
      <trkpt lat="43.72704" lon="1.52089">
        <ele>206.979316</ele>
        <time>2022-05-13T15:41:32.140Z</time>
      </trkpt>
      <trkpt lat="43.72694" lon="1.5208">
        <ele>206.753354</ele>
        <time>2022-05-13T15:41:34.175Z</time>
      </trkpt>
      <trkpt lat="43.72684" lon="1.5207">
        <ele>206.517763</ele>
        <time>2022-05-13T15:41:36.168Z</time>
      </trkpt>
      <trkpt lat="43.72674" lon="1.52059">
        <ele>206.278131</ele>
        <time>2022-05-13T15:41:38.164Z</time>
      </trkpt>
      <trkpt lat="43.72665" lon="1.52048">
        <ele>206.040633</ele>
        <time>2022-05-13T15:41:40.156Z</time>
      </trkpt>
      <trkpt lat="43.72654" lon="1.52037">
        <ele>205.796465</ele>
        <time>2022-05-13T15:41:42.165Z</time>
      </trkpt>
      <trkpt lat="43.72645" lon="1.52025">
        <ele>205.546836</ele>
        <time>2022-05-13T15:41:44.163Z</time>
      </trkpt>
      <trkpt lat="43.72635" lon="1.52012">
        <ele>205.286486</ele>
        <time>2022-05-13T15:41:46.166Z</time>
      </trkpt>
      <trkpt lat="43.72625" lon="1.51998">
        <ele>205.01646</ele>
        <time>2022-05-13T15:41:48.164Z</time>
      </trkpt>
      <trkpt lat="43.72615" lon="1.51983">
        <ele>204.734836</ele>
        <time>2022-05-13T15:41:50.163Z</time>
      </trkpt>
      <trkpt lat="43.72605" lon="1.51968">
        <ele>204.335963</ele>
        <time>2022-05-13T15:41:52.169Z</time>
      </trkpt>
      <trkpt lat="43.72594" lon="1.51952">
        <ele>203.852564</ele>
        <time>2022-05-13T15:41:54.157Z</time>
      </trkpt>
      <trkpt lat="43.72584" lon="1.51935">
        <ele>203.35212</ele>
        <time>2022-05-13T15:41:56.167Z</time>
      </trkpt>
      <trkpt lat="43.72572" lon="1.51919">
        <ele>202.838541</ele>
        <time>2022-05-13T15:41:58.161Z</time>
      </trkpt>
      <trkpt lat="43.7256" lon="1.51903">
        <ele>202.325786</ele>
        <time>2022-05-13T15:42:00.145Z</time>
      </trkpt>
      <trkpt lat="43.72548" lon="1.51888">
        <ele>201.814511</ele>
        <time>2022-05-13T15:42:02.160Z</time>
      </trkpt>
      <trkpt lat="43.72535" lon="1.51874">
        <ele>201.304839</ele>
        <time>2022-05-13T15:42:04.155Z</time>
      </trkpt>
      <trkpt lat="43.72521" lon="1.51862">
        <ele>200.800388</ele>
        <time>2022-05-13T15:42:06.150Z</time>
      </trkpt>
      <trkpt lat="43.72508" lon="1.51851">
        <ele>200.306847</ele>
        <time>2022-05-13T15:42:08.173Z</time>
      </trkpt>
      <trkpt lat="43.72494" lon="1.51839">
        <ele>199.820637</ele>
        <time>2022-05-13T15:42:10.149Z</time>
      </trkpt>
      <trkpt lat="43.72481" lon="1.51829">
        <ele>199.348578</ele>
        <time>2022-05-13T15:42:12.161Z</time>
      </trkpt>
      <trkpt lat="43.72469" lon="1.51818">
        <ele>198.977344</ele>
        <time>2022-05-13T15:42:14.191Z</time>
      </trkpt>
      <trkpt lat="43.72457" lon="1.51808">
        <ele>198.835444</ele>
        <time>2022-05-13T15:42:16.157Z</time>
      </trkpt>
      <trkpt lat="43.72446" lon="1.51799">
        <ele>198.702856</ele>
        <time>2022-05-13T15:42:18.165Z</time>
      </trkpt>
      <trkpt lat="43.72438" lon="1.51788">
        <ele>198.586402</ele>
        <time>2022-05-13T15:42:20.147Z</time>
      </trkpt>
      <trkpt lat="43.72437" lon="1.51774">
        <ele>198.47644</ele>
        <time>2022-05-13T15:42:22.145Z</time>
      </trkpt>
      <trkpt lat="43.72438" lon="1.51758">
        <ele>198.363176</ele>
        <time>2022-05-13T15:42:24.152Z</time>
      </trkpt>
      <trkpt lat="43.72437" lon="1.51743">
        <ele>198.247664</ele>
        <time>2022-05-13T15:42:26.137Z</time>
      </trkpt>
      <trkpt lat="43.72437" lon="1.51727">
        <ele>198.130653</ele>
        <time>2022-05-13T15:42:28.158Z</time>
      </trkpt>
      <trkpt lat="43.72437" lon="1.51712">
        <ele>198.014266</ele>
        <time>2022-05-13T15:42:30.161Z</time>
      </trkpt>
      <trkpt lat="43.72436" lon="1.51696">
        <ele>197.89278</ele>
        <time>2022-05-13T15:42:32.170Z</time>
      </trkpt>
      <trkpt lat="43.72436" lon="1.51679">
        <ele>197.766706</ele>
        <time>2022-05-13T15:42:34.150Z</time>
      </trkpt>
      <trkpt lat="43.72436" lon="1.51662">
        <ele>197.638451</ele>
        <time>2022-05-13T15:42:36.146Z</time>
      </trkpt>
      <trkpt lat="43.72436" lon="1.51645">
        <ele>197.50873</ele>
        <time>2022-05-13T15:42:38.140Z</time>
      </trkpt>
      <trkpt lat="43.72437" lon="1.51627">
        <ele>197.377671</ele>
        <time>2022-05-13T15:42:40.163Z</time>
      </trkpt>
      <trkpt lat="43.7244" lon="1.5161">
        <ele>197.245241</ele>
        <time>2022-05-13T15:42:42.149Z</time>
      </trkpt>
      <trkpt lat="43.72445" lon="1.51594">
        <ele>197.152509</ele>
        <time>2022-05-13T15:42:44.157Z</time>
      </trkpt>
      <trkpt lat="43.72451" lon="1.51579">
        <ele>197.147914</ele>
        <time>2022-05-13T15:42:46.158Z</time>
      </trkpt>
      <trkpt lat="43.72458" lon="1.51564">
        <ele>197.143395</ele>
        <time>2022-05-13T15:42:48.161Z</time>
      </trkpt>
      <trkpt lat="43.72465" lon="1.5155">
        <ele>197.138938</ele>
        <time>2022-05-13T15:42:50.160Z</time>
      </trkpt>
      <trkpt lat="43.7247" lon="1.51534">
        <ele>197.134477</ele>
        <time>2022-05-13T15:42:52.155Z</time>
      </trkpt>
      <trkpt lat="43.72474" lon="1.51518">
        <ele>197.130014</ele>
        <time>2022-05-13T15:42:54.148Z</time>
      </trkpt>
      <trkpt lat="43.72478" lon="1.51502">
        <ele>197.125622</ele>
        <time>2022-05-13T15:42:56.157Z</time>
      </trkpt>
      <trkpt lat="43.72482" lon="1.51486">
        <ele>197.121209</ele>
        <time>2022-05-13T15:42:58.161Z</time>
      </trkpt>
      <trkpt lat="43.72485" lon="1.51471">
        <ele>197.116928</ele>
        <time>2022-05-13T15:43:00.148Z</time>
      </trkpt>
      <trkpt lat="43.7249" lon="1.51456">
        <ele>197.112685</ele>
        <time>2022-05-13T15:43:02.166Z</time>
      </trkpt>
      <trkpt lat="43.72495" lon="1.5144">
        <ele>197.108304</ele>
        <time>2022-05-13T15:43:04.154Z</time>
      </trkpt>
      <trkpt lat="43.725" lon="1.51426">
        <ele>197.10404</ele>
        <time>2022-05-13T15:43:06.148Z</time>
      </trkpt>
      <trkpt lat="43.72508" lon="1.51414">
        <ele>197.100047</ele>
        <time>2022-05-13T15:43:08.150Z</time>
      </trkpt>
      <trkpt lat="43.72515" lon="1.51407">
        <ele>197.09667</ele>
        <time>2022-05-13T15:43:10.160Z</time>
      </trkpt>
      <trkpt lat="43.72524" lon="1.51402">
        <ele>197.093075</ele>
        <time>2022-05-13T15:43:15.156Z</time>
      </trkpt>
      <trkpt lat="43.72525" lon="1.51388">
        <ele>197.089445</ele>
        <time>2022-05-13T15:43:19.151Z</time>
      </trkpt>
      <trkpt lat="43.72518" lon="1.51372">
        <ele>197.134556</ele>
        <time>2022-05-13T15:43:22.147Z</time>
      </trkpt>
      <trkpt lat="43.72512" lon="1.51359">
        <ele>197.176097</ele>
        <time>2022-05-13T15:43:24.160Z</time>
      </trkpt>
      <trkpt lat="43.72505" lon="1.51346">
        <ele>197.220086</ele>
        <time>2022-05-13T15:43:26.162Z</time>
      </trkpt>
      <trkpt lat="43.72498" lon="1.51334">
        <ele>197.264603</ele>
        <time>2022-05-13T15:43:28.165Z</time>
      </trkpt>
      <trkpt lat="43.72491" lon="1.51321">
        <ele>197.310646</ele>
        <time>2022-05-13T15:43:30.146Z</time>
      </trkpt>
      <trkpt lat="43.72483" lon="1.51309">
        <ele>197.354604</ele>
        <time>2022-05-13T15:43:32.166Z</time>
      </trkpt>
      <trkpt lat="43.72476" lon="1.51296">
        <ele>197.399121</ele>
        <time>2022-05-13T15:43:34.148Z</time>
      </trkpt>
      <trkpt lat="43.72468" lon="1.51283">
        <ele>197.446096</ele>
        <time>2022-05-13T15:43:36.169Z</time>
      </trkpt>
      <trkpt lat="43.72459" lon="1.5127">
        <ele>197.495111</ele>
        <time>2022-05-13T15:43:38.159Z</time>
      </trkpt>
      <trkpt lat="43.7245" lon="1.51258">
        <ele>197.542566</ele>
        <time>2022-05-13T15:43:40.136Z</time>
      </trkpt>
      <trkpt lat="43.72441" lon="1.51246">
        <ele>197.591373</ele>
        <time>2022-05-13T15:43:42.152Z</time>
      </trkpt>
      <trkpt lat="43.72435" lon="1.5123">
        <ele>197.640614</ele>
        <time>2022-05-13T15:43:44.144Z</time>
      </trkpt>
      <trkpt lat="43.72427" lon="1.51215">
        <ele>197.689753</ele>
        <time>2022-05-13T15:43:46.155Z</time>
      </trkpt>
      <trkpt lat="43.7242" lon="1.51201">
        <ele>197.738434</ele>
        <time>2022-05-13T15:43:48.163Z</time>
      </trkpt>
      <trkpt lat="43.72412" lon="1.51187">
        <ele>197.765009</ele>
        <time>2022-05-13T15:43:50.149Z</time>
      </trkpt>
      <trkpt lat="43.72405" lon="1.51174">
        <ele>197.727542</ele>
        <time>2022-05-13T15:43:52.157Z</time>
      </trkpt>
      <trkpt lat="43.72399" lon="1.5116">
        <ele>197.690123</ele>
        <time>2022-05-13T15:43:54.159Z</time>
      </trkpt>
      <trkpt lat="43.72393" lon="1.51145">
        <ele>197.652691</ele>
        <time>2022-05-13T15:43:56.178Z</time>
      </trkpt>
      <trkpt lat="43.72387" lon="1.51129">
        <ele>197.612245</ele>
        <time>2022-05-13T15:43:58.152Z</time>
      </trkpt>
      <trkpt lat="43.72379" lon="1.51114">
        <ele>197.570762</ele>
        <time>2022-05-13T15:44:00.153Z</time>
      </trkpt>
      <trkpt lat="43.72372" lon="1.51099">
        <ele>197.529093</ele>
        <time>2022-05-13T15:44:02.144Z</time>
      </trkpt>
      <trkpt lat="43.72365" lon="1.51083">
        <ele>197.487508</ele>
        <time>2022-05-13T15:44:04.153Z</time>
      </trkpt>
      <trkpt lat="43.72357" lon="1.51068">
        <ele>197.445678</ele>
        <time>2022-05-13T15:44:06.156Z</time>
      </trkpt>
      <trkpt lat="43.7235" lon="1.51053">
        <ele>197.404926</ele>
        <time>2022-05-13T15:44:08.150Z</time>
      </trkpt>
      <trkpt lat="43.72342" lon="1.51038">
        <ele>197.364733</ele>
        <time>2022-05-13T15:44:10.164Z</time>
      </trkpt>
      <trkpt lat="43.72334" lon="1.51024">
        <ele>197.324141</ele>
        <time>2022-05-13T15:44:12.167Z</time>
      </trkpt>
      <trkpt lat="43.72327" lon="1.51009">
        <ele>197.283934</ele>
        <time>2022-05-13T15:44:14.153Z</time>
      </trkpt>
      <trkpt lat="43.72321" lon="1.50994">
        <ele>197.24667</ele>
        <time>2022-05-13T15:44:16.157Z</time>
      </trkpt>
      <trkpt lat="43.72315" lon="1.5098">
        <ele>197.216732</ele>
        <time>2022-05-13T15:44:18.152Z</time>
      </trkpt>
      <trkpt lat="43.72308" lon="1.50966">
        <ele>197.22028</ele>
        <time>2022-05-13T15:44:20.167Z</time>
      </trkpt>
      <trkpt lat="43.72302" lon="1.50952">
        <ele>197.223902</ele>
        <time>2022-05-13T15:44:22.153Z</time>
      </trkpt>
      <trkpt lat="43.72295" lon="1.50938">
        <ele>197.227432</ele>
        <time>2022-05-13T15:44:24.157Z</time>
      </trkpt>
      <trkpt lat="43.72288" lon="1.50925">
        <ele>197.230996</ele>
        <time>2022-05-13T15:44:26.166Z</time>
      </trkpt>
      <trkpt lat="43.72279" lon="1.50914">
        <ele>197.23443</ele>
        <time>2022-05-13T15:44:28.145Z</time>
      </trkpt>
      <trkpt lat="43.72271" lon="1.50904">
        <ele>197.23778</ele>
        <time>2022-05-13T15:44:30.170Z</time>
      </trkpt>
      <trkpt lat="43.72261" lon="1.50894">
        <ele>197.241231</ele>
        <time>2022-05-13T15:44:32.143Z</time>
      </trkpt>
      <trkpt lat="43.72251" lon="1.50884">
        <ele>197.244761</ele>
        <time>2022-05-13T15:44:34.143Z</time>
      </trkpt>
      <trkpt lat="43.72242" lon="1.50875">
        <ele>197.248231</ele>
        <time>2022-05-13T15:44:36.167Z</time>
      </trkpt>
      <trkpt lat="43.72232" lon="1.50866">
        <ele>197.251663</ele>
        <time>2022-05-13T15:44:38.161Z</time>
      </trkpt>
      <trkpt lat="43.72222" lon="1.50857">
        <ele>197.255072</ele>
        <time>2022-05-13T15:44:40.162Z</time>
      </trkpt>
      <trkpt lat="43.72213" lon="1.50848">
        <ele>197.258371</ele>
        <time>2022-05-13T15:44:42.146Z</time>
      </trkpt>
      <trkpt lat="43.72204" lon="1.50839">
        <ele>197.261769</ele>
        <time>2022-05-13T15:44:44.155Z</time>
      </trkpt>
      <trkpt lat="43.72195" lon="1.5083">
        <ele>197.265093</ele>
        <time>2022-05-13T15:44:46.161Z</time>
      </trkpt>
      <trkpt lat="43.72186" lon="1.50821">
        <ele>197.268398</ele>
        <time>2022-05-13T15:44:48.168Z</time>
      </trkpt>
      <trkpt lat="43.72177" lon="1.5081">
        <ele>197.352556</ele>
        <time>2022-05-13T15:44:50.161Z</time>
      </trkpt>
      <trkpt lat="43.72169" lon="1.508">
        <ele>197.458874</ele>
        <time>2022-05-13T15:44:52.161Z</time>
      </trkpt>
      <trkpt lat="43.7216" lon="1.50789">
        <ele>197.567716</ele>
        <time>2022-05-13T15:44:54.163Z</time>
      </trkpt>
      <trkpt lat="43.72152" lon="1.50777">
        <ele>197.677816</ele>
        <time>2022-05-13T15:44:56.165Z</time>
      </trkpt>
      <trkpt lat="43.72144" lon="1.50766">
        <ele>197.787998</ele>
        <time>2022-05-13T15:44:58.162Z</time>
      </trkpt>
      <trkpt lat="43.72135" lon="1.50754">
        <ele>197.901208</ele>
        <time>2022-05-13T15:45:00.155Z</time>
      </trkpt>
      <trkpt lat="43.72127" lon="1.50742">
        <ele>198.011001</ele>
        <time>2022-05-13T15:45:02.153Z</time>
      </trkpt>
      <trkpt lat="43.72118" lon="1.50731">
        <ele>198.119574</ele>
        <time>2022-05-13T15:45:04.144Z</time>
      </trkpt>
      <trkpt lat="43.7211" lon="1.50721">
        <ele>198.226163</ele>
        <time>2022-05-13T15:45:06.146Z</time>
      </trkpt>
      <trkpt lat="43.72101" lon="1.50712">
        <ele>198.331974</ele>
        <time>2022-05-13T15:45:08.156Z</time>
      </trkpt>
      <trkpt lat="43.72091" lon="1.50702">
        <ele>198.438078</ele>
        <time>2022-05-13T15:45:10.166Z</time>
      </trkpt>
      <trkpt lat="43.72082" lon="1.50694">
        <ele>198.544165</ele>
        <time>2022-05-13T15:45:12.147Z</time>
      </trkpt>
      <trkpt lat="43.72072" lon="1.50686">
        <ele>198.650991</ele>
        <time>2022-05-13T15:45:14.169Z</time>
      </trkpt>
      <trkpt lat="43.72062" lon="1.50678">
        <ele>198.758964</ele>
        <time>2022-05-13T15:45:16.166Z</time>
      </trkpt>
      <trkpt lat="43.72052" lon="1.5067">
        <ele>198.86643</ele>
        <time>2022-05-13T15:45:18.164Z</time>
      </trkpt>
      <trkpt lat="43.72042" lon="1.50662">
        <ele>199.001567</ele>
        <time>2022-05-13T15:45:20.160Z</time>
      </trkpt>
      <trkpt lat="43.72032" lon="1.50655">
        <ele>199.233452</ele>
        <time>2022-05-13T15:45:22.156Z</time>
      </trkpt>
      <trkpt lat="43.72022" lon="1.50647">
        <ele>199.461073</ele>
        <time>2022-05-13T15:45:24.148Z</time>
      </trkpt>
      <trkpt lat="43.72013" lon="1.50639">
        <ele>199.690549</ele>
        <time>2022-05-13T15:45:26.150Z</time>
      </trkpt>
      <trkpt lat="43.72003" lon="1.50629">
        <ele>199.929081</ele>
        <time>2022-05-13T15:45:28.147Z</time>
      </trkpt>
      <trkpt lat="43.71994" lon="1.5062">
        <ele>200.166133</ele>
        <time>2022-05-13T15:45:30.161Z</time>
      </trkpt>
      <trkpt lat="43.71985" lon="1.50609">
        <ele>200.400422</ele>
        <time>2022-05-13T15:45:32.157Z</time>
      </trkpt>
      <trkpt lat="43.71976" lon="1.50599">
        <ele>200.641373</ele>
        <time>2022-05-13T15:45:34.159Z</time>
      </trkpt>
      <trkpt lat="43.71968" lon="1.50588">
        <ele>200.878264</ele>
        <time>2022-05-13T15:45:36.159Z</time>
      </trkpt>
      <trkpt lat="43.7196" lon="1.50576">
        <ele>201.112134</ele>
        <time>2022-05-13T15:45:38.133Z</time>
      </trkpt>
      <trkpt lat="43.71952" lon="1.50564">
        <ele>201.34355</ele>
        <time>2022-05-13T15:45:40.168Z</time>
      </trkpt>
      <trkpt lat="43.71945" lon="1.50552">
        <ele>201.56829</ele>
        <time>2022-05-13T15:45:42.163Z</time>
      </trkpt>
      <trkpt lat="43.71939" lon="1.50541">
        <ele>201.783163</ele>
        <time>2022-05-13T15:45:44.153Z</time>
      </trkpt>
      <trkpt lat="43.71932" lon="1.50532">
        <ele>201.971461</ele>
        <time>2022-05-13T15:45:46.160Z</time>
      </trkpt>
      <trkpt lat="43.71925" lon="1.50518">
        <ele>202.223036</ele>
        <time>2022-05-13T15:45:49.151Z</time>
      </trkpt>
      <trkpt lat="43.71919" lon="1.50505">
        <ele>202.449943</ele>
        <time>2022-05-13T15:45:52.164Z</time>
      </trkpt>
      <trkpt lat="43.71919" lon="1.50489">
        <ele>202.675936</ele>
        <time>2022-05-13T15:45:55.140Z</time>
      </trkpt>
      <trkpt lat="43.71921" lon="1.50476">
        <ele>202.856713</ele>
        <time>2022-05-13T15:45:57.157Z</time>
      </trkpt>
      <trkpt lat="43.71924" lon="1.50462">
        <ele>203.060777</ele>
        <time>2022-05-13T15:45:59.155Z</time>
      </trkpt>
      <trkpt lat="43.71927" lon="1.50446">
        <ele>203.278005</ele>
        <time>2022-05-13T15:46:01.160Z</time>
      </trkpt>
      <trkpt lat="43.71929" lon="1.50431">
        <ele>203.496589</ele>
        <time>2022-05-13T15:46:03.162Z</time>
      </trkpt>
      <trkpt lat="43.71932" lon="1.50415">
        <ele>203.710334</ele>
        <time>2022-05-13T15:46:05.162Z</time>
      </trkpt>
      <trkpt lat="43.71935" lon="1.504">
        <ele>203.924032</ele>
        <time>2022-05-13T15:46:07.164Z</time>
      </trkpt>
      <trkpt lat="43.71937" lon="1.50385">
        <ele>204.135528</ele>
        <time>2022-05-13T15:46:09.161Z</time>
      </trkpt>
      <trkpt lat="43.7194" lon="1.5037">
        <ele>204.341748</ele>
        <time>2022-05-13T15:46:11.158Z</time>
      </trkpt>
      <trkpt lat="43.71943" lon="1.50356">
        <ele>204.544428</ele>
        <time>2022-05-13T15:46:13.165Z</time>
      </trkpt>
      <trkpt lat="43.71945" lon="1.50341">
        <ele>204.744915</ele>
        <time>2022-05-13T15:46:15.144Z</time>
      </trkpt>
      <trkpt lat="43.71948" lon="1.50327">
        <ele>204.942765</ele>
        <time>2022-05-13T15:46:17.141Z</time>
      </trkpt>
      <trkpt lat="43.7195" lon="1.50313">
        <ele>205.138891</ele>
        <time>2022-05-13T15:46:19.129Z</time>
      </trkpt>
      <trkpt lat="43.71952" lon="1.50299">
        <ele>205.333199</ele>
        <time>2022-05-13T15:46:21.155Z</time>
      </trkpt>
      <trkpt lat="43.71955" lon="1.50286">
        <ele>205.523104</ele>
        <time>2022-05-13T15:46:23.150Z</time>
      </trkpt>
      <trkpt lat="43.71954" lon="1.50273">
        <ele>205.702665</ele>
        <time>2022-05-13T15:46:25.151Z</time>
      </trkpt>
      <trkpt lat="43.71946" lon="1.50261">
        <ele>205.919823</ele>
        <time>2022-05-13T15:46:28.139Z</time>
      </trkpt>
      <trkpt lat="43.71935" lon="1.50265">
        <ele>206.140985</ele>
        <time>2022-05-13T15:46:31.165Z</time>
      </trkpt>
      <trkpt lat="43.71922" lon="1.50267">
        <ele>206.408985</ele>
        <time>2022-05-13T15:46:34.160Z</time>
      </trkpt>
      <trkpt lat="43.71912" lon="1.50266">
        <ele>206.604503</ele>
        <time>2022-05-13T15:46:36.158Z</time>
      </trkpt>
      <trkpt lat="43.71901" lon="1.50265">
        <ele>206.809371</ele>
        <time>2022-05-13T15:46:38.149Z</time>
      </trkpt>
      <trkpt lat="43.71892" lon="1.50261">
        <ele>207.008917</ele>
        <time>2022-05-13T15:46:40.159Z</time>
      </trkpt>
      <trkpt lat="43.71882" lon="1.50254">
        <ele>207.226617</ele>
        <time>2022-05-13T15:46:42.158Z</time>
      </trkpt>
      <trkpt lat="43.71873" lon="1.50244">
        <ele>207.449015</ele>
        <time>2022-05-13T15:46:44.146Z</time>
      </trkpt>
      <trkpt lat="43.71865" lon="1.50232">
        <ele>207.678211</ele>
        <time>2022-05-13T15:46:46.164Z</time>
      </trkpt>
      <trkpt lat="43.71858" lon="1.5022">
        <ele>207.899991</ele>
        <time>2022-05-13T15:46:48.149Z</time>
      </trkpt>
      <trkpt lat="43.7185" lon="1.50209">
        <ele>208.12607</ele>
        <time>2022-05-13T15:46:50.161Z</time>
      </trkpt>
      <trkpt lat="43.71842" lon="1.50197">
        <ele>208.35805</ele>
        <time>2022-05-13T15:46:52.175Z</time>
      </trkpt>
      <trkpt lat="43.71833" lon="1.50185">
        <ele>208.595161</ele>
        <time>2022-05-13T15:46:54.176Z</time>
      </trkpt>
      <trkpt lat="43.71826" lon="1.50173">
        <ele>208.821447</ele>
        <time>2022-05-13T15:46:56.148Z</time>
      </trkpt>
      <trkpt lat="43.71818" lon="1.50162">
        <ele>209.047526</ele>
        <time>2022-05-13T15:46:58.171Z</time>
      </trkpt>
      <trkpt lat="43.7181" lon="1.5015">
        <ele>209.275388</ele>
        <time>2022-05-13T15:47:00.161Z</time>
      </trkpt>
      <trkpt lat="43.71803" lon="1.50138">
        <ele>209.499546</ele>
        <time>2022-05-13T15:47:02.176Z</time>
      </trkpt>
      <trkpt lat="43.71795" lon="1.50126">
        <ele>209.655579</ele>
        <time>2022-05-13T15:47:04.158Z</time>
      </trkpt>
      <trkpt lat="43.71787" lon="1.50114">
        <ele>209.794267</ele>
        <time>2022-05-13T15:47:06.163Z</time>
      </trkpt>
      <trkpt lat="43.71779" lon="1.50102">
        <ele>209.93105</ele>
        <time>2022-05-13T15:47:08.169Z</time>
      </trkpt>
      <trkpt lat="43.71771" lon="1.50091">
        <ele>210.065757</ele>
        <time>2022-05-13T15:47:10.165Z</time>
      </trkpt>
      <trkpt lat="43.71762" lon="1.5008">
        <ele>210.209378</ele>
        <time>2022-05-13T15:47:12.168Z</time>
      </trkpt>
      <trkpt lat="43.71753" lon="1.5007">
        <ele>210.353019</ele>
        <time>2022-05-13T15:47:14.167Z</time>
      </trkpt>
      <trkpt lat="43.71742" lon="1.50061">
        <ele>210.496501</ele>
        <time>2022-05-13T15:47:16.165Z</time>
      </trkpt>
      <trkpt lat="43.71732" lon="1.50054">
        <ele>210.637227</ele>
        <time>2022-05-13T15:47:18.163Z</time>
      </trkpt>
      <trkpt lat="43.7172" lon="1.50049">
        <ele>210.777966</ele>
        <time>2022-05-13T15:47:20.160Z</time>
      </trkpt>
      <trkpt lat="43.71709" lon="1.50044">
        <ele>210.917121</ele>
        <time>2022-05-13T15:47:22.163Z</time>
      </trkpt>
      <trkpt lat="43.71698" lon="1.5004">
        <ele>211.052366</ele>
        <time>2022-05-13T15:47:24.158Z</time>
      </trkpt>
      <trkpt lat="43.71687" lon="1.50035">
        <ele>211.186897</ele>
        <time>2022-05-13T15:47:26.155Z</time>
      </trkpt>
      <trkpt lat="43.71677" lon="1.50031">
        <ele>211.319776</ele>
        <time>2022-05-13T15:47:28.156Z</time>
      </trkpt>
      <trkpt lat="43.71667" lon="1.50025">
        <ele>211.450738</ele>
        <time>2022-05-13T15:47:30.154Z</time>
      </trkpt>
      <trkpt lat="43.71656" lon="1.50019">
        <ele>211.585382</ele>
        <time>2022-05-13T15:47:32.155Z</time>
      </trkpt>
      <trkpt lat="43.71647" lon="1.50008">
        <ele>211.790432</ele>
        <time>2022-05-13T15:47:34.161Z</time>
      </trkpt>
      <trkpt lat="43.71641" lon="1.49995">
        <ele>212.112164</ele>
        <time>2022-05-13T15:47:36.145Z</time>
      </trkpt>
      <trkpt lat="43.71637" lon="1.4998">
        <ele>212.425813</ele>
        <time>2022-05-13T15:47:38.164Z</time>
      </trkpt>
      <trkpt lat="43.71634" lon="1.49965">
        <ele>212.738742</ele>
        <time>2022-05-13T15:47:40.153Z</time>
      </trkpt>
      <trkpt lat="43.71632" lon="1.4995">
        <ele>213.052049</ele>
        <time>2022-05-13T15:47:42.160Z</time>
      </trkpt>
      <trkpt lat="43.7163" lon="1.49935">
        <ele>213.366395</ele>
        <time>2022-05-13T15:47:44.166Z</time>
      </trkpt>
      <trkpt lat="43.71629" lon="1.49919">
        <ele>213.68116</ele>
        <time>2022-05-13T15:47:46.168Z</time>
      </trkpt>
      <trkpt lat="43.71627" lon="1.49904">
        <ele>213.995968</ele>
        <time>2022-05-13T15:47:48.156Z</time>
      </trkpt>
      <trkpt lat="43.71625" lon="1.49888">
        <ele>214.306805</ele>
        <time>2022-05-13T15:47:50.159Z</time>
      </trkpt>
      <trkpt lat="43.71623" lon="1.49873">
        <ele>214.6226</ele>
        <time>2022-05-13T15:47:52.165Z</time>
      </trkpt>
      <trkpt lat="43.71621" lon="1.49858">
        <ele>214.936415</ele>
        <time>2022-05-13T15:47:54.165Z</time>
      </trkpt>
      <trkpt lat="43.71619" lon="1.49842">
        <ele>215.256693</ele>
        <time>2022-05-13T15:47:56.167Z</time>
      </trkpt>
      <trkpt lat="43.71616" lon="1.49827">
        <ele>215.564572</ele>
        <time>2022-05-13T15:47:58.161Z</time>
      </trkpt>
      <trkpt lat="43.71614" lon="1.49812">
        <ele>215.869951</ele>
        <time>2022-05-13T15:48:00.162Z</time>
      </trkpt>
      <trkpt lat="43.71612" lon="1.49797">
        <ele>216.174423</ele>
        <time>2022-05-13T15:48:02.165Z</time>
      </trkpt>
      <trkpt lat="43.7161" lon="1.49784">
        <ele>216.451047</ele>
        <time>2022-05-13T15:48:04.147Z</time>
      </trkpt>
      <trkpt lat="43.7161" lon="1.4977">
        <ele>216.826034</ele>
        <time>2022-05-13T15:48:07.133Z</time>
      </trkpt>
      <trkpt lat="43.71605" lon="1.49754">
        <ele>217.899305</ele>
        <time>2022-05-13T15:48:12.159Z</time>
      </trkpt>
      <trkpt lat="43.71602" lon="1.49738">
        <ele>218.913316</ele>
        <time>2022-05-13T15:48:15.149Z</time>
      </trkpt>
      <trkpt lat="43.71597" lon="1.49722">
        <ele>219.997107</ele>
        <time>2022-05-13T15:48:18.169Z</time>
      </trkpt>
      <trkpt lat="43.71593" lon="1.49706">
        <ele>221.069369</ele>
        <time>2022-05-13T15:48:21.159Z</time>
      </trkpt>
      <trkpt lat="43.71589" lon="1.4969">
        <ele>222.082057</ele>
        <time>2022-05-13T15:48:24.148Z</time>
      </trkpt>
      <trkpt lat="43.71589" lon="1.49672">
        <ele>223.223267</ele>
        <time>2022-05-13T15:48:27.156Z</time>
      </trkpt>
      <trkpt lat="43.71589" lon="1.49654">
        <ele>224.363415</ele>
        <time>2022-05-13T15:48:30.157Z</time>
      </trkpt>
      <trkpt lat="43.71589" lon="1.49636">
        <ele>225.448152</ele>
        <time>2022-05-13T15:48:33.163Z</time>
      </trkpt>
      <trkpt lat="43.71589" lon="1.49619">
        <ele>226.525848</ele>
        <time>2022-05-13T15:48:36.169Z</time>
      </trkpt>
      <trkpt lat="43.71589" lon="1.49603">
        <ele>227.51687</ele>
        <time>2022-05-13T15:48:39.149Z</time>
      </trkpt>
      <trkpt lat="43.7159" lon="1.49589">
        <ele>228.372282</ele>
        <time>2022-05-13T15:48:42.141Z</time>
      </trkpt>
      <trkpt lat="43.7159" lon="1.49574">
        <ele>229.289303</ele>
        <time>2022-05-13T15:48:45.144Z</time>
      </trkpt>
      <trkpt lat="43.7159" lon="1.49561">
        <ele>230.088468</ele>
        <time>2022-05-13T15:48:48.171Z</time>
      </trkpt>
      <trkpt lat="43.71591" lon="1.49545">
        <ele>231.06272</ele>
        <time>2022-05-13T15:48:51.139Z</time>
      </trkpt>
      <trkpt lat="43.71592" lon="1.4953">
        <ele>232.013483</ele>
        <time>2022-05-13T15:48:54.150Z</time>
      </trkpt>
      <trkpt lat="43.71593" lon="1.49515">
        <ele>232.605877</ele>
        <time>2022-05-13T15:48:57.145Z</time>
      </trkpt>
      <trkpt lat="43.71593" lon="1.495">
        <ele>233.131679</ele>
        <time>2022-05-13T15:49:00.137Z</time>
      </trkpt>
      <trkpt lat="43.71592" lon="1.49487">
        <ele>233.621862</ele>
        <time>2022-05-13T15:49:03.154Z</time>
      </trkpt>
      <trkpt lat="43.71592" lon="1.49471">
        <ele>234.205705</ele>
        <time>2022-05-13T15:49:06.155Z</time>
      </trkpt>
      <trkpt lat="43.71592" lon="1.49456">
        <ele>234.756914</ele>
        <time>2022-05-13T15:49:09.143Z</time>
      </trkpt>
      <trkpt lat="43.71592" lon="1.4944">
        <ele>235.308306</ele>
        <time>2022-05-13T15:49:12.164Z</time>
      </trkpt>
      <trkpt lat="43.7159" lon="1.49427">
        <ele>235.796367</ele>
        <time>2022-05-13T15:49:15.155Z</time>
      </trkpt>
      <trkpt lat="43.71587" lon="1.49412">
        <ele>236.374525</ele>
        <time>2022-05-13T15:49:18.164Z</time>
      </trkpt>
      <trkpt lat="43.71585" lon="1.49396">
        <ele>236.944761</ele>
        <time>2022-05-13T15:49:21.144Z</time>
      </trkpt>
      <trkpt lat="43.7158" lon="1.49386">
        <ele>237.397501</ele>
        <time>2022-05-13T15:49:23.156Z</time>
      </trkpt>
      <trkpt lat="43.71574" lon="1.49374">
        <ele>237.906364</ele>
        <time>2022-05-13T15:49:25.165Z</time>
      </trkpt>
      <trkpt lat="43.71569" lon="1.49362">
        <ele>238.44274</ele>
        <time>2022-05-13T15:49:27.165Z</time>
      </trkpt>
      <trkpt lat="43.71563" lon="1.49348">
        <ele>239.015964</ele>
        <time>2022-05-13T15:49:29.162Z</time>
      </trkpt>
      <trkpt lat="43.71558" lon="1.49335">
        <ele>239.54775</ele>
        <time>2022-05-13T15:49:31.167Z</time>
      </trkpt>
      <trkpt lat="43.71553" lon="1.49323">
        <ele>240.068991</ele>
        <time>2022-05-13T15:49:33.164Z</time>
      </trkpt>
      <trkpt lat="43.71547" lon="1.4931">
        <ele>240.605369</ele>
        <time>2022-05-13T15:49:35.164Z</time>
      </trkpt>
      <trkpt lat="43.71541" lon="1.49297">
        <ele>241.162212</ele>
        <time>2022-05-13T15:49:37.165Z</time>
      </trkpt>
      <trkpt lat="43.71534" lon="1.49283">
        <ele>241.538285</ele>
        <time>2022-05-13T15:49:39.162Z</time>
      </trkpt>
      <trkpt lat="43.71527" lon="1.49269">
        <ele>241.900248</ele>
        <time>2022-05-13T15:49:41.135Z</time>
      </trkpt>
      <trkpt lat="43.71521" lon="1.49255">
        <ele>242.271647</ele>
        <time>2022-05-13T15:49:43.175Z</time>
      </trkpt>
      <trkpt lat="43.71515" lon="1.49241">
        <ele>242.625681</ele>
        <time>2022-05-13T15:49:45.157Z</time>
      </trkpt>
      <trkpt lat="43.7151" lon="1.49228">
        <ele>242.967703</ele>
        <time>2022-05-13T15:49:47.155Z</time>
      </trkpt>
      <trkpt lat="43.71504" lon="1.49215">
        <ele>243.30111</ele>
        <time>2022-05-13T15:49:49.160Z</time>
      </trkpt>
      <trkpt lat="43.71497" lon="1.49202">
        <ele>243.646742</ele>
        <time>2022-05-13T15:49:51.132Z</time>
      </trkpt>
      <trkpt lat="43.7149" lon="1.4919">
        <ele>244.002062</ele>
        <time>2022-05-13T15:49:53.120Z</time>
      </trkpt>
      <trkpt lat="43.71483" lon="1.49178">
        <ele>244.342802</ele>
        <time>2022-05-13T15:49:55.133Z</time>
      </trkpt>
      <trkpt lat="43.71476" lon="1.49166">
        <ele>244.676112</ele>
        <time>2022-05-13T15:49:57.139Z</time>
      </trkpt>
      <trkpt lat="43.71469" lon="1.49155">
        <ele>244.997361</ele>
        <time>2022-05-13T15:49:59.142Z</time>
      </trkpt>
      <trkpt lat="43.71462" lon="1.49143">
        <ele>245.327385</ele>
        <time>2022-05-13T15:50:01.159Z</time>
      </trkpt>
      <trkpt lat="43.71455" lon="1.49133">
        <ele>245.650905</ele>
        <time>2022-05-13T15:50:03.153Z</time>
      </trkpt>
      <trkpt lat="43.71448" lon="1.49122">
        <ele>245.962428</ele>
        <time>2022-05-13T15:50:05.175Z</time>
      </trkpt>
      <trkpt lat="43.71441" lon="1.49112">
        <ele>246.271203</ele>
        <time>2022-05-13T15:50:07.149Z</time>
      </trkpt>
      <trkpt lat="43.71433" lon="1.49102">
        <ele>246.595579</ele>
        <time>2022-05-13T15:50:09.155Z</time>
      </trkpt>
      <trkpt lat="43.71426" lon="1.49092">
        <ele>246.798913</ele>
        <time>2022-05-13T15:50:11.167Z</time>
      </trkpt>
      <trkpt lat="43.71419" lon="1.49082">
        <ele>246.989959</ele>
        <time>2022-05-13T15:50:13.170Z</time>
      </trkpt>
      <trkpt lat="43.71412" lon="1.49071">
        <ele>247.178153</ele>
        <time>2022-05-13T15:50:15.148Z</time>
      </trkpt>
      <trkpt lat="43.71404" lon="1.49062">
        <ele>247.37146</ele>
        <time>2022-05-13T15:50:17.167Z</time>
      </trkpt>
      <trkpt lat="43.71396" lon="1.49052">
        <ele>247.565663</ele>
        <time>2022-05-13T15:50:19.169Z</time>
      </trkpt>
      <trkpt lat="43.71389" lon="1.4904">
        <ele>247.775067</ele>
        <time>2022-05-13T15:50:21.143Z</time>
      </trkpt>
      <trkpt lat="43.71381" lon="1.49029">
        <ele>247.969006</ele>
        <time>2022-05-13T15:50:23.146Z</time>
      </trkpt>
      <trkpt lat="43.71375" lon="1.49016">
        <ele>248.177721</ele>
        <time>2022-05-13T15:50:25.169Z</time>
      </trkpt>
      <trkpt lat="43.71369" lon="1.49002">
        <ele>248.388932</ele>
        <time>2022-05-13T15:50:27.150Z</time>
      </trkpt>
      <trkpt lat="43.71365" lon="1.48987">
        <ele>248.599165</ele>
        <time>2022-05-13T15:50:29.154Z</time>
      </trkpt>
      <trkpt lat="43.71361" lon="1.48971">
        <ele>248.818906</ele>
        <time>2022-05-13T15:50:31.158Z</time>
      </trkpt>
      <trkpt lat="43.71357" lon="1.48956">
        <ele>249.037457</ele>
        <time>2022-05-13T15:50:33.134Z</time>
      </trkpt>
      <trkpt lat="43.71352" lon="1.4894">
        <ele>249.257271</ele>
        <time>2022-05-13T15:50:35.168Z</time>
      </trkpt>
      <trkpt lat="43.71346" lon="1.48925">
        <ele>249.490848</ele>
        <time>2022-05-13T15:50:37.176Z</time>
      </trkpt>
      <trkpt lat="43.71339" lon="1.48909">
        <ele>249.733781</ele>
        <time>2022-05-13T15:50:39.153Z</time>
      </trkpt>
      <trkpt lat="43.71331" lon="1.48893">
        <ele>249.900463</ele>
        <time>2022-05-13T15:50:41.161Z</time>
      </trkpt>
      <trkpt lat="43.71323" lon="1.48877">
        <ele>249.849316</ele>
        <time>2022-05-13T15:50:43.162Z</time>
      </trkpt>
      <trkpt lat="43.71316" lon="1.48862">
        <ele>249.800933</ele>
        <time>2022-05-13T15:50:45.161Z</time>
      </trkpt>
      <trkpt lat="43.71308" lon="1.48847">
        <ele>249.754645</ele>
        <time>2022-05-13T15:50:47.162Z</time>
      </trkpt>
      <trkpt lat="43.713" lon="1.48834">
        <ele>249.70904</ele>
        <time>2022-05-13T15:50:49.167Z</time>
      </trkpt>
      <trkpt lat="43.71292" lon="1.48819">
        <ele>249.662956</ele>
        <time>2022-05-13T15:50:51.166Z</time>
      </trkpt>
      <trkpt lat="43.71284" lon="1.48805">
        <ele>249.617501</ele>
        <time>2022-05-13T15:50:53.169Z</time>
      </trkpt>
      <trkpt lat="43.71277" lon="1.48791">
        <ele>249.573725</ele>
        <time>2022-05-13T15:50:55.159Z</time>
      </trkpt>
      <trkpt lat="43.7127" lon="1.48778">
        <ele>249.530575</ele>
        <time>2022-05-13T15:50:57.160Z</time>
      </trkpt>
      <trkpt lat="43.71263" lon="1.48765">
        <ele>249.487637</ele>
        <time>2022-05-13T15:50:59.176Z</time>
      </trkpt>
      <trkpt lat="43.71255" lon="1.48752">
        <ele>249.444652</ele>
        <time>2022-05-13T15:51:01.158Z</time>
      </trkpt>
      <trkpt lat="43.71249" lon="1.48739">
        <ele>249.404427</ele>
        <time>2022-05-13T15:51:03.163Z</time>
      </trkpt>
      <trkpt lat="43.71242" lon="1.48727">
        <ele>249.363766</ele>
        <time>2022-05-13T15:51:05.176Z</time>
      </trkpt>
      <trkpt lat="43.71235" lon="1.48715">
        <ele>249.323086</ele>
        <time>2022-05-13T15:51:07.167Z</time>
      </trkpt>
      <trkpt lat="43.71227" lon="1.48703">
        <ele>249.281616</ele>
        <time>2022-05-13T15:51:09.172Z</time>
      </trkpt>
      <trkpt lat="43.71219" lon="1.4869">
        <ele>249.243942</ele>
        <time>2022-05-13T15:51:11.157Z</time>
      </trkpt>
      <trkpt lat="43.71211" lon="1.48677">
        <ele>249.206848</ele>
        <time>2022-05-13T15:51:13.165Z</time>
      </trkpt>
      <trkpt lat="43.71204" lon="1.48665">
        <ele>249.170121</ele>
        <time>2022-05-13T15:51:15.146Z</time>
      </trkpt>
      <trkpt lat="43.71196" lon="1.48652">
        <ele>249.132778</ele>
        <time>2022-05-13T15:51:17.147Z</time>
      </trkpt>
      <trkpt lat="43.71188" lon="1.4864">
        <ele>249.096341</ele>
        <time>2022-05-13T15:51:19.171Z</time>
      </trkpt>
      <trkpt lat="43.71181" lon="1.48627">
        <ele>249.060202</ele>
        <time>2022-05-13T15:51:21.144Z</time>
      </trkpt>
      <trkpt lat="43.71173" lon="1.48615">
        <ele>249.025346</ele>
        <time>2022-05-13T15:51:23.162Z</time>
      </trkpt>
      <trkpt lat="43.71165" lon="1.48604">
        <ele>248.990624</ele>
        <time>2022-05-13T15:51:25.161Z</time>
      </trkpt>
      <trkpt lat="43.71158" lon="1.48593">
        <ele>248.955191</ele>
        <time>2022-05-13T15:51:27.168Z</time>
      </trkpt>
      <trkpt lat="43.71149" lon="1.48581">
        <ele>248.918492</ele>
        <time>2022-05-13T15:51:29.148Z</time>
      </trkpt>
      <trkpt lat="43.71141" lon="1.48569">
        <ele>248.881577</ele>
        <time>2022-05-13T15:51:31.152Z</time>
      </trkpt>
      <trkpt lat="43.71132" lon="1.48558">
        <ele>248.843468</ele>
        <time>2022-05-13T15:51:33.154Z</time>
      </trkpt>
      <trkpt lat="43.71122" lon="1.48546">
        <ele>248.803462</ele>
        <time>2022-05-13T15:51:35.162Z</time>
      </trkpt>
      <trkpt lat="43.71112" lon="1.48535">
        <ele>248.763885</ele>
        <time>2022-05-13T15:51:37.171Z</time>
      </trkpt>
      <trkpt lat="43.71102" lon="1.48523">
        <ele>248.722741</ele>
        <time>2022-05-13T15:51:39.155Z</time>
      </trkpt>
      <trkpt lat="43.71092" lon="1.48511">
        <ele>248.679937</ele>
        <time>2022-05-13T15:51:41.163Z</time>
      </trkpt>
      <trkpt lat="43.71082" lon="1.485">
        <ele>248.635328</ele>
        <time>2022-05-13T15:51:43.166Z</time>
      </trkpt>
      <trkpt lat="43.71072" lon="1.48489">
        <ele>248.593111</ele>
        <time>2022-05-13T15:51:45.159Z</time>
      </trkpt>
      <trkpt lat="43.71063" lon="1.48477">
        <ele>248.549997</ele>
        <time>2022-05-13T15:51:47.155Z</time>
      </trkpt>
      <trkpt lat="43.71053" lon="1.48465">
        <ele>248.506641</ele>
        <time>2022-05-13T15:51:49.158Z</time>
      </trkpt>
      <trkpt lat="43.71044" lon="1.48455">
        <ele>248.465111</ele>
        <time>2022-05-13T15:51:51.170Z</time>
      </trkpt>
      <trkpt lat="43.71034" lon="1.48444">
        <ele>248.423924</ele>
        <time>2022-05-13T15:51:53.172Z</time>
      </trkpt>
      <trkpt lat="43.71025" lon="1.48436">
        <ele>248.387808</ele>
        <time>2022-05-13T15:51:55.169Z</time>
      </trkpt>
      <trkpt lat="43.71016" lon="1.48426">
        <ele>248.348175</ele>
        <time>2022-05-13T15:51:58.160Z</time>
      </trkpt>
      <trkpt lat="43.71008" lon="1.48419">
        <ele>248.31485</ele>
        <time>2022-05-13T15:52:08.176Z</time>
      </trkpt>
      <trkpt lat="43.70999" lon="1.48406">
        <ele>248.271914</ele>
        <time>2022-05-13T15:52:12.153Z</time>
      </trkpt>
      <trkpt lat="43.70991" lon="1.48398">
        <ele>248.237866</ele>
        <time>2022-05-13T15:52:14.140Z</time>
      </trkpt>
      <trkpt lat="43.70982" lon="1.48388">
        <ele>248.197934</ele>
        <time>2022-05-13T15:52:16.159Z</time>
      </trkpt>
      <trkpt lat="43.70971" lon="1.48378">
        <ele>248.155122</ele>
        <time>2022-05-13T15:52:18.146Z</time>
      </trkpt>
      <trkpt lat="43.70961" lon="1.48367">
        <ele>248.111695</ele>
        <time>2022-05-13T15:52:20.156Z</time>
      </trkpt>
      <trkpt lat="43.70951" lon="1.48356">
        <ele>248.107569</ele>
        <time>2022-05-13T15:52:22.158Z</time>
      </trkpt>
      <trkpt lat="43.70941" lon="1.48346">
        <ele>248.107928</ele>
        <time>2022-05-13T15:52:24.156Z</time>
      </trkpt>
      <trkpt lat="43.7093" lon="1.48337">
        <ele>248.108285</ele>
        <time>2022-05-13T15:52:26.172Z</time>
      </trkpt>
      <trkpt lat="43.70918" lon="1.48328">
        <ele>248.108652</ele>
        <time>2022-05-13T15:52:28.159Z</time>
      </trkpt>
      <trkpt lat="43.70907" lon="1.4832">
        <ele>248.109021</ele>
        <time>2022-05-13T15:52:30.157Z</time>
      </trkpt>
      <trkpt lat="43.70895" lon="1.48312">
        <ele>248.109388</ele>
        <time>2022-05-13T15:52:32.160Z</time>
      </trkpt>
      <trkpt lat="43.70883" lon="1.48304">
        <ele>248.109754</ele>
        <time>2022-05-13T15:52:34.165Z</time>
      </trkpt>
      <trkpt lat="43.70872" lon="1.48296">
        <ele>248.110116</ele>
        <time>2022-05-13T15:52:36.161Z</time>
      </trkpt>
      <trkpt lat="43.7086" lon="1.48288">
        <ele>248.110475</ele>
        <time>2022-05-13T15:52:38.164Z</time>
      </trkpt>
      <trkpt lat="43.70849" lon="1.4828">
        <ele>248.110828</ele>
        <time>2022-05-13T15:52:40.161Z</time>
      </trkpt>
      <trkpt lat="43.70838" lon="1.48272">
        <ele>248.111182</ele>
        <time>2022-05-13T15:52:42.163Z</time>
      </trkpt>
      <trkpt lat="43.70826" lon="1.48265">
        <ele>248.111533</ele>
        <time>2022-05-13T15:52:44.158Z</time>
      </trkpt>
      <trkpt lat="43.70815" lon="1.48257">
        <ele>248.111885</ele>
        <time>2022-05-13T15:52:46.160Z</time>
      </trkpt>
      <trkpt lat="43.70804" lon="1.48249">
        <ele>248.11223</ele>
        <time>2022-05-13T15:52:48.152Z</time>
      </trkpt>
      <trkpt lat="43.70794" lon="1.48241">
        <ele>248.140528</ele>
        <time>2022-05-13T15:52:50.160Z</time>
      </trkpt>
      <trkpt lat="43.70783" lon="1.48234">
        <ele>248.174527</ele>
        <time>2022-05-13T15:52:52.155Z</time>
      </trkpt>
      <trkpt lat="43.70772" lon="1.48227">
        <ele>248.208429</ele>
        <time>2022-05-13T15:52:54.157Z</time>
      </trkpt>
      <trkpt lat="43.70762" lon="1.4822">
        <ele>248.241915</ele>
        <time>2022-05-13T15:52:56.155Z</time>
      </trkpt>
      <trkpt lat="43.70752" lon="1.48213">
        <ele>248.274508</ele>
        <time>2022-05-13T15:52:58.166Z</time>
      </trkpt>
      <trkpt lat="43.70741" lon="1.48207">
        <ele>248.307108</ele>
        <time>2022-05-13T15:53:00.151Z</time>
      </trkpt>
      <trkpt lat="43.70731" lon="1.48201">
        <ele>248.339807</ele>
        <time>2022-05-13T15:53:02.159Z</time>
      </trkpt>
      <trkpt lat="43.7072" lon="1.48195">
        <ele>248.372852</ele>
        <time>2022-05-13T15:53:04.152Z</time>
      </trkpt>
      <trkpt lat="43.7071" lon="1.48188">
        <ele>248.405882</ele>
        <time>2022-05-13T15:53:06.163Z</time>
      </trkpt>
      <trkpt lat="43.70699" lon="1.48181">
        <ele>248.438652</ele>
        <time>2022-05-13T15:53:08.152Z</time>
      </trkpt>
      <trkpt lat="43.70689" lon="1.48174">
        <ele>248.471162</ele>
        <time>2022-05-13T15:53:10.159Z</time>
      </trkpt>
      <trkpt lat="43.7068" lon="1.48166">
        <ele>248.502829</ele>
        <time>2022-05-13T15:53:12.158Z</time>
      </trkpt>
      <trkpt lat="43.70672" lon="1.48156">
        <ele>248.533918</ele>
        <time>2022-05-13T15:53:14.150Z</time>
      </trkpt>
      <trkpt lat="43.70663" lon="1.48147">
        <ele>248.564897</ele>
        <time>2022-05-13T15:53:16.161Z</time>
      </trkpt>
      <trkpt lat="43.70656" lon="1.48136">
        <ele>248.596631</ele>
        <time>2022-05-13T15:53:18.159Z</time>
      </trkpt>
      <trkpt lat="43.70648" lon="1.48123">
        <ele>248.625719</ele>
        <time>2022-05-13T15:53:20.150Z</time>
      </trkpt>
      <trkpt lat="43.70641" lon="1.4811">
        <ele>248.541459</ele>
        <time>2022-05-13T15:53:22.152Z</time>
      </trkpt>
      <trkpt lat="43.70633" lon="1.48095">
        <ele>248.453171</ele>
        <time>2022-05-13T15:53:24.157Z</time>
      </trkpt>
      <trkpt lat="43.70626" lon="1.48081">
        <ele>248.364474</ele>
        <time>2022-05-13T15:53:26.153Z</time>
      </trkpt>
      <trkpt lat="43.70618" lon="1.48067">
        <ele>248.275313</ele>
        <time>2022-05-13T15:53:28.150Z</time>
      </trkpt>
      <trkpt lat="43.7061" lon="1.48053">
        <ele>248.187025</ele>
        <time>2022-05-13T15:53:30.150Z</time>
      </trkpt>
      <trkpt lat="43.70602" lon="1.48039">
        <ele>248.099495</ele>
        <time>2022-05-13T15:53:32.159Z</time>
      </trkpt>
      <trkpt lat="43.70595" lon="1.48024">
        <ele>248.011206</ele>
        <time>2022-05-13T15:53:34.156Z</time>
      </trkpt>
      <trkpt lat="43.70587" lon="1.48011">
        <ele>247.925743</ele>
        <time>2022-05-13T15:53:36.154Z</time>
      </trkpt>
      <trkpt lat="43.7058" lon="1.47996">
        <ele>247.839067</ele>
        <time>2022-05-13T15:53:38.165Z</time>
      </trkpt>
      <trkpt lat="43.70573" lon="1.47982">
        <ele>247.753982</ele>
        <time>2022-05-13T15:53:40.166Z</time>
      </trkpt>
      <trkpt lat="43.70566" lon="1.47968">
        <ele>247.667958</ele>
        <time>2022-05-13T15:53:42.154Z</time>
      </trkpt>
      <trkpt lat="43.7056" lon="1.47953">
        <ele>247.582355</ele>
        <time>2022-05-13T15:53:44.157Z</time>
      </trkpt>
      <trkpt lat="43.70554" lon="1.4794">
        <ele>247.503882</ele>
        <time>2022-05-13T15:53:46.164Z</time>
      </trkpt>
      <trkpt lat="43.70547" lon="1.47926">
        <ele>247.421064</ele>
        <time>2022-05-13T15:53:48.163Z</time>
      </trkpt>
      <trkpt lat="43.70541" lon="1.47912">
        <ele>247.472984</ele>
        <time>2022-05-13T15:53:50.156Z</time>
      </trkpt>
      <trkpt lat="43.70535" lon="1.47898">
        <ele>247.596446</ele>
        <time>2022-05-13T15:53:52.158Z</time>
      </trkpt>
      <trkpt lat="43.7053" lon="1.47884">
        <ele>247.725256</ele>
        <time>2022-05-13T15:53:54.159Z</time>
      </trkpt>
      <trkpt lat="43.70523" lon="1.47871">
        <ele>247.851126</ele>
        <time>2022-05-13T15:53:56.161Z</time>
      </trkpt>
      <trkpt lat="43.70517" lon="1.47858">
        <ele>247.977586</ele>
        <time>2022-05-13T15:53:58.150Z</time>
      </trkpt>
      <trkpt lat="43.70511" lon="1.47844">
        <ele>248.105845</ele>
        <time>2022-05-13T15:54:00.191Z</time>
      </trkpt>
      <trkpt lat="43.70506" lon="1.47829">
        <ele>248.237412</ele>
        <time>2022-05-13T15:54:02.150Z</time>
      </trkpt>
      <trkpt lat="43.705" lon="1.47815">
        <ele>248.367569</ele>
        <time>2022-05-13T15:54:04.163Z</time>
      </trkpt>
      <trkpt lat="43.70495" lon="1.47801">
        <ele>248.493387</ele>
        <time>2022-05-13T15:54:06.146Z</time>
      </trkpt>
      <trkpt lat="43.70489" lon="1.47787">
        <ele>248.616562</ele>
        <time>2022-05-13T15:54:08.178Z</time>
      </trkpt>
      <trkpt lat="43.70482" lon="1.47776">
        <ele>248.73606</ele>
        <time>2022-05-13T15:54:10.163Z</time>
      </trkpt>
      <trkpt lat="43.70474" lon="1.47767">
        <ele>248.851815</ele>
        <time>2022-05-13T15:54:12.149Z</time>
      </trkpt>
      <trkpt lat="43.70464" lon="1.4776">
        <ele>248.970769</ele>
        <time>2022-05-13T15:54:14.157Z</time>
      </trkpt>
      <trkpt lat="43.70454" lon="1.47754">
        <ele>249.090939</ele>
        <time>2022-05-13T15:54:16.161Z</time>
      </trkpt>
      <trkpt lat="43.70444" lon="1.47748">
        <ele>249.212503</ele>
        <time>2022-05-13T15:54:18.157Z</time>
      </trkpt>
      <trkpt lat="43.70433" lon="1.47744">
        <ele>249.33442</ele>
        <time>2022-05-13T15:54:20.162Z</time>
      </trkpt>
      <trkpt lat="43.70423" lon="1.47739">
        <ele>249.571273</ele>
        <time>2022-05-13T15:54:22.154Z</time>
      </trkpt>
      <trkpt lat="43.70413" lon="1.47735">
        <ele>249.854763</ele>
        <time>2022-05-13T15:54:24.157Z</time>
      </trkpt>
      <trkpt lat="43.70402" lon="1.47729">
        <ele>250.135681</ele>
        <time>2022-05-13T15:54:26.173Z</time>
      </trkpt>
      <trkpt lat="43.70392" lon="1.47725">
        <ele>250.418995</ele>
        <time>2022-05-13T15:54:28.160Z</time>
      </trkpt>
      <trkpt lat="43.70382" lon="1.4772">
        <ele>250.70662</ele>
        <time>2022-05-13T15:54:30.163Z</time>
      </trkpt>
      <trkpt lat="43.70371" lon="1.47715">
        <ele>250.991159</ele>
        <time>2022-05-13T15:54:32.180Z</time>
      </trkpt>
      <trkpt lat="43.70361" lon="1.47709">
        <ele>251.278784</ele>
        <time>2022-05-13T15:54:34.158Z</time>
      </trkpt>
      <trkpt lat="43.70351" lon="1.47704">
        <ele>251.563126</ele>
        <time>2022-05-13T15:54:36.157Z</time>
      </trkpt>
      <trkpt lat="43.70341" lon="1.47699">
        <ele>251.836663</ele>
        <time>2022-05-13T15:54:38.167Z</time>
      </trkpt>
      <trkpt lat="43.70331" lon="1.47695">
        <ele>252.108893</ele>
        <time>2022-05-13T15:54:40.158Z</time>
      </trkpt>
      <trkpt lat="43.70321" lon="1.47689">
        <ele>252.398456</ele>
        <time>2022-05-13T15:54:42.164Z</time>
      </trkpt>
      <trkpt lat="43.7031" lon="1.47684">
        <ele>252.690054</ele>
        <time>2022-05-13T15:54:44.163Z</time>
      </trkpt>
      <trkpt lat="43.703" lon="1.47678">
        <ele>252.987891</ele>
        <time>2022-05-13T15:54:46.168Z</time>
      </trkpt>
      <trkpt lat="43.70289" lon="1.47672">
        <ele>253.296809</ele>
        <time>2022-05-13T15:54:48.142Z</time>
      </trkpt>
      <trkpt lat="43.70277" lon="1.47665">
        <ele>253.624316</ele>
        <time>2022-05-13T15:54:50.165Z</time>
      </trkpt>
      <trkpt lat="43.70266" lon="1.47657">
        <ele>253.941654</ele>
        <time>2022-05-13T15:54:52.161Z</time>
      </trkpt>
      <trkpt lat="43.70256" lon="1.4765">
        <ele>254.099487</ele>
        <time>2022-05-13T15:54:54.155Z</time>
      </trkpt>
      <trkpt lat="43.70245" lon="1.47642">
        <ele>254.167897</ele>
        <time>2022-05-13T15:54:56.160Z</time>
      </trkpt>
      <trkpt lat="43.70234" lon="1.47633">
        <ele>254.240299</ele>
        <time>2022-05-13T15:54:58.170Z</time>
      </trkpt>
      <trkpt lat="43.70223" lon="1.47624">
        <ele>254.315918</ele>
        <time>2022-05-13T15:55:00.144Z</time>
      </trkpt>
      <trkpt lat="43.7021" lon="1.47614">
        <ele>254.397581</ele>
        <time>2022-05-13T15:55:02.139Z</time>
      </trkpt>
      <trkpt lat="43.70196" lon="1.47607">
        <ele>254.484817</ele>
        <time>2022-05-13T15:55:04.157Z</time>
      </trkpt>
      <trkpt lat="43.7018" lon="1.47606">
        <ele>254.57327</ele>
        <time>2022-05-13T15:55:06.139Z</time>
      </trkpt>
      <trkpt lat="43.70166" lon="1.47612">
        <ele>254.658493</ele>
        <time>2022-05-13T15:55:08.148Z</time>
      </trkpt>
      <trkpt lat="43.70153" lon="1.47619">
        <ele>254.739189</ele>
        <time>2022-05-13T15:55:10.142Z</time>
      </trkpt>
      <trkpt lat="43.7014" lon="1.47626">
        <ele>254.816202</ele>
        <time>2022-05-13T15:55:12.145Z</time>
      </trkpt>
      <trkpt lat="43.70127" lon="1.47631">
        <ele>254.891108</ele>
        <time>2022-05-13T15:55:14.139Z</time>
      </trkpt>
      <trkpt lat="43.70115" lon="1.47633">
        <ele>254.962853</ele>
        <time>2022-05-13T15:55:16.145Z</time>
      </trkpt>
      <trkpt lat="43.70104" lon="1.47633">
        <ele>255.027239</ele>
        <time>2022-05-13T15:55:18.143Z</time>
      </trkpt>
      <trkpt lat="43.70093" lon="1.47631">
        <ele>255.132772</ele>
        <time>2022-05-13T15:55:20.157Z</time>
      </trkpt>
      <trkpt lat="43.70081" lon="1.47629">
        <ele>255.543943</ele>
        <time>2022-05-13T15:55:22.140Z</time>
      </trkpt>
      <trkpt lat="43.7007" lon="1.47626">
        <ele>255.943817</ele>
        <time>2022-05-13T15:55:24.148Z</time>
      </trkpt>
      <trkpt lat="43.70059" lon="1.47624">
        <ele>256.332968</ele>
        <time>2022-05-13T15:55:26.140Z</time>
      </trkpt>
      <trkpt lat="43.70047" lon="1.47623">
        <ele>256.734425</ele>
        <time>2022-05-13T15:55:28.130Z</time>
      </trkpt>
      <trkpt lat="43.70036" lon="1.47622">
        <ele>257.134555</ele>
        <time>2022-05-13T15:55:30.138Z</time>
      </trkpt>
      <trkpt lat="43.70024" lon="1.47624">
        <ele>257.528876</ele>
        <time>2022-05-13T15:55:32.148Z</time>
      </trkpt>
      <trkpt lat="43.70013" lon="1.47628">
        <ele>257.93471</ele>
        <time>2022-05-13T15:55:34.154Z</time>
      </trkpt>
      <trkpt lat="43.70002" lon="1.47634">
        <ele>258.335489</ele>
        <time>2022-05-13T15:55:36.160Z</time>
      </trkpt>
      <trkpt lat="43.69992" lon="1.47641">
        <ele>258.727737</ele>
        <time>2022-05-13T15:55:38.153Z</time>
      </trkpt>
      <trkpt lat="43.69983" lon="1.47651">
        <ele>259.140075</ele>
        <time>2022-05-13T15:55:40.161Z</time>
      </trkpt>
      <trkpt lat="43.69974" lon="1.47661">
        <ele>259.548112</ele>
        <time>2022-05-13T15:55:42.168Z</time>
      </trkpt>
      <trkpt lat="43.69965" lon="1.47671">
        <ele>259.944924</ele>
        <time>2022-05-13T15:55:44.168Z</time>
      </trkpt>
      <trkpt lat="43.69957" lon="1.47682">
        <ele>260.335633</ele>
        <time>2022-05-13T15:55:46.170Z</time>
      </trkpt>
      <trkpt lat="43.69949" lon="1.47693">
        <ele>260.728829</ele>
        <time>2022-05-13T15:55:48.162Z</time>
      </trkpt>
      <trkpt lat="43.69941" lon="1.47704">
        <ele>261.116024</ele>
        <time>2022-05-13T15:55:50.158Z</time>
      </trkpt>
      <trkpt lat="43.69933" lon="1.47715">
        <ele>261.545689</ele>
        <time>2022-05-13T15:55:52.157Z</time>
      </trkpt>
      <trkpt lat="43.69925" lon="1.47726">
        <ele>262.029883</ele>
        <time>2022-05-13T15:55:54.166Z</time>
      </trkpt>
      <trkpt lat="43.69917" lon="1.47737">
        <ele>262.515737</ele>
        <time>2022-05-13T15:55:56.154Z</time>
      </trkpt>
      <trkpt lat="43.69909" lon="1.47748">
        <ele>262.99733</ele>
        <time>2022-05-13T15:55:58.169Z</time>
      </trkpt>
      <trkpt lat="43.69901" lon="1.47759">
        <ele>263.468445</ele>
        <time>2022-05-13T15:56:00.142Z</time>
      </trkpt>
      <trkpt lat="43.69892" lon="1.47768">
        <ele>263.931204</ele>
        <time>2022-05-13T15:56:02.163Z</time>
      </trkpt>
      <trkpt lat="43.69883" lon="1.47776">
        <ele>264.392896</ele>
        <time>2022-05-13T15:56:04.152Z</time>
      </trkpt>
      <trkpt lat="43.69876" lon="1.47787">
        <ele>264.855484</ele>
        <time>2022-05-13T15:56:06.167Z</time>
      </trkpt>
      <trkpt lat="43.69867" lon="1.47796">
        <ele>265.322343</ele>
        <time>2022-05-13T15:56:08.156Z</time>
      </trkpt>
      <trkpt lat="43.69856" lon="1.47801">
        <ele>265.780677</ele>
        <time>2022-05-13T15:56:10.161Z</time>
      </trkpt>
      <trkpt lat="43.69846" lon="1.47805">
        <ele>266.234044</ele>
        <time>2022-05-13T15:56:12.140Z</time>
      </trkpt>
      <trkpt lat="43.69835" lon="1.47809">
        <ele>266.741807</ele>
        <time>2022-05-13T15:56:14.146Z</time>
      </trkpt>
      <trkpt lat="43.69823" lon="1.47813">
        <ele>267.246607</ele>
        <time>2022-05-13T15:56:16.153Z</time>
      </trkpt>
      <trkpt lat="43.69812" lon="1.47818">
        <ele>267.735567</ele>
        <time>2022-05-13T15:56:18.162Z</time>
      </trkpt>
      <trkpt lat="43.69801" lon="1.47822">
        <ele>268.222195</ele>
        <time>2022-05-13T15:56:20.184Z</time>
      </trkpt>
      <trkpt lat="43.6979" lon="1.47826">
        <ele>268.712798</ele>
        <time>2022-05-13T15:56:22.158Z</time>
      </trkpt>
      <trkpt lat="43.69779" lon="1.4783">
        <ele>268.980428</ele>
        <time>2022-05-13T15:56:24.162Z</time>
      </trkpt>
      <trkpt lat="43.69768" lon="1.47834">
        <ele>269.028865</ele>
        <time>2022-05-13T15:56:26.174Z</time>
      </trkpt>
      <trkpt lat="43.69757" lon="1.47836">
        <ele>269.078204</ele>
        <time>2022-05-13T15:56:28.154Z</time>
      </trkpt>
      <trkpt lat="43.69745" lon="1.47839">
        <ele>269.127838</ele>
        <time>2022-05-13T15:56:30.167Z</time>
      </trkpt>
      <trkpt lat="43.69734" lon="1.47839">
        <ele>269.177924</ele>
        <time>2022-05-13T15:56:32.161Z</time>
      </trkpt>
      <trkpt lat="43.69722" lon="1.47837">
        <ele>269.22859</ele>
        <time>2022-05-13T15:56:34.157Z</time>
      </trkpt>
      <trkpt lat="43.69711" lon="1.47831">
        <ele>269.280313</ele>
        <time>2022-05-13T15:56:36.152Z</time>
      </trkpt>
      <trkpt lat="43.69701" lon="1.47823">
        <ele>269.329407</ele>
        <time>2022-05-13T15:56:38.158Z</time>
      </trkpt>
      <trkpt lat="43.69692" lon="1.47814">
        <ele>269.377173</ele>
        <time>2022-05-13T15:56:40.161Z</time>
      </trkpt>
      <trkpt lat="43.69683" lon="1.47803">
        <ele>269.42774</ele>
        <time>2022-05-13T15:56:42.156Z</time>
      </trkpt>
      <trkpt lat="43.69674" lon="1.47793">
        <ele>269.478353</ele>
        <time>2022-05-13T15:56:44.181Z</time>
      </trkpt>
      <trkpt lat="43.69665" lon="1.47783">
        <ele>269.528236</ele>
        <time>2022-05-13T15:56:46.162Z</time>
      </trkpt>
      <trkpt lat="43.69657" lon="1.47773">
        <ele>269.574356</ele>
        <time>2022-05-13T15:56:48.149Z</time>
      </trkpt>
      <trkpt lat="43.69648" lon="1.47765">
        <ele>269.620501</ele>
        <time>2022-05-13T15:56:51.151Z</time>
      </trkpt>
      <trkpt lat="43.69643" lon="1.4775">
        <ele>269.673029</ele>
        <time>2022-05-13T15:56:56.149Z</time>
      </trkpt>
      <trkpt lat="43.69638" lon="1.47733">
        <ele>269.727785</ele>
        <time>2022-05-13T15:56:59.156Z</time>
      </trkpt>
      <trkpt lat="43.69633" lon="1.4772">
        <ele>269.587308</ele>
        <time>2022-05-13T15:57:01.162Z</time>
      </trkpt>
      <trkpt lat="43.69627" lon="1.47705">
        <ele>269.402084</ele>
        <time>2022-05-13T15:57:03.172Z</time>
      </trkpt>
      <trkpt lat="43.69621" lon="1.47689">
        <ele>269.203067</ele>
        <time>2022-05-13T15:57:05.158Z</time>
      </trkpt>
      <trkpt lat="43.69615" lon="1.47674">
        <ele>269.004896</ele>
        <time>2022-05-13T15:57:07.160Z</time>
      </trkpt>
      <trkpt lat="43.69609" lon="1.47658">
        <ele>268.806045</ele>
        <time>2022-05-13T15:57:09.147Z</time>
      </trkpt>
      <trkpt lat="43.69602" lon="1.47641">
        <ele>268.600005</ele>
        <time>2022-05-13T15:57:11.158Z</time>
      </trkpt>
      <trkpt lat="43.69596" lon="1.47625">
        <ele>268.392265</ele>
        <time>2022-05-13T15:57:13.171Z</time>
      </trkpt>
      <trkpt lat="43.69589" lon="1.47609">
        <ele>268.190585</ele>
        <time>2022-05-13T15:57:15.166Z</time>
      </trkpt>
      <trkpt lat="43.69584" lon="1.47591">
        <ele>267.980754</ele>
        <time>2022-05-13T15:57:17.166Z</time>
      </trkpt>
      <trkpt lat="43.69582" lon="1.47573">
        <ele>267.780725</ele>
        <time>2022-05-13T15:57:19.157Z</time>
      </trkpt>
      <trkpt lat="43.6958" lon="1.47556">
        <ele>267.58694</ele>
        <time>2022-05-13T15:57:21.172Z</time>
      </trkpt>
      <trkpt lat="43.69574" lon="1.4754">
        <ele>267.393961</ele>
        <time>2022-05-13T15:57:23.162Z</time>
      </trkpt>
      <trkpt lat="43.69564" lon="1.47529">
        <ele>267.198573</ele>
        <time>2022-05-13T15:57:25.158Z</time>
      </trkpt>
      <trkpt lat="43.69554" lon="1.4752">
        <ele>267.010465</ele>
        <time>2022-05-13T15:57:27.167Z</time>
      </trkpt>
      <trkpt lat="43.69544" lon="1.47511">
        <ele>266.559289</ele>
        <time>2022-05-13T15:57:29.159Z</time>
      </trkpt>
      <trkpt lat="43.69535" lon="1.47517">
        <ele>266.130523</ele>
        <time>2022-05-13T15:57:31.150Z</time>
      </trkpt>
      <trkpt lat="43.69527" lon="1.4753">
        <ele>265.610154</ele>
        <time>2022-05-13T15:57:33.152Z</time>
      </trkpt>
      <trkpt lat="43.69518" lon="1.47544">
        <ele>265.0172</ele>
        <time>2022-05-13T15:57:35.136Z</time>
      </trkpt>
      <trkpt lat="43.69507" lon="1.47561">
        <ele>264.350646</ele>
        <time>2022-05-13T15:57:37.153Z</time>
      </trkpt>
      <trkpt lat="43.69497" lon="1.47578">
        <ele>263.667849</ele>
        <time>2022-05-13T15:57:39.149Z</time>
      </trkpt>
      <trkpt lat="43.69491" lon="1.47598">
        <ele>262.979621</ele>
        <time>2022-05-13T15:57:41.154Z</time>
      </trkpt>
      <trkpt lat="43.69489" lon="1.47612">
        <ele>262.561724</ele>
        <time>2022-05-13T15:57:42.166Z</time>
      </trkpt>
      <trkpt lat="43.69487" lon="1.47635">
        <ele>261.840192</ele>
        <time>2022-05-13T15:57:44.152Z</time>
      </trkpt>
      <trkpt lat="43.69482" lon="1.4766">
        <ele>261.060025</ele>
        <time>2022-05-13T15:57:46.175Z</time>
      </trkpt>
      <trkpt lat="43.6948" lon="1.47672">
        <ele>260.664156</ele>
        <time>2022-05-13T15:57:47.164Z</time>
      </trkpt>
      <trkpt lat="43.69474" lon="1.47695">
        <ele>259.918743</ele>
        <time>2022-05-13T15:57:49.158Z</time>
      </trkpt>
      <trkpt lat="43.69464" lon="1.47715">
        <ele>259.243999</ele>
        <time>2022-05-13T15:57:51.161Z</time>
      </trkpt>
      <trkpt lat="43.69459" lon="1.47726">
        <ele>258.996638</ele>
        <time>2022-05-13T15:57:52.155Z</time>
      </trkpt>
      <trkpt lat="43.69454" lon="1.47737">
        <ele>258.747098</ele>
        <time>2022-05-13T15:57:53.127Z</time>
      </trkpt>
      <trkpt lat="43.69446" lon="1.47758">
        <ele>258.276675</ele>
        <time>2022-05-13T15:57:55.130Z</time>
      </trkpt>
      <trkpt lat="43.69439" lon="1.47774">
        <ele>257.906414</ele>
        <time>2022-05-13T15:57:57.138Z</time>
      </trkpt>
      <trkpt lat="43.69428" lon="1.47779">
        <ele>257.600776</ele>
        <time>2022-05-13T15:57:59.163Z</time>
      </trkpt>
      <trkpt lat="43.69416" lon="1.47778">
        <ele>257.282017</ele>
        <time>2022-05-13T15:58:01.157Z</time>
      </trkpt>
      <trkpt lat="43.69404" lon="1.47778">
        <ele>256.957873</ele>
        <time>2022-05-13T15:58:03.154Z</time>
      </trkpt>
      <trkpt lat="43.69392" lon="1.47779">
        <ele>256.617254</ele>
        <time>2022-05-13T15:58:05.148Z</time>
      </trkpt>
      <trkpt lat="43.6938" lon="1.47779">
        <ele>256.287714</ele>
        <time>2022-05-13T15:58:07.163Z</time>
      </trkpt>
      <trkpt lat="43.69366" lon="1.4778">
        <ele>255.922427</ele>
        <time>2022-05-13T15:58:09.149Z</time>
      </trkpt>
      <trkpt lat="43.69353" lon="1.47781">
        <ele>255.567925</ele>
        <time>2022-05-13T15:58:11.155Z</time>
      </trkpt>
      <trkpt lat="43.6934" lon="1.47781">
        <ele>255.214069</ele>
        <time>2022-05-13T15:58:13.133Z</time>
      </trkpt>
      <trkpt lat="43.69327" lon="1.47782">
        <ele>254.857384</ele>
        <time>2022-05-13T15:58:15.158Z</time>
      </trkpt>
      <trkpt lat="43.69313" lon="1.47779">
        <ele>254.488168</ele>
        <time>2022-05-13T15:58:17.152Z</time>
      </trkpt>
      <trkpt lat="43.69301" lon="1.4777">
        <ele>254.022941</ele>
        <time>2022-05-13T15:58:19.147Z</time>
      </trkpt>
      <trkpt lat="43.69289" lon="1.47757">
        <ele>253.527218</ele>
        <time>2022-05-13T15:58:21.142Z</time>
      </trkpt>
      <trkpt lat="43.69277" lon="1.47745">
        <ele>253.011349</ele>
        <time>2022-05-13T15:58:23.161Z</time>
      </trkpt>
      <trkpt lat="43.69265" lon="1.47731">
        <ele>252.503562</ele>
        <time>2022-05-13T15:58:25.157Z</time>
      </trkpt>
      <trkpt lat="43.69255" lon="1.47719">
        <ele>252.068618</ele>
        <time>2022-05-13T15:58:27.165Z</time>
      </trkpt>
      <trkpt lat="43.69246" lon="1.47711">
        <ele>251.696839</ele>
        <time>2022-05-13T15:58:29.162Z</time>
      </trkpt>
      <trkpt lat="43.69238" lon="1.47704">
        <ele>251.371731</ele>
        <time>2022-05-13T15:58:31.138Z</time>
      </trkpt>
      <trkpt lat="43.6923" lon="1.47697">
        <ele>251.067036</ele>
        <time>2022-05-13T15:58:33.157Z</time>
      </trkpt>
      <trkpt lat="43.69218" lon="1.4769">
        <ele>250.621583</ele>
        <time>2022-05-13T15:58:36.145Z</time>
      </trkpt>
      <trkpt lat="43.69209" lon="1.4768">
        <ele>250.260139</ele>
        <time>2022-05-13T15:58:38.149Z</time>
      </trkpt>
      <trkpt lat="43.69199" lon="1.4767">
        <ele>249.845922</ele>
        <time>2022-05-13T15:58:40.163Z</time>
      </trkpt>
      <trkpt lat="43.69187" lon="1.47661">
        <ele>249.385968</ele>
        <time>2022-05-13T15:58:42.158Z</time>
      </trkpt>
      <trkpt lat="43.69175" lon="1.47651">
        <ele>248.921184</ele>
        <time>2022-05-13T15:58:44.168Z</time>
      </trkpt>
      <trkpt lat="43.69163" lon="1.47639">
        <ele>248.263093</ele>
        <time>2022-05-13T15:58:46.161Z</time>
      </trkpt>
      <trkpt lat="43.69151" lon="1.47623">
        <ele>246.798113</ele>
        <time>2022-05-13T15:58:48.154Z</time>
      </trkpt>
      <trkpt lat="43.6914" lon="1.47603">
        <ele>245.196867</ele>
        <time>2022-05-13T15:58:50.147Z</time>
      </trkpt>
      <trkpt lat="43.69135" lon="1.47592">
        <ele>244.344957</ele>
        <time>2022-05-13T15:58:51.157Z</time>
      </trkpt>
      <trkpt lat="43.69131" lon="1.47579">
        <ele>243.496906</ele>
        <time>2022-05-13T15:58:52.159Z</time>
      </trkpt>
      <trkpt lat="43.69127" lon="1.47567">
        <ele>242.613929</ele>
        <time>2022-05-13T15:58:53.161Z</time>
      </trkpt>
      <trkpt lat="43.69123" lon="1.47554">
        <ele>241.715739</ele>
        <time>2022-05-13T15:58:54.161Z</time>
      </trkpt>
      <trkpt lat="43.6912" lon="1.4754">
        <ele>240.756226</ele>
        <time>2022-05-13T15:58:55.155Z</time>
      </trkpt>
      <trkpt lat="43.69117" lon="1.47527">
        <ele>239.891608</ele>
        <time>2022-05-13T15:58:56.173Z</time>
      </trkpt>
      <trkpt lat="43.69114" lon="1.47513">
        <ele>239.012243</ele>
        <time>2022-05-13T15:58:57.155Z</time>
      </trkpt>
      <trkpt lat="43.69111" lon="1.47501">
        <ele>238.16332</ele>
        <time>2022-05-13T15:58:58.156Z</time>
      </trkpt>
      <trkpt lat="43.69108" lon="1.47489">
        <ele>237.353996</ele>
        <time>2022-05-13T15:58:59.162Z</time>
      </trkpt>
      <trkpt lat="43.69101" lon="1.47465">
        <ele>235.716882</ele>
        <time>2022-05-13T15:59:01.143Z</time>
      </trkpt>
      <trkpt lat="43.69098" lon="1.47453">
        <ele>234.921568</ele>
        <time>2022-05-13T15:59:02.156Z</time>
      </trkpt>
      <trkpt lat="43.69094" lon="1.47442">
        <ele>234.106147</ele>
        <time>2022-05-13T15:59:03.144Z</time>
      </trkpt>
      <trkpt lat="43.69084" lon="1.47421">
        <ele>232.662842</ele>
        <time>2022-05-13T15:59:05.142Z</time>
      </trkpt>
      <trkpt lat="43.69074" lon="1.47403">
        <ele>232.778497</ele>
        <time>2022-05-13T15:59:07.139Z</time>
      </trkpt>
      <trkpt lat="43.69064" lon="1.47386">
        <ele>232.892494</ele>
        <time>2022-05-13T15:59:09.151Z</time>
      </trkpt>
      <trkpt lat="43.69054" lon="1.4737">
        <ele>233.006223</ele>
        <time>2022-05-13T15:59:11.157Z</time>
      </trkpt>
      <trkpt lat="43.69044" lon="1.47355">
        <ele>233.111072</ele>
        <time>2022-05-13T15:59:13.149Z</time>
      </trkpt>
      <trkpt lat="43.69038" lon="1.47338">
        <ele>233.212346</ele>
        <time>2022-05-13T15:59:15.157Z</time>
      </trkpt>
      <trkpt lat="43.69033" lon="1.47328">
        <ele>233.279511</ele>
        <time>2022-05-13T15:59:16.153Z</time>
      </trkpt>
      <trkpt lat="43.69028" lon="1.47312">
        <ele>233.370867</ele>
        <time>2022-05-13T15:59:18.153Z</time>
      </trkpt>
      <trkpt lat="43.6902" lon="1.47297">
        <ele>233.463589</ele>
        <time>2022-05-13T15:59:21.131Z</time>
      </trkpt>
      <trkpt lat="43.69011" lon="1.47297">
        <ele>233.533275</ele>
        <time>2022-05-13T15:59:23.148Z</time>
      </trkpt>
      <trkpt lat="43.69003" lon="1.47308">
        <ele>233.615991</ele>
        <time>2022-05-13T15:59:25.143Z</time>
      </trkpt>
      <trkpt lat="43.68998" lon="1.47319">
        <ele>233.682387</ele>
        <time>2022-05-13T15:59:27.140Z</time>
      </trkpt>
      <trkpt lat="43.68994" lon="1.47331">
        <ele>233.753734</ele>
        <time>2022-05-13T15:59:29.161Z</time>
      </trkpt>
      <trkpt lat="43.68988" lon="1.47346">
        <ele>233.84654</ele>
        <time>2022-05-13T15:59:32.145Z</time>
      </trkpt>
      <trkpt lat="43.68981" lon="1.47361">
        <ele>233.935842</ele>
        <time>2022-05-13T15:59:35.158Z</time>
      </trkpt>
      <trkpt lat="43.68973" lon="1.47375">
        <ele>234.343996</ele>
        <time>2022-05-13T15:59:38.164Z</time>
      </trkpt>
      <trkpt lat="43.68966" lon="1.47388">
        <ele>234.80574</ele>
        <time>2022-05-13T15:59:41.150Z</time>
      </trkpt>
      <trkpt lat="43.6896" lon="1.47402">
        <ele>235.261896</ele>
        <time>2022-05-13T15:59:44.164Z</time>
      </trkpt>
      <trkpt lat="43.68953" lon="1.47416">
        <ele>235.726878</ele>
        <time>2022-05-13T15:59:47.167Z</time>
      </trkpt>
      <trkpt lat="43.68947" lon="1.47427">
        <ele>236.112279</ele>
        <time>2022-05-13T15:59:50.149Z</time>
      </trkpt>
      <trkpt lat="43.68939" lon="1.47436">
        <ele>236.49812</ele>
        <time>2022-05-13T16:00:04.152Z</time>
      </trkpt>
      <trkpt lat="43.68934" lon="1.47424">
        <ele>236.872543</ele>
        <time>2022-05-13T16:00:08.162Z</time>
      </trkpt>
      <trkpt lat="43.68927" lon="1.47415">
        <ele>237.242765</ele>
        <time>2022-05-13T16:00:11.159Z</time>
      </trkpt>
      <trkpt lat="43.68918" lon="1.47406">
        <ele>237.675064</ele>
        <time>2022-05-13T16:00:14.157Z</time>
      </trkpt>
      <trkpt lat="43.68909" lon="1.47395">
        <ele>238.152598</ele>
        <time>2022-05-13T16:00:17.164Z</time>
      </trkpt>
      <trkpt lat="43.68902" lon="1.47379">
        <ele>238.673374</ele>
        <time>2022-05-13T16:00:20.151Z</time>
      </trkpt>
      <trkpt lat="43.68903" lon="1.47365">
        <ele>239.069089</ele>
        <time>2022-05-13T16:00:22.157Z</time>
      </trkpt>
      <trkpt lat="43.68907" lon="1.47351">
        <ele>239.498021</ele>
        <time>2022-05-13T16:00:24.163Z</time>
      </trkpt>
      <trkpt lat="43.68914" lon="1.47337">
        <ele>239.958284</ele>
        <time>2022-05-13T16:00:26.153Z</time>
      </trkpt>
      <trkpt lat="43.6892" lon="1.47322">
        <ele>240.435154</ele>
        <time>2022-05-13T16:00:28.159Z</time>
      </trkpt>
      <trkpt lat="43.68927" lon="1.47308">
        <ele>240.897141</ele>
        <time>2022-05-13T16:00:30.167Z</time>
      </trkpt>
      <trkpt lat="43.68934" lon="1.47294">
        <ele>240.59705</ele>
        <time>2022-05-13T16:00:32.147Z</time>
      </trkpt>
      <trkpt lat="43.6894" lon="1.47278">
        <ele>240.281786</ele>
        <time>2022-05-13T16:00:34.141Z</time>
      </trkpt>
      <trkpt lat="43.68941" lon="1.47261">
        <ele>239.987891</ele>
        <time>2022-05-13T16:00:36.155Z</time>
      </trkpt>
      <trkpt lat="43.68937" lon="1.47245">
        <ele>239.679995</ele>
        <time>2022-05-13T16:00:38.146Z</time>
      </trkpt>
      <trkpt lat="43.68929" lon="1.47232">
        <ele>239.386173</ele>
        <time>2022-05-13T16:00:40.161Z</time>
      </trkpt>
      <trkpt lat="43.68919" lon="1.47221">
        <ele>239.08457</ele>
        <time>2022-05-13T16:00:42.153Z</time>
      </trkpt>
      <trkpt lat="43.68909" lon="1.4721">
        <ele>238.770791</ele>
        <time>2022-05-13T16:00:44.160Z</time>
      </trkpt>
      <trkpt lat="43.68898" lon="1.47199">
        <ele>238.435749</ele>
        <time>2022-05-13T16:00:46.144Z</time>
      </trkpt>
      <trkpt lat="43.68886" lon="1.47185">
        <ele>238.058086</ele>
        <time>2022-05-13T16:00:48.164Z</time>
      </trkpt>
      <trkpt lat="43.68873" lon="1.4717">
        <ele>237.640642</ele>
        <time>2022-05-13T16:00:50.165Z</time>
      </trkpt>
      <trkpt lat="43.68866" lon="1.47162">
        <ele>237.419185</ele>
        <time>2022-05-13T16:00:51.150Z</time>
      </trkpt>
      <trkpt lat="43.6886" lon="1.47153">
        <ele>237.201425</ele>
        <time>2022-05-13T16:00:52.165Z</time>
      </trkpt>
      <trkpt lat="43.68853" lon="1.47145">
        <ele>236.980686</ele>
        <time>2022-05-13T16:00:53.150Z</time>
      </trkpt>
      <trkpt lat="43.68841" lon="1.47132">
        <ele>236.609129</ele>
        <time>2022-05-13T16:00:55.170Z</time>
      </trkpt>
      <trkpt lat="43.6883" lon="1.47121">
        <ele>237.087651</ele>
        <time>2022-05-13T16:00:57.135Z</time>
      </trkpt>
      <trkpt lat="43.68822" lon="1.47112">
        <ele>237.694955</ele>
        <time>2022-05-13T16:00:59.151Z</time>
      </trkpt>
      <trkpt lat="43.68814" lon="1.47099">
        <ele>238.390857</ele>
        <time>2022-05-13T16:01:02.158Z</time>
      </trkpt>
      <trkpt lat="43.68807" lon="1.47084">
        <ele>239.150847</ele>
        <time>2022-05-13T16:01:05.160Z</time>
      </trkpt>
      <trkpt lat="43.688" lon="1.47073">
        <ele>239.768382</ele>
        <time>2022-05-13T16:01:07.153Z</time>
      </trkpt>
      <trkpt lat="43.68792" lon="1.47063">
        <ele>240.357282</ele>
        <time>2022-05-13T16:01:09.161Z</time>
      </trkpt>
      <trkpt lat="43.68784" lon="1.47055">
        <ele>240.934998</ele>
        <time>2022-05-13T16:01:11.160Z</time>
      </trkpt>
      <trkpt lat="43.68775" lon="1.47047">
        <ele>241.538665</ele>
        <time>2022-05-13T16:01:13.154Z</time>
      </trkpt>
      <trkpt lat="43.68766" lon="1.47039">
        <ele>242.137968</ele>
        <time>2022-05-13T16:01:15.160Z</time>
      </trkpt>
      <trkpt lat="43.68757" lon="1.47034">
        <ele>242.726882</ele>
        <time>2022-05-13T16:01:17.155Z</time>
      </trkpt>
      <trkpt lat="43.68748" lon="1.47037">
        <ele>243.254913</ele>
        <time>2022-05-13T16:01:19.155Z</time>
      </trkpt>
      <trkpt lat="43.68741" lon="1.47047">
        <ele>243.804209</ele>
        <time>2022-05-13T16:01:21.159Z</time>
      </trkpt>
      <trkpt lat="43.68735" lon="1.47057">
        <ele>244.36038</ele>
        <time>2022-05-13T16:01:23.162Z</time>
      </trkpt>
      <trkpt lat="43.68729" lon="1.47067">
        <ele>244.907153</ele>
        <time>2022-05-13T16:01:25.158Z</time>
      </trkpt>
      <trkpt lat="43.68723" lon="1.47078">
        <ele>245.461515</ele>
        <time>2022-05-13T16:01:27.160Z</time>
      </trkpt>
      <trkpt lat="43.68717" lon="1.47088">
        <ele>246.021428</ele>
        <time>2022-05-13T16:01:29.175Z</time>
      </trkpt>
      <trkpt lat="43.6871" lon="1.47098">
        <ele>246.585839</ele>
        <time>2022-05-13T16:01:31.158Z</time>
      </trkpt>
      <trkpt lat="43.68702" lon="1.47103">
        <ele>246.995497</ele>
        <time>2022-05-13T16:01:33.145Z</time>
      </trkpt>
      <trkpt lat="43.68693" lon="1.47101">
        <ele>247.275967</ele>
        <time>2022-05-13T16:01:35.163Z</time>
      </trkpt>
      <trkpt lat="43.68685" lon="1.47094">
        <ele>247.573243</ele>
        <time>2022-05-13T16:01:37.128Z</time>
      </trkpt>
      <trkpt lat="43.68678" lon="1.47085">
        <ele>247.877818</ele>
        <time>2022-05-13T16:01:39.151Z</time>
      </trkpt>
      <trkpt lat="43.6867" lon="1.47076">
        <ele>248.18474</ele>
        <time>2022-05-13T16:01:41.142Z</time>
      </trkpt>
      <trkpt lat="43.68663" lon="1.47066">
        <ele>248.49243</ele>
        <time>2022-05-13T16:01:43.159Z</time>
      </trkpt>
      <trkpt lat="43.68656" lon="1.47057">
        <ele>248.810718</ele>
        <time>2022-05-13T16:01:45.143Z</time>
      </trkpt>
      <trkpt lat="43.68648" lon="1.47047">
        <ele>249.139705</ele>
        <time>2022-05-13T16:01:47.155Z</time>
      </trkpt>
      <trkpt lat="43.6864" lon="1.47036">
        <ele>249.479408</ele>
        <time>2022-05-13T16:01:49.169Z</time>
      </trkpt>
      <trkpt lat="43.68632" lon="1.47026">
        <ele>249.813993</ele>
        <time>2022-05-13T16:01:51.159Z</time>
      </trkpt>
      <trkpt lat="43.68625" lon="1.47015">
        <ele>250.138957</ele>
        <time>2022-05-13T16:01:53.158Z</time>
      </trkpt>
      <trkpt lat="43.68618" lon="1.47005">
        <ele>250.475754</ele>
        <time>2022-05-13T16:01:55.166Z</time>
      </trkpt>
      <trkpt lat="43.6861" lon="1.46994">
        <ele>250.808144</ele>
        <time>2022-05-13T16:01:57.158Z</time>
      </trkpt>
      <trkpt lat="43.68604" lon="1.46983">
        <ele>251.128326</ele>
        <time>2022-05-13T16:01:59.152Z</time>
      </trkpt>
      <trkpt lat="43.68597" lon="1.46973">
        <ele>251.447862</ele>
        <time>2022-05-13T16:02:01.159Z</time>
      </trkpt>
      <trkpt lat="43.68589" lon="1.46963">
        <ele>251.766929</ele>
        <time>2022-05-13T16:02:03.165Z</time>
      </trkpt>
      <trkpt lat="43.68581" lon="1.46954">
        <ele>252.09447</ele>
        <time>2022-05-13T16:02:05.144Z</time>
      </trkpt>
      <trkpt lat="43.68573" lon="1.46945">
        <ele>252.428198</ele>
        <time>2022-05-13T16:02:07.166Z</time>
      </trkpt>
      <trkpt lat="43.68564" lon="1.46935">
        <ele>252.336072</ele>
        <time>2022-05-13T16:02:09.151Z</time>
      </trkpt>
      <trkpt lat="43.68556" lon="1.46925">
        <ele>252.224659</ele>
        <time>2022-05-13T16:02:11.161Z</time>
      </trkpt>
      <trkpt lat="43.68551" lon="1.4691">
        <ele>252.106953</ele>
        <time>2022-05-13T16:02:13.155Z</time>
      </trkpt>
      <trkpt lat="43.6855" lon="1.46892">
        <ele>251.976971</ele>
        <time>2022-05-13T16:02:15.163Z</time>
      </trkpt>
      <trkpt lat="43.68551" lon="1.46873">
        <ele>251.83394</ele>
        <time>2022-05-13T16:02:17.145Z</time>
      </trkpt>
      <trkpt lat="43.68544" lon="1.46854">
        <ele>251.685214</ele>
        <time>2022-05-13T16:02:19.168Z</time>
      </trkpt>
      <trkpt lat="43.68536" lon="1.46838">
        <ele>251.541302</ele>
        <time>2022-05-13T16:02:21.158Z</time>
      </trkpt>
      <trkpt lat="43.68528" lon="1.46823">
        <ele>251.407322</ele>
        <time>2022-05-13T16:02:23.157Z</time>
      </trkpt>
      <trkpt lat="43.6852" lon="1.46809">
        <ele>251.281236</ele>
        <time>2022-05-13T16:02:25.149Z</time>
      </trkpt>
      <trkpt lat="43.6851" lon="1.468">
        <ele>251.1596</ele>
        <time>2022-05-13T16:02:27.157Z</time>
      </trkpt>
      <trkpt lat="43.68498" lon="1.46797">
        <ele>251.035726</ele>
        <time>2022-05-13T16:02:29.158Z</time>
      </trkpt>
      <trkpt lat="43.68485" lon="1.46798">
        <ele>250.906739</ele>
        <time>2022-05-13T16:02:31.140Z</time>
      </trkpt>
      <trkpt lat="43.68472" lon="1.46802">
        <ele>250.774708</ele>
        <time>2022-05-13T16:02:33.159Z</time>
      </trkpt>
      <trkpt lat="43.68461" lon="1.46811">
        <ele>250.64674</ele>
        <time>2022-05-13T16:02:35.157Z</time>
      </trkpt>
      <trkpt lat="43.68452" lon="1.46824">
        <ele>250.184928</ele>
        <time>2022-05-13T16:02:37.166Z</time>
      </trkpt>
      <trkpt lat="43.68444" lon="1.46835">
        <ele>249.748109</ele>
        <time>2022-05-13T16:02:39.154Z</time>
      </trkpt>
      <trkpt lat="43.68437" lon="1.46847">
        <ele>249.347555</ele>
        <time>2022-05-13T16:02:41.131Z</time>
      </trkpt>
      <trkpt lat="43.68432" lon="1.46858">
        <ele>248.987771</ele>
        <time>2022-05-13T16:02:43.153Z</time>
      </trkpt>
      <trkpt lat="43.68421" lon="1.46864">
        <ele>248.565661</ele>
        <time>2022-05-13T16:02:46.142Z</time>
      </trkpt>
      <trkpt lat="43.68414" lon="1.46855">
        <ele>248.206903</ele>
        <time>2022-05-13T16:02:48.154Z</time>
      </trkpt>
      <trkpt lat="43.68406" lon="1.46845">
        <ele>247.80476</ele>
        <time>2022-05-13T16:02:50.170Z</time>
      </trkpt>
      <trkpt lat="43.68398" lon="1.46834">
        <ele>247.381775</ele>
        <time>2022-05-13T16:02:52.177Z</time>
      </trkpt>
      <trkpt lat="43.68389" lon="1.46822">
        <ele>246.936654</ele>
        <time>2022-05-13T16:02:54.157Z</time>
      </trkpt>
      <trkpt lat="43.68381" lon="1.4681">
        <ele>246.473584</ele>
        <time>2022-05-13T16:02:56.158Z</time>
      </trkpt>
      <trkpt lat="43.68371" lon="1.46796">
        <ele>245.973756</ele>
        <time>2022-05-13T16:02:58.142Z</time>
      </trkpt>
      <trkpt lat="43.68362" lon="1.46782">
        <ele>245.452026</ele>
        <time>2022-05-13T16:03:00.153Z</time>
      </trkpt>
      <trkpt lat="43.68351" lon="1.46767">
        <ele>244.884613</ele>
        <time>2022-05-13T16:03:02.123Z</time>
      </trkpt>
      <trkpt lat="43.6834" lon="1.46751">
        <ele>244.304332</ele>
        <time>2022-05-13T16:03:04.151Z</time>
      </trkpt>
      <trkpt lat="43.68329" lon="1.46736">
        <ele>243.493812</ele>
        <time>2022-05-13T16:03:06.142Z</time>
      </trkpt>
      <trkpt lat="43.68318" lon="1.46721">
        <ele>242.403941</ele>
        <time>2022-05-13T16:03:08.160Z</time>
      </trkpt>
      <trkpt lat="43.68306" lon="1.46707">
        <ele>241.361944</ele>
        <time>2022-05-13T16:03:10.162Z</time>
      </trkpt>
      <trkpt lat="43.68295" lon="1.46694">
        <ele>240.355088</ele>
        <time>2022-05-13T16:03:12.143Z</time>
      </trkpt>
      <trkpt lat="43.68286" lon="1.46681">
        <ele>239.418001</ele>
        <time>2022-05-13T16:03:14.137Z</time>
      </trkpt>
      <trkpt lat="43.68286" lon="1.46664">
        <ele>238.561857</ele>
        <time>2022-05-13T16:03:16.137Z</time>
      </trkpt>
      <trkpt lat="43.6829" lon="1.46645">
        <ele>237.581344</ele>
        <time>2022-05-13T16:03:18.129Z</time>
      </trkpt>
      <trkpt lat="43.68295" lon="1.46628">
        <ele>236.631284</ele>
        <time>2022-05-13T16:03:20.135Z</time>
      </trkpt>
      <trkpt lat="43.68301" lon="1.46608">
        <ele>235.58743</ele>
        <time>2022-05-13T16:03:22.132Z</time>
      </trkpt>
      <trkpt lat="43.68307" lon="1.46589">
        <ele>234.534946</ele>
        <time>2022-05-13T16:03:24.147Z</time>
      </trkpt>
      <trkpt lat="43.68313" lon="1.4657">
        <ele>233.48638</ele>
        <time>2022-05-13T16:03:26.149Z</time>
      </trkpt>
      <trkpt lat="43.68322" lon="1.46552">
        <ele>232.378015</ele>
        <time>2022-05-13T16:03:28.144Z</time>
      </trkpt>
      <trkpt lat="43.68331" lon="1.46532">
        <ele>231.112848</ele>
        <time>2022-05-13T16:03:30.140Z</time>
      </trkpt>
      <trkpt lat="43.68342" lon="1.46513">
        <ele>229.472665</ele>
        <time>2022-05-13T16:03:32.142Z</time>
      </trkpt>
      <trkpt lat="43.68352" lon="1.46495">
        <ele>227.958789</ele>
        <time>2022-05-13T16:03:34.142Z</time>
      </trkpt>
      <trkpt lat="43.68354" lon="1.46481">
        <ele>226.976463</ele>
        <time>2022-05-13T16:03:36.142Z</time>
      </trkpt>
      <trkpt lat="43.68344" lon="1.46471">
        <ele>225.883291</ele>
        <time>2022-05-13T16:03:38.139Z</time>
      </trkpt>
      <trkpt lat="43.68331" lon="1.46463">
        <ele>224.536351</ele>
        <time>2022-05-13T16:03:40.150Z</time>
      </trkpt>
      <trkpt lat="43.68315" lon="1.46453">
        <ele>222.915054</ele>
        <time>2022-05-13T16:03:42.139Z</time>
      </trkpt>
      <trkpt lat="43.68306" lon="1.46447">
        <ele>221.997456</ele>
        <time>2022-05-13T16:03:43.134Z</time>
      </trkpt>
      <trkpt lat="43.68296" lon="1.46442">
        <ele>220.972497</ele>
        <time>2022-05-13T16:03:44.143Z</time>
      </trkpt>
      <trkpt lat="43.68285" lon="1.46437">
        <ele>219.945167</ele>
        <time>2022-05-13T16:03:45.140Z</time>
      </trkpt>
      <trkpt lat="43.68274" lon="1.46431">
        <ele>218.836105</ele>
        <time>2022-05-13T16:03:46.151Z</time>
      </trkpt>
      <trkpt lat="43.68263" lon="1.46425">
        <ele>217.745209</ele>
        <time>2022-05-13T16:03:47.139Z</time>
      </trkpt>
      <trkpt lat="43.68252" lon="1.46421">
        <ele>216.655565</ele>
        <time>2022-05-13T16:03:48.145Z</time>
      </trkpt>
      <trkpt lat="43.68241" lon="1.46415">
        <ele>215.520705</ele>
        <time>2022-05-13T16:03:49.145Z</time>
      </trkpt>
      <trkpt lat="43.6823" lon="1.4641">
        <ele>214.67091</ele>
        <time>2022-05-13T16:03:50.142Z</time>
      </trkpt>
      <trkpt lat="43.6822" lon="1.46404">
        <ele>214.634829</ele>
        <time>2022-05-13T16:03:51.144Z</time>
      </trkpt>
      <trkpt lat="43.6821" lon="1.46398">
        <ele>214.60138</ele>
        <time>2022-05-13T16:03:52.147Z</time>
      </trkpt>
      <trkpt lat="43.68195" lon="1.46389">
        <ele>214.546278</ele>
        <time>2022-05-13T16:03:54.144Z</time>
      </trkpt>
      <trkpt lat="43.68185" lon="1.46378">
        <ele>214.504665</ele>
        <time>2022-05-13T16:03:56.152Z</time>
      </trkpt>
      <trkpt lat="43.68184" lon="1.46365">
        <ele>214.472215</ele>
        <time>2022-05-13T16:03:58.155Z</time>
      </trkpt>
      <trkpt lat="43.68193" lon="1.46355">
        <ele>214.435479</ele>
        <time>2022-05-13T16:04:00.125Z</time>
      </trkpt>
      <trkpt lat="43.68203" lon="1.46343">
        <ele>214.391841</ele>
        <time>2022-05-13T16:04:02.136Z</time>
      </trkpt>
      <trkpt lat="43.68212" lon="1.46331">
        <ele>214.35048</ele>
        <time>2022-05-13T16:04:04.139Z</time>
      </trkpt>
      <trkpt lat="43.68221" lon="1.46319">
        <ele>214.311314</ele>
        <time>2022-05-13T16:04:06.129Z</time>
      </trkpt>
      <trkpt lat="43.68229" lon="1.46306">
        <ele>214.269075</ele>
        <time>2022-05-13T16:04:08.142Z</time>
      </trkpt>
      <trkpt lat="43.68237" lon="1.46292">
        <ele>214.228596</ele>
        <time>2022-05-13T16:04:10.132Z</time>
      </trkpt>
      <trkpt lat="43.68244" lon="1.46278">
        <ele>214.187518</ele>
        <time>2022-05-13T16:04:12.135Z</time>
      </trkpt>
      <trkpt lat="43.6825" lon="1.46263">
        <ele>214.145778</ele>
        <time>2022-05-13T16:04:14.157Z</time>
      </trkpt>
      <trkpt lat="43.68255" lon="1.46248">
        <ele>214.107016</ele>
        <time>2022-05-13T16:04:16.137Z</time>
      </trkpt>
      <trkpt lat="43.6826" lon="1.46232">
        <ele>213.84129</ele>
        <time>2022-05-13T16:04:18.156Z</time>
      </trkpt>
      <trkpt lat="43.68264" lon="1.46217">
        <ele>213.407847</ele>
        <time>2022-05-13T16:04:20.134Z</time>
      </trkpt>
      <trkpt lat="43.68269" lon="1.46202">
        <ele>212.989432</ele>
        <time>2022-05-13T16:04:22.152Z</time>
      </trkpt>
      <trkpt lat="43.68274" lon="1.46187">
        <ele>212.581774</ele>
        <time>2022-05-13T16:04:24.140Z</time>
      </trkpt>
      <trkpt lat="43.68278" lon="1.46172">
        <ele>212.159394</ele>
        <time>2022-05-13T16:04:26.138Z</time>
      </trkpt>
      <trkpt lat="43.68281" lon="1.46156">
        <ele>211.738395</ele>
        <time>2022-05-13T16:04:28.150Z</time>
      </trkpt>
      <trkpt lat="43.68282" lon="1.46139">
        <ele>211.322471</ele>
        <time>2022-05-13T16:04:30.137Z</time>
      </trkpt>
      <trkpt lat="43.68282" lon="1.46123">
        <ele>210.911783</ele>
        <time>2022-05-13T16:04:32.145Z</time>
      </trkpt>
      <trkpt lat="43.68281" lon="1.46105">
        <ele>210.450024</ele>
        <time>2022-05-13T16:04:34.144Z</time>
      </trkpt>
      <trkpt lat="43.6828" lon="1.46087">
        <ele>209.975893</ele>
        <time>2022-05-13T16:04:36.159Z</time>
      </trkpt>
      <trkpt lat="43.68279" lon="1.46066">
        <ele>209.457538</ele>
        <time>2022-05-13T16:04:38.144Z</time>
      </trkpt>
      <trkpt lat="43.68276" lon="1.46045">
        <ele>208.905922</ele>
        <time>2022-05-13T16:04:40.148Z</time>
      </trkpt>
      <trkpt lat="43.68271" lon="1.46023">
        <ele>208.302012</ele>
        <time>2022-05-13T16:04:42.157Z</time>
      </trkpt>
      <trkpt lat="43.68268" lon="1.46011">
        <ele>207.98037</ele>
        <time>2022-05-13T16:04:43.156Z</time>
      </trkpt>
      <trkpt lat="43.68265" lon="1.45998">
        <ele>207.642713</ele>
        <time>2022-05-13T16:04:44.154Z</time>
      </trkpt>
      <trkpt lat="43.68264" lon="1.45985">
        <ele>207.287636</ele>
        <time>2022-05-13T16:04:45.146Z</time>
      </trkpt>
      <trkpt lat="43.68263" lon="1.45972">
        <ele>206.928209</ele>
        <time>2022-05-13T16:04:46.150Z</time>
      </trkpt>
      <trkpt lat="43.68264" lon="1.45958">
        <ele>206.573586</ele>
        <time>2022-05-13T16:04:47.131Z</time>
      </trkpt>
      <trkpt lat="43.68265" lon="1.45946">
        <ele>206.228915</ele>
        <time>2022-05-13T16:04:48.136Z</time>
      </trkpt>
      <trkpt lat="43.68268" lon="1.45925">
        <ele>205.665802</ele>
        <time>2022-05-13T16:04:50.148Z</time>
      </trkpt>
      <trkpt lat="43.68269" lon="1.4591">
        <ele>205.27508</ele>
        <time>2022-05-13T16:04:52.156Z</time>
      </trkpt>
      <trkpt lat="43.68269" lon="1.45898">
        <ele>204.937576</ele>
        <time>2022-05-13T16:04:56.144Z</time>
      </trkpt>
      <trkpt lat="43.68268" lon="1.45884">
        <ele>204.565377</ele>
        <time>2022-05-13T16:05:00.132Z</time>
      </trkpt>
      <trkpt lat="43.6827" lon="1.45866">
        <ele>204.081092</ele>
        <time>2022-05-13T16:05:03.123Z</time>
      </trkpt>
      <trkpt lat="43.6827" lon="1.45852">
        <ele>203.716697</ele>
        <time>2022-05-13T16:05:05.148Z</time>
      </trkpt>
      <trkpt lat="43.68271" lon="1.45836">
        <ele>203.292671</ele>
        <time>2022-05-13T16:05:07.128Z</time>
      </trkpt>
      <trkpt lat="43.68272" lon="1.45821">
        <ele>202.886729</ele>
        <time>2022-05-13T16:05:09.127Z</time>
      </trkpt>
      <trkpt lat="43.68272" lon="1.45804">
        <ele>202.431236</ele>
        <time>2022-05-13T16:05:11.144Z</time>
      </trkpt>
      <trkpt lat="43.68273" lon="1.45788">
        <ele>201.980926</ele>
        <time>2022-05-13T16:05:13.139Z</time>
      </trkpt>
      <trkpt lat="43.68274" lon="1.45771">
        <ele>201.546453</ele>
        <time>2022-05-13T16:05:15.149Z</time>
      </trkpt>
      <trkpt lat="43.68275" lon="1.45755">
        <ele>201.106137</ele>
        <time>2022-05-13T16:05:17.140Z</time>
      </trkpt>
      <trkpt lat="43.68275" lon="1.45736">
        <ele>200.907151</ele>
        <time>2022-05-13T16:05:19.174Z</time>
      </trkpt>
      <trkpt lat="43.68276" lon="1.45718">
        <ele>200.724699</ele>
        <time>2022-05-13T16:05:21.134Z</time>
      </trkpt>
      <trkpt lat="43.68278" lon="1.45701">
        <ele>200.550785</ele>
        <time>2022-05-13T16:05:23.116Z</time>
      </trkpt>
      <trkpt lat="43.68279" lon="1.45683">
        <ele>200.36432</ele>
        <time>2022-05-13T16:05:25.139Z</time>
      </trkpt>
      <trkpt lat="43.68278" lon="1.45665">
        <ele>200.185049</ele>
        <time>2022-05-13T16:05:27.136Z</time>
      </trkpt>
      <trkpt lat="43.68276" lon="1.45646">
        <ele>199.995733</ele>
        <time>2022-05-13T16:05:29.140Z</time>
      </trkpt>
      <trkpt lat="43.68273" lon="1.45629">
        <ele>199.816861</ele>
        <time>2022-05-13T16:05:31.133Z</time>
      </trkpt>
      <trkpt lat="43.68271" lon="1.45611">
        <ele>199.638271</ele>
        <time>2022-05-13T16:05:33.143Z</time>
      </trkpt>
      <trkpt lat="43.68267" lon="1.45595">
        <ele>199.462061</ele>
        <time>2022-05-13T16:05:35.141Z</time>
      </trkpt>
      <trkpt lat="43.68263" lon="1.45579">
        <ele>199.293549</ele>
        <time>2022-05-13T16:05:37.140Z</time>
      </trkpt>
      <trkpt lat="43.6826" lon="1.45563">
        <ele>199.128734</ele>
        <time>2022-05-13T16:05:39.143Z</time>
      </trkpt>
      <trkpt lat="43.68256" lon="1.45548">
        <ele>198.967355</ele>
        <time>2022-05-13T16:05:41.137Z</time>
      </trkpt>
      <trkpt lat="43.68252" lon="1.45532">
        <ele>198.803744</ele>
        <time>2022-05-13T16:05:43.137Z</time>
      </trkpt>
      <trkpt lat="43.68248" lon="1.45517">
        <ele>198.636343</ele>
        <time>2022-05-13T16:05:45.177Z</time>
      </trkpt>
      <trkpt lat="43.68244" lon="1.45501">
        <ele>198.547703</ele>
        <time>2022-05-13T16:05:47.149Z</time>
      </trkpt>
      <trkpt lat="43.68239" lon="1.45486">
        <ele>198.49246</ele>
        <time>2022-05-13T16:05:49.127Z</time>
      </trkpt>
      <trkpt lat="43.68234" lon="1.45471">
        <ele>198.437286</ele>
        <time>2022-05-13T16:05:51.160Z</time>
      </trkpt>
      <trkpt lat="43.6823" lon="1.45457">
        <ele>198.384097</ele>
        <time>2022-05-13T16:05:53.135Z</time>
      </trkpt>
      <trkpt lat="43.68225" lon="1.45442">
        <ele>198.329848</ele>
        <time>2022-05-13T16:05:55.144Z</time>
      </trkpt>
      <trkpt lat="43.6822" lon="1.45429">
        <ele>198.277812</ele>
        <time>2022-05-13T16:05:57.142Z</time>
      </trkpt>
      <trkpt lat="43.68217" lon="1.45415">
        <ele>198.227706</ele>
        <time>2022-05-13T16:05:59.149Z</time>
      </trkpt>
      <trkpt lat="43.68214" lon="1.454">
        <ele>198.176732</ele>
        <time>2022-05-13T16:06:01.121Z</time>
      </trkpt>
      <trkpt lat="43.68211" lon="1.45385">
        <ele>198.123963</ele>
        <time>2022-05-13T16:06:03.147Z</time>
      </trkpt>
      <trkpt lat="43.68206" lon="1.45369">
        <ele>198.065262</ele>
        <time>2022-05-13T16:06:05.140Z</time>
      </trkpt>
      <trkpt lat="43.68202" lon="1.45353">
        <ele>198.00815</ele>
        <time>2022-05-13T16:06:07.149Z</time>
      </trkpt>
      <trkpt lat="43.68198" lon="1.45337">
        <ele>197.951687</ele>
        <time>2022-05-13T16:06:09.135Z</time>
      </trkpt>
      <trkpt lat="43.68194" lon="1.45322">
        <ele>197.895848</ele>
        <time>2022-05-13T16:06:11.160Z</time>
      </trkpt>
      <trkpt lat="43.6819" lon="1.45307">
        <ele>197.840808</ele>
        <time>2022-05-13T16:06:13.152Z</time>
      </trkpt>
      <trkpt lat="43.68186" lon="1.45292">
        <ele>197.787527</ele>
        <time>2022-05-13T16:06:15.137Z</time>
      </trkpt>
      <trkpt lat="43.68182" lon="1.45278">
        <ele>197.733596</ele>
        <time>2022-05-13T16:06:17.137Z</time>
      </trkpt>
      <trkpt lat="43.68179" lon="1.45265">
        <ele>197.666592</ele>
        <time>2022-05-13T16:06:19.156Z</time>
      </trkpt>
      <trkpt lat="43.68176" lon="1.45252">
        <ele>197.598173</ele>
        <time>2022-05-13T16:06:21.148Z</time>
      </trkpt>
      <trkpt lat="43.68172" lon="1.45239">
        <ele>197.531579</ele>
        <time>2022-05-13T16:06:23.143Z</time>
      </trkpt>
      <trkpt lat="43.68167" lon="1.45222">
        <ele>197.440832</ele>
        <time>2022-05-13T16:06:26.128Z</time>
      </trkpt>
      <trkpt lat="43.68163" lon="1.45206">
        <ele>197.355717</ele>
        <time>2022-05-13T16:06:29.128Z</time>
      </trkpt>
      <trkpt lat="43.68153" lon="1.45205">
        <ele>197.285889</ele>
        <time>2022-05-13T16:06:32.124Z</time>
      </trkpt>
      <trkpt lat="43.68143" lon="1.45216">
        <ele>197.197305</ele>
        <time>2022-05-13T16:06:35.138Z</time>
      </trkpt>
      <trkpt lat="43.68135" lon="1.45224">
        <ele>197.13055</ele>
        <time>2022-05-13T16:06:37.142Z</time>
      </trkpt>
      <trkpt lat="43.68127" lon="1.45233">
        <ele>197.058877</ele>
        <time>2022-05-13T16:06:39.157Z</time>
      </trkpt>
      <trkpt lat="43.68118" lon="1.45242">
        <ele>196.987996</ele>
        <time>2022-05-13T16:06:41.148Z</time>
      </trkpt>
      <trkpt lat="43.68109" lon="1.4525">
        <ele>196.910086</ele>
        <time>2022-05-13T16:06:43.136Z</time>
      </trkpt>
      <trkpt lat="43.68099" lon="1.45259">
        <ele>196.831625</ele>
        <time>2022-05-13T16:06:45.151Z</time>
      </trkpt>
      <trkpt lat="43.68089" lon="1.45268">
        <ele>196.751037</ele>
        <time>2022-05-13T16:06:47.142Z</time>
      </trkpt>
      <trkpt lat="43.68079" lon="1.45277">
        <ele>196.668611</ele>
        <time>2022-05-13T16:06:49.144Z</time>
      </trkpt>
      <trkpt lat="43.68069" lon="1.45286">
        <ele>196.587896</ele>
        <time>2022-05-13T16:06:51.154Z</time>
      </trkpt>
      <trkpt lat="43.6806" lon="1.45295">
        <ele>196.518263</ele>
        <time>2022-05-13T16:06:53.147Z</time>
      </trkpt>
      <trkpt lat="43.68052" lon="1.45302">
        <ele>196.548838</ele>
        <time>2022-05-13T16:06:55.133Z</time>
      </trkpt>
      <trkpt lat="43.68041" lon="1.45303">
        <ele>196.584579</ele>
        <time>2022-05-13T16:06:58.124Z</time>
      </trkpt>
      <trkpt lat="43.68031" lon="1.45311">
        <ele>196.623658</ele>
        <time>2022-05-13T16:07:01.135Z</time>
      </trkpt>
      <trkpt lat="43.68023" lon="1.45318">
        <ele>196.655885</ele>
        <time>2022-05-13T16:07:03.144Z</time>
      </trkpt>
      <trkpt lat="43.68013" lon="1.45325">
        <ele>196.691722</ele>
        <time>2022-05-13T16:07:05.141Z</time>
      </trkpt>
      <trkpt lat="43.68003" lon="1.4533">
        <ele>196.729106</ele>
        <time>2022-05-13T16:07:07.136Z</time>
      </trkpt>
      <trkpt lat="43.67992" lon="1.45336">
        <ele>196.765614</ele>
        <time>2022-05-13T16:07:09.147Z</time>
      </trkpt>
      <trkpt lat="43.67982" lon="1.45341">
        <ele>196.800727</ele>
        <time>2022-05-13T16:07:11.154Z</time>
      </trkpt>
      <trkpt lat="43.67973" lon="1.45343">
        <ele>196.832207</ele>
        <time>2022-05-13T16:07:13.147Z</time>
      </trkpt>
      <trkpt lat="43.67962" lon="1.4534">
        <ele>196.86771</ele>
        <time>2022-05-13T16:07:16.158Z</time>
      </trkpt>
      <trkpt lat="43.67958" lon="1.45356">
        <ele>196.909041</ele>
        <time>2022-05-13T16:07:20.142Z</time>
      </trkpt>
      <trkpt lat="43.67951" lon="1.45366">
        <ele>196.942972</ele>
        <time>2022-05-13T16:07:22.133Z</time>
      </trkpt>
      <trkpt lat="43.67941" lon="1.45375">
        <ele>196.981577</ele>
        <time>2022-05-13T16:07:24.137Z</time>
      </trkpt>
      <trkpt lat="43.67931" lon="1.45383">
        <ele>197.019661</ele>
        <time>2022-05-13T16:07:26.140Z</time>
      </trkpt>
      <trkpt lat="43.67921" lon="1.45389">
        <ele>197.058046</ele>
        <time>2022-05-13T16:07:28.144Z</time>
      </trkpt>
      <trkpt lat="43.6791" lon="1.45396">
        <ele>197.097431</ele>
        <time>2022-05-13T16:07:30.141Z</time>
      </trkpt>
      <trkpt lat="43.67899" lon="1.45404">
        <ele>197.064686</ele>
        <time>2022-05-13T16:07:32.140Z</time>
      </trkpt>
      <trkpt lat="43.67889" lon="1.45412">
        <ele>196.998872</ele>
        <time>2022-05-13T16:07:34.130Z</time>
      </trkpt>
      <trkpt lat="43.67879" lon="1.45421">
        <ele>196.934616</ele>
        <time>2022-05-13T16:07:36.137Z</time>
      </trkpt>
      <trkpt lat="43.67868" lon="1.4543">
        <ele>196.869799</ele>
        <time>2022-05-13T16:07:38.144Z</time>
      </trkpt>
      <trkpt lat="43.67858" lon="1.45437">
        <ele>196.809243</ele>
        <time>2022-05-13T16:07:40.147Z</time>
      </trkpt>
      <trkpt lat="43.67848" lon="1.4544">
        <ele>196.753511</ele>
        <time>2022-05-13T16:07:42.149Z</time>
      </trkpt>
      <trkpt lat="43.67839" lon="1.45434">
        <ele>196.696108</ele>
        <time>2022-05-13T16:07:44.137Z</time>
      </trkpt>
      <trkpt lat="43.67828" lon="1.45427">
        <ele>196.634894</ele>
        <time>2022-05-13T16:07:46.116Z</time>
      </trkpt>
      <trkpt lat="43.67818" lon="1.45419">
        <ele>196.571103</ele>
        <time>2022-05-13T16:07:48.141Z</time>
      </trkpt>
      <trkpt lat="43.67807" lon="1.45411">
        <ele>196.504432</ele>
        <time>2022-05-13T16:07:50.141Z</time>
      </trkpt>
      <trkpt lat="43.67797" lon="1.45402">
        <ele>196.439084</ele>
        <time>2022-05-13T16:07:52.142Z</time>
      </trkpt>
      <trkpt lat="43.67786" lon="1.45394">
        <ele>196.372608</ele>
        <time>2022-05-13T16:07:54.128Z</time>
      </trkpt>
      <trkpt lat="43.67775" lon="1.45386">
        <ele>196.306131</ele>
        <time>2022-05-13T16:07:56.125Z</time>
      </trkpt>
      <trkpt lat="43.67764" lon="1.45378">
        <ele>196.238526</ele>
        <time>2022-05-13T16:07:58.124Z</time>
      </trkpt>
      <trkpt lat="43.67753" lon="1.45369">
        <ele>196.172712</ele>
        <time>2022-05-13T16:08:00.149Z</time>
      </trkpt>
      <trkpt lat="43.67743" lon="1.45361">
        <ele>196.143233</ele>
        <time>2022-05-13T16:08:02.150Z</time>
      </trkpt>
      <trkpt lat="43.67732" lon="1.45351">
        <ele>196.148823</ele>
        <time>2022-05-13T16:08:04.127Z</time>
      </trkpt>
      <trkpt lat="43.67675" lon="1.45323">
        <ele>196.175981</ele>
        <time>2022-05-13T16:08:14.136Z</time>
      </trkpt>
      <trkpt lat="43.67664" lon="1.45321">
        <ele>196.181096</ele>
        <time>2022-05-13T16:08:16.136Z</time>
      </trkpt>
      <trkpt lat="43.67653" lon="1.45319">
        <ele>196.186122</ele>
        <time>2022-05-13T16:08:18.143Z</time>
      </trkpt>
      <trkpt lat="43.67642" lon="1.45318">
        <ele>196.191072</ele>
        <time>2022-05-13T16:08:20.133Z</time>
      </trkpt>
      <trkpt lat="43.67631" lon="1.45318">
        <ele>196.19588</ele>
        <time>2022-05-13T16:08:22.131Z</time>
      </trkpt>
      <trkpt lat="43.6762" lon="1.45318">
        <ele>196.20069</ele>
        <time>2022-05-13T16:08:24.134Z</time>
      </trkpt>
      <trkpt lat="43.6761" lon="1.45317">
        <ele>196.20537</ele>
        <time>2022-05-13T16:08:26.137Z</time>
      </trkpt>
      <trkpt lat="43.67599" lon="1.45319">
        <ele>196.210164</ele>
        <time>2022-05-13T16:08:28.149Z</time>
      </trkpt>
      <trkpt lat="43.67588" lon="1.45323">
        <ele>196.215131</ele>
        <time>2022-05-13T16:08:30.142Z</time>
      </trkpt>
      <trkpt lat="43.67578" lon="1.45329">
        <ele>196.220241</ele>
        <time>2022-05-13T16:08:32.139Z</time>
      </trkpt>
      <trkpt lat="43.67567" lon="1.45336">
        <ele>196.231353</ele>
        <time>2022-05-13T16:08:34.136Z</time>
      </trkpt>
      <trkpt lat="43.67558" lon="1.45343">
        <ele>196.242174</ele>
        <time>2022-05-13T16:08:36.149Z</time>
      </trkpt>
      <trkpt lat="43.67548" lon="1.45351">
        <ele>196.253246</ele>
        <time>2022-05-13T16:08:38.141Z</time>
      </trkpt>
      <trkpt lat="43.67539" lon="1.45359">
        <ele>196.264421</ele>
        <time>2022-05-13T16:08:40.141Z</time>
      </trkpt>
      <trkpt lat="43.67528" lon="1.45366">
        <ele>196.275783</ele>
        <time>2022-05-13T16:08:42.119Z</time>
      </trkpt>
      <trkpt lat="43.67518" lon="1.45372">
        <ele>196.286429</ele>
        <time>2022-05-13T16:08:44.128Z</time>
      </trkpt>
      <trkpt lat="43.67508" lon="1.45377">
        <ele>196.297246</ele>
        <time>2022-05-13T16:08:46.131Z</time>
      </trkpt>
      <trkpt lat="43.67499" lon="1.45385">
        <ele>196.307875</ele>
        <time>2022-05-13T16:08:48.134Z</time>
      </trkpt>
      <trkpt lat="43.6749" lon="1.45393">
        <ele>196.318863</ele>
        <time>2022-05-13T16:08:50.153Z</time>
      </trkpt>
      <trkpt lat="43.6748" lon="1.45402">
        <ele>196.330225</ele>
        <time>2022-05-13T16:08:52.140Z</time>
      </trkpt>
      <trkpt lat="43.6747" lon="1.45409">
        <ele>196.341485</ele>
        <time>2022-05-13T16:08:54.135Z</time>
      </trkpt>
      <trkpt lat="43.6746" lon="1.45417">
        <ele>196.352978</ele>
        <time>2022-05-13T16:08:56.128Z</time>
      </trkpt>
      <trkpt lat="43.6745" lon="1.45425">
        <ele>196.364312</ele>
        <time>2022-05-13T16:08:58.150Z</time>
      </trkpt>
      <trkpt lat="43.67441" lon="1.45434">
        <ele>196.375379</ele>
        <time>2022-05-13T16:09:00.134Z</time>
      </trkpt>
      <trkpt lat="43.67431" lon="1.45442">
        <ele>196.38647</ele>
        <time>2022-05-13T16:09:02.142Z</time>
      </trkpt>
      <trkpt lat="43.67422" lon="1.4545">
        <ele>196.397427</ele>
        <time>2022-05-13T16:09:04.131Z</time>
      </trkpt>
      <trkpt lat="43.67413" lon="1.45458">
        <ele>196.44133</ele>
        <time>2022-05-13T16:09:06.133Z</time>
      </trkpt>
      <trkpt lat="43.67406" lon="1.45465">
        <ele>196.486068</ele>
        <time>2022-05-13T16:09:08.131Z</time>
      </trkpt>
      <trkpt lat="43.67397" lon="1.45476">
        <ele>196.54271</ele>
        <time>2022-05-13T16:09:11.137Z</time>
      </trkpt>
      <trkpt lat="43.6739" lon="1.45484">
        <ele>196.586606</ele>
        <time>2022-05-13T16:09:14.144Z</time>
      </trkpt>
      <trkpt lat="43.67381" lon="1.45491">
        <ele>196.63491</ele>
        <time>2022-05-13T16:09:18.140Z</time>
      </trkpt>
      <trkpt lat="43.67371" lon="1.45498">
        <ele>196.690264</ele>
        <time>2022-05-13T16:09:22.134Z</time>
      </trkpt>
      <trkpt lat="43.67361" lon="1.45505">
        <ele>196.745676</ele>
        <time>2022-05-13T16:09:26.141Z</time>
      </trkpt>
      <trkpt lat="43.67352" lon="1.45507">
        <ele>196.789629</ele>
        <time>2022-05-13T16:09:32.132Z</time>
      </trkpt>
      <trkpt lat="43.67346" lon="1.45493">
        <ele>196.849013</ele>
        <time>2022-05-13T16:09:36.139Z</time>
      </trkpt>
      <trkpt lat="43.67342" lon="1.45479">
        <ele>196.897997</ele>
        <time>2022-05-13T16:09:39.143Z</time>
      </trkpt>
      <trkpt lat="43.67336" lon="1.45465">
        <ele>196.955684</ele>
        <time>2022-05-13T16:09:42.158Z</time>
      </trkpt>
      <trkpt lat="43.67329" lon="1.4545">
        <ele>197.018646</ele>
        <time>2022-05-13T16:09:45.131Z</time>
      </trkpt>
      <trkpt lat="43.67322" lon="1.45435">
        <ele>197.079647</ele>
        <time>2022-05-13T16:09:48.124Z</time>
      </trkpt>
      <trkpt lat="43.67315" lon="1.45421">
        <ele>197.140559</ele>
        <time>2022-05-13T16:09:51.137Z</time>
      </trkpt>
      <trkpt lat="43.6731" lon="1.45411">
        <ele>197.185321</ele>
        <time>2022-05-13T16:09:53.135Z</time>
      </trkpt>
      <trkpt lat="43.67303" lon="1.45399">
        <ele>197.23716</ele>
        <time>2022-05-13T16:09:55.139Z</time>
      </trkpt>
      <trkpt lat="43.67297" lon="1.45386">
        <ele>197.226119</ele>
        <time>2022-05-13T16:09:57.138Z</time>
      </trkpt>
      <trkpt lat="43.67289" lon="1.45373">
        <ele>197.125157</ele>
        <time>2022-05-13T16:09:59.131Z</time>
      </trkpt>
      <trkpt lat="43.67282" lon="1.4536">
        <ele>197.026208</ele>
        <time>2022-05-13T16:10:01.151Z</time>
      </trkpt>
      <trkpt lat="43.67275" lon="1.45348">
        <ele>196.927213</ele>
        <time>2022-05-13T16:10:03.150Z</time>
      </trkpt>
      <trkpt lat="43.67271" lon="1.45332">
        <ele>196.827706</ele>
        <time>2022-05-13T16:10:05.137Z</time>
      </trkpt>
      <trkpt lat="43.67266" lon="1.45318">
        <ele>196.727848</ele>
        <time>2022-05-13T16:10:07.148Z</time>
      </trkpt>
      <trkpt lat="43.67259" lon="1.45304">
        <ele>196.625771</ele>
        <time>2022-05-13T16:10:09.149Z</time>
      </trkpt>
      <trkpt lat="43.67255" lon="1.45288">
        <ele>196.520191</ele>
        <time>2022-05-13T16:10:11.128Z</time>
      </trkpt>
      <trkpt lat="43.6725" lon="1.45272">
        <ele>196.415798</ele>
        <time>2022-05-13T16:10:13.142Z</time>
      </trkpt>
      <trkpt lat="43.67246" lon="1.45256">
        <ele>196.312287</ele>
        <time>2022-05-13T16:10:15.151Z</time>
      </trkpt>
      <trkpt lat="43.6724" lon="1.45242">
        <ele>196.214077</ele>
        <time>2022-05-13T16:10:17.132Z</time>
      </trkpt>
      <trkpt lat="43.67234" lon="1.45229">
        <ele>196.114584</ele>
        <time>2022-05-13T16:10:19.128Z</time>
      </trkpt>
      <trkpt lat="43.6723" lon="1.45214">
        <ele>196.01828</ele>
        <time>2022-05-13T16:10:21.135Z</time>
      </trkpt>
      <trkpt lat="43.67227" lon="1.45198">
        <ele>195.916607</ele>
        <time>2022-05-13T16:10:23.130Z</time>
      </trkpt>
      <trkpt lat="43.67223" lon="1.45182">
        <ele>195.813856</ele>
        <time>2022-05-13T16:10:25.145Z</time>
      </trkpt>
      <trkpt lat="43.67219" lon="1.45167">
        <ele>195.722401</ele>
        <time>2022-05-13T16:10:27.138Z</time>
      </trkpt>
      <trkpt lat="43.67216" lon="1.45152">
        <ele>195.640779</ele>
        <time>2022-05-13T16:10:30.136Z</time>
      </trkpt>
      <trkpt lat="43.67214" lon="1.45138">
        <ele>195.563403</ele>
        <time>2022-05-13T16:10:34.156Z</time>
      </trkpt>
      <trkpt lat="43.67211" lon="1.45123">
        <ele>195.487053</ele>
        <time>2022-05-13T16:10:38.125Z</time>
      </trkpt>
      <trkpt lat="43.67201" lon="1.45117">
        <ele>195.407422</ele>
        <time>2022-05-13T16:10:42.149Z</time>
      </trkpt>
      <trkpt lat="43.67193" lon="1.45125">
        <ele>195.331525</ele>
        <time>2022-05-13T16:10:45.147Z</time>
      </trkpt>
      <trkpt lat="43.67183" lon="1.45133">
        <ele>195.24774</ele>
        <time>2022-05-13T16:10:48.135Z</time>
      </trkpt>
      <trkpt lat="43.67171" lon="1.45137">
        <ele>195.163681</ele>
        <time>2022-05-13T16:10:51.138Z</time>
      </trkpt>
      <trkpt lat="43.67158" lon="1.45143">
        <ele>195.065599</ele>
        <time>2022-05-13T16:10:54.136Z</time>
      </trkpt>
      <trkpt lat="43.6715" lon="1.4514">
        <ele>195.000284</ele>
        <time>2022-05-13T16:10:56.137Z</time>
      </trkpt>
      <trkpt lat="43.67141" lon="1.45131">
        <ele>194.924379</ele>
        <time>2022-05-13T16:10:58.142Z</time>
      </trkpt>
      <trkpt lat="43.67131" lon="1.45133">
        <ele>194.849796</ele>
        <time>2022-05-13T16:11:00.139Z</time>
      </trkpt>
      <trkpt lat="43.67121" lon="1.45141">
        <ele>194.769553</ele>
        <time>2022-05-13T16:11:02.132Z</time>
      </trkpt>
      <trkpt lat="43.67112" lon="1.4515">
        <ele>194.688923</ele>
        <time>2022-05-13T16:11:04.149Z</time>
      </trkpt>
      <trkpt lat="43.67103" lon="1.45155">
        <ele>194.614037</ele>
        <time>2022-05-13T16:11:06.153Z</time>
      </trkpt>
      <trkpt lat="43.67094" lon="1.4516">
        <ele>194.544889</ele>
        <time>2022-05-13T16:11:08.144Z</time>
      </trkpt>
      <trkpt lat="43.67084" lon="1.45166">
        <ele>194.46873</ele>
        <time>2022-05-13T16:11:10.151Z</time>
      </trkpt>
      <trkpt lat="43.67074" lon="1.4516">
        <ele>194.373138</ele>
        <time>2022-05-13T16:11:12.126Z</time>
      </trkpt>
      <trkpt lat="43.67065" lon="1.45147">
        <ele>194.247674</ele>
        <time>2022-05-13T16:11:14.150Z</time>
      </trkpt>
      <trkpt lat="43.67056" lon="1.45139">
        <ele>194.132962</ele>
        <time>2022-05-13T16:11:16.137Z</time>
      </trkpt>
      <trkpt lat="43.67046" lon="1.45147">
        <ele>194.020434</ele>
        <time>2022-05-13T16:11:18.142Z</time>
      </trkpt>
      <trkpt lat="43.67037" lon="1.45155">
        <ele>193.91721</ele>
        <time>2022-05-13T16:11:20.129Z</time>
      </trkpt>
      <trkpt lat="43.67027" lon="1.45161">
        <ele>193.804365</ele>
        <time>2022-05-13T16:11:22.145Z</time>
      </trkpt>
      <trkpt lat="43.67016" lon="1.45162">
        <ele>193.699442</ele>
        <time>2022-05-13T16:11:24.132Z</time>
      </trkpt>
      <trkpt lat="43.67008" lon="1.4515">
        <ele>193.582719</ele>
        <time>2022-05-13T16:11:26.134Z</time>
      </trkpt>
      <trkpt lat="43.67004" lon="1.45133">
        <ele>193.451999</ele>
        <time>2022-05-13T16:11:28.127Z</time>
      </trkpt>
      <trkpt lat="43.66997" lon="1.45117">
        <ele>193.31618</ele>
        <time>2022-05-13T16:11:30.133Z</time>
      </trkpt>
      <trkpt lat="43.6699" lon="1.45102">
        <ele>193.193338</ele>
        <time>2022-05-13T16:11:32.147Z</time>
      </trkpt>
      <trkpt lat="43.66982" lon="1.45088">
        <ele>193.068236</ele>
        <time>2022-05-13T16:11:34.116Z</time>
      </trkpt>
      <trkpt lat="43.66976" lon="1.45073">
        <ele>192.942338</ele>
        <time>2022-05-13T16:11:36.120Z</time>
      </trkpt>
      <trkpt lat="43.66969" lon="1.45059">
        <ele>192.822968</ele>
        <time>2022-05-13T16:11:38.152Z</time>
      </trkpt>
      <trkpt lat="43.66961" lon="1.45044">
        <ele>192.691006</ele>
        <time>2022-05-13T16:11:40.138Z</time>
      </trkpt>
      <trkpt lat="43.66955" lon="1.45029">
        <ele>192.661289</ele>
        <time>2022-05-13T16:11:42.134Z</time>
      </trkpt>
      <trkpt lat="43.66949" lon="1.45014">
        <ele>192.649445</ele>
        <time>2022-05-13T16:11:44.142Z</time>
      </trkpt>
      <trkpt lat="43.66943" lon="1.44999">
        <ele>192.63772</ele>
        <time>2022-05-13T16:11:46.131Z</time>
      </trkpt>
      <trkpt lat="43.66938" lon="1.44984">
        <ele>192.626734</ele>
        <time>2022-05-13T16:11:48.134Z</time>
      </trkpt>
      <trkpt lat="43.66933" lon="1.44969">
        <ele>192.615668</ele>
        <time>2022-05-13T16:11:50.124Z</time>
      </trkpt>
      <trkpt lat="43.66927" lon="1.44955">
        <ele>192.604448</ele>
        <time>2022-05-13T16:11:52.144Z</time>
      </trkpt>
      <trkpt lat="43.66918" lon="1.44944">
        <ele>192.593438</ele>
        <time>2022-05-13T16:11:54.135Z</time>
      </trkpt>
      <trkpt lat="43.66907" lon="1.44938">
        <ele>192.582254</ele>
        <time>2022-05-13T16:11:56.150Z</time>
      </trkpt>
      <trkpt lat="43.66895" lon="1.44935">
        <ele>192.570958</ele>
        <time>2022-05-13T16:11:58.142Z</time>
      </trkpt>
      <trkpt lat="43.66883" lon="1.44932">
        <ele>192.559612</ele>
        <time>2022-05-13T16:12:00.138Z</time>
      </trkpt>
      <trkpt lat="43.66871" lon="1.4493">
        <ele>192.548131</ele>
        <time>2022-05-13T16:12:02.137Z</time>
      </trkpt>
      <trkpt lat="43.66859" lon="1.44927">
        <ele>192.536765</ele>
        <time>2022-05-13T16:12:04.148Z</time>
      </trkpt>
      <trkpt lat="43.66847" lon="1.44924">
        <ele>192.525418</ele>
        <time>2022-05-13T16:12:06.137Z</time>
      </trkpt>
      <trkpt lat="43.66835" lon="1.4492">
        <ele>192.514332</ele>
        <time>2022-05-13T16:12:08.135Z</time>
      </trkpt>
      <trkpt lat="43.66824" lon="1.44917">
        <ele>192.503779</ele>
        <time>2022-05-13T16:12:10.147Z</time>
      </trkpt>
      <trkpt lat="43.66814" lon="1.44914">
        <ele>192.502579</ele>
        <time>2022-05-13T16:12:12.140Z</time>
      </trkpt>
      <trkpt lat="43.66804" lon="1.44909">
        <ele>192.502242</ele>
        <time>2022-05-13T16:12:14.135Z</time>
      </trkpt>
      <trkpt lat="43.66795" lon="1.44906">
        <ele>192.50194</ele>
        <time>2022-05-13T16:12:16.133Z</time>
      </trkpt>
      <trkpt lat="43.66786" lon="1.44902">
        <ele>192.501622</ele>
        <time>2022-05-13T16:12:18.143Z</time>
      </trkpt>
      <trkpt lat="43.66777" lon="1.44892">
        <ele>192.501234</ele>
        <time>2022-05-13T16:12:20.142Z</time>
      </trkpt>
      <trkpt lat="43.66767" lon="1.44882">
        <ele>192.50084</ele>
        <time>2022-05-13T16:12:22.141Z</time>
      </trkpt>
      <trkpt lat="43.66759" lon="1.44869">
        <ele>192.500445</ele>
        <time>2022-05-13T16:12:24.158Z</time>
      </trkpt>
      <trkpt lat="43.66755" lon="1.44853">
        <ele>192.500038</ele>
        <time>2022-05-13T16:12:26.142Z</time>
      </trkpt>
      <trkpt lat="43.66753" lon="1.44836">
        <ele>192.499639</ele>
        <time>2022-05-13T16:12:28.138Z</time>
      </trkpt>
      <trkpt lat="43.66746" lon="1.44823">
        <ele>192.49924</ele>
        <time>2022-05-13T16:12:30.142Z</time>
      </trkpt>
      <trkpt lat="43.66735" lon="1.44819">
        <ele>192.498882</ele>
        <time>2022-05-13T16:12:32.122Z</time>
      </trkpt>
      <trkpt lat="43.66724" lon="1.44826">
        <ele>192.49849</ele>
        <time>2022-05-13T16:12:34.130Z</time>
      </trkpt>
      <trkpt lat="43.66714" lon="1.44836">
        <ele>192.498077</ele>
        <time>2022-05-13T16:12:36.127Z</time>
      </trkpt>
      <trkpt lat="43.66703" lon="1.44845">
        <ele>192.497665</ele>
        <time>2022-05-13T16:12:38.135Z</time>
      </trkpt>
      <trkpt lat="43.66691" lon="1.44854">
        <ele>192.497227</ele>
        <time>2022-05-13T16:12:40.151Z</time>
      </trkpt>
      <trkpt lat="43.66679" lon="1.4486">
        <ele>192.550912</ele>
        <time>2022-05-13T16:12:42.137Z</time>
      </trkpt>
      <trkpt lat="43.66667" lon="1.44863">
        <ele>192.64626</ele>
        <time>2022-05-13T16:12:44.114Z</time>
      </trkpt>
      <trkpt lat="43.66654" lon="1.44863">
        <ele>192.739208</ele>
        <time>2022-05-13T16:12:46.136Z</time>
      </trkpt>
      <trkpt lat="43.66643" lon="1.44861">
        <ele>192.828074</ele>
        <time>2022-05-13T16:12:48.135Z</time>
      </trkpt>
      <trkpt lat="43.66631" lon="1.44857">
        <ele>192.919152</ele>
        <time>2022-05-13T16:12:50.136Z</time>
      </trkpt>
      <trkpt lat="43.66622" lon="1.44846">
        <ele>193.012753</ele>
        <time>2022-05-13T16:12:52.137Z</time>
      </trkpt>
      <trkpt lat="43.66615" lon="1.44834">
        <ele>193.099868</ele>
        <time>2022-05-13T16:12:54.141Z</time>
      </trkpt>
      <trkpt lat="43.66607" lon="1.44821">
        <ele>193.192366</ele>
        <time>2022-05-13T16:12:56.147Z</time>
      </trkpt>
      <trkpt lat="43.66601" lon="1.44807">
        <ele>193.282293</ele>
        <time>2022-05-13T16:12:58.133Z</time>
      </trkpt>
      <trkpt lat="43.66593" lon="1.44793">
        <ele>193.37895</ele>
        <time>2022-05-13T16:13:00.145Z</time>
      </trkpt>
      <trkpt lat="43.66585" lon="1.44781">
        <ele>193.472972</ele>
        <time>2022-05-13T16:13:02.135Z</time>
      </trkpt>
      <trkpt lat="43.66577" lon="1.44769">
        <ele>193.561877</ele>
        <time>2022-05-13T16:13:04.160Z</time>
      </trkpt>
      <trkpt lat="43.66568" lon="1.44758">
        <ele>193.649471</ele>
        <time>2022-05-13T16:13:06.155Z</time>
      </trkpt>
      <trkpt lat="43.66561" lon="1.44747">
        <ele>193.732028</ele>
        <time>2022-05-13T16:13:08.153Z</time>
      </trkpt>
      <trkpt lat="43.66552" lon="1.44737">
        <ele>193.816805</ele>
        <time>2022-05-13T16:13:10.154Z</time>
      </trkpt>
      <trkpt lat="43.66545" lon="1.44729">
        <ele>193.874691</ele>
        <time>2022-05-13T16:13:12.165Z</time>
      </trkpt>
      <trkpt lat="43.66533" lon="1.44722">
        <ele>193.902047</ele>
        <time>2022-05-13T16:13:15.156Z</time>
      </trkpt>
      <trkpt lat="43.66524" lon="1.44717">
        <ele>193.925161</ele>
        <time>2022-05-13T16:13:18.167Z</time>
      </trkpt>
      <trkpt lat="43.66514" lon="1.44712">
        <ele>193.949318</ele>
        <time>2022-05-13T16:13:21.157Z</time>
      </trkpt>
      <trkpt lat="43.66508" lon="1.44722">
        <ele>193.971227</ele>
        <time>2022-05-13T16:13:26.120Z</time>
      </trkpt>
      <trkpt lat="43.66504" lon="1.44735">
        <ele>193.992741</ele>
        <time>2022-05-13T16:13:28.131Z</time>
      </trkpt>
      <trkpt lat="43.665" lon="1.44747">
        <ele>194.015528</ele>
        <time>2022-05-13T16:13:30.134Z</time>
      </trkpt>
      <trkpt lat="43.66495" lon="1.4476">
        <ele>194.039968</ele>
        <time>2022-05-13T16:13:32.145Z</time>
      </trkpt>
      <trkpt lat="43.66489" lon="1.44774">
        <ele>194.065807</ele>
        <time>2022-05-13T16:13:34.172Z</time>
      </trkpt>
      <trkpt lat="43.66483" lon="1.44788">
        <ele>194.092635</ele>
        <time>2022-05-13T16:13:36.137Z</time>
      </trkpt>
      <trkpt lat="43.66476" lon="1.44802">
        <ele>194.119824</ele>
        <time>2022-05-13T16:13:38.146Z</time>
      </trkpt>
      <trkpt lat="43.66469" lon="1.44816">
        <ele>194.147399</ele>
        <time>2022-05-13T16:13:40.146Z</time>
      </trkpt>
      <trkpt lat="43.66464" lon="1.44832">
        <ele>194.175453</ele>
        <time>2022-05-13T16:13:42.149Z</time>
      </trkpt>
      <trkpt lat="43.66458" lon="1.44847">
        <ele>194.20357</ele>
        <time>2022-05-13T16:13:44.138Z</time>
      </trkpt>
      <trkpt lat="43.66453" lon="1.44863">
        <ele>194.231253</ele>
        <time>2022-05-13T16:13:46.159Z</time>
      </trkpt>
      <trkpt lat="43.66451" lon="1.4488">
        <ele>194.260636</ele>
        <time>2022-05-13T16:13:48.134Z</time>
      </trkpt>
      <trkpt lat="43.66446" lon="1.44897">
        <ele>194.300749</ele>
        <time>2022-05-13T16:13:50.130Z</time>
      </trkpt>
      <trkpt lat="43.6644" lon="1.44911">
        <ele>194.349191</ele>
        <time>2022-05-13T16:13:52.150Z</time>
      </trkpt>
      <trkpt lat="43.66433" lon="1.44925">
        <ele>194.397011</ele>
        <time>2022-05-13T16:13:54.147Z</time>
      </trkpt>
      <trkpt lat="43.6643" lon="1.44941">
        <ele>194.443233</ele>
        <time>2022-05-13T16:13:56.144Z</time>
      </trkpt>
      <trkpt lat="43.66424" lon="1.44955">
        <ele>194.487847</ele>
        <time>2022-05-13T16:13:58.148Z</time>
      </trkpt>
      <trkpt lat="43.6642" lon="1.44969">
        <ele>194.531425</ele>
        <time>2022-05-13T16:14:00.152Z</time>
      </trkpt>
      <trkpt lat="43.66416" lon="1.44983">
        <ele>194.574837</ele>
        <time>2022-05-13T16:14:02.137Z</time>
      </trkpt>
      <trkpt lat="43.66413" lon="1.44998">
        <ele>194.617194</ele>
        <time>2022-05-13T16:14:04.144Z</time>
      </trkpt>
      <trkpt lat="43.66406" lon="1.4501">
        <ele>194.65906</ele>
        <time>2022-05-13T16:14:06.144Z</time>
      </trkpt>
      <trkpt lat="43.66398" lon="1.45019">
        <ele>194.700819</ele>
        <time>2022-05-13T16:14:08.138Z</time>
      </trkpt>
      <trkpt lat="43.66395" lon="1.45033">
        <ele>194.741053</ele>
        <time>2022-05-13T16:14:10.130Z</time>
      </trkpt>
      <trkpt lat="43.66396" lon="1.45047">
        <ele>194.780456</ele>
        <time>2022-05-13T16:14:12.144Z</time>
      </trkpt>
      <trkpt lat="43.66395" lon="1.4506">
        <ele>194.817575</ele>
        <time>2022-05-13T16:14:14.148Z</time>
      </trkpt>
      <trkpt lat="43.66394" lon="1.45073">
        <ele>194.854694</ele>
        <time>2022-05-13T16:14:16.118Z</time>
      </trkpt>
      <trkpt lat="43.66392" lon="1.45087">
        <ele>194.89665</ele>
        <time>2022-05-13T16:14:18.138Z</time>
      </trkpt>
      <trkpt lat="43.66388" lon="1.45101">
        <ele>194.939905</ele>
        <time>2022-05-13T16:14:20.137Z</time>
      </trkpt>
      <trkpt lat="43.66382" lon="1.45115">
        <ele>194.978434</ele>
        <time>2022-05-13T16:14:22.148Z</time>
      </trkpt>
      <trkpt lat="43.66376" lon="1.45128">
        <ele>194.99756</ele>
        <time>2022-05-13T16:14:24.141Z</time>
      </trkpt>
      <trkpt lat="43.66371" lon="1.45141">
        <ele>195.016223</ele>
        <time>2022-05-13T16:14:26.148Z</time>
      </trkpt>
      <trkpt lat="43.66365" lon="1.45154">
        <ele>195.035065</ele>
        <time>2022-05-13T16:14:28.139Z</time>
      </trkpt>
      <trkpt lat="43.6636" lon="1.45164">
        <ele>195.051407</ele>
        <time>2022-05-13T16:14:30.141Z</time>
      </trkpt>
      <trkpt lat="43.66362" lon="1.45183">
        <ele>195.075824</ele>
        <time>2022-05-13T16:14:33.134Z</time>
      </trkpt>
      <trkpt lat="43.6636" lon="1.45195">
        <ele>195.091631</ele>
        <time>2022-05-13T16:14:36.162Z</time>
      </trkpt>
      <trkpt lat="43.66355" lon="1.45212">
        <ele>195.114601</ele>
        <time>2022-05-13T16:14:39.155Z</time>
      </trkpt>
      <trkpt lat="43.66348" lon="1.45224">
        <ele>195.134298</ele>
        <time>2022-05-13T16:14:41.124Z</time>
      </trkpt>
      <trkpt lat="43.66343" lon="1.45235">
        <ele>195.150423</ele>
        <time>2022-05-13T16:14:43.126Z</time>
      </trkpt>
      <trkpt lat="43.66334" lon="1.45246">
        <ele>195.17125</ele>
        <time>2022-05-13T16:14:46.143Z</time>
      </trkpt>
      <trkpt lat="43.66325" lon="1.45254">
        <ele>195.189728</ele>
        <time>2022-05-13T16:14:48.147Z</time>
      </trkpt>
      <trkpt lat="43.66314" lon="1.45267">
        <ele>195.214615</ele>
        <time>2022-05-13T16:14:50.138Z</time>
      </trkpt>
      <trkpt lat="43.66306" lon="1.45284">
        <ele>195.24023</ele>
        <time>2022-05-13T16:14:52.141Z</time>
      </trkpt>
      <trkpt lat="43.66296" lon="1.45293">
        <ele>195.260716</ele>
        <time>2022-05-13T16:14:54.140Z</time>
      </trkpt>
      <trkpt lat="43.66287" lon="1.453">
        <ele>195.278421</ele>
        <time>2022-05-13T16:14:56.132Z</time>
      </trkpt>
      <trkpt lat="43.66281" lon="1.45316">
        <ele>195.281977</ele>
        <time>2022-05-13T16:14:59.145Z</time>
      </trkpt>
      <trkpt lat="43.66277" lon="1.45332">
        <ele>195.274089</ele>
        <time>2022-05-13T16:15:01.129Z</time>
      </trkpt>
      <trkpt lat="43.66275" lon="1.45348">
        <ele>195.266344</ele>
        <time>2022-05-13T16:15:03.158Z</time>
      </trkpt>
      <trkpt lat="43.66277" lon="1.45363">
        <ele>195.258788</ele>
        <time>2022-05-13T16:15:05.145Z</time>
      </trkpt>
      <trkpt lat="43.66282" lon="1.45378">
        <ele>195.251177</ele>
        <time>2022-05-13T16:15:07.159Z</time>
      </trkpt>
      <trkpt lat="43.66278" lon="1.45393">
        <ele>195.243414</ele>
        <time>2022-05-13T16:15:09.134Z</time>
      </trkpt>
      <trkpt lat="43.66273" lon="1.4541">
        <ele>195.234962</ele>
        <time>2022-05-13T16:15:11.134Z</time>
      </trkpt>
      <trkpt lat="43.66268" lon="1.45426">
        <ele>195.226431</ele>
        <time>2022-05-13T16:15:13.148Z</time>
      </trkpt>
      <trkpt lat="43.66264" lon="1.45442">
        <ele>195.218223</ele>
        <time>2022-05-13T16:15:15.147Z</time>
      </trkpt>
      <trkpt lat="43.6626" lon="1.45457">
        <ele>195.210681</ele>
        <time>2022-05-13T16:15:17.149Z</time>
      </trkpt>
      <trkpt lat="43.66256" lon="1.45471">
        <ele>195.20349</ele>
        <time>2022-05-13T16:15:19.148Z</time>
      </trkpt>
      <trkpt lat="43.66252" lon="1.45485">
        <ele>195.196312</ele>
        <time>2022-05-13T16:15:21.153Z</time>
      </trkpt>
      <trkpt lat="43.66247" lon="1.455">
        <ele>195.188648</ele>
        <time>2022-05-13T16:15:23.159Z</time>
      </trkpt>
      <trkpt lat="43.66243" lon="1.45515">
        <ele>195.180707</ele>
        <time>2022-05-13T16:15:25.147Z</time>
      </trkpt>
      <trkpt lat="43.66239" lon="1.45531">
        <ele>195.172613</ele>
        <time>2022-05-13T16:15:27.154Z</time>
      </trkpt>
      <trkpt lat="43.66235" lon="1.45546">
        <ele>195.176762</ele>
        <time>2022-05-13T16:15:29.149Z</time>
      </trkpt>
      <trkpt lat="43.66231" lon="1.4556">
        <ele>195.193742</ele>
        <time>2022-05-13T16:15:31.161Z</time>
      </trkpt>
      <trkpt lat="43.66227" lon="1.45574">
        <ele>195.210723</ele>
        <time>2022-05-13T16:15:33.149Z</time>
      </trkpt>
      <trkpt lat="43.66222" lon="1.45588">
        <ele>195.227904</ele>
        <time>2022-05-13T16:15:35.127Z</time>
      </trkpt>
      <trkpt lat="43.66218" lon="1.45602">
        <ele>195.244989</ele>
        <time>2022-05-13T16:15:37.159Z</time>
      </trkpt>
      <trkpt lat="43.66214" lon="1.45615">
        <ele>195.261123</ele>
        <time>2022-05-13T16:15:39.138Z</time>
      </trkpt>
      <trkpt lat="43.66209" lon="1.45628">
        <ele>195.277432</ele>
        <time>2022-05-13T16:15:41.138Z</time>
      </trkpt>
      <trkpt lat="43.66199" lon="1.45634">
        <ele>195.293851</ele>
        <time>2022-05-13T16:15:43.151Z</time>
      </trkpt>
      <trkpt lat="43.66191" lon="1.45628">
        <ele>195.308323</ele>
        <time>2022-05-13T16:15:45.145Z</time>
      </trkpt>
      <trkpt lat="43.66184" lon="1.45619">
        <ele>195.322837</ele>
        <time>2022-05-13T16:15:47.138Z</time>
      </trkpt>
      <trkpt lat="43.66174" lon="1.45607">
        <ele>195.343639</ele>
        <time>2022-05-13T16:15:50.135Z</time>
      </trkpt>
      <trkpt lat="43.66166" lon="1.45594">
        <ele>195.363301</ele>
        <time>2022-05-13T16:15:53.128Z</time>
      </trkpt>
      <trkpt lat="43.66157" lon="1.45584">
        <ele>195.379977</ele>
        <time>2022-05-13T16:15:56.137Z</time>
      </trkpt>
      <trkpt lat="43.66148" lon="1.45577">
        <ele>195.39597</ele>
        <time>2022-05-13T16:15:59.120Z</time>
      </trkpt>
      <trkpt lat="43.66137" lon="1.45568">
        <ele>195.41651</ele>
        <time>2022-05-13T16:16:02.145Z</time>
      </trkpt>
      <trkpt lat="43.66129" lon="1.4556">
        <ele>195.431212</ele>
        <time>2022-05-13T16:16:04.156Z</time>
      </trkpt>
      <trkpt lat="43.66121" lon="1.45553">
        <ele>195.446441</ele>
        <time>2022-05-13T16:16:06.138Z</time>
      </trkpt>
      <trkpt lat="43.66112" lon="1.45548">
        <ele>195.563337</ele>
        <time>2022-05-13T16:16:08.152Z</time>
      </trkpt>
      <trkpt lat="43.661" lon="1.4554">
        <ele>195.736594</ele>
        <time>2022-05-13T16:16:11.150Z</time>
      </trkpt>
      <trkpt lat="43.66092" lon="1.45535">
        <ele>195.865211</ele>
        <time>2022-05-13T16:16:13.149Z</time>
      </trkpt>
      <trkpt lat="43.66083" lon="1.4553">
        <ele>195.991997</ele>
        <time>2022-05-13T16:16:15.156Z</time>
      </trkpt>
      <trkpt lat="43.66073" lon="1.45534">
        <ele>196.127383</ele>
        <time>2022-05-13T16:16:17.145Z</time>
      </trkpt>
      <trkpt lat="43.66064" lon="1.45536">
        <ele>196.249871</ele>
        <time>2022-05-13T16:16:20.143Z</time>
      </trkpt>
      <trkpt lat="43.66052" lon="1.45529">
        <ele>196.42158</ele>
        <time>2022-05-13T16:16:25.132Z</time>
      </trkpt>
      <trkpt lat="43.66041" lon="1.45522">
        <ele>196.594444</ele>
        <time>2022-05-13T16:16:28.150Z</time>
      </trkpt>
      <trkpt lat="43.66032" lon="1.45516">
        <ele>196.724316</ele>
        <time>2022-05-13T16:16:30.160Z</time>
      </trkpt>
      <trkpt lat="43.66024" lon="1.45508">
        <ele>196.855563</ele>
        <time>2022-05-13T16:16:32.131Z</time>
      </trkpt>
      <trkpt lat="43.66016" lon="1.45499">
        <ele>197.000405</ele>
        <time>2022-05-13T16:16:34.137Z</time>
      </trkpt>
      <trkpt lat="43.66007" lon="1.45491">
        <ele>197.143286</ele>
        <time>2022-05-13T16:16:36.151Z</time>
      </trkpt>
      <trkpt lat="43.65997" lon="1.45485">
        <ele>197.282081</ele>
        <time>2022-05-13T16:16:38.152Z</time>
      </trkpt>
      <trkpt lat="43.65988" lon="1.45482">
        <ele>197.405326</ele>
        <time>2022-05-13T16:16:40.139Z</time>
      </trkpt>
      <trkpt lat="43.65977" lon="1.45474">
        <ele>197.577002</ele>
        <time>2022-05-13T16:16:43.128Z</time>
      </trkpt>
      <trkpt lat="43.65968" lon="1.45462">
        <ele>197.746109</ele>
        <time>2022-05-13T16:16:46.130Z</time>
      </trkpt>
      <trkpt lat="43.65959" lon="1.45455">
        <ele>197.858564</ele>
        <time>2022-05-13T16:16:48.152Z</time>
      </trkpt>
      <trkpt lat="43.65948" lon="1.45455">
        <ele>197.85805</ele>
        <time>2022-05-13T16:16:50.137Z</time>
      </trkpt>
      <trkpt lat="43.65938" lon="1.45463">
        <ele>197.857502</ele>
        <time>2022-05-13T16:16:52.147Z</time>
      </trkpt>
      <trkpt lat="43.65928" lon="1.45474">
        <ele>197.856927</ele>
        <time>2022-05-13T16:16:54.136Z</time>
      </trkpt>
      <trkpt lat="43.65917" lon="1.45479">
        <ele>197.856364</ele>
        <time>2022-05-13T16:16:56.149Z</time>
      </trkpt>
      <trkpt lat="43.65905" lon="1.4548">
        <ele>197.855784</ele>
        <time>2022-05-13T16:16:58.146Z</time>
      </trkpt>
      <trkpt lat="43.65892" lon="1.45479">
        <ele>197.855195</ele>
        <time>2022-05-13T16:17:00.137Z</time>
      </trkpt>
      <trkpt lat="43.65879" lon="1.4548">
        <ele>197.854592</ele>
        <time>2022-05-13T16:17:02.137Z</time>
      </trkpt>
      <trkpt lat="43.65866" lon="1.45481">
        <ele>197.853977</ele>
        <time>2022-05-13T16:17:04.129Z</time>
      </trkpt>
      <trkpt lat="43.65853" lon="1.45484">
        <ele>197.853346</ele>
        <time>2022-05-13T16:17:06.136Z</time>
      </trkpt>
      <trkpt lat="43.6584" lon="1.45488">
        <ele>197.852725</ele>
        <time>2022-05-13T16:17:08.134Z</time>
      </trkpt>
      <trkpt lat="43.65827" lon="1.45492">
        <ele>197.852109</ele>
        <time>2022-05-13T16:17:10.137Z</time>
      </trkpt>
      <trkpt lat="43.65814" lon="1.45497">
        <ele>197.851513</ele>
        <time>2022-05-13T16:17:12.148Z</time>
      </trkpt>
      <trkpt lat="43.65802" lon="1.455">
        <ele>197.850923</ele>
        <time>2022-05-13T16:17:14.131Z</time>
      </trkpt>
      <trkpt lat="43.6579" lon="1.45497">
        <ele>197.850356</ele>
        <time>2022-05-13T16:17:16.147Z</time>
      </trkpt>
      <trkpt lat="43.65779" lon="1.45489">
        <ele>197.737093</ele>
        <time>2022-05-13T16:17:18.156Z</time>
      </trkpt>
      <trkpt lat="43.65767" lon="1.45486">
        <ele>197.598964</ele>
        <time>2022-05-13T16:17:20.146Z</time>
      </trkpt>
      <trkpt lat="43.65755" lon="1.45484">
        <ele>197.4598</ele>
        <time>2022-05-13T16:17:22.165Z</time>
      </trkpt>
      <trkpt lat="43.65742" lon="1.45481">
        <ele>197.317923</ele>
        <time>2022-05-13T16:17:24.157Z</time>
      </trkpt>
      <trkpt lat="43.6573" lon="1.45478">
        <ele>197.178148</ele>
        <time>2022-05-13T16:17:26.157Z</time>
      </trkpt>
      <trkpt lat="43.65718" lon="1.45473">
        <ele>197.031782</ele>
        <time>2022-05-13T16:17:28.151Z</time>
      </trkpt>
      <trkpt lat="43.65705" lon="1.45468">
        <ele>196.879909</ele>
        <time>2022-05-13T16:17:30.153Z</time>
      </trkpt>
      <trkpt lat="43.65692" lon="1.45463">
        <ele>196.726308</ele>
        <time>2022-05-13T16:17:32.157Z</time>
      </trkpt>
      <trkpt lat="43.65679" lon="1.45457">
        <ele>196.571804</ele>
        <time>2022-05-13T16:17:34.130Z</time>
      </trkpt>
      <trkpt lat="43.65666" lon="1.45452">
        <ele>196.417904</ele>
        <time>2022-05-13T16:17:36.148Z</time>
      </trkpt>
      <trkpt lat="43.65653" lon="1.45446">
        <ele>196.264245</ele>
        <time>2022-05-13T16:17:38.123Z</time>
      </trkpt>
      <trkpt lat="43.6564" lon="1.45441">
        <ele>196.111057</ele>
        <time>2022-05-13T16:17:40.128Z</time>
      </trkpt>
      <trkpt lat="43.65627" lon="1.45435">
        <ele>195.957399</ele>
        <time>2022-05-13T16:17:42.123Z</time>
      </trkpt>
      <trkpt lat="43.65614" lon="1.4543">
        <ele>195.820179</ele>
        <time>2022-05-13T16:17:44.119Z</time>
      </trkpt>
      <trkpt lat="43.65602" lon="1.45424">
        <ele>195.861399</ele>
        <time>2022-05-13T16:17:46.145Z</time>
      </trkpt>
      <trkpt lat="43.6559" lon="1.4542">
        <ele>195.901331</ele>
        <time>2022-05-13T16:17:48.135Z</time>
      </trkpt>
      <trkpt lat="43.65577" lon="1.45416">
        <ele>195.941591</ele>
        <time>2022-05-13T16:17:50.141Z</time>
      </trkpt>
      <trkpt lat="43.65565" lon="1.45412">
        <ele>195.979799</ele>
        <time>2022-05-13T16:17:52.131Z</time>
      </trkpt>
      <trkpt lat="43.65554" lon="1.45408">
        <ele>196.017444</ele>
        <time>2022-05-13T16:17:54.137Z</time>
      </trkpt>
      <trkpt lat="43.65542" lon="1.45404">
        <ele>196.055141</ele>
        <time>2022-05-13T16:17:56.135Z</time>
      </trkpt>
      <trkpt lat="43.65531" lon="1.454">
        <ele>196.091846</ele>
        <time>2022-05-13T16:17:58.136Z</time>
      </trkpt>
      <trkpt lat="43.6552" lon="1.45396">
        <ele>196.128374</ele>
        <time>2022-05-13T16:18:00.130Z</time>
      </trkpt>
      <trkpt lat="43.65509" lon="1.45392">
        <ele>196.16441</ele>
        <time>2022-05-13T16:18:02.131Z</time>
      </trkpt>
      <trkpt lat="43.65498" lon="1.45387">
        <ele>196.200204</ele>
        <time>2022-05-13T16:18:04.124Z</time>
      </trkpt>
      <trkpt lat="43.65487" lon="1.45384">
        <ele>196.236063</ele>
        <time>2022-05-13T16:18:06.141Z</time>
      </trkpt>
      <trkpt lat="43.65476" lon="1.45378">
        <ele>196.271736</ele>
        <time>2022-05-13T16:18:08.123Z</time>
      </trkpt>
      <trkpt lat="43.65466" lon="1.45373">
        <ele>196.306659</ele>
        <time>2022-05-13T16:18:10.135Z</time>
      </trkpt>
      <trkpt lat="43.65456" lon="1.4537">
        <ele>196.338663</ele>
        <time>2022-05-13T16:18:12.127Z</time>
      </trkpt>
      <trkpt lat="43.65446" lon="1.45367">
        <ele>196.369434</ele>
        <time>2022-05-13T16:18:14.136Z</time>
      </trkpt>
      <trkpt lat="43.65437" lon="1.4536">
        <ele>196.342672</ele>
        <time>2022-05-13T16:18:17.136Z</time>
      </trkpt>
      <trkpt lat="43.6544" lon="1.45344">
        <ele>196.255456</ele>
        <time>2022-05-13T16:18:20.127Z</time>
      </trkpt>
      <trkpt lat="43.65447" lon="1.45336">
        <ele>196.190089</ele>
        <time>2022-05-13T16:18:22.133Z</time>
      </trkpt>
      <trkpt lat="43.65455" lon="1.45328">
        <ele>196.121757</ele>
        <time>2022-05-13T16:18:24.132Z</time>
      </trkpt>
      <trkpt lat="43.65462" lon="1.45319">
        <ele>196.052872</ele>
        <time>2022-05-13T16:18:26.135Z</time>
      </trkpt>
      <trkpt lat="43.6547" lon="1.45311">
        <ele>195.982782</ele>
        <time>2022-05-13T16:18:28.125Z</time>
      </trkpt>
      <trkpt lat="43.65479" lon="1.45302">
        <ele>195.906426</ele>
        <time>2022-05-13T16:18:30.150Z</time>
      </trkpt>
      <trkpt lat="43.65488" lon="1.45292">
        <ele>195.823225</ele>
        <time>2022-05-13T16:18:32.147Z</time>
      </trkpt>
      <trkpt lat="43.65497" lon="1.45281">
        <ele>195.738303</ele>
        <time>2022-05-13T16:18:34.134Z</time>
      </trkpt>
      <trkpt lat="43.65506" lon="1.45271">
        <ele>195.650854</ele>
        <time>2022-05-13T16:18:36.146Z</time>
      </trkpt>
      <trkpt lat="43.65515" lon="1.4526">
        <ele>195.564926</ele>
        <time>2022-05-13T16:18:38.136Z</time>
      </trkpt>
      <trkpt lat="43.65524" lon="1.45248">
        <ele>195.477463</ele>
        <time>2022-05-13T16:18:40.144Z</time>
      </trkpt>
      <trkpt lat="43.65533" lon="1.45237">
        <ele>195.394547</ele>
        <time>2022-05-13T16:18:42.134Z</time>
      </trkpt>
      <trkpt lat="43.65543" lon="1.45228">
        <ele>195.310264</ele>
        <time>2022-05-13T16:18:44.118Z</time>
      </trkpt>
      <trkpt lat="43.65552" lon="1.45218">
        <ele>195.225545</ele>
        <time>2022-05-13T16:18:46.135Z</time>
      </trkpt>
      <trkpt lat="43.65561" lon="1.45207">
        <ele>195.140077</ele>
        <time>2022-05-13T16:18:48.138Z</time>
      </trkpt>
      <trkpt lat="43.6557" lon="1.45197">
        <ele>195.118969</ele>
        <time>2022-05-13T16:18:50.132Z</time>
      </trkpt>
      <trkpt lat="43.65579" lon="1.45188">
        <ele>195.152164</ele>
        <time>2022-05-13T16:18:52.129Z</time>
      </trkpt>
      <trkpt lat="43.65589" lon="1.45178">
        <ele>195.185879</ele>
        <time>2022-05-13T16:18:54.131Z</time>
      </trkpt>
      <trkpt lat="43.65598" lon="1.45167">
        <ele>195.220074</ele>
        <time>2022-05-13T16:18:56.129Z</time>
      </trkpt>
      <trkpt lat="43.65607" lon="1.45156">
        <ele>195.254873</ele>
        <time>2022-05-13T16:18:58.138Z</time>
      </trkpt>
      <trkpt lat="43.65613" lon="1.45141">
        <ele>195.291129</ele>
        <time>2022-05-13T16:19:00.133Z</time>
      </trkpt>
      <trkpt lat="43.65617" lon="1.45127">
        <ele>195.320726</ele>
        <time>2022-05-13T16:19:02.124Z</time>
      </trkpt>
      <trkpt lat="43.6561" lon="1.4511">
        <ele>195.362286</ele>
        <time>2022-05-13T16:19:05.129Z</time>
      </trkpt>
      <trkpt lat="43.65602" lon="1.45096">
        <ele>195.398117</ele>
        <time>2022-05-13T16:19:07.134Z</time>
      </trkpt>
      <trkpt lat="43.65592" lon="1.45084">
        <ele>195.435152</ele>
        <time>2022-05-13T16:19:09.132Z</time>
      </trkpt>
      <trkpt lat="43.65583" lon="1.45072">
        <ele>195.472118</ele>
        <time>2022-05-13T16:19:11.133Z</time>
      </trkpt>
      <trkpt lat="43.65574" lon="1.4506">
        <ele>195.507756</ele>
        <time>2022-05-13T16:19:13.134Z</time>
      </trkpt>
      <trkpt lat="43.65565" lon="1.45049">
        <ele>195.542628</ele>
        <time>2022-05-13T16:19:15.134Z</time>
      </trkpt>
      <trkpt lat="43.65556" lon="1.45037">
        <ele>195.577027</ele>
        <time>2022-05-13T16:19:17.137Z</time>
      </trkpt>
      <trkpt lat="43.65548" lon="1.45025">
        <ele>195.610771</ele>
        <time>2022-05-13T16:19:19.136Z</time>
      </trkpt>
      <trkpt lat="43.6554" lon="1.45015">
        <ele>195.631591</ele>
        <time>2022-05-13T16:19:21.143Z</time>
      </trkpt>
      <trkpt lat="43.65532" lon="1.45005">
        <ele>195.651345</ele>
        <time>2022-05-13T16:19:23.124Z</time>
      </trkpt>
      <trkpt lat="43.65522" lon="1.44995">
        <ele>195.672529</ele>
        <time>2022-05-13T16:19:25.123Z</time>
      </trkpt>
      <trkpt lat="43.65514" lon="1.44985">
        <ele>195.693498</ele>
        <time>2022-05-13T16:19:27.136Z</time>
      </trkpt>
      <trkpt lat="43.65505" lon="1.44974">
        <ele>195.714864</ele>
        <time>2022-05-13T16:19:29.130Z</time>
      </trkpt>
      <trkpt lat="43.65496" lon="1.44963">
        <ele>195.735927</ele>
        <time>2022-05-13T16:19:31.131Z</time>
      </trkpt>
      <trkpt lat="43.65486" lon="1.44954">
        <ele>195.757613</ele>
        <time>2022-05-13T16:19:33.135Z</time>
      </trkpt>
      <trkpt lat="43.65478" lon="1.44943">
        <ele>195.778235</ele>
        <time>2022-05-13T16:19:35.116Z</time>
      </trkpt>
      <trkpt lat="43.65475" lon="1.44928">
        <ele>195.798855</ele>
        <time>2022-05-13T16:19:37.133Z</time>
      </trkpt>
      <trkpt lat="43.65479" lon="1.44914">
        <ele>195.818024</ele>
        <time>2022-05-13T16:19:39.135Z</time>
      </trkpt>
      <trkpt lat="43.65485" lon="1.449">
        <ele>195.839771</ele>
        <time>2022-05-13T16:19:41.129Z</time>
      </trkpt>
      <trkpt lat="43.65492" lon="1.44886">
        <ele>195.862515</ele>
        <time>2022-05-13T16:19:43.132Z</time>
      </trkpt>
      <trkpt lat="43.65499" lon="1.44871">
        <ele>195.88495</ele>
        <time>2022-05-13T16:19:45.126Z</time>
      </trkpt>
      <trkpt lat="43.65506" lon="1.44857">
        <ele>195.908128</ele>
        <time>2022-05-13T16:19:47.147Z</time>
      </trkpt>
      <trkpt lat="43.65511" lon="1.44841">
        <ele>195.931149</ele>
        <time>2022-05-13T16:19:49.132Z</time>
      </trkpt>
      <trkpt lat="43.65517" lon="1.44826">
        <ele>195.942626</ele>
        <time>2022-05-13T16:19:51.151Z</time>
      </trkpt>
      <trkpt lat="43.65525" lon="1.44813">
        <ele>195.948365</ele>
        <time>2022-05-13T16:19:53.142Z</time>
      </trkpt>
      <trkpt lat="43.65534" lon="1.44802">
        <ele>195.954029</ele>
        <time>2022-05-13T16:19:55.142Z</time>
      </trkpt>
      <trkpt lat="43.65542" lon="1.44789">
        <ele>195.959581</ele>
        <time>2022-05-13T16:19:57.138Z</time>
      </trkpt>
      <trkpt lat="43.65549" lon="1.44776">
        <ele>195.965041</ele>
        <time>2022-05-13T16:19:59.120Z</time>
      </trkpt>
      <trkpt lat="43.65555" lon="1.44763">
        <ele>195.970231</ele>
        <time>2022-05-13T16:20:01.137Z</time>
      </trkpt>
      <trkpt lat="43.65561" lon="1.44751">
        <ele>195.974986</ele>
        <time>2022-05-13T16:20:03.126Z</time>
      </trkpt>
      <trkpt lat="43.65567" lon="1.44738">
        <ele>195.980152</ele>
        <time>2022-05-13T16:20:05.136Z</time>
      </trkpt>
      <trkpt lat="43.65574" lon="1.44726">
        <ele>195.98534</ele>
        <time>2022-05-13T16:20:07.136Z</time>
      </trkpt>
      <trkpt lat="43.65581" lon="1.44712">
        <ele>195.99088</ele>
        <time>2022-05-13T16:20:09.141Z</time>
      </trkpt>
      <trkpt lat="43.65587" lon="1.447">
        <ele>195.995745</ele>
        <time>2022-05-13T16:20:11.142Z</time>
      </trkpt>
      <trkpt lat="43.65592" lon="1.44689">
        <ele>196.000262</ele>
        <time>2022-05-13T16:20:13.135Z</time>
      </trkpt>
      <trkpt lat="43.65598" lon="1.44678">
        <ele>196.004672</ele>
        <time>2022-05-13T16:20:15.123Z</time>
      </trkpt>
      <trkpt lat="43.65605" lon="1.44663">
        <ele>196.01062</ele>
        <time>2022-05-13T16:20:18.121Z</time>
      </trkpt>
      <trkpt lat="43.65607" lon="1.44651">
        <ele>196.01488</ele>
        <time>2022-05-13T16:20:22.126Z</time>
      </trkpt>
      <trkpt lat="43.656" lon="1.44641">
        <ele>196.019193</ele>
        <time>2022-05-13T16:20:29.127Z</time>
      </trkpt>
      <trkpt lat="43.65591" lon="1.44637">
        <ele>196.022067</ele>
        <time>2022-05-13T16:20:38.148Z</time>
      </trkpt>
      <trkpt lat="43.65582" lon="1.44632">
        <ele>196.022067</ele>
        <time>2022-05-13T16:20:46.133Z</time>
      </trkpt>
      <trkpt lat="43.65577" lon="1.44619">
        <ele>196.022067</ele>
        <time>2022-05-13T16:20:53.127Z</time>
      </trkpt>
      <trkpt lat="43.65568" lon="1.44611">
        <ele>196.022067</ele>
        <time>2022-05-13T16:20:57.121Z</time>
      </trkpt>
      <trkpt lat="43.65566" lon="1.4459">
        <ele>196.022067</ele>
        <time>2022-05-13T16:21:37.130Z</time>
      </trkpt>
      <trkpt lat="43.65572" lon="1.44578">
        <ele>196.022067</ele>
        <time>2022-05-13T16:21:44.135Z</time>
      </trkpt>
      <trkpt lat="43.65561" lon="1.4457">
        <ele>196.022067</ele>
        <time>2022-05-13T16:24:53.141Z</time>
      </trkpt>
      <trkpt lat="43.65552" lon="1.44575">
        <ele>196.022067</ele>
        <time>2022-05-13T16:24:59.121Z</time>
      </trkpt>
      <trkpt lat="43.65547" lon="1.44586">
        <ele>196.022067</ele>
        <time>2022-05-13T16:25:06.123Z</time>
      </trkpt>
      <trkpt lat="43.65545" lon="1.44593">
        <ele>196.022067</ele>
        <time>2022-05-13T16:25:14.651Z</time>
      </trkpt>
    </trkseg>
  </trk>
</gpx>